<?xml version="1.0" encoding="UTF-8" standalone="no" ?>
<gpx xmlns="http://www.topografix.com/GPX/1/1" xmlns:xsi="http://www.w3.org/2001/XMLSchema-instance" xsi:schemaLocation="http://www.topografix.com/GPX/1/1 http://www.topografix.com/GPX/1/1/gpx.xsd" version="1.1" creator="VisuGPX - https://www.visugpx.com">
  <metadata>
    <name>Sous Miribel</name>
    <desc><![CDATA[Sous Miribel]]></desc>
  </metadata>
  <wpt lat="45.42367" lon="5.732">
    <ele>502</ele>
    <name><![CDATA[Point de cheminement 1]]></name>
    <desc><![CDATA[]]></desc>
  </wpt>
  <wpt lat="45.43695" lon="5.72781">
    <ele>435</ele>
    <name><![CDATA[Point de cheminement 2]]></name>
    <desc><![CDATA[]]></desc>
  </wpt>
  <wpt lat="45.44036" lon="5.71744">
    <ele>471</ele>
    <name><![CDATA[Point de cheminement 3]]></name>
    <desc><![CDATA[]]></desc>
  </wpt>
  <wpt lat="45.43982" lon="5.71521">
    <ele>533</ele>
    <name><![CDATA[Point de cheminement 4]]></name>
    <desc><![CDATA[]]></desc>
  </wpt>
  <wpt lat="45.43608" lon="5.70852">
    <ele>626</ele>
    <name><![CDATA[Point de cheminement 5]]></name>
    <desc><![CDATA[]]></desc>
  </wpt>
  <wpt lat="45.43504" lon="5.69961">
    <ele>755</ele>
    <name><![CDATA[Point de cheminement 6]]></name>
    <desc><![CDATA[]]></desc>
  </wpt>
  <trk>
    <name><![CDATA[aaaaaaaaa]]></name>
    <desc><![CDATA[]]></desc>
    <trkseg>
      <trkpt lat="45.42108" lon="5.71707">
        <ele>460</ele>
        <time>2016-08-09T08:42:42.000Z</time>
      </trkpt>
      <trkpt lat="45.42102" lon="5.71707">
        <ele>460</ele>
        <time>2016-08-09T08:42:43.000Z</time>
      </trkpt>
      <trkpt lat="45.42106" lon="5.71703">
        <ele>460</ele>
        <time>2016-08-09T08:42:45.000Z</time>
      </trkpt>
      <trkpt lat="45.42105" lon="5.717">
        <ele>460</ele>
        <time>2016-08-09T08:42:46.000Z</time>
      </trkpt>
      <trkpt lat="45.42105" lon="5.71694">
        <ele>459</ele>
        <time>2016-08-09T08:42:49.000Z</time>
      </trkpt>
      <trkpt lat="45.42106" lon="5.71692">
        <ele>459</ele>
        <time>2016-08-09T08:42:50.000Z</time>
      </trkpt>
      <trkpt lat="45.42107" lon="5.71693">
        <ele>459</ele>
        <time>2016-08-09T08:43:15.000Z</time>
      </trkpt>
      <trkpt lat="45.42106" lon="5.717">
        <ele>460</ele>
        <time>2016-08-09T08:43:16.000Z</time>
      </trkpt>
      <trkpt lat="45.42104" lon="5.71702">
        <ele>460</ele>
        <time>2016-08-09T08:43:18.000Z</time>
      </trkpt>
      <trkpt lat="45.42102" lon="5.71703">
        <ele>460</ele>
        <time>2016-08-09T08:43:19.000Z</time>
      </trkpt>
      <trkpt lat="45.42099" lon="5.71704">
        <ele>460</ele>
        <time>2016-08-09T08:43:21.000Z</time>
      </trkpt>
      <trkpt lat="45.42097" lon="5.71703">
        <ele>460</ele>
        <time>2016-08-09T08:43:22.000Z</time>
      </trkpt>
      <trkpt lat="45.42095" lon="5.71708">
        <ele>460</ele>
        <time>2016-08-09T08:43:25.000Z</time>
      </trkpt>
      <trkpt lat="45.42095" lon="5.71709">
        <ele>460</ele>
        <time>2016-08-09T08:43:26.000Z</time>
      </trkpt>
      <trkpt lat="45.42093" lon="5.71713">
        <ele>461</ele>
        <time>2016-08-09T08:43:28.000Z</time>
      </trkpt>
      <trkpt lat="45.42093" lon="5.71716">
        <ele>461</ele>
        <time>2016-08-09T08:43:29.000Z</time>
      </trkpt>
      <trkpt lat="45.42091" lon="5.7172">
        <ele>462</ele>
        <time>2016-08-09T08:43:31.000Z</time>
      </trkpt>
      <trkpt lat="45.4209" lon="5.71722">
        <ele>462</ele>
        <time>2016-08-09T08:43:32.000Z</time>
      </trkpt>
      <trkpt lat="45.42087" lon="5.71726">
        <ele>462</ele>
        <time>2016-08-09T08:43:34.000Z</time>
      </trkpt>
      <trkpt lat="45.42087" lon="5.71728">
        <ele>462</ele>
        <time>2016-08-09T08:43:35.000Z</time>
      </trkpt>
      <trkpt lat="45.42086" lon="5.71732">
        <ele>463</ele>
        <time>2016-08-09T08:43:37.000Z</time>
      </trkpt>
      <trkpt lat="45.42085" lon="5.71735">
        <ele>463</ele>
        <time>2016-08-09T08:43:38.000Z</time>
      </trkpt>
      <trkpt lat="45.42082" lon="5.7174">
        <ele>464</ele>
        <time>2016-08-09T08:43:40.000Z</time>
      </trkpt>
      <trkpt lat="45.42081" lon="5.71743">
        <ele>464</ele>
        <time>2016-08-09T08:43:41.000Z</time>
      </trkpt>
      <trkpt lat="45.4208" lon="5.71749">
        <ele>465</ele>
        <time>2016-08-09T08:43:43.000Z</time>
      </trkpt>
      <trkpt lat="45.42079" lon="5.71752">
        <ele>466</ele>
        <time>2016-08-09T08:43:44.000Z</time>
      </trkpt>
      <trkpt lat="45.42078" lon="5.71757">
        <ele>466</ele>
        <time>2016-08-09T08:43:46.000Z</time>
      </trkpt>
      <trkpt lat="45.42078" lon="5.7176">
        <ele>466</ele>
        <time>2016-08-09T08:43:47.000Z</time>
      </trkpt>
      <trkpt lat="45.42076" lon="5.71765">
        <ele>467</ele>
        <time>2016-08-09T08:43:49.000Z</time>
      </trkpt>
      <trkpt lat="45.42074" lon="5.71768">
        <ele>467</ele>
        <time>2016-08-09T08:43:50.000Z</time>
      </trkpt>
      <trkpt lat="45.42072" lon="5.71774">
        <ele>467</ele>
        <time>2016-08-09T08:43:52.000Z</time>
      </trkpt>
      <trkpt lat="45.42071" lon="5.71776">
        <ele>467</ele>
        <time>2016-08-09T08:43:53.000Z</time>
      </trkpt>
      <trkpt lat="45.42071" lon="5.71782">
        <ele>467</ele>
        <time>2016-08-09T08:43:56.000Z</time>
      </trkpt>
      <trkpt lat="45.4207" lon="5.71784">
        <ele>467</ele>
        <time>2016-08-09T08:43:57.000Z</time>
      </trkpt>
      <trkpt lat="45.42069" lon="5.71789">
        <ele>468</ele>
        <time>2016-08-09T08:44:00.000Z</time>
      </trkpt>
      <trkpt lat="45.42069" lon="5.7179">
        <ele>468</ele>
        <time>2016-08-09T08:44:01.000Z</time>
      </trkpt>
      <trkpt lat="45.42068" lon="5.71795">
        <ele>468</ele>
        <time>2016-08-09T08:44:03.000Z</time>
      </trkpt>
      <trkpt lat="45.42068" lon="5.71797">
        <ele>468</ele>
        <time>2016-08-09T08:44:04.000Z</time>
      </trkpt>
      <trkpt lat="45.42067" lon="5.71802">
        <ele>468</ele>
        <time>2016-08-09T08:44:06.000Z</time>
      </trkpt>
      <trkpt lat="45.42066" lon="5.71805">
        <ele>468</ele>
        <time>2016-08-09T08:44:07.000Z</time>
      </trkpt>
      <trkpt lat="45.42065" lon="5.7181">
        <ele>468</ele>
        <time>2016-08-09T08:44:10.000Z</time>
      </trkpt>
      <trkpt lat="45.42064" lon="5.71812">
        <ele>468</ele>
        <time>2016-08-09T08:44:11.000Z</time>
      </trkpt>
      <trkpt lat="45.42063" lon="5.71817">
        <ele>469</ele>
        <time>2016-08-09T08:44:14.000Z</time>
      </trkpt>
      <trkpt lat="45.42063" lon="5.71819">
        <ele>469</ele>
        <time>2016-08-09T08:44:15.000Z</time>
      </trkpt>
      <trkpt lat="45.42063" lon="5.71825">
        <ele>469</ele>
        <time>2016-08-09T08:44:18.000Z</time>
      </trkpt>
      <trkpt lat="45.42063" lon="5.71827">
        <ele>469</ele>
        <time>2016-08-09T08:44:19.000Z</time>
      </trkpt>
      <trkpt lat="45.42061" lon="5.71831">
        <ele>469</ele>
        <time>2016-08-09T08:44:22.000Z</time>
      </trkpt>
      <trkpt lat="45.42061" lon="5.71832">
        <ele>469</ele>
        <time>2016-08-09T08:44:23.000Z</time>
      </trkpt>
      <trkpt lat="45.4206" lon="5.71838">
        <ele>474</ele>
        <time>2016-08-09T08:44:26.000Z</time>
      </trkpt>
      <trkpt lat="45.4206" lon="5.71839">
        <ele>474</ele>
        <time>2016-08-09T08:44:27.000Z</time>
      </trkpt>
      <trkpt lat="45.42058" lon="5.71844">
        <ele>475</ele>
        <time>2016-08-09T08:44:31.000Z</time>
      </trkpt>
      <trkpt lat="45.42057" lon="5.71845">
        <ele>475</ele>
        <time>2016-08-09T08:44:32.000Z</time>
      </trkpt>
      <trkpt lat="45.42056" lon="5.7185">
        <ele>475</ele>
        <time>2016-08-09T08:44:35.000Z</time>
      </trkpt>
      <trkpt lat="45.42056" lon="5.71853">
        <ele>476</ele>
        <time>2016-08-09T08:44:36.000Z</time>
      </trkpt>
      <trkpt lat="45.42056" lon="5.71859">
        <ele>476</ele>
        <time>2016-08-09T08:44:39.000Z</time>
      </trkpt>
      <trkpt lat="45.42055" lon="5.7186">
        <ele>476</ele>
        <time>2016-08-09T08:44:40.000Z</time>
      </trkpt>
      <trkpt lat="45.42055" lon="5.71864">
        <ele>477</ele>
        <time>2016-08-09T08:44:43.000Z</time>
      </trkpt>
      <trkpt lat="45.42055" lon="5.71866">
        <ele>477</ele>
        <time>2016-08-09T08:44:44.000Z</time>
      </trkpt>
      <trkpt lat="45.42054" lon="5.71872">
        <ele>477</ele>
        <time>2016-08-09T08:44:47.000Z</time>
      </trkpt>
      <trkpt lat="45.42054" lon="5.71873">
        <ele>477</ele>
        <time>2016-08-09T08:44:48.000Z</time>
      </trkpt>
      <trkpt lat="45.42054" lon="5.71878">
        <ele>478</ele>
        <time>2016-08-09T08:44:50.000Z</time>
      </trkpt>
      <trkpt lat="45.42054" lon="5.7188">
        <ele>478</ele>
        <time>2016-08-09T08:44:51.000Z</time>
      </trkpt>
      <trkpt lat="45.42054" lon="5.71886">
        <ele>478</ele>
        <time>2016-08-09T08:44:55.000Z</time>
      </trkpt>
      <trkpt lat="45.42053" lon="5.71887">
        <ele>478</ele>
        <time>2016-08-09T08:44:56.000Z</time>
      </trkpt>
      <trkpt lat="45.42051" lon="5.71892">
        <ele>479</ele>
        <time>2016-08-09T08:45:00.000Z</time>
      </trkpt>
      <trkpt lat="45.42051" lon="5.71893">
        <ele>479</ele>
        <time>2016-08-09T08:45:01.000Z</time>
      </trkpt>
      <trkpt lat="45.42052" lon="5.71898">
        <ele>479</ele>
        <time>2016-08-09T08:45:03.000Z</time>
      </trkpt>
      <trkpt lat="45.42052" lon="5.71901">
        <ele>479</ele>
        <time>2016-08-09T08:45:04.000Z</time>
      </trkpt>
      <trkpt lat="45.42051" lon="5.71904">
        <ele>480</ele>
        <time>2016-08-09T08:45:05.000Z</time>
      </trkpt>
      <trkpt lat="45.4205" lon="5.71908">
        <ele>480</ele>
        <time>2016-08-09T08:45:06.000Z</time>
      </trkpt>
      <trkpt lat="45.4205" lon="5.71913">
        <ele>480</ele>
        <time>2016-08-09T08:45:09.000Z</time>
      </trkpt>
      <trkpt lat="45.4205" lon="5.71914">
        <ele>480</ele>
        <time>2016-08-09T08:45:10.000Z</time>
      </trkpt>
      <trkpt lat="45.42048" lon="5.71918">
        <ele>487</ele>
        <time>2016-08-09T08:45:14.000Z</time>
      </trkpt>
      <trkpt lat="45.42047" lon="5.7192">
        <ele>487</ele>
        <time>2016-08-09T08:45:15.000Z</time>
      </trkpt>
      <trkpt lat="45.42046" lon="5.71926">
        <ele>488</ele>
        <time>2016-08-09T08:45:18.000Z</time>
      </trkpt>
      <trkpt lat="45.42046" lon="5.71927">
        <ele>488</ele>
        <time>2016-08-09T08:45:19.000Z</time>
      </trkpt>
      <trkpt lat="45.42043" lon="5.7193">
        <ele>488</ele>
        <time>2016-08-09T08:45:28.000Z</time>
      </trkpt>
      <trkpt lat="45.42042" lon="5.7193">
        <ele>488</ele>
        <time>2016-08-09T08:45:29.000Z</time>
      </trkpt>
      <trkpt lat="45.42039" lon="5.71934">
        <ele>488</ele>
        <time>2016-08-09T08:45:33.000Z</time>
      </trkpt>
      <trkpt lat="45.42039" lon="5.71936">
        <ele>488</ele>
        <time>2016-08-09T08:45:34.000Z</time>
      </trkpt>
      <trkpt lat="45.42038" lon="5.71941">
        <ele>489</ele>
        <time>2016-08-09T08:45:39.000Z</time>
      </trkpt>
      <trkpt lat="45.42037" lon="5.71943">
        <ele>489</ele>
        <time>2016-08-09T08:45:40.000Z</time>
      </trkpt>
      <trkpt lat="45.42038" lon="5.71948">
        <ele>489</ele>
        <time>2016-08-09T08:45:42.000Z</time>
      </trkpt>
      <trkpt lat="45.42038" lon="5.7195">
        <ele>489</ele>
        <time>2016-08-09T08:45:43.000Z</time>
      </trkpt>
      <trkpt lat="45.42036" lon="5.71956">
        <ele>490</ele>
        <time>2016-08-09T08:45:47.000Z</time>
      </trkpt>
      <trkpt lat="45.42036" lon="5.71957">
        <ele>490</ele>
        <time>2016-08-09T08:45:48.000Z</time>
      </trkpt>
      <trkpt lat="45.42033" lon="5.71961">
        <ele>490</ele>
        <time>2016-08-09T08:45:53.000Z</time>
      </trkpt>
      <trkpt lat="45.42032" lon="5.71961">
        <ele>490</ele>
        <time>2016-08-09T08:45:54.000Z</time>
      </trkpt>
      <trkpt lat="45.42029" lon="5.71965">
        <ele>490</ele>
        <time>2016-08-09T08:45:58.000Z</time>
      </trkpt>
      <trkpt lat="45.42029" lon="5.71966">
        <ele>491</ele>
        <time>2016-08-09T08:45:59.000Z</time>
      </trkpt>
      <trkpt lat="45.42027" lon="5.71971">
        <ele>491</ele>
        <time>2016-08-09T08:46:04.000Z</time>
      </trkpt>
      <trkpt lat="45.42026" lon="5.71972">
        <ele>491</ele>
        <time>2016-08-09T08:46:05.000Z</time>
      </trkpt>
      <trkpt lat="45.42023" lon="5.71976">
        <ele>492</ele>
        <time>2016-08-09T08:46:10.000Z</time>
      </trkpt>
      <trkpt lat="45.42022" lon="5.71976">
        <ele>492</ele>
        <time>2016-08-09T08:46:11.000Z</time>
      </trkpt>
      <trkpt lat="45.4202" lon="5.71981">
        <ele>492</ele>
        <time>2016-08-09T08:46:16.000Z</time>
      </trkpt>
      <trkpt lat="45.42019" lon="5.71982">
        <ele>492</ele>
        <time>2016-08-09T08:46:17.000Z</time>
      </trkpt>
      <trkpt lat="45.42017" lon="5.71987">
        <ele>493</ele>
        <time>2016-08-09T08:46:21.000Z</time>
      </trkpt>
      <trkpt lat="45.42017" lon="5.71988">
        <ele>493</ele>
        <time>2016-08-09T08:46:22.000Z</time>
      </trkpt>
      <trkpt lat="45.42016" lon="5.71992">
        <ele>494</ele>
        <time>2016-08-09T08:46:25.000Z</time>
      </trkpt>
      <trkpt lat="45.42015" lon="5.71994">
        <ele>494</ele>
        <time>2016-08-09T08:46:26.000Z</time>
      </trkpt>
      <trkpt lat="45.42014" lon="5.71998">
        <ele>494</ele>
        <time>2016-08-09T08:46:28.000Z</time>
      </trkpt>
      <trkpt lat="45.42013" lon="5.72">
        <ele>495</ele>
        <time>2016-08-09T08:46:29.000Z</time>
      </trkpt>
      <trkpt lat="45.42012" lon="5.72005">
        <ele>498</ele>
        <time>2016-08-09T08:46:31.000Z</time>
      </trkpt>
      <trkpt lat="45.4201" lon="5.72007">
        <ele>498</ele>
        <time>2016-08-09T08:46:32.000Z</time>
      </trkpt>
      <trkpt lat="45.42008" lon="5.72009">
        <ele>498</ele>
        <time>2016-08-09T08:46:33.000Z</time>
      </trkpt>
      <trkpt lat="45.42006" lon="5.72012">
        <ele>498</ele>
        <time>2016-08-09T08:46:34.000Z</time>
      </trkpt>
      <trkpt lat="45.42004" lon="5.72014">
        <ele>498</ele>
        <time>2016-08-09T08:46:35.000Z</time>
      </trkpt>
      <trkpt lat="45.42003" lon="5.72017">
        <ele>498</ele>
        <time>2016-08-09T08:46:36.000Z</time>
      </trkpt>
      <trkpt lat="45.42002" lon="5.72019">
        <ele>498</ele>
        <time>2016-08-09T08:46:37.000Z</time>
      </trkpt>
      <trkpt lat="45.42001" lon="5.72022">
        <ele>498</ele>
        <time>2016-08-09T08:46:38.000Z</time>
      </trkpt>
      <trkpt lat="45.42" lon="5.72025">
        <ele>500</ele>
        <time>2016-08-09T08:46:39.000Z</time>
      </trkpt>
      <trkpt lat="45.41999" lon="5.72029">
        <ele>500</ele>
        <time>2016-08-09T08:46:40.000Z</time>
      </trkpt>
      <trkpt lat="45.41999" lon="5.72034">
        <ele>501</ele>
        <time>2016-08-09T08:46:41.000Z</time>
      </trkpt>
      <trkpt lat="45.41999" lon="5.72039">
        <ele>501</ele>
        <time>2016-08-09T08:46:42.000Z</time>
      </trkpt>
      <trkpt lat="45.41998" lon="5.72043">
        <ele>501</ele>
        <time>2016-08-09T08:46:43.000Z</time>
      </trkpt>
      <trkpt lat="45.41998" lon="5.72046">
        <ele>501</ele>
        <time>2016-08-09T08:46:44.000Z</time>
      </trkpt>
      <trkpt lat="45.41998" lon="5.72052">
        <ele>502</ele>
        <time>2016-08-09T08:46:46.000Z</time>
      </trkpt>
      <trkpt lat="45.41998" lon="5.72054">
        <ele>502</ele>
        <time>2016-08-09T08:46:47.000Z</time>
      </trkpt>
      <trkpt lat="45.41996" lon="5.72059">
        <ele>502</ele>
        <time>2016-08-09T08:46:50.000Z</time>
      </trkpt>
      <trkpt lat="45.41995" lon="5.72062">
        <ele>502</ele>
        <time>2016-08-09T08:46:51.000Z</time>
      </trkpt>
      <trkpt lat="45.41994" lon="5.72068">
        <ele>503</ele>
        <time>2016-08-09T08:46:54.000Z</time>
      </trkpt>
      <trkpt lat="45.41994" lon="5.72069">
        <ele>503</ele>
        <time>2016-08-09T08:46:55.000Z</time>
      </trkpt>
      <trkpt lat="45.41993" lon="5.72075">
        <ele>503</ele>
        <time>2016-08-09T08:46:58.000Z</time>
      </trkpt>
      <trkpt lat="45.41992" lon="5.72076">
        <ele>503</ele>
        <time>2016-08-09T08:46:59.000Z</time>
      </trkpt>
      <trkpt lat="45.41991" lon="5.72081">
        <ele>503</ele>
        <time>2016-08-09T08:47:02.000Z</time>
      </trkpt>
      <trkpt lat="45.41991" lon="5.72083">
        <ele>503</ele>
        <time>2016-08-09T08:47:03.000Z</time>
      </trkpt>
      <trkpt lat="45.41991" lon="5.72089">
        <ele>506</ele>
        <time>2016-08-09T08:47:06.000Z</time>
      </trkpt>
      <trkpt lat="45.41991" lon="5.72091">
        <ele>506</ele>
        <time>2016-08-09T08:47:07.000Z</time>
      </trkpt>
      <trkpt lat="45.4199" lon="5.72097">
        <ele>506</ele>
        <time>2016-08-09T08:47:10.000Z</time>
      </trkpt>
      <trkpt lat="45.4199" lon="5.72099">
        <ele>507</ele>
        <time>2016-08-09T08:47:11.000Z</time>
      </trkpt>
      <trkpt lat="45.41988" lon="5.72103">
        <ele>507</ele>
        <time>2016-08-09T08:47:15.000Z</time>
      </trkpt>
      <trkpt lat="45.41987" lon="5.72104">
        <ele>507</ele>
        <time>2016-08-09T08:47:16.000Z</time>
      </trkpt>
      <trkpt lat="45.41985" lon="5.72109">
        <ele>507</ele>
        <time>2016-08-09T08:47:21.000Z</time>
      </trkpt>
      <trkpt lat="45.41984" lon="5.7211">
        <ele>507</ele>
        <time>2016-08-09T08:47:22.000Z</time>
      </trkpt>
      <trkpt lat="45.41983" lon="5.72114">
        <ele>508</ele>
        <time>2016-08-09T08:47:24.000Z</time>
      </trkpt>
      <trkpt lat="45.41982" lon="5.72116">
        <ele>508</ele>
        <time>2016-08-09T08:47:25.000Z</time>
      </trkpt>
      <trkpt lat="45.41981" lon="5.72121">
        <ele>508</ele>
        <time>2016-08-09T08:47:30.000Z</time>
      </trkpt>
      <trkpt lat="45.4198" lon="5.72122">
        <ele>508</ele>
        <time>2016-08-09T08:47:31.000Z</time>
      </trkpt>
      <trkpt lat="45.41981" lon="5.72128">
        <ele>509</ele>
        <time>2016-08-09T08:47:37.000Z</time>
      </trkpt>
      <trkpt lat="45.41981" lon="5.7213">
        <ele>509</ele>
        <time>2016-08-09T08:47:38.000Z</time>
      </trkpt>
      <trkpt lat="45.41979" lon="5.72135">
        <ele>509</ele>
        <time>2016-08-09T08:47:42.000Z</time>
      </trkpt>
      <trkpt lat="45.41979" lon="5.72137">
        <ele>509</ele>
        <time>2016-08-09T08:47:43.000Z</time>
      </trkpt>
      <trkpt lat="45.41977" lon="5.72141">
        <ele>509</ele>
        <time>2016-08-09T08:47:46.000Z</time>
      </trkpt>
      <trkpt lat="45.41976" lon="5.72143">
        <ele>509</ele>
        <time>2016-08-09T08:47:47.000Z</time>
      </trkpt>
      <trkpt lat="45.41975" lon="5.72148">
        <ele>509</ele>
        <time>2016-08-09T08:47:50.000Z</time>
      </trkpt>
      <trkpt lat="45.41974" lon="5.72149">
        <ele>509</ele>
        <time>2016-08-09T08:47:51.000Z</time>
      </trkpt>
      <trkpt lat="45.41973" lon="5.72155">
        <ele>510</ele>
        <time>2016-08-09T08:47:55.000Z</time>
      </trkpt>
      <trkpt lat="45.41972" lon="5.72156">
        <ele>510</ele>
        <time>2016-08-09T08:47:56.000Z</time>
      </trkpt>
      <trkpt lat="45.4197" lon="5.72161">
        <ele>510</ele>
        <time>2016-08-09T08:47:59.000Z</time>
      </trkpt>
      <trkpt lat="45.4197" lon="5.72163">
        <ele>510</ele>
        <time>2016-08-09T08:48:00.000Z</time>
      </trkpt>
      <trkpt lat="45.41969" lon="5.72167">
        <ele>516</ele>
        <time>2016-08-09T08:48:02.000Z</time>
      </trkpt>
      <trkpt lat="45.41968" lon="5.72169">
        <ele>516</ele>
        <time>2016-08-09T08:48:03.000Z</time>
      </trkpt>
      <trkpt lat="45.41966" lon="5.72174">
        <ele>516</ele>
        <time>2016-08-09T08:48:05.000Z</time>
      </trkpt>
      <trkpt lat="45.41966" lon="5.72176">
        <ele>516</ele>
        <time>2016-08-09T08:48:06.000Z</time>
      </trkpt>
      <trkpt lat="45.41965" lon="5.72182">
        <ele>517</ele>
        <time>2016-08-09T08:48:09.000Z</time>
      </trkpt>
      <trkpt lat="45.41965" lon="5.72184">
        <ele>517</ele>
        <time>2016-08-09T08:48:10.000Z</time>
      </trkpt>
      <trkpt lat="45.41964" lon="5.72188">
        <ele>517</ele>
        <time>2016-08-09T08:48:12.000Z</time>
      </trkpt>
      <trkpt lat="45.41964" lon="5.7219">
        <ele>517</ele>
        <time>2016-08-09T08:48:13.000Z</time>
      </trkpt>
      <trkpt lat="45.41963" lon="5.72194">
        <ele>518</ele>
        <time>2016-08-09T08:48:15.000Z</time>
      </trkpt>
      <trkpt lat="45.41962" lon="5.72197">
        <ele>518</ele>
        <time>2016-08-09T08:48:16.000Z</time>
      </trkpt>
      <trkpt lat="45.4196" lon="5.72201">
        <ele>518</ele>
        <time>2016-08-09T08:48:18.000Z</time>
      </trkpt>
      <trkpt lat="45.41959" lon="5.72203">
        <ele>518</ele>
        <time>2016-08-09T08:48:19.000Z</time>
      </trkpt>
      <trkpt lat="45.41957" lon="5.72207">
        <ele>519</ele>
        <time>2016-08-09T08:48:21.000Z</time>
      </trkpt>
      <trkpt lat="45.41955" lon="5.72209">
        <ele>519</ele>
        <time>2016-08-09T08:48:22.000Z</time>
      </trkpt>
      <trkpt lat="45.41955" lon="5.72213">
        <ele>519</ele>
        <time>2016-08-09T08:48:23.000Z</time>
      </trkpt>
      <trkpt lat="45.41954" lon="5.72217">
        <ele>520</ele>
        <time>2016-08-09T08:48:24.000Z</time>
      </trkpt>
      <trkpt lat="45.41953" lon="5.7222">
        <ele>520</ele>
        <time>2016-08-09T08:48:25.000Z</time>
      </trkpt>
      <trkpt lat="45.41952" lon="5.72224">
        <ele>520</ele>
        <time>2016-08-09T08:48:26.000Z</time>
      </trkpt>
      <trkpt lat="45.4195" lon="5.72229">
        <ele>521</ele>
        <time>2016-08-09T08:48:27.999Z</time>
      </trkpt>
      <trkpt lat="45.41949" lon="5.7223">
        <ele>521</ele>
        <time>2016-08-09T08:48:29.000Z</time>
      </trkpt>
      <trkpt lat="45.41947" lon="5.72234">
        <ele>521</ele>
        <time>2016-08-09T08:48:32.000Z</time>
      </trkpt>
      <trkpt lat="45.41946" lon="5.72235">
        <ele>521</ele>
        <time>2016-08-09T08:48:33.000Z</time>
      </trkpt>
      <trkpt lat="45.41945" lon="5.72239">
        <ele>522</ele>
        <time>2016-08-09T08:48:36.000Z</time>
      </trkpt>
      <trkpt lat="45.41944" lon="5.72242">
        <ele>522</ele>
        <time>2016-08-09T08:48:37.000Z</time>
      </trkpt>
      <trkpt lat="45.41944" lon="5.72246">
        <ele>522</ele>
        <time>2016-08-09T08:48:39.000Z</time>
      </trkpt>
      <trkpt lat="45.41943" lon="5.72248">
        <ele>523</ele>
        <time>2016-08-09T08:48:40.000Z</time>
      </trkpt>
      <trkpt lat="45.41942" lon="5.72252">
        <ele>528</ele>
        <time>2016-08-09T08:48:42.000Z</time>
      </trkpt>
      <trkpt lat="45.41941" lon="5.72254">
        <ele>528</ele>
        <time>2016-08-09T08:48:43.000Z</time>
      </trkpt>
      <trkpt lat="45.41939" lon="5.72259">
        <ele>529</ele>
        <time>2016-08-09T08:48:46.000Z</time>
      </trkpt>
      <trkpt lat="45.41939" lon="5.72262">
        <ele>529</ele>
        <time>2016-08-09T08:48:47.000Z</time>
      </trkpt>
      <trkpt lat="45.41938" lon="5.72268">
        <ele>529</ele>
        <time>2016-08-09T08:48:50.000Z</time>
      </trkpt>
      <trkpt lat="45.41938" lon="5.72269">
        <ele>529</ele>
        <time>2016-08-09T08:48:51.000Z</time>
      </trkpt>
      <trkpt lat="45.41937" lon="5.72273">
        <ele>529</ele>
        <time>2016-08-09T08:48:53.000Z</time>
      </trkpt>
      <trkpt lat="45.41936" lon="5.72275">
        <ele>529</ele>
        <time>2016-08-09T08:48:54.000Z</time>
      </trkpt>
      <trkpt lat="45.41935" lon="5.72269">
        <ele>529</ele>
        <time>2016-08-09T08:49:04.000Z</time>
      </trkpt>
      <trkpt lat="45.41934" lon="5.72268">
        <ele>529</ele>
        <time>2016-08-09T08:49:05.000Z</time>
      </trkpt>
      <trkpt lat="45.4193" lon="5.72269">
        <ele>529</ele>
        <time>2016-08-09T08:49:14.000Z</time>
      </trkpt>
      <trkpt lat="45.41929" lon="5.72269">
        <ele>529</ele>
        <time>2016-08-09T08:49:15.000Z</time>
      </trkpt>
      <trkpt lat="45.41933" lon="5.72265">
        <ele>529</ele>
        <time>2016-08-09T08:50:05.000Z</time>
      </trkpt>
      <trkpt lat="45.41933" lon="5.72265">
        <ele>529</ele>
        <time>2016-08-09T08:50:06.000Z</time>
      </trkpt>
      <trkpt lat="45.41936" lon="5.72262">
        <ele>529</ele>
        <time>2016-08-09T08:52:16.000Z</time>
      </trkpt>
      <trkpt lat="45.41937" lon="5.72263">
        <ele>529</ele>
        <time>2016-08-09T08:52:17.000Z</time>
      </trkpt>
      <trkpt lat="45.41941" lon="5.72265">
        <ele>529</ele>
        <time>2016-08-09T08:52:20.000Z</time>
      </trkpt>
      <trkpt lat="45.41943" lon="5.72266">
        <ele>529</ele>
        <time>2016-08-09T08:52:21.000Z</time>
      </trkpt>
      <trkpt lat="45.41946" lon="5.72267">
        <ele>528</ele>
        <time>2016-08-09T08:52:23.000Z</time>
      </trkpt>
      <trkpt lat="45.41948" lon="5.72268">
        <ele>528</ele>
        <time>2016-08-09T08:52:24.000Z</time>
      </trkpt>
      <trkpt lat="45.41951" lon="5.7227">
        <ele>528</ele>
        <time>2016-08-09T08:52:26.000Z</time>
      </trkpt>
      <trkpt lat="45.41953" lon="5.72272">
        <ele>528</ele>
        <time>2016-08-09T08:52:27.000Z</time>
      </trkpt>
      <trkpt lat="45.41956" lon="5.72274">
        <ele>528</ele>
        <time>2016-08-09T08:52:29.000Z</time>
      </trkpt>
      <trkpt lat="45.41958" lon="5.72275">
        <ele>528</ele>
        <time>2016-08-09T08:52:30.000Z</time>
      </trkpt>
      <trkpt lat="45.41961" lon="5.72278">
        <ele>528</ele>
        <time>2016-08-09T08:52:32.000Z</time>
      </trkpt>
      <trkpt lat="45.41963" lon="5.72279">
        <ele>528</ele>
        <time>2016-08-09T08:52:33.000Z</time>
      </trkpt>
      <trkpt lat="45.41965" lon="5.72281">
        <ele>528</ele>
        <time>2016-08-09T08:52:34.000Z</time>
      </trkpt>
      <trkpt lat="45.41967" lon="5.72282">
        <ele>528</ele>
        <time>2016-08-09T08:52:35.000Z</time>
      </trkpt>
      <trkpt lat="45.4197" lon="5.72284">
        <ele>528</ele>
        <time>2016-08-09T08:52:36.000Z</time>
      </trkpt>
      <trkpt lat="45.41973" lon="5.72286">
        <ele>528</ele>
        <time>2016-08-09T08:52:37.000Z</time>
      </trkpt>
      <trkpt lat="45.41976" lon="5.72287">
        <ele>528</ele>
        <time>2016-08-09T08:52:38.000Z</time>
      </trkpt>
      <trkpt lat="45.41979" lon="5.72289">
        <ele>528</ele>
        <time>2016-08-09T08:52:39.000Z</time>
      </trkpt>
      <trkpt lat="45.41982" lon="5.72291">
        <ele>528</ele>
        <time>2016-08-09T08:52:40.000Z</time>
      </trkpt>
      <trkpt lat="45.41985" lon="5.72294">
        <ele>528</ele>
        <time>2016-08-09T08:52:41.000Z</time>
      </trkpt>
      <trkpt lat="45.41988" lon="5.72296">
        <ele>528</ele>
        <time>2016-08-09T08:52:42.000Z</time>
      </trkpt>
      <trkpt lat="45.41991" lon="5.72299">
        <ele>528</ele>
        <time>2016-08-09T08:52:43.000Z</time>
      </trkpt>
      <trkpt lat="45.41994" lon="5.72302">
        <ele>528</ele>
        <time>2016-08-09T08:52:44.000Z</time>
      </trkpt>
      <trkpt lat="45.41998" lon="5.72304">
        <ele>528</ele>
        <time>2016-08-09T08:52:45.000Z</time>
      </trkpt>
      <trkpt lat="45.42001" lon="5.72307">
        <ele>523</ele>
        <time>2016-08-09T08:52:46.000Z</time>
      </trkpt>
      <trkpt lat="45.42004" lon="5.7231">
        <ele>523</ele>
        <time>2016-08-09T08:52:47.000Z</time>
      </trkpt>
      <trkpt lat="45.42007" lon="5.72313">
        <ele>524</ele>
        <time>2016-08-09T08:52:48.000Z</time>
      </trkpt>
      <trkpt lat="45.4201" lon="5.72315">
        <ele>524</ele>
        <time>2016-08-09T08:52:49.000Z</time>
      </trkpt>
      <trkpt lat="45.42012" lon="5.72318">
        <ele>524</ele>
        <time>2016-08-09T08:52:50.000Z</time>
      </trkpt>
      <trkpt lat="45.42015" lon="5.72321">
        <ele>524</ele>
        <time>2016-08-09T08:52:51.000Z</time>
      </trkpt>
      <trkpt lat="45.42018" lon="5.72324">
        <ele>524</ele>
        <time>2016-08-09T08:52:52.000Z</time>
      </trkpt>
      <trkpt lat="45.42021" lon="5.72327">
        <ele>524</ele>
        <time>2016-08-09T08:52:53.000Z</time>
      </trkpt>
      <trkpt lat="45.42024" lon="5.7233">
        <ele>523</ele>
        <time>2016-08-09T08:52:54.000Z</time>
      </trkpt>
      <trkpt lat="45.42026" lon="5.72332">
        <ele>523</ele>
        <time>2016-08-09T08:52:55.000Z</time>
      </trkpt>
      <trkpt lat="45.42029" lon="5.72335">
        <ele>529</ele>
        <time>2016-08-09T08:52:56.000Z</time>
      </trkpt>
      <trkpt lat="45.42031" lon="5.72339">
        <ele>528</ele>
        <time>2016-08-09T08:52:57.000Z</time>
      </trkpt>
      <trkpt lat="45.42033" lon="5.72342">
        <ele>528</ele>
        <time>2016-08-09T08:52:58.000Z</time>
      </trkpt>
      <trkpt lat="45.42035" lon="5.72346">
        <ele>528</ele>
        <time>2016-08-09T08:52:59.000Z</time>
      </trkpt>
      <trkpt lat="45.42037" lon="5.72349">
        <ele>528</ele>
        <time>2016-08-09T08:53:00.000Z</time>
      </trkpt>
      <trkpt lat="45.42038" lon="5.72352">
        <ele>528</ele>
        <time>2016-08-09T08:53:01.000Z</time>
      </trkpt>
      <trkpt lat="45.4204" lon="5.72354">
        <ele>528</ele>
        <time>2016-08-09T08:53:02.000Z</time>
      </trkpt>
      <trkpt lat="45.42042" lon="5.72356">
        <ele>528</ele>
        <time>2016-08-09T08:53:03.000Z</time>
      </trkpt>
      <trkpt lat="45.42044" lon="5.72358">
        <ele>528</ele>
        <time>2016-08-09T08:53:04.000Z</time>
      </trkpt>
      <trkpt lat="45.42047" lon="5.72361">
        <ele>528</ele>
        <time>2016-08-09T08:53:05.000Z</time>
      </trkpt>
      <trkpt lat="45.42049" lon="5.72365">
        <ele>528</ele>
        <time>2016-08-09T08:53:06.000Z</time>
      </trkpt>
      <trkpt lat="45.42052" lon="5.72368">
        <ele>528</ele>
        <time>2016-08-09T08:53:07.000Z</time>
      </trkpt>
      <trkpt lat="45.42054" lon="5.72372">
        <ele>528</ele>
        <time>2016-08-09T08:53:08.000Z</time>
      </trkpt>
      <trkpt lat="45.42056" lon="5.72376">
        <ele>529</ele>
        <time>2016-08-09T08:53:09.000Z</time>
      </trkpt>
      <trkpt lat="45.42058" lon="5.72379">
        <ele>529</ele>
        <time>2016-08-09T08:53:10.000Z</time>
      </trkpt>
      <trkpt lat="45.4206" lon="5.72382">
        <ele>529</ele>
        <time>2016-08-09T08:53:11.000Z</time>
      </trkpt>
      <trkpt lat="45.42063" lon="5.72386">
        <ele>529</ele>
        <time>2016-08-09T08:53:12.000Z</time>
      </trkpt>
      <trkpt lat="45.42067" lon="5.7239">
        <ele>529</ele>
        <time>2016-08-09T08:53:13.000Z</time>
      </trkpt>
      <trkpt lat="45.4207" lon="5.72393">
        <ele>530</ele>
        <time>2016-08-09T08:53:14.000Z</time>
      </trkpt>
      <trkpt lat="45.42073" lon="5.72397">
        <ele>530</ele>
        <time>2016-08-09T08:53:15.000Z</time>
      </trkpt>
      <trkpt lat="45.42076" lon="5.72401">
        <ele>530</ele>
        <time>2016-08-09T08:53:16.000Z</time>
      </trkpt>
      <trkpt lat="45.4208" lon="5.72404">
        <ele>530</ele>
        <time>2016-08-09T08:53:17.000Z</time>
      </trkpt>
      <trkpt lat="45.42083" lon="5.72406">
        <ele>530</ele>
        <time>2016-08-09T08:53:18.000Z</time>
      </trkpt>
      <trkpt lat="45.42086" lon="5.72408">
        <ele>527</ele>
        <time>2016-08-09T08:53:19.000Z</time>
      </trkpt>
      <trkpt lat="45.4209" lon="5.72409">
        <ele>527</ele>
        <time>2016-08-09T08:53:20.000Z</time>
      </trkpt>
      <trkpt lat="45.42092" lon="5.72409">
        <ele>526</ele>
        <time>2016-08-09T08:53:21.000Z</time>
      </trkpt>
      <trkpt lat="45.42096" lon="5.7241">
        <ele>525</ele>
        <time>2016-08-09T08:53:23.000Z</time>
      </trkpt>
      <trkpt lat="45.42097" lon="5.7241">
        <ele>525</ele>
        <time>2016-08-09T08:53:24.000Z</time>
      </trkpt>
      <trkpt lat="45.42101" lon="5.72412">
        <ele>524</ele>
        <time>2016-08-09T08:53:26.000Z</time>
      </trkpt>
      <trkpt lat="45.42103" lon="5.72414">
        <ele>524</ele>
        <time>2016-08-09T08:53:27.000Z</time>
      </trkpt>
      <trkpt lat="45.42106" lon="5.72416">
        <ele>523</ele>
        <time>2016-08-09T08:53:28.000Z</time>
      </trkpt>
      <trkpt lat="45.42108" lon="5.72419">
        <ele>527</ele>
        <time>2016-08-09T08:53:29.000Z</time>
      </trkpt>
      <trkpt lat="45.4211" lon="5.72422">
        <ele>526</ele>
        <time>2016-08-09T08:53:30.000Z</time>
      </trkpt>
      <trkpt lat="45.42113" lon="5.72426">
        <ele>526</ele>
        <time>2016-08-09T08:53:31.000Z</time>
      </trkpt>
      <trkpt lat="45.42116" lon="5.7243">
        <ele>526</ele>
        <time>2016-08-09T08:53:32.000Z</time>
      </trkpt>
      <trkpt lat="45.42119" lon="5.72435">
        <ele>525</ele>
        <time>2016-08-09T08:53:33.000Z</time>
      </trkpt>
      <trkpt lat="45.42126" lon="5.7245">
        <ele>525</ele>
        <time>2016-08-09T08:53:34.000Z</time>
      </trkpt>
      <trkpt lat="45.4213" lon="5.72457">
        <ele>525</ele>
        <time>2016-08-09T08:53:35.000Z</time>
      </trkpt>
      <trkpt lat="45.42133" lon="5.72463">
        <ele>525</ele>
        <time>2016-08-09T08:53:36.000Z</time>
      </trkpt>
      <trkpt lat="45.42135" lon="5.72468">
        <ele>524</ele>
        <time>2016-08-09T08:53:37.000Z</time>
      </trkpt>
      <trkpt lat="45.42138" lon="5.72472">
        <ele>524</ele>
        <time>2016-08-09T08:53:38.000Z</time>
      </trkpt>
      <trkpt lat="45.4214" lon="5.72478">
        <ele>524</ele>
        <time>2016-08-09T08:53:39.000Z</time>
      </trkpt>
      <trkpt lat="45.42143" lon="5.72482">
        <ele>523</ele>
        <time>2016-08-09T08:53:40.000Z</time>
      </trkpt>
      <trkpt lat="45.42145" lon="5.72487">
        <ele>523</ele>
        <time>2016-08-09T08:53:41.000Z</time>
      </trkpt>
      <trkpt lat="45.42147" lon="5.72491">
        <ele>523</ele>
        <time>2016-08-09T08:53:42.000Z</time>
      </trkpt>
      <trkpt lat="45.42149" lon="5.72497">
        <ele>522</ele>
        <time>2016-08-09T08:53:43.000Z</time>
      </trkpt>
      <trkpt lat="45.4215" lon="5.72502">
        <ele>523</ele>
        <time>2016-08-09T08:53:44.000Z</time>
      </trkpt>
      <trkpt lat="45.42152" lon="5.72508">
        <ele>524</ele>
        <time>2016-08-09T08:53:45.000Z</time>
      </trkpt>
      <trkpt lat="45.42154" lon="5.72514">
        <ele>524</ele>
        <time>2016-08-09T08:53:46.000Z</time>
      </trkpt>
      <trkpt lat="45.42155" lon="5.72519">
        <ele>524</ele>
        <time>2016-08-09T08:53:47.000Z</time>
      </trkpt>
      <trkpt lat="45.42156" lon="5.72524">
        <ele>525</ele>
        <time>2016-08-09T08:53:48.000Z</time>
      </trkpt>
      <trkpt lat="45.42157" lon="5.72528">
        <ele>525</ele>
        <time>2016-08-09T08:53:49.000Z</time>
      </trkpt>
      <trkpt lat="45.42158" lon="5.72532">
        <ele>525</ele>
        <time>2016-08-09T08:53:50.000Z</time>
      </trkpt>
      <trkpt lat="45.4216" lon="5.72535">
        <ele>526</ele>
        <time>2016-08-09T08:53:51.000Z</time>
      </trkpt>
      <trkpt lat="45.42161" lon="5.72538">
        <ele>526</ele>
        <time>2016-08-09T08:53:52.000Z</time>
      </trkpt>
      <trkpt lat="45.42162" lon="5.72541">
        <ele>526</ele>
        <time>2016-08-09T08:53:53.000Z</time>
      </trkpt>
      <trkpt lat="45.42164" lon="5.72544">
        <ele>526</ele>
        <time>2016-08-09T08:53:54.000Z</time>
      </trkpt>
      <trkpt lat="45.42174" lon="5.72556">
        <ele>517</ele>
        <time>2016-08-09T08:53:55.000Z</time>
      </trkpt>
      <trkpt lat="45.42177" lon="5.72561">
        <ele>517</ele>
        <time>2016-08-09T08:53:56.000Z</time>
      </trkpt>
      <trkpt lat="45.42179" lon="5.72567">
        <ele>518</ele>
        <time>2016-08-09T08:53:57.000Z</time>
      </trkpt>
      <trkpt lat="45.42182" lon="5.72572">
        <ele>518</ele>
        <time>2016-08-09T08:53:58.000Z</time>
      </trkpt>
      <trkpt lat="45.42183" lon="5.72577">
        <ele>518</ele>
        <time>2016-08-09T08:53:59.000Z</time>
      </trkpt>
      <trkpt lat="45.42184" lon="5.72582">
        <ele>518</ele>
        <time>2016-08-09T08:54:00.000Z</time>
      </trkpt>
      <trkpt lat="45.42184" lon="5.72587">
        <ele>520</ele>
        <time>2016-08-09T08:54:01.000Z</time>
      </trkpt>
      <trkpt lat="45.42184" lon="5.72591">
        <ele>520</ele>
        <time>2016-08-09T08:54:02.000Z</time>
      </trkpt>
      <trkpt lat="45.42185" lon="5.72596">
        <ele>520</ele>
        <time>2016-08-09T08:54:03.000Z</time>
      </trkpt>
      <trkpt lat="45.42185" lon="5.72601">
        <ele>519</ele>
        <time>2016-08-09T08:54:04.000Z</time>
      </trkpt>
      <trkpt lat="45.42185" lon="5.72606">
        <ele>519</ele>
        <time>2016-08-09T08:54:05.000Z</time>
      </trkpt>
      <trkpt lat="45.42185" lon="5.72611">
        <ele>519</ele>
        <time>2016-08-09T08:54:06.000Z</time>
      </trkpt>
      <trkpt lat="45.42185" lon="5.72617">
        <ele>519</ele>
        <time>2016-08-09T08:54:07.000Z</time>
      </trkpt>
      <trkpt lat="45.42185" lon="5.72622">
        <ele>519</ele>
        <time>2016-08-09T08:54:08.000Z</time>
      </trkpt>
      <trkpt lat="45.42185" lon="5.72628">
        <ele>519</ele>
        <time>2016-08-09T08:54:09.000Z</time>
      </trkpt>
      <trkpt lat="45.42185" lon="5.72632">
        <ele>519</ele>
        <time>2016-08-09T08:54:10.000Z</time>
      </trkpt>
      <trkpt lat="45.42186" lon="5.72637">
        <ele>520</ele>
        <time>2016-08-09T08:54:11.000Z</time>
      </trkpt>
      <trkpt lat="45.42186" lon="5.7264">
        <ele>520</ele>
        <time>2016-08-09T08:54:12.000Z</time>
      </trkpt>
      <trkpt lat="45.42187" lon="5.72644">
        <ele>520</ele>
        <time>2016-08-09T08:54:13.000Z</time>
      </trkpt>
      <trkpt lat="45.42187" lon="5.72647">
        <ele>520</ele>
        <time>2016-08-09T08:54:14.000Z</time>
      </trkpt>
      <trkpt lat="45.42188" lon="5.72651">
        <ele>520</ele>
        <time>2016-08-09T08:54:15.000Z</time>
      </trkpt>
      <trkpt lat="45.42188" lon="5.72654">
        <ele>520</ele>
        <time>2016-08-09T08:54:16.000Z</time>
      </trkpt>
      <trkpt lat="45.42189" lon="5.72658">
        <ele>520</ele>
        <time>2016-08-09T08:54:17.000Z</time>
      </trkpt>
      <trkpt lat="45.42189" lon="5.72662">
        <ele>520</ele>
        <time>2016-08-09T08:54:18.000Z</time>
      </trkpt>
      <trkpt lat="45.4219" lon="5.72666">
        <ele>520</ele>
        <time>2016-08-09T08:54:19.000Z</time>
      </trkpt>
      <trkpt lat="45.42191" lon="5.72671">
        <ele>520</ele>
        <time>2016-08-09T08:54:20.000Z</time>
      </trkpt>
      <trkpt lat="45.42193" lon="5.72677">
        <ele>520</ele>
        <time>2016-08-09T08:54:21.000Z</time>
      </trkpt>
      <trkpt lat="45.42194" lon="5.72684">
        <ele>519</ele>
        <time>2016-08-09T08:54:22.000Z</time>
      </trkpt>
      <trkpt lat="45.42196" lon="5.72691">
        <ele>519</ele>
        <time>2016-08-09T08:54:23.000Z</time>
      </trkpt>
      <trkpt lat="45.42197" lon="5.72699">
        <ele>519</ele>
        <time>2016-08-09T08:54:24.000Z</time>
      </trkpt>
      <trkpt lat="45.42199" lon="5.72718">
        <ele>519</ele>
        <time>2016-08-09T08:54:25.000Z</time>
      </trkpt>
      <trkpt lat="45.42198" lon="5.72725">
        <ele>519</ele>
        <time>2016-08-09T08:54:26.000Z</time>
      </trkpt>
      <trkpt lat="45.42199" lon="5.72732">
        <ele>519</ele>
        <time>2016-08-09T08:54:27.000Z</time>
      </trkpt>
      <trkpt lat="45.42198" lon="5.7274">
        <ele>519</ele>
        <time>2016-08-09T08:54:28.000Z</time>
      </trkpt>
      <trkpt lat="45.42195" lon="5.72745">
        <ele>519</ele>
        <time>2016-08-09T08:54:29.000Z</time>
      </trkpt>
      <trkpt lat="45.42194" lon="5.72753">
        <ele>518</ele>
        <time>2016-08-09T08:54:30.000Z</time>
      </trkpt>
      <trkpt lat="45.42193" lon="5.7276">
        <ele>518</ele>
        <time>2016-08-09T08:54:31.000Z</time>
      </trkpt>
      <trkpt lat="45.42193" lon="5.72766">
        <ele>518</ele>
        <time>2016-08-09T08:54:32.000Z</time>
      </trkpt>
      <trkpt lat="45.42192" lon="5.72771">
        <ele>518</ele>
        <time>2016-08-09T08:54:33.000Z</time>
      </trkpt>
      <trkpt lat="45.4219" lon="5.72777">
        <ele>518</ele>
        <time>2016-08-09T08:54:34.000Z</time>
      </trkpt>
      <trkpt lat="45.42189" lon="5.72782">
        <ele>518</ele>
        <time>2016-08-09T08:54:35.000Z</time>
      </trkpt>
      <trkpt lat="45.42188" lon="5.72787">
        <ele>518</ele>
        <time>2016-08-09T08:54:36.000Z</time>
      </trkpt>
      <trkpt lat="45.42188" lon="5.7279">
        <ele>518</ele>
        <time>2016-08-09T08:54:37.000Z</time>
      </trkpt>
      <trkpt lat="45.42188" lon="5.72795">
        <ele>518</ele>
        <time>2016-08-09T08:54:38.000Z</time>
      </trkpt>
      <trkpt lat="45.42187" lon="5.72798">
        <ele>518</ele>
        <time>2016-08-09T08:54:39.000Z</time>
      </trkpt>
      <trkpt lat="45.42188" lon="5.72804">
        <ele>518</ele>
        <time>2016-08-09T08:54:41.000Z</time>
      </trkpt>
      <trkpt lat="45.42188" lon="5.72806">
        <ele>518</ele>
        <time>2016-08-09T08:54:42.000Z</time>
      </trkpt>
      <trkpt lat="45.42189" lon="5.7281">
        <ele>518</ele>
        <time>2016-08-09T08:54:43.000Z</time>
      </trkpt>
      <trkpt lat="45.42189" lon="5.72815">
        <ele>518</ele>
        <time>2016-08-09T08:54:44.000Z</time>
      </trkpt>
      <trkpt lat="45.42189" lon="5.72819">
        <ele>518</ele>
        <time>2016-08-09T08:54:45.000Z</time>
      </trkpt>
      <trkpt lat="45.42189" lon="5.72824">
        <ele>518</ele>
        <time>2016-08-09T08:54:46.000Z</time>
      </trkpt>
      <trkpt lat="45.4219" lon="5.72828">
        <ele>518</ele>
        <time>2016-08-09T08:54:47.000Z</time>
      </trkpt>
      <trkpt lat="45.4219" lon="5.72833">
        <ele>518</ele>
        <time>2016-08-09T08:54:48.000Z</time>
      </trkpt>
      <trkpt lat="45.4219" lon="5.72839">
        <ele>518</ele>
        <time>2016-08-09T08:54:49.000Z</time>
      </trkpt>
      <trkpt lat="45.42191" lon="5.72844">
        <ele>518</ele>
        <time>2016-08-09T08:54:50.000Z</time>
      </trkpt>
      <trkpt lat="45.42191" lon="5.72851">
        <ele>517</ele>
        <time>2016-08-09T08:54:51.000Z</time>
      </trkpt>
      <trkpt lat="45.42194" lon="5.72858">
        <ele>517</ele>
        <time>2016-08-09T08:54:52.000Z</time>
      </trkpt>
      <trkpt lat="45.42198" lon="5.72865">
        <ele>516</ele>
        <time>2016-08-09T08:54:53.000Z</time>
      </trkpt>
      <trkpt lat="45.42216" lon="5.72875">
        <ele>514</ele>
        <time>2016-08-09T08:54:54.000Z</time>
      </trkpt>
      <trkpt lat="45.42218" lon="5.72882">
        <ele>514</ele>
        <time>2016-08-09T08:54:55.000Z</time>
      </trkpt>
      <trkpt lat="45.42218" lon="5.72891">
        <ele>514</ele>
        <time>2016-08-09T08:54:56.000Z</time>
      </trkpt>
      <trkpt lat="45.42218" lon="5.72897">
        <ele>514</ele>
        <time>2016-08-09T08:54:57.000Z</time>
      </trkpt>
      <trkpt lat="45.4222" lon="5.72904">
        <ele>514</ele>
        <time>2016-08-09T08:54:58.000Z</time>
      </trkpt>
      <trkpt lat="45.4222" lon="5.72911">
        <ele>514</ele>
        <time>2016-08-09T08:54:59.000Z</time>
      </trkpt>
      <trkpt lat="45.4222" lon="5.72917">
        <ele>514</ele>
        <time>2016-08-09T08:55:00.000Z</time>
      </trkpt>
      <trkpt lat="45.42221" lon="5.72922">
        <ele>517</ele>
        <time>2016-08-09T08:55:01.000Z</time>
      </trkpt>
      <trkpt lat="45.42222" lon="5.72926">
        <ele>517</ele>
        <time>2016-08-09T08:55:02.000Z</time>
      </trkpt>
      <trkpt lat="45.42223" lon="5.72931">
        <ele>517</ele>
        <time>2016-08-09T08:55:03.000Z</time>
      </trkpt>
      <trkpt lat="45.42226" lon="5.72938">
        <ele>517</ele>
        <time>2016-08-09T08:55:04.000Z</time>
      </trkpt>
      <trkpt lat="45.42227" lon="5.72941">
        <ele>517</ele>
        <time>2016-08-09T08:55:05.000Z</time>
      </trkpt>
      <trkpt lat="45.42229" lon="5.72943">
        <ele>517</ele>
        <time>2016-08-09T08:55:06.000Z</time>
      </trkpt>
      <trkpt lat="45.42232" lon="5.72948">
        <ele>517</ele>
        <time>2016-08-09T08:55:08.000Z</time>
      </trkpt>
      <trkpt lat="45.42233" lon="5.7295">
        <ele>517</ele>
        <time>2016-08-09T08:55:09.000Z</time>
      </trkpt>
      <trkpt lat="45.42233" lon="5.72956">
        <ele>517</ele>
        <time>2016-08-09T08:55:18.000Z</time>
      </trkpt>
      <trkpt lat="45.42233" lon="5.72957">
        <ele>518</ele>
        <time>2016-08-09T08:55:19.000Z</time>
      </trkpt>
      <trkpt lat="45.42228" lon="5.72957">
        <ele>518</ele>
        <time>2016-08-09T08:55:36.000Z</time>
      </trkpt>
      <trkpt lat="45.42228" lon="5.72956">
        <ele>518</ele>
        <time>2016-08-09T08:55:37.000Z</time>
      </trkpt>
      <trkpt lat="45.42232" lon="5.72958">
        <ele>518</ele>
        <time>2016-08-09T08:55:57.000Z</time>
      </trkpt>
      <trkpt lat="45.42232" lon="5.72958">
        <ele>518</ele>
        <time>2016-08-09T08:55:58.000Z</time>
      </trkpt>
      <trkpt lat="45.42234" lon="5.72956">
        <ele>517</ele>
        <time>2016-08-09T08:56:05.000Z</time>
      </trkpt>
      <trkpt lat="45.42235" lon="5.72953">
        <ele>517</ele>
        <time>2016-08-09T08:56:06.000Z</time>
      </trkpt>
      <trkpt lat="45.42237" lon="5.72947">
        <ele>516</ele>
        <time>2016-08-09T08:56:09.000Z</time>
      </trkpt>
      <trkpt lat="45.42237" lon="5.72947">
        <ele>516</ele>
        <time>2016-08-09T08:56:10.000Z</time>
      </trkpt>
      <trkpt lat="45.4224" lon="5.72949">
        <ele>516</ele>
        <time>2016-08-09T08:56:24.000Z</time>
      </trkpt>
      <trkpt lat="45.42241" lon="5.7295">
        <ele>516</ele>
        <time>2016-08-09T08:56:25.000Z</time>
      </trkpt>
      <trkpt lat="45.42243" lon="5.72955">
        <ele>517</ele>
        <time>2016-08-09T08:56:32.000Z</time>
      </trkpt>
      <trkpt lat="45.42244" lon="5.72958">
        <ele>517</ele>
        <time>2016-08-09T08:56:33.000Z</time>
      </trkpt>
      <trkpt lat="45.42245" lon="5.72961">
        <ele>517</ele>
        <time>2016-08-09T08:56:34.000Z</time>
      </trkpt>
      <trkpt lat="45.42245" lon="5.72965">
        <ele>517</ele>
        <time>2016-08-09T08:56:35.000Z</time>
      </trkpt>
      <trkpt lat="45.42246" lon="5.72969">
        <ele>517</ele>
        <time>2016-08-09T08:56:36.000Z</time>
      </trkpt>
      <trkpt lat="45.42247" lon="5.72973">
        <ele>517</ele>
        <time>2016-08-09T08:56:37.000Z</time>
      </trkpt>
      <trkpt lat="45.42249" lon="5.72977">
        <ele>516</ele>
        <time>2016-08-09T08:56:38.000Z</time>
      </trkpt>
      <trkpt lat="45.4225" lon="5.7298">
        <ele>516</ele>
        <time>2016-08-09T08:56:39.000Z</time>
      </trkpt>
      <trkpt lat="45.42251" lon="5.72983">
        <ele>508</ele>
        <time>2016-08-09T08:56:40.000Z</time>
      </trkpt>
      <trkpt lat="45.42253" lon="5.72987">
        <ele>508</ele>
        <time>2016-08-09T08:56:41.000Z</time>
      </trkpt>
      <trkpt lat="45.42255" lon="5.72991">
        <ele>509</ele>
        <time>2016-08-09T08:56:42.000Z</time>
      </trkpt>
      <trkpt lat="45.42257" lon="5.72995">
        <ele>509</ele>
        <time>2016-08-09T08:56:43.000Z</time>
      </trkpt>
      <trkpt lat="45.42259" lon="5.73">
        <ele>509</ele>
        <time>2016-08-09T08:56:44.000Z</time>
      </trkpt>
      <trkpt lat="45.42261" lon="5.73004">
        <ele>510</ele>
        <time>2016-08-09T08:56:45.000Z</time>
      </trkpt>
      <trkpt lat="45.42263" lon="5.73008">
        <ele>509</ele>
        <time>2016-08-09T08:56:46.000Z</time>
      </trkpt>
      <trkpt lat="45.42265" lon="5.73012">
        <ele>509</ele>
        <time>2016-08-09T08:56:47.000Z</time>
      </trkpt>
      <trkpt lat="45.42267" lon="5.73016">
        <ele>509</ele>
        <time>2016-08-09T08:56:48.000Z</time>
      </trkpt>
      <trkpt lat="45.42268" lon="5.7302">
        <ele>508</ele>
        <time>2016-08-09T08:56:49.000Z</time>
      </trkpt>
      <trkpt lat="45.4227" lon="5.73024">
        <ele>508</ele>
        <time>2016-08-09T08:56:50.000Z</time>
      </trkpt>
      <trkpt lat="45.42272" lon="5.73028">
        <ele>508</ele>
        <time>2016-08-09T08:56:51.000Z</time>
      </trkpt>
      <trkpt lat="45.42274" lon="5.73032">
        <ele>508</ele>
        <time>2016-08-09T08:56:52.000Z</time>
      </trkpt>
      <trkpt lat="45.42277" lon="5.73036">
        <ele>508</ele>
        <time>2016-08-09T08:56:53.000Z</time>
      </trkpt>
      <trkpt lat="45.42279" lon="5.7304">
        <ele>508</ele>
        <time>2016-08-09T08:56:54.000Z</time>
      </trkpt>
      <trkpt lat="45.4228" lon="5.73044">
        <ele>508</ele>
        <time>2016-08-09T08:56:55.000Z</time>
      </trkpt>
      <trkpt lat="45.42282" lon="5.73048">
        <ele>508</ele>
        <time>2016-08-09T08:56:56.000Z</time>
      </trkpt>
      <trkpt lat="45.42284" lon="5.73052">
        <ele>508</ele>
        <time>2016-08-09T08:56:57.000Z</time>
      </trkpt>
      <trkpt lat="45.42285" lon="5.73057">
        <ele>508</ele>
        <time>2016-08-09T08:56:58.000Z</time>
      </trkpt>
      <trkpt lat="45.42287" lon="5.73062">
        <ele>507</ele>
        <time>2016-08-09T08:56:59.000Z</time>
      </trkpt>
      <trkpt lat="45.42289" lon="5.73065">
        <ele>507</ele>
        <time>2016-08-09T08:57:00.000Z</time>
      </trkpt>
      <trkpt lat="45.42291" lon="5.73069">
        <ele>507</ele>
        <time>2016-08-09T08:57:01.000Z</time>
      </trkpt>
      <trkpt lat="45.42293" lon="5.73071">
        <ele>507</ele>
        <time>2016-08-09T08:57:02.000Z</time>
      </trkpt>
      <trkpt lat="45.42295" lon="5.73074">
        <ele>507</ele>
        <time>2016-08-09T08:57:03.000Z</time>
      </trkpt>
      <trkpt lat="45.42296" lon="5.73077">
        <ele>506</ele>
        <time>2016-08-09T08:57:04.000Z</time>
      </trkpt>
      <trkpt lat="45.42297" lon="5.7308">
        <ele>506</ele>
        <time>2016-08-09T08:57:05.000Z</time>
      </trkpt>
      <trkpt lat="45.42298" lon="5.73084">
        <ele>509</ele>
        <time>2016-08-09T08:57:06.000Z</time>
      </trkpt>
      <trkpt lat="45.42299" lon="5.73088">
        <ele>509</ele>
        <time>2016-08-09T08:57:07.000Z</time>
      </trkpt>
      <trkpt lat="45.42299" lon="5.73093">
        <ele>509</ele>
        <time>2016-08-09T08:57:08.000Z</time>
      </trkpt>
      <trkpt lat="45.423" lon="5.73098">
        <ele>509</ele>
        <time>2016-08-09T08:57:09.000Z</time>
      </trkpt>
      <trkpt lat="45.42302" lon="5.73104">
        <ele>509</ele>
        <time>2016-08-09T08:57:10.000Z</time>
      </trkpt>
      <trkpt lat="45.42304" lon="5.73109">
        <ele>509</ele>
        <time>2016-08-09T08:57:11.000Z</time>
      </trkpt>
      <trkpt lat="45.42306" lon="5.73114">
        <ele>509</ele>
        <time>2016-08-09T08:57:12.000Z</time>
      </trkpt>
      <trkpt lat="45.42309" lon="5.73117">
        <ele>509</ele>
        <time>2016-08-09T08:57:13.000Z</time>
      </trkpt>
      <trkpt lat="45.42311" lon="5.7312">
        <ele>509</ele>
        <time>2016-08-09T08:57:14.000Z</time>
      </trkpt>
      <trkpt lat="45.42313" lon="5.73122">
        <ele>509</ele>
        <time>2016-08-09T08:57:15.000Z</time>
      </trkpt>
      <trkpt lat="45.42314" lon="5.73125">
        <ele>509</ele>
        <time>2016-08-09T08:57:16.000Z</time>
      </trkpt>
      <trkpt lat="45.42316" lon="5.73128">
        <ele>509</ele>
        <time>2016-08-09T08:57:17.000Z</time>
      </trkpt>
      <trkpt lat="45.42318" lon="5.73132">
        <ele>509</ele>
        <time>2016-08-09T08:57:18.000Z</time>
      </trkpt>
      <trkpt lat="45.42321" lon="5.73136">
        <ele>509</ele>
        <time>2016-08-09T08:57:19.000Z</time>
      </trkpt>
      <trkpt lat="45.42324" lon="5.73139">
        <ele>509</ele>
        <time>2016-08-09T08:57:20.000Z</time>
      </trkpt>
      <trkpt lat="45.42326" lon="5.73143">
        <ele>508</ele>
        <time>2016-08-09T08:57:21.000Z</time>
      </trkpt>
      <trkpt lat="45.4233" lon="5.73147">
        <ele>508</ele>
        <time>2016-08-09T08:57:22.000Z</time>
      </trkpt>
      <trkpt lat="45.42333" lon="5.73151">
        <ele>501</ele>
        <time>2016-08-09T08:57:23.000Z</time>
      </trkpt>
      <trkpt lat="45.42337" lon="5.73156">
        <ele>502</ele>
        <time>2016-08-09T08:57:24.000Z</time>
      </trkpt>
      <trkpt lat="45.42341" lon="5.7316">
        <ele>502</ele>
        <time>2016-08-09T08:57:25.000Z</time>
      </trkpt>
      <trkpt lat="45.42344" lon="5.73165">
        <ele>502</ele>
        <time>2016-08-09T08:57:26.000Z</time>
      </trkpt>
      <trkpt lat="45.42348" lon="5.7317">
        <ele>503</ele>
        <time>2016-08-09T08:57:27.000Z</time>
      </trkpt>
      <trkpt lat="45.42352" lon="5.73175">
        <ele>503</ele>
        <time>2016-08-09T08:57:28.000Z</time>
      </trkpt>
      <trkpt lat="45.42355" lon="5.7318">
        <ele>502</ele>
        <time>2016-08-09T08:57:29.000Z</time>
      </trkpt>
      <trkpt lat="45.42359" lon="5.73185">
        <ele>502</ele>
        <time>2016-08-09T08:57:30.000Z</time>
      </trkpt>
      <trkpt lat="45.42361" lon="5.73189">
        <ele>502</ele>
        <time>2016-08-09T08:57:31.000Z</time>
      </trkpt>
      <trkpt lat="45.42364" lon="5.73193">
        <ele>502</ele>
        <time>2016-08-09T08:57:32.000Z</time>
      </trkpt>
      <trkpt lat="45.42365" lon="5.73196">
        <ele>502</ele>
        <time>2016-08-09T08:57:33.000Z</time>
      </trkpt>
      <trkpt lat="45.42367" lon="5.732">
        <ele>502</ele>
        <time>2016-08-09T08:57:34.000Z</time>
      </trkpt>
      <trkpt lat="45.42368" lon="5.73203">
        <ele>502</ele>
        <time>2016-08-09T08:57:35.000Z</time>
      </trkpt>
      <trkpt lat="45.42371" lon="5.73212">
        <ele>501</ele>
        <time>2016-08-09T08:57:37.000Z</time>
      </trkpt>
      <trkpt lat="45.42373" lon="5.73216">
        <ele>501</ele>
        <time>2016-08-09T08:57:38.000Z</time>
      </trkpt>
      <trkpt lat="45.42375" lon="5.7322">
        <ele>501</ele>
        <time>2016-08-09T08:57:39.000Z</time>
      </trkpt>
      <trkpt lat="45.42376" lon="5.73224">
        <ele>501</ele>
        <time>2016-08-09T08:57:40.000Z</time>
      </trkpt>
      <trkpt lat="45.42377" lon="5.73227">
        <ele>501</ele>
        <time>2016-08-09T08:57:41.000Z</time>
      </trkpt>
      <trkpt lat="45.42379" lon="5.73231">
        <ele>501</ele>
        <time>2016-08-09T08:57:42.000Z</time>
      </trkpt>
      <trkpt lat="45.42381" lon="5.73234">
        <ele>501</ele>
        <time>2016-08-09T08:57:43.000Z</time>
      </trkpt>
      <trkpt lat="45.42383" lon="5.73238">
        <ele>500</ele>
        <time>2016-08-09T08:57:44.000Z</time>
      </trkpt>
      <trkpt lat="45.42384" lon="5.73243">
        <ele>500</ele>
        <time>2016-08-09T08:57:45.000Z</time>
      </trkpt>
      <trkpt lat="45.42386" lon="5.73248">
        <ele>500</ele>
        <time>2016-08-09T08:57:46.000Z</time>
      </trkpt>
      <trkpt lat="45.42388" lon="5.73255">
        <ele>503</ele>
        <time>2016-08-09T08:57:47.000Z</time>
      </trkpt>
      <trkpt lat="45.42394" lon="5.73282">
        <ele>504</ele>
        <time>2016-08-09T08:57:48.000Z</time>
      </trkpt>
      <trkpt lat="45.42397" lon="5.73289">
        <ele>504</ele>
        <time>2016-08-09T08:57:49.000Z</time>
      </trkpt>
      <trkpt lat="45.42399" lon="5.73296">
        <ele>504</ele>
        <time>2016-08-09T08:57:50.000Z</time>
      </trkpt>
      <trkpt lat="45.42402" lon="5.73301">
        <ele>504</ele>
        <time>2016-08-09T08:57:51.000Z</time>
      </trkpt>
      <trkpt lat="45.42404" lon="5.73307">
        <ele>503</ele>
        <time>2016-08-09T08:57:52.000Z</time>
      </trkpt>
      <trkpt lat="45.42405" lon="5.73314">
        <ele>503</ele>
        <time>2016-08-09T08:57:53.000Z</time>
      </trkpt>
      <trkpt lat="45.42406" lon="5.73321">
        <ele>502</ele>
        <time>2016-08-09T08:57:54.000Z</time>
      </trkpt>
      <trkpt lat="45.42406" lon="5.73331">
        <ele>501</ele>
        <time>2016-08-09T08:57:55.000Z</time>
      </trkpt>
      <trkpt lat="45.42408" lon="5.73338">
        <ele>503</ele>
        <time>2016-08-09T08:57:56.000Z</time>
      </trkpt>
      <trkpt lat="45.42411" lon="5.73345">
        <ele>504</ele>
        <time>2016-08-09T08:57:57.000Z</time>
      </trkpt>
      <trkpt lat="45.42415" lon="5.73351">
        <ele>506</ele>
        <time>2016-08-09T08:57:58.000Z</time>
      </trkpt>
      <trkpt lat="45.42418" lon="5.73357">
        <ele>495</ele>
        <time>2016-08-09T08:57:59.000Z</time>
      </trkpt>
      <trkpt lat="45.42422" lon="5.73363">
        <ele>495</ele>
        <time>2016-08-09T08:58:00.000Z</time>
      </trkpt>
      <trkpt lat="45.42429" lon="5.73372">
        <ele>495</ele>
        <time>2016-08-09T08:58:01.000Z</time>
      </trkpt>
      <trkpt lat="45.42433" lon="5.73378">
        <ele>495</ele>
        <time>2016-08-09T08:58:02.000Z</time>
      </trkpt>
      <trkpt lat="45.42435" lon="5.73386">
        <ele>496</ele>
        <time>2016-08-09T08:58:03.000Z</time>
      </trkpt>
      <trkpt lat="45.42438" lon="5.73394">
        <ele>496</ele>
        <time>2016-08-09T08:58:04.000Z</time>
      </trkpt>
      <trkpt lat="45.42439" lon="5.734">
        <ele>497</ele>
        <time>2016-08-09T08:58:05.000Z</time>
      </trkpt>
      <trkpt lat="45.4244" lon="5.73406">
        <ele>497</ele>
        <time>2016-08-09T08:58:06.000Z</time>
      </trkpt>
      <trkpt lat="45.42442" lon="5.73412">
        <ele>497</ele>
        <time>2016-08-09T08:58:07.000Z</time>
      </trkpt>
      <trkpt lat="45.42445" lon="5.73416">
        <ele>496</ele>
        <time>2016-08-09T08:58:08.000Z</time>
      </trkpt>
      <trkpt lat="45.42447" lon="5.73421">
        <ele>498</ele>
        <time>2016-08-09T08:58:09.000Z</time>
      </trkpt>
      <trkpt lat="45.4245" lon="5.73425">
        <ele>498</ele>
        <time>2016-08-09T08:58:10.000Z</time>
      </trkpt>
      <trkpt lat="45.42451" lon="5.7343">
        <ele>498</ele>
        <time>2016-08-09T08:58:11.000Z</time>
      </trkpt>
      <trkpt lat="45.42453" lon="5.73435">
        <ele>497</ele>
        <time>2016-08-09T08:58:12.000Z</time>
      </trkpt>
      <trkpt lat="45.42455" lon="5.7344">
        <ele>497</ele>
        <time>2016-08-09T08:58:13.000Z</time>
      </trkpt>
      <trkpt lat="45.42456" lon="5.73445">
        <ele>497</ele>
        <time>2016-08-09T08:58:14.000Z</time>
      </trkpt>
      <trkpt lat="45.42457" lon="5.7345">
        <ele>497</ele>
        <time>2016-08-09T08:58:15.000Z</time>
      </trkpt>
      <trkpt lat="45.42459" lon="5.73455">
        <ele>497</ele>
        <time>2016-08-09T08:58:16.000Z</time>
      </trkpt>
      <trkpt lat="45.4246" lon="5.7346">
        <ele>497</ele>
        <time>2016-08-09T08:58:17.000Z</time>
      </trkpt>
      <trkpt lat="45.42461" lon="5.73465">
        <ele>497</ele>
        <time>2016-08-09T08:58:18.000Z</time>
      </trkpt>
      <trkpt lat="45.42463" lon="5.7347">
        <ele>497</ele>
        <time>2016-08-09T08:58:19.000Z</time>
      </trkpt>
      <trkpt lat="45.42464" lon="5.73475">
        <ele>496</ele>
        <time>2016-08-09T08:58:20.000Z</time>
      </trkpt>
      <trkpt lat="45.42465" lon="5.7348">
        <ele>496</ele>
        <time>2016-08-09T08:58:21.000Z</time>
      </trkpt>
      <trkpt lat="45.42467" lon="5.73485">
        <ele>496</ele>
        <time>2016-08-09T08:58:22.000Z</time>
      </trkpt>
      <trkpt lat="45.42469" lon="5.73489">
        <ele>495</ele>
        <time>2016-08-09T08:58:23.000Z</time>
      </trkpt>
      <trkpt lat="45.4247" lon="5.73494">
        <ele>495</ele>
        <time>2016-08-09T08:58:24.000Z</time>
      </trkpt>
      <trkpt lat="45.42472" lon="5.73499">
        <ele>495</ele>
        <time>2016-08-09T08:58:25.000Z</time>
      </trkpt>
      <trkpt lat="45.42473" lon="5.73504">
        <ele>496</ele>
        <time>2016-08-09T08:58:26.000Z</time>
      </trkpt>
      <trkpt lat="45.42475" lon="5.73509">
        <ele>496</ele>
        <time>2016-08-09T08:58:27.000Z</time>
      </trkpt>
      <trkpt lat="45.42476" lon="5.73513">
        <ele>496</ele>
        <time>2016-08-09T08:58:28.000Z</time>
      </trkpt>
      <trkpt lat="45.42478" lon="5.73518">
        <ele>496</ele>
        <time>2016-08-09T08:58:29.000Z</time>
      </trkpt>
      <trkpt lat="45.42481" lon="5.73521">
        <ele>495</ele>
        <time>2016-08-09T08:58:30.000Z</time>
      </trkpt>
      <trkpt lat="45.42483" lon="5.73525">
        <ele>495</ele>
        <time>2016-08-09T08:58:31.000Z</time>
      </trkpt>
      <trkpt lat="45.42486" lon="5.73529">
        <ele>495</ele>
        <time>2016-08-09T08:58:32.000Z</time>
      </trkpt>
      <trkpt lat="45.42488" lon="5.73534">
        <ele>496</ele>
        <time>2016-08-09T08:58:33.000Z</time>
      </trkpt>
      <trkpt lat="45.42491" lon="5.73538">
        <ele>496</ele>
        <time>2016-08-09T08:58:34.000Z</time>
      </trkpt>
      <trkpt lat="45.42493" lon="5.73543">
        <ele>496</ele>
        <time>2016-08-09T08:58:35.000Z</time>
      </trkpt>
      <trkpt lat="45.42495" lon="5.73548">
        <ele>496</ele>
        <time>2016-08-09T08:58:36.000Z</time>
      </trkpt>
      <trkpt lat="45.42496" lon="5.73553">
        <ele>496</ele>
        <time>2016-08-09T08:58:37.000Z</time>
      </trkpt>
      <trkpt lat="45.42497" lon="5.73558">
        <ele>495</ele>
        <time>2016-08-09T08:58:38.000Z</time>
      </trkpt>
      <trkpt lat="45.42498" lon="5.73562">
        <ele>495</ele>
        <time>2016-08-09T08:58:39.000Z</time>
      </trkpt>
      <trkpt lat="45.425" lon="5.73567">
        <ele>494</ele>
        <time>2016-08-09T08:58:40.000Z</time>
      </trkpt>
      <trkpt lat="45.42501" lon="5.73571">
        <ele>489</ele>
        <time>2016-08-09T08:58:41.000Z</time>
      </trkpt>
      <trkpt lat="45.42503" lon="5.73576">
        <ele>490</ele>
        <time>2016-08-09T08:58:42.000Z</time>
      </trkpt>
      <trkpt lat="45.42505" lon="5.7358">
        <ele>490</ele>
        <time>2016-08-09T08:58:43.000Z</time>
      </trkpt>
      <trkpt lat="45.42507" lon="5.73585">
        <ele>490</ele>
        <time>2016-08-09T08:58:44.000Z</time>
      </trkpt>
      <trkpt lat="45.42508" lon="5.73589">
        <ele>490</ele>
        <time>2016-08-09T08:58:45.000Z</time>
      </trkpt>
      <trkpt lat="45.4251" lon="5.73594">
        <ele>490</ele>
        <time>2016-08-09T08:58:46.000Z</time>
      </trkpt>
      <trkpt lat="45.42511" lon="5.73599">
        <ele>490</ele>
        <time>2016-08-09T08:58:47.000Z</time>
      </trkpt>
      <trkpt lat="45.42512" lon="5.73603">
        <ele>489</ele>
        <time>2016-08-09T08:58:48.000Z</time>
      </trkpt>
      <trkpt lat="45.42513" lon="5.73607">
        <ele>489</ele>
        <time>2016-08-09T08:58:49.000Z</time>
      </trkpt>
      <trkpt lat="45.42514" lon="5.73611">
        <ele>489</ele>
        <time>2016-08-09T08:58:50.000Z</time>
      </trkpt>
      <trkpt lat="45.42515" lon="5.73615">
        <ele>489</ele>
        <time>2016-08-09T08:58:51.000Z</time>
      </trkpt>
      <trkpt lat="45.42516" lon="5.73619">
        <ele>489</ele>
        <time>2016-08-09T08:58:52.000Z</time>
      </trkpt>
      <trkpt lat="45.42517" lon="5.73623">
        <ele>489</ele>
        <time>2016-08-09T08:58:53.000Z</time>
      </trkpt>
      <trkpt lat="45.42519" lon="5.73627">
        <ele>489</ele>
        <time>2016-08-09T08:58:54.000Z</time>
      </trkpt>
      <trkpt lat="45.4252" lon="5.73631">
        <ele>489</ele>
        <time>2016-08-09T08:58:55.000Z</time>
      </trkpt>
      <trkpt lat="45.42521" lon="5.73634">
        <ele>489</ele>
        <time>2016-08-09T08:58:56.000Z</time>
      </trkpt>
      <trkpt lat="45.42522" lon="5.73638">
        <ele>489</ele>
        <time>2016-08-09T08:58:57.000Z</time>
      </trkpt>
      <trkpt lat="45.42524" lon="5.73643">
        <ele>489</ele>
        <time>2016-08-09T08:58:58.000Z</time>
      </trkpt>
      <trkpt lat="45.42525" lon="5.73647">
        <ele>489</ele>
        <time>2016-08-09T08:58:58.999Z</time>
      </trkpt>
      <trkpt lat="45.42526" lon="5.73652">
        <ele>489</ele>
        <time>2016-08-09T08:59:00.000Z</time>
      </trkpt>
      <trkpt lat="45.42526" lon="5.73657">
        <ele>489</ele>
        <time>2016-08-09T08:59:01.000Z</time>
      </trkpt>
      <trkpt lat="45.42527" lon="5.73662">
        <ele>489</ele>
        <time>2016-08-09T08:59:02.000Z</time>
      </trkpt>
      <trkpt lat="45.42527" lon="5.73668">
        <ele>488</ele>
        <time>2016-08-09T08:59:03.000Z</time>
      </trkpt>
      <trkpt lat="45.42528" lon="5.73673">
        <ele>488</ele>
        <time>2016-08-09T08:59:04.000Z</time>
      </trkpt>
      <trkpt lat="45.42529" lon="5.73678">
        <ele>488</ele>
        <time>2016-08-09T08:59:05.000Z</time>
      </trkpt>
      <trkpt lat="45.42529" lon="5.73683">
        <ele>488</ele>
        <time>2016-08-09T08:59:06.000Z</time>
      </trkpt>
      <trkpt lat="45.42529" lon="5.73688">
        <ele>488</ele>
        <time>2016-08-09T08:59:07.000Z</time>
      </trkpt>
      <trkpt lat="45.4253" lon="5.73694">
        <ele>488</ele>
        <time>2016-08-09T08:59:08.000Z</time>
      </trkpt>
      <trkpt lat="45.4253" lon="5.73699">
        <ele>488</ele>
        <time>2016-08-09T08:59:09.000Z</time>
      </trkpt>
      <trkpt lat="45.4253" lon="5.73705">
        <ele>488</ele>
        <time>2016-08-09T08:59:10.000Z</time>
      </trkpt>
      <trkpt lat="45.4253" lon="5.7371">
        <ele>487</ele>
        <time>2016-08-09T08:59:11.000Z</time>
      </trkpt>
      <trkpt lat="45.4253" lon="5.73715">
        <ele>487</ele>
        <time>2016-08-09T08:59:12.000Z</time>
      </trkpt>
      <trkpt lat="45.4253" lon="5.73719">
        <ele>487</ele>
        <time>2016-08-09T08:59:13.000Z</time>
      </trkpt>
      <trkpt lat="45.4253" lon="5.73724">
        <ele>487</ele>
        <time>2016-08-09T08:59:14.001Z</time>
      </trkpt>
      <trkpt lat="45.4253" lon="5.73726">
        <ele>487</ele>
        <time>2016-08-09T08:59:15.000Z</time>
      </trkpt>
      <trkpt lat="45.4253" lon="5.73731">
        <ele>487</ele>
        <time>2016-08-09T08:59:17.000Z</time>
      </trkpt>
      <trkpt lat="45.4253" lon="5.73733">
        <ele>487</ele>
        <time>2016-08-09T08:59:18.000Z</time>
      </trkpt>
      <trkpt lat="45.42532" lon="5.73738">
        <ele>487</ele>
        <time>2016-08-09T08:59:22.000Z</time>
      </trkpt>
      <trkpt lat="45.42533" lon="5.73738">
        <ele>487</ele>
        <time>2016-08-09T08:59:23.000Z</time>
      </trkpt>
      <trkpt lat="45.42535" lon="5.73738">
        <ele>487</ele>
        <time>2016-08-09T08:59:24.000Z</time>
      </trkpt>
      <trkpt lat="45.42538" lon="5.73739">
        <ele>487</ele>
        <time>2016-08-09T08:59:25.000Z</time>
      </trkpt>
      <trkpt lat="45.42542" lon="5.7374">
        <ele>487</ele>
        <time>2016-08-09T08:59:26.000Z</time>
      </trkpt>
      <trkpt lat="45.42547" lon="5.73742">
        <ele>487</ele>
        <time>2016-08-09T08:59:27.000Z</time>
      </trkpt>
      <trkpt lat="45.42561" lon="5.73746">
        <ele>486</ele>
        <time>2016-08-09T08:59:28.000Z</time>
      </trkpt>
      <trkpt lat="45.42566" lon="5.73748">
        <ele>486</ele>
        <time>2016-08-09T08:59:29.000Z</time>
      </trkpt>
      <trkpt lat="45.42571" lon="5.7375">
        <ele>483</ele>
        <time>2016-08-09T08:59:30.000Z</time>
      </trkpt>
      <trkpt lat="45.42578" lon="5.73751">
        <ele>484</ele>
        <time>2016-08-09T08:59:31.000Z</time>
      </trkpt>
      <trkpt lat="45.42583" lon="5.73753">
        <ele>484</ele>
        <time>2016-08-09T08:59:32.000Z</time>
      </trkpt>
      <trkpt lat="45.42589" lon="5.73752">
        <ele>484</ele>
        <time>2016-08-09T08:59:33.000Z</time>
      </trkpt>
      <trkpt lat="45.42595" lon="5.73751">
        <ele>484</ele>
        <time>2016-08-09T08:59:34.000Z</time>
      </trkpt>
      <trkpt lat="45.426" lon="5.73749">
        <ele>485</ele>
        <time>2016-08-09T08:59:35.000Z</time>
      </trkpt>
      <trkpt lat="45.42606" lon="5.73746">
        <ele>485</ele>
        <time>2016-08-09T08:59:36.000Z</time>
      </trkpt>
      <trkpt lat="45.42611" lon="5.73744">
        <ele>485</ele>
        <time>2016-08-09T08:59:37.000Z</time>
      </trkpt>
      <trkpt lat="45.42616" lon="5.73742">
        <ele>485</ele>
        <time>2016-08-09T08:59:38.000Z</time>
      </trkpt>
      <trkpt lat="45.4262" lon="5.73739">
        <ele>485</ele>
        <time>2016-08-09T08:59:39.000Z</time>
      </trkpt>
      <trkpt lat="45.42624" lon="5.73736">
        <ele>485</ele>
        <time>2016-08-09T08:59:40.000Z</time>
      </trkpt>
      <trkpt lat="45.42627" lon="5.73733">
        <ele>485</ele>
        <time>2016-08-09T08:59:41.000Z</time>
      </trkpt>
      <trkpt lat="45.42631" lon="5.73729">
        <ele>485</ele>
        <time>2016-08-09T08:59:42.000Z</time>
      </trkpt>
      <trkpt lat="45.42633" lon="5.73724">
        <ele>485</ele>
        <time>2016-08-09T08:59:44.000Z</time>
      </trkpt>
      <trkpt lat="45.42633" lon="5.73721">
        <ele>485</ele>
        <time>2016-08-09T08:59:45.000Z</time>
      </trkpt>
      <trkpt lat="45.42634" lon="5.73716">
        <ele>485</ele>
        <time>2016-08-09T08:59:47.000Z</time>
      </trkpt>
      <trkpt lat="45.42635" lon="5.73713">
        <ele>485</ele>
        <time>2016-08-09T08:59:48.000Z</time>
      </trkpt>
      <trkpt lat="45.42635" lon="5.73708">
        <ele>486</ele>
        <time>2016-08-09T08:59:49.999Z</time>
      </trkpt>
      <trkpt lat="45.42635" lon="5.73704">
        <ele>486</ele>
        <time>2016-08-09T08:59:51.000Z</time>
      </trkpt>
      <trkpt lat="45.42635" lon="5.73701">
        <ele>486</ele>
        <time>2016-08-09T08:59:52.000Z</time>
      </trkpt>
      <trkpt lat="45.42636" lon="5.73696">
        <ele>486</ele>
        <time>2016-08-09T08:59:53.000Z</time>
      </trkpt>
      <trkpt lat="45.42636" lon="5.73691">
        <ele>486</ele>
        <time>2016-08-09T08:59:54.000Z</time>
      </trkpt>
      <trkpt lat="45.42638" lon="5.73686">
        <ele>486</ele>
        <time>2016-08-09T08:59:55.000Z</time>
      </trkpt>
      <trkpt lat="45.42639" lon="5.7368">
        <ele>485</ele>
        <time>2016-08-09T08:59:56.000Z</time>
      </trkpt>
      <trkpt lat="45.42641" lon="5.73675">
        <ele>485</ele>
        <time>2016-08-09T08:59:57.000Z</time>
      </trkpt>
      <trkpt lat="45.42642" lon="5.7367">
        <ele>485</ele>
        <time>2016-08-09T08:59:58.000Z</time>
      </trkpt>
      <trkpt lat="45.42643" lon="5.73665">
        <ele>485</ele>
        <time>2016-08-09T08:59:59.000Z</time>
      </trkpt>
      <trkpt lat="45.42645" lon="5.7366">
        <ele>485</ele>
        <time>2016-08-09T09:00:00.000Z</time>
      </trkpt>
      <trkpt lat="45.42646" lon="5.73656">
        <ele>485</ele>
        <time>2016-08-09T09:00:01.000Z</time>
      </trkpt>
      <trkpt lat="45.42647" lon="5.73651">
        <ele>485</ele>
        <time>2016-08-09T09:00:02.000Z</time>
      </trkpt>
      <trkpt lat="45.42648" lon="5.73647">
        <ele>485</ele>
        <time>2016-08-09T09:00:03.000Z</time>
      </trkpt>
      <trkpt lat="45.42648" lon="5.73643">
        <ele>485</ele>
        <time>2016-08-09T09:00:04.000Z</time>
      </trkpt>
      <trkpt lat="45.4265" lon="5.73638">
        <ele>485</ele>
        <time>2016-08-09T09:00:05.000Z</time>
      </trkpt>
      <trkpt lat="45.42651" lon="5.73634">
        <ele>485</ele>
        <time>2016-08-09T09:00:06.000Z</time>
      </trkpt>
      <trkpt lat="45.42652" lon="5.73629">
        <ele>485</ele>
        <time>2016-08-09T09:00:07.001Z</time>
      </trkpt>
      <trkpt lat="45.42654" lon="5.73624">
        <ele>485</ele>
        <time>2016-08-09T09:00:08.000Z</time>
      </trkpt>
      <trkpt lat="45.42655" lon="5.73619">
        <ele>485</ele>
        <time>2016-08-09T09:00:09.000Z</time>
      </trkpt>
      <trkpt lat="45.42656" lon="5.73614">
        <ele>485</ele>
        <time>2016-08-09T09:00:10.000Z</time>
      </trkpt>
      <trkpt lat="45.42657" lon="5.73609">
        <ele>485</ele>
        <time>2016-08-09T09:00:11.000Z</time>
      </trkpt>
      <trkpt lat="45.42657" lon="5.73604">
        <ele>485</ele>
        <time>2016-08-09T09:00:12.000Z</time>
      </trkpt>
      <trkpt lat="45.42658" lon="5.73599">
        <ele>485</ele>
        <time>2016-08-09T09:00:13.000Z</time>
      </trkpt>
      <trkpt lat="45.42659" lon="5.73595">
        <ele>485</ele>
        <time>2016-08-09T09:00:14.000Z</time>
      </trkpt>
      <trkpt lat="45.4266" lon="5.7359">
        <ele>484</ele>
        <time>2016-08-09T09:00:15.000Z</time>
      </trkpt>
      <trkpt lat="45.42661" lon="5.73585">
        <ele>484</ele>
        <time>2016-08-09T09:00:16.000Z</time>
      </trkpt>
      <trkpt lat="45.42663" lon="5.7358">
        <ele>484</ele>
        <time>2016-08-09T09:00:17.000Z</time>
      </trkpt>
      <trkpt lat="45.42665" lon="5.73575">
        <ele>484</ele>
        <time>2016-08-09T09:00:18.000Z</time>
      </trkpt>
      <trkpt lat="45.42666" lon="5.73571">
        <ele>484</ele>
        <time>2016-08-09T09:00:19.000Z</time>
      </trkpt>
      <trkpt lat="45.42668" lon="5.73566">
        <ele>484</ele>
        <time>2016-08-09T09:00:20.000Z</time>
      </trkpt>
      <trkpt lat="45.42669" lon="5.73561">
        <ele>484</ele>
        <time>2016-08-09T09:00:21.000Z</time>
      </trkpt>
      <trkpt lat="45.4267" lon="5.73557">
        <ele>484</ele>
        <time>2016-08-09T09:00:22.000Z</time>
      </trkpt>
      <trkpt lat="45.42671" lon="5.73553">
        <ele>484</ele>
        <time>2016-08-09T09:00:23.000Z</time>
      </trkpt>
      <trkpt lat="45.42672" lon="5.7355">
        <ele>484</ele>
        <time>2016-08-09T09:00:24.000Z</time>
      </trkpt>
      <trkpt lat="45.42673" lon="5.73546">
        <ele>484</ele>
        <time>2016-08-09T09:00:25.000Z</time>
      </trkpt>
      <trkpt lat="45.42674" lon="5.73542">
        <ele>484</ele>
        <time>2016-08-09T09:00:26.000Z</time>
      </trkpt>
      <trkpt lat="45.42676" lon="5.73538">
        <ele>483</ele>
        <time>2016-08-09T09:00:27.000Z</time>
      </trkpt>
      <trkpt lat="45.42678" lon="5.73534">
        <ele>483</ele>
        <time>2016-08-09T09:00:28.000Z</time>
      </trkpt>
      <trkpt lat="45.42679" lon="5.7353">
        <ele>483</ele>
        <time>2016-08-09T09:00:29.000Z</time>
      </trkpt>
      <trkpt lat="45.42681" lon="5.73525">
        <ele>483</ele>
        <time>2016-08-09T09:00:30.000Z</time>
      </trkpt>
      <trkpt lat="45.42683" lon="5.73521">
        <ele>483</ele>
        <time>2016-08-09T09:00:31.000Z</time>
      </trkpt>
      <trkpt lat="45.42685" lon="5.73518">
        <ele>483</ele>
        <time>2016-08-09T09:00:32.000Z</time>
      </trkpt>
      <trkpt lat="45.42687" lon="5.73514">
        <ele>483</ele>
        <time>2016-08-09T09:00:33.001Z</time>
      </trkpt>
      <trkpt lat="45.4269" lon="5.73509">
        <ele>483</ele>
        <time>2016-08-09T09:00:34.000Z</time>
      </trkpt>
      <trkpt lat="45.42692" lon="5.73505">
        <ele>483</ele>
        <time>2016-08-09T09:00:35.000Z</time>
      </trkpt>
      <trkpt lat="45.42694" lon="5.73501">
        <ele>483</ele>
        <time>2016-08-09T09:00:36.000Z</time>
      </trkpt>
      <trkpt lat="45.42696" lon="5.73497">
        <ele>482</ele>
        <time>2016-08-09T09:00:37.000Z</time>
      </trkpt>
      <trkpt lat="45.42699" lon="5.73494">
        <ele>482</ele>
        <time>2016-08-09T09:00:38.000Z</time>
      </trkpt>
      <trkpt lat="45.42701" lon="5.7349">
        <ele>482</ele>
        <time>2016-08-09T09:00:38.999Z</time>
      </trkpt>
      <trkpt lat="45.42703" lon="5.73484">
        <ele>482</ele>
        <time>2016-08-09T09:00:40.000Z</time>
      </trkpt>
      <trkpt lat="45.42704" lon="5.73477">
        <ele>481</ele>
        <time>2016-08-09T09:00:41.000Z</time>
      </trkpt>
      <trkpt lat="45.42705" lon="5.7347">
        <ele>481</ele>
        <time>2016-08-09T09:00:42.000Z</time>
      </trkpt>
      <trkpt lat="45.42706" lon="5.73463">
        <ele>481</ele>
        <time>2016-08-09T09:00:43.000Z</time>
      </trkpt>
      <trkpt lat="45.42706" lon="5.73456">
        <ele>481</ele>
        <time>2016-08-09T09:00:44.000Z</time>
      </trkpt>
      <trkpt lat="45.42706" lon="5.73449">
        <ele>481</ele>
        <time>2016-08-09T09:00:45.000Z</time>
      </trkpt>
      <trkpt lat="45.42705" lon="5.73446">
        <ele>481</ele>
        <time>2016-08-09T09:00:46.000Z</time>
      </trkpt>
      <trkpt lat="45.42704" lon="5.73441">
        <ele>481</ele>
        <time>2016-08-09T09:00:47.000Z</time>
      </trkpt>
      <trkpt lat="45.42704" lon="5.73437">
        <ele>481</ele>
        <time>2016-08-09T09:00:48.000Z</time>
      </trkpt>
      <trkpt lat="45.42704" lon="5.73433">
        <ele>481</ele>
        <time>2016-08-09T09:00:49.000Z</time>
      </trkpt>
      <trkpt lat="45.42701" lon="5.73428">
        <ele>481</ele>
        <time>2016-08-09T09:00:50.000Z</time>
      </trkpt>
      <trkpt lat="45.42699" lon="5.73424">
        <ele>481</ele>
        <time>2016-08-09T09:00:51.000Z</time>
      </trkpt>
      <trkpt lat="45.42696" lon="5.7342">
        <ele>481</ele>
        <time>2016-08-09T09:00:52.000Z</time>
      </trkpt>
      <trkpt lat="45.42693" lon="5.73416">
        <ele>479</ele>
        <time>2016-08-09T09:00:53.000Z</time>
      </trkpt>
      <trkpt lat="45.42689" lon="5.73412">
        <ele>479</ele>
        <time>2016-08-09T09:00:54.000Z</time>
      </trkpt>
      <trkpt lat="45.42686" lon="5.73407">
        <ele>479</ele>
        <time>2016-08-09T09:00:55.000Z</time>
      </trkpt>
      <trkpt lat="45.42683" lon="5.73404">
        <ele>479</ele>
        <time>2016-08-09T09:00:56.000Z</time>
      </trkpt>
      <trkpt lat="45.4268" lon="5.734">
        <ele>479</ele>
        <time>2016-08-09T09:00:56.999Z</time>
      </trkpt>
      <trkpt lat="45.42677" lon="5.73397">
        <ele>479</ele>
        <time>2016-08-09T09:00:58.000Z</time>
      </trkpt>
      <trkpt lat="45.42674" lon="5.73393">
        <ele>479</ele>
        <time>2016-08-09T09:00:59.000Z</time>
      </trkpt>
      <trkpt lat="45.42671" lon="5.73389">
        <ele>479</ele>
        <time>2016-08-09T09:01:00.000Z</time>
      </trkpt>
      <trkpt lat="45.42668" lon="5.73383">
        <ele>479</ele>
        <time>2016-08-09T09:01:01.000Z</time>
      </trkpt>
      <trkpt lat="45.42663" lon="5.73378">
        <ele>481</ele>
        <time>2016-08-09T09:01:02.000Z</time>
      </trkpt>
      <trkpt lat="45.42659" lon="5.73373">
        <ele>481</ele>
        <time>2016-08-09T09:01:03.000Z</time>
      </trkpt>
      <trkpt lat="45.42655" lon="5.73368">
        <ele>481</ele>
        <time>2016-08-09T09:01:04.000Z</time>
      </trkpt>
      <trkpt lat="45.42651" lon="5.73363">
        <ele>481</ele>
        <time>2016-08-09T09:01:05.000Z</time>
      </trkpt>
      <trkpt lat="45.42646" lon="5.73358">
        <ele>481</ele>
        <time>2016-08-09T09:01:06.000Z</time>
      </trkpt>
      <trkpt lat="45.42642" lon="5.73353">
        <ele>481</ele>
        <time>2016-08-09T09:01:07.000Z</time>
      </trkpt>
      <trkpt lat="45.42637" lon="5.73348">
        <ele>481</ele>
        <time>2016-08-09T09:01:08.000Z</time>
      </trkpt>
      <trkpt lat="45.42633" lon="5.73344">
        <ele>481</ele>
        <time>2016-08-09T09:01:09.000Z</time>
      </trkpt>
      <trkpt lat="45.42629" lon="5.73339">
        <ele>481</ele>
        <time>2016-08-09T09:01:10.000Z</time>
      </trkpt>
      <trkpt lat="45.42627" lon="5.73334">
        <ele>481</ele>
        <time>2016-08-09T09:01:11.000Z</time>
      </trkpt>
      <trkpt lat="45.42626" lon="5.7333">
        <ele>479</ele>
        <time>2016-08-09T09:01:12.000Z</time>
      </trkpt>
      <trkpt lat="45.42625" lon="5.73325">
        <ele>479</ele>
        <time>2016-08-09T09:01:13.000Z</time>
      </trkpt>
      <trkpt lat="45.42625" lon="5.7332">
        <ele>479</ele>
        <time>2016-08-09T09:01:14.000Z</time>
      </trkpt>
      <trkpt lat="45.42625" lon="5.73315">
        <ele>479</ele>
        <time>2016-08-09T09:01:15.000Z</time>
      </trkpt>
      <trkpt lat="45.42626" lon="5.7331">
        <ele>479</ele>
        <time>2016-08-09T09:01:16.000Z</time>
      </trkpt>
      <trkpt lat="45.42627" lon="5.73307">
        <ele>479</ele>
        <time>2016-08-09T09:01:17.000Z</time>
      </trkpt>
      <trkpt lat="45.42631" lon="5.73305">
        <ele>478</ele>
        <time>2016-08-09T09:01:18.000Z</time>
      </trkpt>
      <trkpt lat="45.42634" lon="5.73303">
        <ele>478</ele>
        <time>2016-08-09T09:01:20.000Z</time>
      </trkpt>
      <trkpt lat="45.42636" lon="5.73302">
        <ele>478</ele>
        <time>2016-08-09T09:01:21.000Z</time>
      </trkpt>
      <trkpt lat="45.42638" lon="5.73301">
        <ele>478</ele>
        <time>2016-08-09T09:01:22.000Z</time>
      </trkpt>
      <trkpt lat="45.42641" lon="5.73299">
        <ele>478</ele>
        <time>2016-08-09T09:01:23.000Z</time>
      </trkpt>
      <trkpt lat="45.42644" lon="5.73298">
        <ele>478</ele>
        <time>2016-08-09T09:01:24.000Z</time>
      </trkpt>
      <trkpt lat="45.42646" lon="5.73298">
        <ele>478</ele>
        <time>2016-08-09T09:01:25.000Z</time>
      </trkpt>
      <trkpt lat="45.42649" lon="5.73297">
        <ele>478</ele>
        <time>2016-08-09T09:01:26.000Z</time>
      </trkpt>
      <trkpt lat="45.42651" lon="5.73296">
        <ele>478</ele>
        <time>2016-08-09T09:01:27.000Z</time>
      </trkpt>
      <trkpt lat="45.42653" lon="5.73294">
        <ele>477</ele>
        <time>2016-08-09T09:01:28.000Z</time>
      </trkpt>
      <trkpt lat="45.42655" lon="5.7329">
        <ele>477</ele>
        <time>2016-08-09T09:01:29.000Z</time>
      </trkpt>
      <trkpt lat="45.42656" lon="5.73286">
        <ele>477</ele>
        <time>2016-08-09T09:01:30.000Z</time>
      </trkpt>
      <trkpt lat="45.42657" lon="5.7328">
        <ele>476</ele>
        <time>2016-08-09T09:01:31.000Z</time>
      </trkpt>
      <trkpt lat="45.42658" lon="5.73275">
        <ele>476</ele>
        <time>2016-08-09T09:01:32.000Z</time>
      </trkpt>
      <trkpt lat="45.42658" lon="5.73269">
        <ele>476</ele>
        <time>2016-08-09T09:01:33.000Z</time>
      </trkpt>
      <trkpt lat="45.42658" lon="5.73265">
        <ele>475</ele>
        <time>2016-08-09T09:01:34.000Z</time>
      </trkpt>
      <trkpt lat="45.42657" lon="5.73261">
        <ele>475</ele>
        <time>2016-08-09T09:01:35.000Z</time>
      </trkpt>
      <trkpt lat="45.42657" lon="5.73257">
        <ele>474</ele>
        <time>2016-08-09T09:01:36.000Z</time>
      </trkpt>
      <trkpt lat="45.42657" lon="5.73254">
        <ele>474</ele>
        <time>2016-08-09T09:01:37.000Z</time>
      </trkpt>
      <trkpt lat="45.42659" lon="5.7325">
        <ele>474</ele>
        <time>2016-08-09T09:01:39.000Z</time>
      </trkpt>
      <trkpt lat="45.42663" lon="5.7325">
        <ele>473</ele>
        <time>2016-08-09T09:01:40.000Z</time>
      </trkpt>
      <trkpt lat="45.42667" lon="5.7325">
        <ele>472</ele>
        <time>2016-08-09T09:01:41.000Z</time>
      </trkpt>
      <trkpt lat="45.42672" lon="5.7325">
        <ele>472</ele>
        <time>2016-08-09T09:01:42.000Z</time>
      </trkpt>
      <trkpt lat="45.42677" lon="5.73251">
        <ele>472</ele>
        <time>2016-08-09T09:01:43.000Z</time>
      </trkpt>
      <trkpt lat="45.42686" lon="5.73252">
        <ele>472</ele>
        <time>2016-08-09T09:01:44.000Z</time>
      </trkpt>
      <trkpt lat="45.42691" lon="5.73252">
        <ele>472</ele>
        <time>2016-08-09T09:01:45.000Z</time>
      </trkpt>
      <trkpt lat="45.42695" lon="5.73252">
        <ele>472</ele>
        <time>2016-08-09T09:01:46.000Z</time>
      </trkpt>
      <trkpt lat="45.427" lon="5.73252">
        <ele>472</ele>
        <time>2016-08-09T09:01:47.000Z</time>
      </trkpt>
      <trkpt lat="45.42704" lon="5.73254">
        <ele>471</ele>
        <time>2016-08-09T09:01:48.000Z</time>
      </trkpt>
      <trkpt lat="45.4271" lon="5.73254">
        <ele>471</ele>
        <time>2016-08-09T09:01:49.000Z</time>
      </trkpt>
      <trkpt lat="45.42714" lon="5.73254">
        <ele>471</ele>
        <time>2016-08-09T09:01:50.000Z</time>
      </trkpt>
      <trkpt lat="45.42718" lon="5.73254">
        <ele>471</ele>
        <time>2016-08-09T09:01:51.000Z</time>
      </trkpt>
      <trkpt lat="45.42722" lon="5.73254">
        <ele>470</ele>
        <time>2016-08-09T09:01:52.000Z</time>
      </trkpt>
      <trkpt lat="45.42727" lon="5.73254">
        <ele>470</ele>
        <time>2016-08-09T09:01:53.000Z</time>
      </trkpt>
      <trkpt lat="45.4273" lon="5.73254">
        <ele>470</ele>
        <time>2016-08-09T09:01:54.000Z</time>
      </trkpt>
      <trkpt lat="45.42734" lon="5.73253">
        <ele>469</ele>
        <time>2016-08-09T09:01:55.000Z</time>
      </trkpt>
      <trkpt lat="45.42738" lon="5.73252">
        <ele>469</ele>
        <time>2016-08-09T09:01:56.000Z</time>
      </trkpt>
      <trkpt lat="45.42742" lon="5.73252">
        <ele>468</ele>
        <time>2016-08-09T09:01:57.000Z</time>
      </trkpt>
      <trkpt lat="45.42745" lon="5.73251">
        <ele>468</ele>
        <time>2016-08-09T09:01:58.000Z</time>
      </trkpt>
      <trkpt lat="45.42749" lon="5.73251">
        <ele>467</ele>
        <time>2016-08-09T09:01:59.000Z</time>
      </trkpt>
      <trkpt lat="45.42752" lon="5.73249">
        <ele>467</ele>
        <time>2016-08-09T09:02:00.000Z</time>
      </trkpt>
      <trkpt lat="45.42755" lon="5.73247">
        <ele>467</ele>
        <time>2016-08-09T09:02:01.000Z</time>
      </trkpt>
      <trkpt lat="45.42758" lon="5.73245">
        <ele>466</ele>
        <time>2016-08-09T09:02:02.000Z</time>
      </trkpt>
      <trkpt lat="45.4276" lon="5.73242">
        <ele>466</ele>
        <time>2016-08-09T09:02:03.000Z</time>
      </trkpt>
      <trkpt lat="45.42762" lon="5.73238">
        <ele>466</ele>
        <time>2016-08-09T09:02:04.000Z</time>
      </trkpt>
      <trkpt lat="45.42764" lon="5.73234">
        <ele>466</ele>
        <time>2016-08-09T09:02:05.000Z</time>
      </trkpt>
      <trkpt lat="45.42765" lon="5.73231">
        <ele>466</ele>
        <time>2016-08-09T09:02:06.000Z</time>
      </trkpt>
      <trkpt lat="45.42767" lon="5.73227">
        <ele>466</ele>
        <time>2016-08-09T09:02:07.000Z</time>
      </trkpt>
      <trkpt lat="45.42769" lon="5.73225">
        <ele>466</ele>
        <time>2016-08-09T09:02:08.000Z</time>
      </trkpt>
      <trkpt lat="45.42772" lon="5.73224">
        <ele>466</ele>
        <time>2016-08-09T09:02:09.000Z</time>
      </trkpt>
      <trkpt lat="45.42775" lon="5.73222">
        <ele>466</ele>
        <time>2016-08-09T09:02:10.000Z</time>
      </trkpt>
      <trkpt lat="45.4278" lon="5.73223">
        <ele>466</ele>
        <time>2016-08-09T09:02:11.000Z</time>
      </trkpt>
      <trkpt lat="45.42783" lon="5.73223">
        <ele>466</ele>
        <time>2016-08-09T09:02:12.000Z</time>
      </trkpt>
      <trkpt lat="45.42787" lon="5.73224">
        <ele>466</ele>
        <time>2016-08-09T09:02:13.000Z</time>
      </trkpt>
      <trkpt lat="45.42791" lon="5.73225">
        <ele>465</ele>
        <time>2016-08-09T09:02:14.000Z</time>
      </trkpt>
      <trkpt lat="45.42795" lon="5.73226">
        <ele>465</ele>
        <time>2016-08-09T09:02:15.000Z</time>
      </trkpt>
      <trkpt lat="45.42798" lon="5.73228">
        <ele>465</ele>
        <time>2016-08-09T09:02:16.000Z</time>
      </trkpt>
      <trkpt lat="45.42802" lon="5.73229">
        <ele>465</ele>
        <time>2016-08-09T09:02:17.000Z</time>
      </trkpt>
      <trkpt lat="45.42805" lon="5.73231">
        <ele>465</ele>
        <time>2016-08-09T09:02:18.000Z</time>
      </trkpt>
      <trkpt lat="45.42808" lon="5.73232">
        <ele>465</ele>
        <time>2016-08-09T09:02:19.000Z</time>
      </trkpt>
      <trkpt lat="45.42811" lon="5.73233">
        <ele>465</ele>
        <time>2016-08-09T09:02:20.000Z</time>
      </trkpt>
      <trkpt lat="45.42814" lon="5.73235">
        <ele>465</ele>
        <time>2016-08-09T09:02:21.000Z</time>
      </trkpt>
      <trkpt lat="45.42817" lon="5.73237">
        <ele>466</ele>
        <time>2016-08-09T09:02:22.000Z</time>
      </trkpt>
      <trkpt lat="45.4282" lon="5.73238">
        <ele>466</ele>
        <time>2016-08-09T09:02:23.000Z</time>
      </trkpt>
      <trkpt lat="45.42822" lon="5.7324">
        <ele>466</ele>
        <time>2016-08-09T09:02:24.000Z</time>
      </trkpt>
      <trkpt lat="45.42825" lon="5.73241">
        <ele>466</ele>
        <time>2016-08-09T09:02:25.000Z</time>
      </trkpt>
      <trkpt lat="45.42828" lon="5.73241">
        <ele>466</ele>
        <time>2016-08-09T09:02:26.000Z</time>
      </trkpt>
      <trkpt lat="45.42831" lon="5.73242">
        <ele>466</ele>
        <time>2016-08-09T09:02:27.000Z</time>
      </trkpt>
      <trkpt lat="45.42834" lon="5.73243">
        <ele>465</ele>
        <time>2016-08-09T09:02:28.000Z</time>
      </trkpt>
      <trkpt lat="45.42837" lon="5.73245">
        <ele>465</ele>
        <time>2016-08-09T09:02:29.000Z</time>
      </trkpt>
      <trkpt lat="45.4284" lon="5.73246">
        <ele>465</ele>
        <time>2016-08-09T09:02:30.000Z</time>
      </trkpt>
      <trkpt lat="45.42842" lon="5.73248">
        <ele>465</ele>
        <time>2016-08-09T09:02:31.000Z</time>
      </trkpt>
      <trkpt lat="45.42845" lon="5.73251">
        <ele>467</ele>
        <time>2016-08-09T09:02:32.000Z</time>
      </trkpt>
      <trkpt lat="45.42848" lon="5.73253">
        <ele>467</ele>
        <time>2016-08-09T09:02:33.000Z</time>
      </trkpt>
      <trkpt lat="45.4285" lon="5.73256">
        <ele>467</ele>
        <time>2016-08-09T09:02:34.000Z</time>
      </trkpt>
      <trkpt lat="45.42853" lon="5.73258">
        <ele>467</ele>
        <time>2016-08-09T09:02:35.000Z</time>
      </trkpt>
      <trkpt lat="45.42855" lon="5.7326">
        <ele>467</ele>
        <time>2016-08-09T09:02:36.000Z</time>
      </trkpt>
      <trkpt lat="45.42858" lon="5.73263">
        <ele>467</ele>
        <time>2016-08-09T09:02:37.000Z</time>
      </trkpt>
      <trkpt lat="45.4286" lon="5.73265">
        <ele>467</ele>
        <time>2016-08-09T09:02:38.000Z</time>
      </trkpt>
      <trkpt lat="45.42863" lon="5.73268">
        <ele>467</ele>
        <time>2016-08-09T09:02:39.000Z</time>
      </trkpt>
      <trkpt lat="45.42866" lon="5.7327">
        <ele>467</ele>
        <time>2016-08-09T09:02:40.000Z</time>
      </trkpt>
      <trkpt lat="45.42868" lon="5.73273">
        <ele>467</ele>
        <time>2016-08-09T09:02:41.000Z</time>
      </trkpt>
      <trkpt lat="45.4287" lon="5.73275">
        <ele>468</ele>
        <time>2016-08-09T09:02:42.000Z</time>
      </trkpt>
      <trkpt lat="45.42873" lon="5.73278">
        <ele>468</ele>
        <time>2016-08-09T09:02:43.000Z</time>
      </trkpt>
      <trkpt lat="45.42875" lon="5.73279">
        <ele>468</ele>
        <time>2016-08-09T09:02:44.000Z</time>
      </trkpt>
      <trkpt lat="45.42877" lon="5.73281">
        <ele>468</ele>
        <time>2016-08-09T09:02:45.000Z</time>
      </trkpt>
      <trkpt lat="45.42881" lon="5.73284">
        <ele>468</ele>
        <time>2016-08-09T09:02:47.000Z</time>
      </trkpt>
      <trkpt lat="45.42882" lon="5.73287">
        <ele>468</ele>
        <time>2016-08-09T09:02:48.000Z</time>
      </trkpt>
      <trkpt lat="45.42884" lon="5.73289">
        <ele>468</ele>
        <time>2016-08-09T09:02:49.000Z</time>
      </trkpt>
      <trkpt lat="45.42887" lon="5.73292">
        <ele>468</ele>
        <time>2016-08-09T09:02:50.000Z</time>
      </trkpt>
      <trkpt lat="45.42889" lon="5.73294">
        <ele>468</ele>
        <time>2016-08-09T09:02:51.000Z</time>
      </trkpt>
      <trkpt lat="45.42892" lon="5.73296">
        <ele>468</ele>
        <time>2016-08-09T09:02:52.000Z</time>
      </trkpt>
      <trkpt lat="45.42895" lon="5.73299">
        <ele>468</ele>
        <time>2016-08-09T09:02:53.000Z</time>
      </trkpt>
      <trkpt lat="45.42898" lon="5.73301">
        <ele>468</ele>
        <time>2016-08-09T09:02:54.000Z</time>
      </trkpt>
      <trkpt lat="45.42902" lon="5.73303">
        <ele>469</ele>
        <time>2016-08-09T09:02:55.000Z</time>
      </trkpt>
      <trkpt lat="45.42906" lon="5.73306">
        <ele>469</ele>
        <time>2016-08-09T09:02:56.000Z</time>
      </trkpt>
      <trkpt lat="45.42909" lon="5.73308">
        <ele>469</ele>
        <time>2016-08-09T09:02:57.000Z</time>
      </trkpt>
      <trkpt lat="45.42912" lon="5.7331">
        <ele>469</ele>
        <time>2016-08-09T09:02:58.002Z</time>
      </trkpt>
      <trkpt lat="45.42913" lon="5.73311">
        <ele>469</ele>
        <time>2016-08-09T09:02:59.000Z</time>
      </trkpt>
      <trkpt lat="45.42916" lon="5.73313">
        <ele>469</ele>
        <time>2016-08-09T09:03:00.000Z</time>
      </trkpt>
      <trkpt lat="45.42918" lon="5.73315">
        <ele>468</ele>
        <time>2016-08-09T09:03:01.000Z</time>
      </trkpt>
      <trkpt lat="45.4292" lon="5.73317">
        <ele>468</ele>
        <time>2016-08-09T09:03:02.000Z</time>
      </trkpt>
      <trkpt lat="45.42923" lon="5.73319">
        <ele>468</ele>
        <time>2016-08-09T09:03:03.000Z</time>
      </trkpt>
      <trkpt lat="45.42925" lon="5.73321">
        <ele>468</ele>
        <time>2016-08-09T09:03:04.000Z</time>
      </trkpt>
      <trkpt lat="45.42927" lon="5.73322">
        <ele>468</ele>
        <time>2016-08-09T09:03:05.000Z</time>
      </trkpt>
      <trkpt lat="45.42929" lon="5.73324">
        <ele>468</ele>
        <time>2016-08-09T09:03:06.000Z</time>
      </trkpt>
      <trkpt lat="45.42932" lon="5.73325">
        <ele>468</ele>
        <time>2016-08-09T09:03:07.000Z</time>
      </trkpt>
      <trkpt lat="45.42935" lon="5.73327">
        <ele>468</ele>
        <time>2016-08-09T09:03:08.000Z</time>
      </trkpt>
      <trkpt lat="45.42938" lon="5.73327">
        <ele>468</ele>
        <time>2016-08-09T09:03:09.000Z</time>
      </trkpt>
      <trkpt lat="45.42941" lon="5.73327">
        <ele>467</ele>
        <time>2016-08-09T09:03:10.000Z</time>
      </trkpt>
      <trkpt lat="45.42944" lon="5.73328">
        <ele>467</ele>
        <time>2016-08-09T09:03:11.000Z</time>
      </trkpt>
      <trkpt lat="45.42947" lon="5.73328">
        <ele>467</ele>
        <time>2016-08-09T09:03:12.000Z</time>
      </trkpt>
      <trkpt lat="45.4295" lon="5.73329">
        <ele>467</ele>
        <time>2016-08-09T09:03:13.000Z</time>
      </trkpt>
      <trkpt lat="45.42952" lon="5.7333">
        <ele>467</ele>
        <time>2016-08-09T09:03:14.000Z</time>
      </trkpt>
      <trkpt lat="45.42955" lon="5.73331">
        <ele>467</ele>
        <time>2016-08-09T09:03:15.000Z</time>
      </trkpt>
      <trkpt lat="45.42957" lon="5.73333">
        <ele>467</ele>
        <time>2016-08-09T09:03:16.000Z</time>
      </trkpt>
      <trkpt lat="45.4296" lon="5.73334">
        <ele>470</ele>
        <time>2016-08-09T09:03:17.000Z</time>
      </trkpt>
      <trkpt lat="45.42963" lon="5.73336">
        <ele>470</ele>
        <time>2016-08-09T09:03:18.000Z</time>
      </trkpt>
      <trkpt lat="45.42966" lon="5.73338">
        <ele>469</ele>
        <time>2016-08-09T09:03:19.000Z</time>
      </trkpt>
      <trkpt lat="45.42969" lon="5.7334">
        <ele>469</ele>
        <time>2016-08-09T09:03:20.000Z</time>
      </trkpt>
      <trkpt lat="45.42973" lon="5.73341">
        <ele>469</ele>
        <time>2016-08-09T09:03:21.000Z</time>
      </trkpt>
      <trkpt lat="45.42977" lon="5.73343">
        <ele>469</ele>
        <time>2016-08-09T09:03:22.000Z</time>
      </trkpt>
      <trkpt lat="45.42982" lon="5.73345">
        <ele>469</ele>
        <time>2016-08-09T09:03:23.000Z</time>
      </trkpt>
      <trkpt lat="45.42987" lon="5.73347">
        <ele>469</ele>
        <time>2016-08-09T09:03:24.000Z</time>
      </trkpt>
      <trkpt lat="45.42992" lon="5.7335">
        <ele>469</ele>
        <time>2016-08-09T09:03:25.000Z</time>
      </trkpt>
      <trkpt lat="45.42996" lon="5.73352">
        <ele>469</ele>
        <time>2016-08-09T09:03:26.000Z</time>
      </trkpt>
      <trkpt lat="45.43001" lon="5.73355">
        <ele>468</ele>
        <time>2016-08-09T09:03:27.000Z</time>
      </trkpt>
      <trkpt lat="45.43005" lon="5.73357">
        <ele>468</ele>
        <time>2016-08-09T09:03:28.000Z</time>
      </trkpt>
      <trkpt lat="45.43009" lon="5.73358">
        <ele>467</ele>
        <time>2016-08-09T09:03:29.000Z</time>
      </trkpt>
      <trkpt lat="45.43013" lon="5.7336">
        <ele>467</ele>
        <time>2016-08-09T09:03:30.000Z</time>
      </trkpt>
      <trkpt lat="45.43017" lon="5.73362">
        <ele>467</ele>
        <time>2016-08-09T09:03:31.000Z</time>
      </trkpt>
      <trkpt lat="45.43021" lon="5.73363">
        <ele>467</ele>
        <time>2016-08-09T09:03:32.000Z</time>
      </trkpt>
      <trkpt lat="45.43025" lon="5.73364">
        <ele>467</ele>
        <time>2016-08-09T09:03:33.000Z</time>
      </trkpt>
      <trkpt lat="45.43039" lon="5.73364">
        <ele>467</ele>
        <time>2016-08-09T09:03:34.000Z</time>
      </trkpt>
      <trkpt lat="45.43042" lon="5.73366">
        <ele>467</ele>
        <time>2016-08-09T09:03:35.000Z</time>
      </trkpt>
      <trkpt lat="45.43045" lon="5.73367">
        <ele>467</ele>
        <time>2016-08-09T09:03:36.000Z</time>
      </trkpt>
      <trkpt lat="45.43049" lon="5.73368">
        <ele>466</ele>
        <time>2016-08-09T09:03:37.000Z</time>
      </trkpt>
      <trkpt lat="45.43052" lon="5.73372">
        <ele>467</ele>
        <time>2016-08-09T09:03:38.000Z</time>
      </trkpt>
      <trkpt lat="45.43059" lon="5.73373">
        <ele>466</ele>
        <time>2016-08-09T09:03:39.000Z</time>
      </trkpt>
      <trkpt lat="45.43062" lon="5.73373">
        <ele>466</ele>
        <time>2016-08-09T09:03:40.000Z</time>
      </trkpt>
      <trkpt lat="45.43069" lon="5.73375">
        <ele>466</ele>
        <time>2016-08-09T09:03:41.000Z</time>
      </trkpt>
      <trkpt lat="45.43074" lon="5.73375">
        <ele>466</ele>
        <time>2016-08-09T09:03:42.000Z</time>
      </trkpt>
      <trkpt lat="45.43079" lon="5.73376">
        <ele>466</ele>
        <time>2016-08-09T09:03:43.000Z</time>
      </trkpt>
      <trkpt lat="45.43083" lon="5.73375">
        <ele>466</ele>
        <time>2016-08-09T09:03:44.000Z</time>
      </trkpt>
      <trkpt lat="45.43088" lon="5.73377">
        <ele>461</ele>
        <time>2016-08-09T09:03:45.000Z</time>
      </trkpt>
      <trkpt lat="45.43093" lon="5.73378">
        <ele>461</ele>
        <time>2016-08-09T09:03:46.000Z</time>
      </trkpt>
      <trkpt lat="45.43098" lon="5.73379">
        <ele>461</ele>
        <time>2016-08-09T09:03:47.000Z</time>
      </trkpt>
      <trkpt lat="45.43105" lon="5.73383">
        <ele>461</ele>
        <time>2016-08-09T09:03:48.000Z</time>
      </trkpt>
      <trkpt lat="45.4311" lon="5.73385">
        <ele>460</ele>
        <time>2016-08-09T09:03:49.000Z</time>
      </trkpt>
      <trkpt lat="45.43115" lon="5.73387">
        <ele>460</ele>
        <time>2016-08-09T09:03:50.000Z</time>
      </trkpt>
      <trkpt lat="45.43122" lon="5.73389">
        <ele>460</ele>
        <time>2016-08-09T09:03:51.000Z</time>
      </trkpt>
      <trkpt lat="45.43129" lon="5.73393">
        <ele>459</ele>
        <time>2016-08-09T09:03:52.000Z</time>
      </trkpt>
      <trkpt lat="45.43136" lon="5.73393">
        <ele>459</ele>
        <time>2016-08-09T09:03:53.000Z</time>
      </trkpt>
      <trkpt lat="45.43144" lon="5.73397">
        <ele>459</ele>
        <time>2016-08-09T09:03:54.000Z</time>
      </trkpt>
      <trkpt lat="45.43151" lon="5.73398">
        <ele>458</ele>
        <time>2016-08-09T09:03:55.000Z</time>
      </trkpt>
      <trkpt lat="45.43156" lon="5.73402">
        <ele>458</ele>
        <time>2016-08-09T09:03:56.000Z</time>
      </trkpt>
      <trkpt lat="45.43162" lon="5.73405">
        <ele>458</ele>
        <time>2016-08-09T09:03:57.000Z</time>
      </trkpt>
      <trkpt lat="45.43166" lon="5.73407">
        <ele>458</ele>
        <time>2016-08-09T09:03:58.000Z</time>
      </trkpt>
      <trkpt lat="45.4317" lon="5.7341">
        <ele>456</ele>
        <time>2016-08-09T09:03:59.000Z</time>
      </trkpt>
      <trkpt lat="45.43174" lon="5.73412">
        <ele>455</ele>
        <time>2016-08-09T09:04:00.000Z</time>
      </trkpt>
      <trkpt lat="45.43179" lon="5.73412">
        <ele>455</ele>
        <time>2016-08-09T09:04:01.000Z</time>
      </trkpt>
      <trkpt lat="45.43183" lon="5.73414">
        <ele>454</ele>
        <time>2016-08-09T09:04:02.000Z</time>
      </trkpt>
      <trkpt lat="45.43187" lon="5.73417">
        <ele>453</ele>
        <time>2016-08-09T09:04:03.000Z</time>
      </trkpt>
      <trkpt lat="45.4319" lon="5.73418">
        <ele>454</ele>
        <time>2016-08-09T09:04:04.000Z</time>
      </trkpt>
      <trkpt lat="45.43194" lon="5.7342">
        <ele>454</ele>
        <time>2016-08-09T09:04:05.000Z</time>
      </trkpt>
      <trkpt lat="45.43199" lon="5.73422">
        <ele>453</ele>
        <time>2016-08-09T09:04:06.000Z</time>
      </trkpt>
      <trkpt lat="45.43207" lon="5.73423">
        <ele>453</ele>
        <time>2016-08-09T09:04:07.000Z</time>
      </trkpt>
      <trkpt lat="45.43213" lon="5.73423">
        <ele>452</ele>
        <time>2016-08-09T09:04:08.000Z</time>
      </trkpt>
      <trkpt lat="45.4322" lon="5.73425">
        <ele>452</ele>
        <time>2016-08-09T09:04:09.000Z</time>
      </trkpt>
      <trkpt lat="45.43224" lon="5.73424">
        <ele>452</ele>
        <time>2016-08-09T09:04:10.000Z</time>
      </trkpt>
      <trkpt lat="45.43231" lon="5.73425">
        <ele>451</ele>
        <time>2016-08-09T09:04:11.000Z</time>
      </trkpt>
      <trkpt lat="45.43236" lon="5.73429">
        <ele>451</ele>
        <time>2016-08-09T09:04:12.000Z</time>
      </trkpt>
      <trkpt lat="45.43242" lon="5.73433">
        <ele>451</ele>
        <time>2016-08-09T09:04:13.000Z</time>
      </trkpt>
      <trkpt lat="45.43248" lon="5.73441">
        <ele>451</ele>
        <time>2016-08-09T09:04:14.000Z</time>
      </trkpt>
      <trkpt lat="45.43253" lon="5.73448">
        <ele>447</ele>
        <time>2016-08-09T09:04:15.000Z</time>
      </trkpt>
      <trkpt lat="45.43259" lon="5.73456">
        <ele>446</ele>
        <time>2016-08-09T09:04:16.000Z</time>
      </trkpt>
      <trkpt lat="45.43264" lon="5.73464">
        <ele>446</ele>
        <time>2016-08-09T09:04:17.000Z</time>
      </trkpt>
      <trkpt lat="45.43269" lon="5.73474">
        <ele>446</ele>
        <time>2016-08-09T09:04:18.000Z</time>
      </trkpt>
      <trkpt lat="45.43276" lon="5.7348">
        <ele>445</ele>
        <time>2016-08-09T09:04:19.000Z</time>
      </trkpt>
      <trkpt lat="45.43283" lon="5.73487">
        <ele>445</ele>
        <time>2016-08-09T09:04:20.000Z</time>
      </trkpt>
      <trkpt lat="45.43295" lon="5.7349">
        <ele>445</ele>
        <time>2016-08-09T09:04:21.000Z</time>
      </trkpt>
      <trkpt lat="45.43303" lon="5.73495">
        <ele>444</ele>
        <time>2016-08-09T09:04:22.000Z</time>
      </trkpt>
      <trkpt lat="45.43308" lon="5.735">
        <ele>444</ele>
        <time>2016-08-09T09:04:23.000Z</time>
      </trkpt>
      <trkpt lat="45.43314" lon="5.73504">
        <ele>441</ele>
        <time>2016-08-09T09:04:24.000Z</time>
      </trkpt>
      <trkpt lat="45.4332" lon="5.73507">
        <ele>441</ele>
        <time>2016-08-09T09:04:25.000Z</time>
      </trkpt>
      <trkpt lat="45.43324" lon="5.73509">
        <ele>441</ele>
        <time>2016-08-09T09:04:26.000Z</time>
      </trkpt>
      <trkpt lat="45.43328" lon="5.7351">
        <ele>441</ele>
        <time>2016-08-09T09:04:27.000Z</time>
      </trkpt>
      <trkpt lat="45.4333" lon="5.7351">
        <ele>441</ele>
        <time>2016-08-09T09:04:28.000Z</time>
      </trkpt>
      <trkpt lat="45.43332" lon="5.7351">
        <ele>441</ele>
        <time>2016-08-09T09:04:29.000Z</time>
      </trkpt>
      <trkpt lat="45.43335" lon="5.73511">
        <ele>440</ele>
        <time>2016-08-09T09:04:30.000Z</time>
      </trkpt>
      <trkpt lat="45.43337" lon="5.73513">
        <ele>440</ele>
        <time>2016-08-09T09:04:31.000Z</time>
      </trkpt>
      <trkpt lat="45.43339" lon="5.73514">
        <ele>440</ele>
        <time>2016-08-09T09:04:32.000Z</time>
      </trkpt>
      <trkpt lat="45.43342" lon="5.73517">
        <ele>439</ele>
        <time>2016-08-09T09:04:34.000Z</time>
      </trkpt>
      <trkpt lat="45.43344" lon="5.73517">
        <ele>439</ele>
        <time>2016-08-09T09:04:35.000Z</time>
      </trkpt>
      <trkpt lat="45.43347" lon="5.73521">
        <ele>439</ele>
        <time>2016-08-09T09:04:38.000Z</time>
      </trkpt>
      <trkpt lat="45.43348" lon="5.73522">
        <ele>439</ele>
        <time>2016-08-09T09:04:39.000Z</time>
      </trkpt>
      <trkpt lat="45.43351" lon="5.73523">
        <ele>439</ele>
        <time>2016-08-09T09:04:40.000Z</time>
      </trkpt>
      <trkpt lat="45.43353" lon="5.73524">
        <ele>439</ele>
        <time>2016-08-09T09:04:41.000Z</time>
      </trkpt>
      <trkpt lat="45.43355" lon="5.73524">
        <ele>439</ele>
        <time>2016-08-09T09:04:42.000Z</time>
      </trkpt>
      <trkpt lat="45.43358" lon="5.73525">
        <ele>439</ele>
        <time>2016-08-09T09:04:43.000Z</time>
      </trkpt>
      <trkpt lat="45.43361" lon="5.73526">
        <ele>439</ele>
        <time>2016-08-09T09:04:44.000Z</time>
      </trkpt>
      <trkpt lat="45.43363" lon="5.73527">
        <ele>439</ele>
        <time>2016-08-09T09:04:45.000Z</time>
      </trkpt>
      <trkpt lat="45.43366" lon="5.73528">
        <ele>438</ele>
        <time>2016-08-09T09:04:46.000Z</time>
      </trkpt>
      <trkpt lat="45.43369" lon="5.73529">
        <ele>438</ele>
        <time>2016-08-09T09:04:47.000Z</time>
      </trkpt>
      <trkpt lat="45.43371" lon="5.73529">
        <ele>438</ele>
        <time>2016-08-09T09:04:48.000Z</time>
      </trkpt>
      <trkpt lat="45.43374" lon="5.73529">
        <ele>438</ele>
        <time>2016-08-09T09:04:49.000Z</time>
      </trkpt>
      <trkpt lat="45.43377" lon="5.73529">
        <ele>438</ele>
        <time>2016-08-09T09:04:50.000Z</time>
      </trkpt>
      <trkpt lat="45.43379" lon="5.73529">
        <ele>438</ele>
        <time>2016-08-09T09:04:51.000Z</time>
      </trkpt>
      <trkpt lat="45.43382" lon="5.7353">
        <ele>438</ele>
        <time>2016-08-09T09:04:52.000Z</time>
      </trkpt>
      <trkpt lat="45.43384" lon="5.7353">
        <ele>438</ele>
        <time>2016-08-09T09:04:53.001Z</time>
      </trkpt>
      <trkpt lat="45.43388" lon="5.7353">
        <ele>438</ele>
        <time>2016-08-09T09:05:26.000Z</time>
      </trkpt>
      <trkpt lat="45.43389" lon="5.73531">
        <ele>438</ele>
        <time>2016-08-09T09:05:27.000Z</time>
      </trkpt>
      <trkpt lat="45.43392" lon="5.73531">
        <ele>438</ele>
        <time>2016-08-09T09:05:29.000Z</time>
      </trkpt>
      <trkpt lat="45.43394" lon="5.73532">
        <ele>438</ele>
        <time>2016-08-09T09:05:30.000Z</time>
      </trkpt>
      <trkpt lat="45.43396" lon="5.73533">
        <ele>438</ele>
        <time>2016-08-09T09:05:31.000Z</time>
      </trkpt>
      <trkpt lat="45.43399" lon="5.73535">
        <ele>438</ele>
        <time>2016-08-09T09:05:32.000Z</time>
      </trkpt>
      <trkpt lat="45.43402" lon="5.73537">
        <ele>438</ele>
        <time>2016-08-09T09:05:33.000Z</time>
      </trkpt>
      <trkpt lat="45.43405" lon="5.73539">
        <ele>438</ele>
        <time>2016-08-09T09:05:34.000Z</time>
      </trkpt>
      <trkpt lat="45.43409" lon="5.73542">
        <ele>438</ele>
        <time>2016-08-09T09:05:35.000Z</time>
      </trkpt>
      <trkpt lat="45.43412" lon="5.73544">
        <ele>438</ele>
        <time>2016-08-09T09:05:36.001Z</time>
      </trkpt>
      <trkpt lat="45.43418" lon="5.73549">
        <ele>437</ele>
        <time>2016-08-09T09:05:37.000Z</time>
      </trkpt>
      <trkpt lat="45.43423" lon="5.73551">
        <ele>437</ele>
        <time>2016-08-09T09:05:38.000Z</time>
      </trkpt>
      <trkpt lat="45.43427" lon="5.73553">
        <ele>437</ele>
        <time>2016-08-09T09:05:39.000Z</time>
      </trkpt>
      <trkpt lat="45.43431" lon="5.73555">
        <ele>437</ele>
        <time>2016-08-09T09:05:40.000Z</time>
      </trkpt>
      <trkpt lat="45.43435" lon="5.73556">
        <ele>437</ele>
        <time>2016-08-09T09:05:41.000Z</time>
      </trkpt>
      <trkpt lat="45.43439" lon="5.73558">
        <ele>437</ele>
        <time>2016-08-09T09:05:42.000Z</time>
      </trkpt>
      <trkpt lat="45.43444" lon="5.7356">
        <ele>437</ele>
        <time>2016-08-09T09:05:43.000Z</time>
      </trkpt>
      <trkpt lat="45.43449" lon="5.73562">
        <ele>437</ele>
        <time>2016-08-09T09:05:44.001Z</time>
      </trkpt>
      <trkpt lat="45.43453" lon="5.73563">
        <ele>437</ele>
        <time>2016-08-09T09:05:45.000Z</time>
      </trkpt>
      <trkpt lat="45.43458" lon="5.73564">
        <ele>437</ele>
        <time>2016-08-09T09:05:46.000Z</time>
      </trkpt>
      <trkpt lat="45.43463" lon="5.73567">
        <ele>437</ele>
        <time>2016-08-09T09:05:47.000Z</time>
      </trkpt>
      <trkpt lat="45.43468" lon="5.7357">
        <ele>437</ele>
        <time>2016-08-09T09:05:48.000Z</time>
      </trkpt>
      <trkpt lat="45.43472" lon="5.73574">
        <ele>437</ele>
        <time>2016-08-09T09:05:49.000Z</time>
      </trkpt>
      <trkpt lat="45.43477" lon="5.73578">
        <ele>436</ele>
        <time>2016-08-09T09:05:50.000Z</time>
      </trkpt>
      <trkpt lat="45.43478" lon="5.73583">
        <ele>436</ele>
        <time>2016-08-09T09:05:51.000Z</time>
      </trkpt>
      <trkpt lat="45.43481" lon="5.73588">
        <ele>434</ele>
        <time>2016-08-09T09:05:52.000Z</time>
      </trkpt>
      <trkpt lat="45.43485" lon="5.73589">
        <ele>434</ele>
        <time>2016-08-09T09:05:54.000Z</time>
      </trkpt>
      <trkpt lat="45.43488" lon="5.73588">
        <ele>434</ele>
        <time>2016-08-09T09:05:55.000Z</time>
      </trkpt>
      <trkpt lat="45.4349" lon="5.73584">
        <ele>435</ele>
        <time>2016-08-09T09:05:56.000Z</time>
      </trkpt>
      <trkpt lat="45.43493" lon="5.73581">
        <ele>436</ele>
        <time>2016-08-09T09:05:57.000Z</time>
      </trkpt>
      <trkpt lat="45.43495" lon="5.73578">
        <ele>436</ele>
        <time>2016-08-09T09:05:58.000Z</time>
      </trkpt>
      <trkpt lat="45.43496" lon="5.73575">
        <ele>436</ele>
        <time>2016-08-09T09:05:59.000Z</time>
      </trkpt>
      <trkpt lat="45.43498" lon="5.7357">
        <ele>436</ele>
        <time>2016-08-09T09:06:01.000Z</time>
      </trkpt>
      <trkpt lat="45.43499" lon="5.73568">
        <ele>436</ele>
        <time>2016-08-09T09:06:02.000Z</time>
      </trkpt>
      <trkpt lat="45.43499" lon="5.73562">
        <ele>437</ele>
        <time>2016-08-09T09:06:04.000Z</time>
      </trkpt>
      <trkpt lat="45.43498" lon="5.73559">
        <ele>437</ele>
        <time>2016-08-09T09:06:05.000Z</time>
      </trkpt>
      <trkpt lat="45.43497" lon="5.73554">
        <ele>437</ele>
        <time>2016-08-09T09:06:07.000Z</time>
      </trkpt>
      <trkpt lat="45.43497" lon="5.73551">
        <ele>437</ele>
        <time>2016-08-09T09:06:08.000Z</time>
      </trkpt>
      <trkpt lat="45.43495" lon="5.73545">
        <ele>437</ele>
        <time>2016-08-09T09:06:10.000Z</time>
      </trkpt>
      <trkpt lat="45.43494" lon="5.73543">
        <ele>437</ele>
        <time>2016-08-09T09:06:11.000Z</time>
      </trkpt>
      <trkpt lat="45.43492" lon="5.73539">
        <ele>437</ele>
        <time>2016-08-09T09:06:13.000Z</time>
      </trkpt>
      <trkpt lat="45.43492" lon="5.73536">
        <ele>437</ele>
        <time>2016-08-09T09:06:14.000Z</time>
      </trkpt>
      <trkpt lat="45.43492" lon="5.73531">
        <ele>437</ele>
        <time>2016-08-09T09:06:16.000Z</time>
      </trkpt>
      <trkpt lat="45.43492" lon="5.73527">
        <ele>437</ele>
        <time>2016-08-09T09:06:17.000Z</time>
      </trkpt>
      <trkpt lat="45.43493" lon="5.73524">
        <ele>437</ele>
        <time>2016-08-09T09:06:18.000Z</time>
      </trkpt>
      <trkpt lat="45.43494" lon="5.73521">
        <ele>437</ele>
        <time>2016-08-09T09:06:19.000Z</time>
      </trkpt>
      <trkpt lat="45.43495" lon="5.73515">
        <ele>437</ele>
        <time>2016-08-09T09:06:21.000Z</time>
      </trkpt>
      <trkpt lat="45.43495" lon="5.73512">
        <ele>437</ele>
        <time>2016-08-09T09:06:22.000Z</time>
      </trkpt>
      <trkpt lat="45.43497" lon="5.73507">
        <ele>437</ele>
        <time>2016-08-09T09:06:24.002Z</time>
      </trkpt>
      <trkpt lat="45.43497" lon="5.73506">
        <ele>437</ele>
        <time>2016-08-09T09:06:25.001Z</time>
      </trkpt>
      <trkpt lat="45.43501" lon="5.73503">
        <ele>436</ele>
        <time>2016-08-09T09:06:26.999Z</time>
      </trkpt>
      <trkpt lat="45.43501" lon="5.73501">
        <ele>437</ele>
        <time>2016-08-09T09:06:28.000Z</time>
      </trkpt>
      <trkpt lat="45.43502" lon="5.735">
        <ele>436</ele>
        <time>2016-08-09T09:06:28.999Z</time>
      </trkpt>
      <trkpt lat="45.43497" lon="5.73496">
        <ele>437</ele>
        <time>2016-08-09T09:06:30.000Z</time>
      </trkpt>
      <trkpt lat="45.43494" lon="5.73494">
        <ele>437</ele>
        <time>2016-08-09T09:06:31.000Z</time>
      </trkpt>
      <trkpt lat="45.43491" lon="5.73491">
        <ele>436</ele>
        <time>2016-08-09T09:06:32.000Z</time>
      </trkpt>
      <trkpt lat="45.43489" lon="5.73489">
        <ele>436</ele>
        <time>2016-08-09T09:06:33.001Z</time>
      </trkpt>
      <trkpt lat="45.43485" lon="5.73485">
        <ele>436</ele>
        <time>2016-08-09T09:06:34.000Z</time>
      </trkpt>
      <trkpt lat="45.43482" lon="5.73482">
        <ele>436</ele>
        <time>2016-08-09T09:06:35.000Z</time>
      </trkpt>
      <trkpt lat="45.4348" lon="5.73478">
        <ele>436</ele>
        <time>2016-08-09T09:06:36.000Z</time>
      </trkpt>
      <trkpt lat="45.43479" lon="5.73475">
        <ele>436</ele>
        <time>2016-08-09T09:06:37.000Z</time>
      </trkpt>
      <trkpt lat="45.43477" lon="5.73471">
        <ele>436</ele>
        <time>2016-08-09T09:06:38.000Z</time>
      </trkpt>
      <trkpt lat="45.43477" lon="5.73468">
        <ele>436</ele>
        <time>2016-08-09T09:06:39.000Z</time>
      </trkpt>
      <trkpt lat="45.43476" lon="5.73464">
        <ele>435</ele>
        <time>2016-08-09T09:06:40.000Z</time>
      </trkpt>
      <trkpt lat="45.43475" lon="5.73458">
        <ele>435</ele>
        <time>2016-08-09T09:06:41.000Z</time>
      </trkpt>
      <trkpt lat="45.43474" lon="5.73453">
        <ele>435</ele>
        <time>2016-08-09T09:06:42.000Z</time>
      </trkpt>
      <trkpt lat="45.43473" lon="5.73448">
        <ele>435</ele>
        <time>2016-08-09T09:06:43.000Z</time>
      </trkpt>
      <trkpt lat="45.43473" lon="5.73444">
        <ele>435</ele>
        <time>2016-08-09T09:06:44.000Z</time>
      </trkpt>
      <trkpt lat="45.43471" lon="5.73439">
        <ele>434</ele>
        <time>2016-08-09T09:06:45.000Z</time>
      </trkpt>
      <trkpt lat="45.4347" lon="5.73434">
        <ele>434</ele>
        <time>2016-08-09T09:06:46.000Z</time>
      </trkpt>
      <trkpt lat="45.43467" lon="5.73428">
        <ele>434</ele>
        <time>2016-08-09T09:06:47.000Z</time>
      </trkpt>
      <trkpt lat="45.43464" lon="5.73422">
        <ele>434</ele>
        <time>2016-08-09T09:06:48.000Z</time>
      </trkpt>
      <trkpt lat="45.43461" lon="5.73416">
        <ele>431</ele>
        <time>2016-08-09T09:06:49.000Z</time>
      </trkpt>
      <trkpt lat="45.43459" lon="5.7341">
        <ele>431</ele>
        <time>2016-08-09T09:06:50.000Z</time>
      </trkpt>
      <trkpt lat="45.43457" lon="5.73404">
        <ele>431</ele>
        <time>2016-08-09T09:06:51.000Z</time>
      </trkpt>
      <trkpt lat="45.43455" lon="5.73398">
        <ele>431</ele>
        <time>2016-08-09T09:06:52.000Z</time>
      </trkpt>
      <trkpt lat="45.43453" lon="5.73393">
        <ele>431</ele>
        <time>2016-08-09T09:06:53.000Z</time>
      </trkpt>
      <trkpt lat="45.43452" lon="5.73389">
        <ele>431</ele>
        <time>2016-08-09T09:06:54.000Z</time>
      </trkpt>
      <trkpt lat="45.43451" lon="5.73384">
        <ele>431</ele>
        <time>2016-08-09T09:06:55.000Z</time>
      </trkpt>
      <trkpt lat="45.43451" lon="5.7338">
        <ele>431</ele>
        <time>2016-08-09T09:06:56.000Z</time>
      </trkpt>
      <trkpt lat="45.43451" lon="5.73376">
        <ele>431</ele>
        <time>2016-08-09T09:06:57.000Z</time>
      </trkpt>
      <trkpt lat="45.4345" lon="5.73373">
        <ele>431</ele>
        <time>2016-08-09T09:06:58.000Z</time>
      </trkpt>
      <trkpt lat="45.43449" lon="5.73368">
        <ele>431</ele>
        <time>2016-08-09T09:06:59.000Z</time>
      </trkpt>
      <trkpt lat="45.43448" lon="5.73364">
        <ele>431</ele>
        <time>2016-08-09T09:07:00.000Z</time>
      </trkpt>
      <trkpt lat="45.43447" lon="5.73359">
        <ele>431</ele>
        <time>2016-08-09T09:07:01.000Z</time>
      </trkpt>
      <trkpt lat="45.43446" lon="5.73353">
        <ele>431</ele>
        <time>2016-08-09T09:07:02.000Z</time>
      </trkpt>
      <trkpt lat="45.43445" lon="5.73349">
        <ele>431</ele>
        <time>2016-08-09T09:07:03.000Z</time>
      </trkpt>
      <trkpt lat="45.43444" lon="5.73345">
        <ele>431</ele>
        <time>2016-08-09T09:07:04.000Z</time>
      </trkpt>
      <trkpt lat="45.43443" lon="5.73341">
        <ele>431</ele>
        <time>2016-08-09T09:07:05.000Z</time>
      </trkpt>
      <trkpt lat="45.43443" lon="5.73338">
        <ele>431</ele>
        <time>2016-08-09T09:07:06.000Z</time>
      </trkpt>
      <trkpt lat="45.43444" lon="5.73334">
        <ele>431</ele>
        <time>2016-08-09T09:07:07.000Z</time>
      </trkpt>
      <trkpt lat="45.43444" lon="5.73328">
        <ele>426</ele>
        <time>2016-08-09T09:07:09.000Z</time>
      </trkpt>
      <trkpt lat="45.43444" lon="5.73325">
        <ele>426</ele>
        <time>2016-08-09T09:07:10.000Z</time>
      </trkpt>
      <trkpt lat="45.43445" lon="5.73322">
        <ele>426</ele>
        <time>2016-08-09T09:07:11.000Z</time>
      </trkpt>
      <trkpt lat="45.43445" lon="5.73318">
        <ele>425</ele>
        <time>2016-08-09T09:07:12.000Z</time>
      </trkpt>
      <trkpt lat="45.43446" lon="5.73313">
        <ele>425</ele>
        <time>2016-08-09T09:07:13.000Z</time>
      </trkpt>
      <trkpt lat="45.43447" lon="5.73308">
        <ele>425</ele>
        <time>2016-08-09T09:07:14.000Z</time>
      </trkpt>
      <trkpt lat="45.43447" lon="5.73302">
        <ele>424</ele>
        <time>2016-08-09T09:07:15.000Z</time>
      </trkpt>
      <trkpt lat="45.43447" lon="5.73296">
        <ele>424</ele>
        <time>2016-08-09T09:07:16.000Z</time>
      </trkpt>
      <trkpt lat="45.43446" lon="5.73288">
        <ele>423</ele>
        <time>2016-08-09T09:07:17.000Z</time>
      </trkpt>
      <trkpt lat="45.43446" lon="5.73281">
        <ele>423</ele>
        <time>2016-08-09T09:07:18.000Z</time>
      </trkpt>
      <trkpt lat="45.43445" lon="5.73274">
        <ele>423</ele>
        <time>2016-08-09T09:07:19.000Z</time>
      </trkpt>
      <trkpt lat="45.43443" lon="5.73267">
        <ele>422</ele>
        <time>2016-08-09T09:07:20.000Z</time>
      </trkpt>
      <trkpt lat="45.4344" lon="5.7326">
        <ele>422</ele>
        <time>2016-08-09T09:07:21.000Z</time>
      </trkpt>
      <trkpt lat="45.43437" lon="5.73254">
        <ele>422</ele>
        <time>2016-08-09T09:07:22.000Z</time>
      </trkpt>
      <trkpt lat="45.43434" lon="5.73248">
        <ele>418</ele>
        <time>2016-08-09T09:07:23.000Z</time>
      </trkpt>
      <trkpt lat="45.43431" lon="5.73242">
        <ele>418</ele>
        <time>2016-08-09T09:07:24.000Z</time>
      </trkpt>
      <trkpt lat="45.43427" lon="5.73237">
        <ele>418</ele>
        <time>2016-08-09T09:07:25.000Z</time>
      </trkpt>
      <trkpt lat="45.43422" lon="5.73232">
        <ele>417</ele>
        <time>2016-08-09T09:07:26.000Z</time>
      </trkpt>
      <trkpt lat="45.43418" lon="5.73227">
        <ele>417</ele>
        <time>2016-08-09T09:07:27.000Z</time>
      </trkpt>
      <trkpt lat="45.43414" lon="5.73222">
        <ele>420</ele>
        <time>2016-08-09T09:07:28.000Z</time>
      </trkpt>
      <trkpt lat="45.4341" lon="5.73216">
        <ele>420</ele>
        <time>2016-08-09T09:07:29.000Z</time>
      </trkpt>
      <trkpt lat="45.43407" lon="5.7321">
        <ele>419</ele>
        <time>2016-08-09T09:07:30.000Z</time>
      </trkpt>
      <trkpt lat="45.43405" lon="5.73204">
        <ele>418</ele>
        <time>2016-08-09T09:07:31.000Z</time>
      </trkpt>
      <trkpt lat="45.43401" lon="5.73192">
        <ele>417</ele>
        <time>2016-08-09T09:07:32.000Z</time>
      </trkpt>
      <trkpt lat="45.43399" lon="5.73184">
        <ele>417</ele>
        <time>2016-08-09T09:07:33.000Z</time>
      </trkpt>
      <trkpt lat="45.43399" lon="5.73177">
        <ele>416</ele>
        <time>2016-08-09T09:07:34.000Z</time>
      </trkpt>
      <trkpt lat="45.43399" lon="5.7317">
        <ele>415</ele>
        <time>2016-08-09T09:07:35.000Z</time>
      </trkpt>
      <trkpt lat="45.434" lon="5.73162">
        <ele>411</ele>
        <time>2016-08-09T09:07:36.001Z</time>
      </trkpt>
      <trkpt lat="45.43401" lon="5.73155">
        <ele>411</ele>
        <time>2016-08-09T09:07:37.000Z</time>
      </trkpt>
      <trkpt lat="45.43401" lon="5.73147">
        <ele>411</ele>
        <time>2016-08-09T09:07:38.000Z</time>
      </trkpt>
      <trkpt lat="45.43401" lon="5.7314">
        <ele>411</ele>
        <time>2016-08-09T09:07:39.000Z</time>
      </trkpt>
      <trkpt lat="45.434" lon="5.73133">
        <ele>411</ele>
        <time>2016-08-09T09:07:40.000Z</time>
      </trkpt>
      <trkpt lat="45.43398" lon="5.73126">
        <ele>411</ele>
        <time>2016-08-09T09:07:41.000Z</time>
      </trkpt>
      <trkpt lat="45.43396" lon="5.73116">
        <ele>411</ele>
        <time>2016-08-09T09:07:42.000Z</time>
      </trkpt>
      <trkpt lat="45.43394" lon="5.7311">
        <ele>410</ele>
        <time>2016-08-09T09:07:43.000Z</time>
      </trkpt>
      <trkpt lat="45.43391" lon="5.73102">
        <ele>410</ele>
        <time>2016-08-09T09:07:44.000Z</time>
      </trkpt>
      <trkpt lat="45.43391" lon="5.73093">
        <ele>410</ele>
        <time>2016-08-09T09:07:45.000Z</time>
      </trkpt>
      <trkpt lat="45.43391" lon="5.73086">
        <ele>410</ele>
        <time>2016-08-09T09:07:46.000Z</time>
      </trkpt>
      <trkpt lat="45.4339" lon="5.73078">
        <ele>408</ele>
        <time>2016-08-09T09:07:47.000Z</time>
      </trkpt>
      <trkpt lat="45.43389" lon="5.73069">
        <ele>408</ele>
        <time>2016-08-09T09:07:47.999Z</time>
      </trkpt>
      <trkpt lat="45.43389" lon="5.7306">
        <ele>408</ele>
        <time>2016-08-09T09:07:49.000Z</time>
      </trkpt>
      <trkpt lat="45.4339" lon="5.73053">
        <ele>408</ele>
        <time>2016-08-09T09:07:50.000Z</time>
      </trkpt>
      <trkpt lat="45.43394" lon="5.73042">
        <ele>408</ele>
        <time>2016-08-09T09:07:51.000Z</time>
      </trkpt>
      <trkpt lat="45.43395" lon="5.73034">
        <ele>408</ele>
        <time>2016-08-09T09:07:52.000Z</time>
      </trkpt>
      <trkpt lat="45.43395" lon="5.73025">
        <ele>408</ele>
        <time>2016-08-09T09:07:53.000Z</time>
      </trkpt>
      <trkpt lat="45.43397" lon="5.73017">
        <ele>407</ele>
        <time>2016-08-09T09:07:53.999Z</time>
      </trkpt>
      <trkpt lat="45.43398" lon="5.73012">
        <ele>407</ele>
        <time>2016-08-09T09:07:55.000Z</time>
      </trkpt>
      <trkpt lat="45.43398" lon="5.73005">
        <ele>407</ele>
        <time>2016-08-09T09:07:56.000Z</time>
      </trkpt>
      <trkpt lat="45.43399" lon="5.72998">
        <ele>406</ele>
        <time>2016-08-09T09:07:57.000Z</time>
      </trkpt>
      <trkpt lat="45.43399" lon="5.72989">
        <ele>406</ele>
        <time>2016-08-09T09:07:58.000Z</time>
      </trkpt>
      <trkpt lat="45.434" lon="5.72981">
        <ele>406</ele>
        <time>2016-08-09T09:07:59.000Z</time>
      </trkpt>
      <trkpt lat="45.434" lon="5.72976">
        <ele>406</ele>
        <time>2016-08-09T09:08:00.000Z</time>
      </trkpt>
      <trkpt lat="45.434" lon="5.72969">
        <ele>406</ele>
        <time>2016-08-09T09:08:01.000Z</time>
      </trkpt>
      <trkpt lat="45.43399" lon="5.72964">
        <ele>406</ele>
        <time>2016-08-09T09:08:02.000Z</time>
      </trkpt>
      <trkpt lat="45.43401" lon="5.72954">
        <ele>406</ele>
        <time>2016-08-09T09:08:03.000Z</time>
      </trkpt>
      <trkpt lat="45.43397" lon="5.72949">
        <ele>406</ele>
        <time>2016-08-09T09:08:04.000Z</time>
      </trkpt>
      <trkpt lat="45.43394" lon="5.72944">
        <ele>406</ele>
        <time>2016-08-09T09:08:05.000Z</time>
      </trkpt>
      <trkpt lat="45.43394" lon="5.72939">
        <ele>405</ele>
        <time>2016-08-09T09:08:06.000Z</time>
      </trkpt>
      <trkpt lat="45.43393" lon="5.72931">
        <ele>405</ele>
        <time>2016-08-09T09:08:07.000Z</time>
      </trkpt>
      <trkpt lat="45.43394" lon="5.72924">
        <ele>405</ele>
        <time>2016-08-09T09:08:08.000Z</time>
      </trkpt>
      <trkpt lat="45.43393" lon="5.72918">
        <ele>405</ele>
        <time>2016-08-09T09:08:09.000Z</time>
      </trkpt>
      <trkpt lat="45.43394" lon="5.72911">
        <ele>403</ele>
        <time>2016-08-09T09:08:10.000Z</time>
      </trkpt>
      <trkpt lat="45.43397" lon="5.729">
        <ele>403</ele>
        <time>2016-08-09T09:08:11.000Z</time>
      </trkpt>
      <trkpt lat="45.43394" lon="5.72887">
        <ele>403</ele>
        <time>2016-08-09T09:08:12.000Z</time>
      </trkpt>
      <trkpt lat="45.43394" lon="5.72877">
        <ele>403</ele>
        <time>2016-08-09T09:08:13.000Z</time>
      </trkpt>
      <trkpt lat="45.43394" lon="5.72869">
        <ele>403</ele>
        <time>2016-08-09T09:08:14.000Z</time>
      </trkpt>
      <trkpt lat="45.43395" lon="5.72862">
        <ele>403</ele>
        <time>2016-08-09T09:08:15.000Z</time>
      </trkpt>
      <trkpt lat="45.43396" lon="5.72856">
        <ele>403</ele>
        <time>2016-08-09T09:08:16.000Z</time>
      </trkpt>
      <trkpt lat="45.43398" lon="5.7285">
        <ele>402</ele>
        <time>2016-08-09T09:08:17.000Z</time>
      </trkpt>
      <trkpt lat="45.434" lon="5.72843">
        <ele>402</ele>
        <time>2016-08-09T09:08:18.000Z</time>
      </trkpt>
      <trkpt lat="45.43402" lon="5.72838">
        <ele>402</ele>
        <time>2016-08-09T09:08:19.000Z</time>
      </trkpt>
      <trkpt lat="45.43403" lon="5.72834">
        <ele>402</ele>
        <time>2016-08-09T09:08:20.000Z</time>
      </trkpt>
      <trkpt lat="45.43406" lon="5.7283">
        <ele>401</ele>
        <time>2016-08-09T09:08:21.000Z</time>
      </trkpt>
      <trkpt lat="45.43408" lon="5.72828">
        <ele>401</ele>
        <time>2016-08-09T09:08:22.000Z</time>
      </trkpt>
      <trkpt lat="45.43408" lon="5.72822">
        <ele>402</ele>
        <time>2016-08-09T09:08:24.000Z</time>
      </trkpt>
      <trkpt lat="45.4341" lon="5.7282">
        <ele>402</ele>
        <time>2016-08-09T09:08:25.000Z</time>
      </trkpt>
      <trkpt lat="45.43411" lon="5.72814">
        <ele>402</ele>
        <time>2016-08-09T09:08:52.000Z</time>
      </trkpt>
      <trkpt lat="45.43412" lon="5.72813">
        <ele>402</ele>
        <time>2016-08-09T09:08:53.000Z</time>
      </trkpt>
      <trkpt lat="45.43416" lon="5.72811">
        <ele>402</ele>
        <time>2016-08-09T09:08:56.000Z</time>
      </trkpt>
      <trkpt lat="45.43418" lon="5.7281">
        <ele>404</ele>
        <time>2016-08-09T09:08:57.000Z</time>
      </trkpt>
      <trkpt lat="45.4342" lon="5.72809">
        <ele>404</ele>
        <time>2016-08-09T09:08:58.000Z</time>
      </trkpt>
      <trkpt lat="45.43423" lon="5.72807">
        <ele>404</ele>
        <time>2016-08-09T09:08:59.000Z</time>
      </trkpt>
      <trkpt lat="45.43425" lon="5.72806">
        <ele>404</ele>
        <time>2016-08-09T09:09:00.000Z</time>
      </trkpt>
      <trkpt lat="45.43427" lon="5.72805">
        <ele>405</ele>
        <time>2016-08-09T09:09:01.000Z</time>
      </trkpt>
      <trkpt lat="45.43431" lon="5.72804">
        <ele>405</ele>
        <time>2016-08-09T09:09:04.000Z</time>
      </trkpt>
      <trkpt lat="45.43433" lon="5.72803">
        <ele>405</ele>
        <time>2016-08-09T09:09:05.000Z</time>
      </trkpt>
      <trkpt lat="45.43435" lon="5.72804">
        <ele>405</ele>
        <time>2016-08-09T09:09:07.000Z</time>
      </trkpt>
      <trkpt lat="45.43437" lon="5.72805">
        <ele>405</ele>
        <time>2016-08-09T09:09:08.000Z</time>
      </trkpt>
      <trkpt lat="45.43439" lon="5.72807">
        <ele>405</ele>
        <time>2016-08-09T09:09:09.000Z</time>
      </trkpt>
      <trkpt lat="45.43441" lon="5.72808">
        <ele>405</ele>
        <time>2016-08-09T09:09:09.999Z</time>
      </trkpt>
      <trkpt lat="45.43443" lon="5.72811">
        <ele>405</ele>
        <time>2016-08-09T09:09:11.000Z</time>
      </trkpt>
      <trkpt lat="45.43445" lon="5.72813">
        <ele>405</ele>
        <time>2016-08-09T09:09:12.000Z</time>
      </trkpt>
      <trkpt lat="45.43447" lon="5.72814">
        <ele>405</ele>
        <time>2016-08-09T09:09:13.000Z</time>
      </trkpt>
      <trkpt lat="45.4345" lon="5.72816">
        <ele>405</ele>
        <time>2016-08-09T09:09:14.000Z</time>
      </trkpt>
      <trkpt lat="45.43452" lon="5.72818">
        <ele>405</ele>
        <time>2016-08-09T09:09:14.999Z</time>
      </trkpt>
      <trkpt lat="45.43455" lon="5.7282">
        <ele>405</ele>
        <time>2016-08-09T09:09:16.000Z</time>
      </trkpt>
      <trkpt lat="45.43457" lon="5.72822">
        <ele>405</ele>
        <time>2016-08-09T09:09:17.000Z</time>
      </trkpt>
      <trkpt lat="45.4346" lon="5.72824">
        <ele>405</ele>
        <time>2016-08-09T09:09:18.000Z</time>
      </trkpt>
      <trkpt lat="45.43462" lon="5.72827">
        <ele>405</ele>
        <time>2016-08-09T09:09:19.000Z</time>
      </trkpt>
      <trkpt lat="45.43465" lon="5.72829">
        <ele>405</ele>
        <time>2016-08-09T09:09:20.000Z</time>
      </trkpt>
      <trkpt lat="45.43468" lon="5.72831">
        <ele>405</ele>
        <time>2016-08-09T09:09:21.000Z</time>
      </trkpt>
      <trkpt lat="45.43471" lon="5.72834">
        <ele>402</ele>
        <time>2016-08-09T09:09:21.999Z</time>
      </trkpt>
      <trkpt lat="45.43473" lon="5.72836">
        <ele>402</ele>
        <time>2016-08-09T09:09:23.000Z</time>
      </trkpt>
      <trkpt lat="45.43476" lon="5.72839">
        <ele>402</ele>
        <time>2016-08-09T09:09:24.000Z</time>
      </trkpt>
      <trkpt lat="45.43479" lon="5.72842">
        <ele>402</ele>
        <time>2016-08-09T09:09:25.000Z</time>
      </trkpt>
      <trkpt lat="45.43482" lon="5.72844">
        <ele>402</ele>
        <time>2016-08-09T09:09:26.000Z</time>
      </trkpt>
      <trkpt lat="45.43485" lon="5.72847">
        <ele>402</ele>
        <time>2016-08-09T09:09:27.000Z</time>
      </trkpt>
      <trkpt lat="45.43488" lon="5.7285">
        <ele>402</ele>
        <time>2016-08-09T09:09:27.998Z</time>
      </trkpt>
      <trkpt lat="45.4349" lon="5.72854">
        <ele>402</ele>
        <time>2016-08-09T09:09:29.000Z</time>
      </trkpt>
      <trkpt lat="45.43493" lon="5.72857">
        <ele>402</ele>
        <time>2016-08-09T09:09:30.000Z</time>
      </trkpt>
      <trkpt lat="45.43495" lon="5.7286">
        <ele>402</ele>
        <time>2016-08-09T09:09:31.000Z</time>
      </trkpt>
      <trkpt lat="45.43498" lon="5.72863">
        <ele>402</ele>
        <time>2016-08-09T09:09:32.000Z</time>
      </trkpt>
      <trkpt lat="45.435" lon="5.72866">
        <ele>406</ele>
        <time>2016-08-09T09:09:33.000Z</time>
      </trkpt>
      <trkpt lat="45.43503" lon="5.72869">
        <ele>406</ele>
        <time>2016-08-09T09:09:33.998Z</time>
      </trkpt>
      <trkpt lat="45.43505" lon="5.72873">
        <ele>406</ele>
        <time>2016-08-09T09:09:35.000Z</time>
      </trkpt>
      <trkpt lat="45.43508" lon="5.72875">
        <ele>406</ele>
        <time>2016-08-09T09:09:35.999Z</time>
      </trkpt>
      <trkpt lat="45.4351" lon="5.72879">
        <ele>406</ele>
        <time>2016-08-09T09:09:37.000Z</time>
      </trkpt>
      <trkpt lat="45.43512" lon="5.72881">
        <ele>406</ele>
        <time>2016-08-09T09:09:38.000Z</time>
      </trkpt>
      <trkpt lat="45.43515" lon="5.72884">
        <ele>406</ele>
        <time>2016-08-09T09:09:39.000Z</time>
      </trkpt>
      <trkpt lat="45.43517" lon="5.72885">
        <ele>406</ele>
        <time>2016-08-09T09:09:40.000Z</time>
      </trkpt>
      <trkpt lat="45.4352" lon="5.72888">
        <ele>406</ele>
        <time>2016-08-09T09:09:40.998Z</time>
      </trkpt>
      <trkpt lat="45.43522" lon="5.72889">
        <ele>406</ele>
        <time>2016-08-09T09:09:42.000Z</time>
      </trkpt>
      <trkpt lat="45.43524" lon="5.72891">
        <ele>406</ele>
        <time>2016-08-09T09:09:43.000Z</time>
      </trkpt>
      <trkpt lat="45.43526" lon="5.72892">
        <ele>406</ele>
        <time>2016-08-09T09:09:44.000Z</time>
      </trkpt>
      <trkpt lat="45.43529" lon="5.72895">
        <ele>406</ele>
        <time>2016-08-09T09:09:46.000Z</time>
      </trkpt>
      <trkpt lat="45.43531" lon="5.72897">
        <ele>406</ele>
        <time>2016-08-09T09:09:47.000Z</time>
      </trkpt>
      <trkpt lat="45.43535" lon="5.72899">
        <ele>407</ele>
        <time>2016-08-09T09:09:49.000Z</time>
      </trkpt>
      <trkpt lat="45.43537" lon="5.729">
        <ele>407</ele>
        <time>2016-08-09T09:09:50.000Z</time>
      </trkpt>
      <trkpt lat="45.4354" lon="5.72903">
        <ele>407</ele>
        <time>2016-08-09T09:09:52.000Z</time>
      </trkpt>
      <trkpt lat="45.43542" lon="5.72904">
        <ele>407</ele>
        <time>2016-08-09T09:09:53.000Z</time>
      </trkpt>
      <trkpt lat="45.43545" lon="5.72907">
        <ele>408</ele>
        <time>2016-08-09T09:09:55.000Z</time>
      </trkpt>
      <trkpt lat="45.43547" lon="5.72909">
        <ele>408</ele>
        <time>2016-08-09T09:09:56.000Z</time>
      </trkpt>
      <trkpt lat="45.4355" lon="5.72911">
        <ele>408</ele>
        <time>2016-08-09T09:09:58.000Z</time>
      </trkpt>
      <trkpt lat="45.43552" lon="5.72913">
        <ele>408</ele>
        <time>2016-08-09T09:09:59.000Z</time>
      </trkpt>
      <trkpt lat="45.43555" lon="5.72916">
        <ele>408</ele>
        <time>2016-08-09T09:10:01.000Z</time>
      </trkpt>
      <trkpt lat="45.43556" lon="5.72917">
        <ele>406</ele>
        <time>2016-08-09T09:10:02.000Z</time>
      </trkpt>
      <trkpt lat="45.43559" lon="5.72919">
        <ele>407</ele>
        <time>2016-08-09T09:10:04.000Z</time>
      </trkpt>
      <trkpt lat="45.43561" lon="5.72921">
        <ele>407</ele>
        <time>2016-08-09T09:10:05.000Z</time>
      </trkpt>
      <trkpt lat="45.43563" lon="5.72924">
        <ele>407</ele>
        <time>2016-08-09T09:10:07.000Z</time>
      </trkpt>
      <trkpt lat="45.43565" lon="5.72926">
        <ele>407</ele>
        <time>2016-08-09T09:10:08.000Z</time>
      </trkpt>
      <trkpt lat="45.43567" lon="5.72929">
        <ele>407</ele>
        <time>2016-08-09T09:10:10.000Z</time>
      </trkpt>
      <trkpt lat="45.43568" lon="5.7293">
        <ele>407</ele>
        <time>2016-08-09T09:10:11.000Z</time>
      </trkpt>
      <trkpt lat="45.43571" lon="5.72932">
        <ele>407</ele>
        <time>2016-08-09T09:10:13.000Z</time>
      </trkpt>
      <trkpt lat="45.43573" lon="5.72933">
        <ele>407</ele>
        <time>2016-08-09T09:10:14.000Z</time>
      </trkpt>
      <trkpt lat="45.43576" lon="5.72937">
        <ele>407</ele>
        <time>2016-08-09T09:10:17.000Z</time>
      </trkpt>
      <trkpt lat="45.43577" lon="5.72938">
        <ele>407</ele>
        <time>2016-08-09T09:10:18.000Z</time>
      </trkpt>
      <trkpt lat="45.4358" lon="5.72942">
        <ele>407</ele>
        <time>2016-08-09T09:10:21.000Z</time>
      </trkpt>
      <trkpt lat="45.43581" lon="5.72943">
        <ele>407</ele>
        <time>2016-08-09T09:10:21.999Z</time>
      </trkpt>
      <trkpt lat="45.43585" lon="5.72945">
        <ele>413</ele>
        <time>2016-08-09T09:10:25.000Z</time>
      </trkpt>
      <trkpt lat="45.43586" lon="5.72947">
        <ele>413</ele>
        <time>2016-08-09T09:10:26.000Z</time>
      </trkpt>
      <trkpt lat="45.43589" lon="5.72949">
        <ele>413</ele>
        <time>2016-08-09T09:10:28.000Z</time>
      </trkpt>
      <trkpt lat="45.43591" lon="5.7295">
        <ele>413</ele>
        <time>2016-08-09T09:10:29.000Z</time>
      </trkpt>
      <trkpt lat="45.43593" lon="5.72953">
        <ele>414</ele>
        <time>2016-08-09T09:10:31.000Z</time>
      </trkpt>
      <trkpt lat="45.43594" lon="5.72955">
        <ele>414</ele>
        <time>2016-08-09T09:10:32.000Z</time>
      </trkpt>
      <trkpt lat="45.43597" lon="5.72959">
        <ele>414</ele>
        <time>2016-08-09T09:10:34.000Z</time>
      </trkpt>
      <trkpt lat="45.43598" lon="5.72961">
        <ele>414</ele>
        <time>2016-08-09T09:10:35.000Z</time>
      </trkpt>
      <trkpt lat="45.43601" lon="5.72965">
        <ele>414</ele>
        <time>2016-08-09T09:10:38.000Z</time>
      </trkpt>
      <trkpt lat="45.43602" lon="5.72966">
        <ele>414</ele>
        <time>2016-08-09T09:10:39.001Z</time>
      </trkpt>
      <trkpt lat="45.43605" lon="5.72969">
        <ele>414</ele>
        <time>2016-08-09T09:10:42.000Z</time>
      </trkpt>
      <trkpt lat="45.43606" lon="5.7297">
        <ele>414</ele>
        <time>2016-08-09T09:10:43.000Z</time>
      </trkpt>
      <trkpt lat="45.43609" lon="5.72974">
        <ele>414</ele>
        <time>2016-08-09T09:10:46.000Z</time>
      </trkpt>
      <trkpt lat="45.4361" lon="5.72975">
        <ele>414</ele>
        <time>2016-08-09T09:10:47.000Z</time>
      </trkpt>
      <trkpt lat="45.43613" lon="5.7298">
        <ele>414</ele>
        <time>2016-08-09T09:10:50.000Z</time>
      </trkpt>
      <trkpt lat="45.43614" lon="5.72981">
        <ele>414</ele>
        <time>2016-08-09T09:10:51.000Z</time>
      </trkpt>
      <trkpt lat="45.43618" lon="5.72982">
        <ele>414</ele>
        <time>2016-08-09T09:10:54.000Z</time>
      </trkpt>
      <trkpt lat="45.43619" lon="5.72982">
        <ele>414</ele>
        <time>2016-08-09T09:10:55.000Z</time>
      </trkpt>
      <trkpt lat="45.43623" lon="5.72982">
        <ele>415</ele>
        <time>2016-08-09T09:10:57.000Z</time>
      </trkpt>
      <trkpt lat="45.43625" lon="5.72982">
        <ele>415</ele>
        <time>2016-08-09T09:10:58.000Z</time>
      </trkpt>
      <trkpt lat="45.43627" lon="5.72982">
        <ele>415</ele>
        <time>2016-08-09T09:10:58.999Z</time>
      </trkpt>
      <trkpt lat="45.4363" lon="5.72982">
        <ele>415</ele>
        <time>2016-08-09T09:11:00.000Z</time>
      </trkpt>
      <trkpt lat="45.43632" lon="5.72982">
        <ele>416</ele>
        <time>2016-08-09T09:11:01.000Z</time>
      </trkpt>
      <trkpt lat="45.43635" lon="5.72983">
        <ele>416</ele>
        <time>2016-08-09T09:11:02.000Z</time>
      </trkpt>
      <trkpt lat="45.43638" lon="5.72983">
        <ele>416</ele>
        <time>2016-08-09T09:11:03.000Z</time>
      </trkpt>
      <trkpt lat="45.4364" lon="5.72983">
        <ele>416</ele>
        <time>2016-08-09T09:11:04.000Z</time>
      </trkpt>
      <trkpt lat="45.43642" lon="5.72983">
        <ele>417</ele>
        <time>2016-08-09T09:11:05.000Z</time>
      </trkpt>
      <trkpt lat="45.43645" lon="5.72983">
        <ele>417</ele>
        <time>2016-08-09T09:11:05.999Z</time>
      </trkpt>
      <trkpt lat="45.43648" lon="5.7298">
        <ele>417</ele>
        <time>2016-08-09T09:11:08.000Z</time>
      </trkpt>
      <trkpt lat="45.4365" lon="5.72979">
        <ele>417</ele>
        <time>2016-08-09T09:11:09.000Z</time>
      </trkpt>
      <trkpt lat="45.43652" lon="5.72978">
        <ele>417</ele>
        <time>2016-08-09T09:11:10.000Z</time>
      </trkpt>
      <trkpt lat="45.43655" lon="5.72978">
        <ele>417</ele>
        <time>2016-08-09T09:11:11.000Z</time>
      </trkpt>
      <trkpt lat="45.43658" lon="5.72977">
        <ele>418</ele>
        <time>2016-08-09T09:11:12.000Z</time>
      </trkpt>
      <trkpt lat="45.43661" lon="5.72978">
        <ele>418</ele>
        <time>2016-08-09T09:11:13.000Z</time>
      </trkpt>
      <trkpt lat="45.43664" lon="5.72978">
        <ele>418</ele>
        <time>2016-08-09T09:11:14.000Z</time>
      </trkpt>
      <trkpt lat="45.43666" lon="5.72978">
        <ele>418</ele>
        <time>2016-08-09T09:11:15.000Z</time>
      </trkpt>
      <trkpt lat="45.4367" lon="5.72976">
        <ele>422</ele>
        <time>2016-08-09T09:11:17.000Z</time>
      </trkpt>
      <trkpt lat="45.43672" lon="5.72974">
        <ele>423</ele>
        <time>2016-08-09T09:11:18.000Z</time>
      </trkpt>
      <trkpt lat="45.43674" lon="5.7297">
        <ele>423</ele>
        <time>2016-08-09T09:11:19.999Z</time>
      </trkpt>
      <trkpt lat="45.43675" lon="5.72966">
        <ele>423</ele>
        <time>2016-08-09T09:11:21.000Z</time>
      </trkpt>
      <trkpt lat="45.43675" lon="5.7296">
        <ele>423</ele>
        <time>2016-08-09T09:11:23.000Z</time>
      </trkpt>
      <trkpt lat="45.43675" lon="5.72957">
        <ele>423</ele>
        <time>2016-08-09T09:11:24.000Z</time>
      </trkpt>
      <trkpt lat="45.43676" lon="5.72952">
        <ele>424</ele>
        <time>2016-08-09T09:11:26.000Z</time>
      </trkpt>
      <trkpt lat="45.43677" lon="5.72949">
        <ele>424</ele>
        <time>2016-08-09T09:11:27.000Z</time>
      </trkpt>
      <trkpt lat="45.43679" lon="5.72944">
        <ele>424</ele>
        <time>2016-08-09T09:11:29.000Z</time>
      </trkpt>
      <trkpt lat="45.43679" lon="5.72941">
        <ele>424</ele>
        <time>2016-08-09T09:11:30.000Z</time>
      </trkpt>
      <trkpt lat="45.43679" lon="5.72936">
        <ele>424</ele>
        <time>2016-08-09T09:11:32.000Z</time>
      </trkpt>
      <trkpt lat="45.4368" lon="5.72933">
        <ele>424</ele>
        <time>2016-08-09T09:11:33.000Z</time>
      </trkpt>
      <trkpt lat="45.4368" lon="5.7293">
        <ele>424</ele>
        <time>2016-08-09T09:11:34.000Z</time>
      </trkpt>
      <trkpt lat="45.4368" lon="5.72926">
        <ele>424</ele>
        <time>2016-08-09T09:11:35.000Z</time>
      </trkpt>
      <trkpt lat="45.43681" lon="5.7292">
        <ele>424</ele>
        <time>2016-08-09T09:11:37.000Z</time>
      </trkpt>
      <trkpt lat="45.43682" lon="5.72917">
        <ele>424</ele>
        <time>2016-08-09T09:11:38.000Z</time>
      </trkpt>
      <trkpt lat="45.43682" lon="5.72914">
        <ele>427</ele>
        <time>2016-08-09T09:11:38.999Z</time>
      </trkpt>
      <trkpt lat="45.43683" lon="5.7291">
        <ele>427</ele>
        <time>2016-08-09T09:11:40.000Z</time>
      </trkpt>
      <trkpt lat="45.43685" lon="5.72905">
        <ele>427</ele>
        <time>2016-08-09T09:11:42.000Z</time>
      </trkpt>
      <trkpt lat="45.43686" lon="5.72903">
        <ele>428</ele>
        <time>2016-08-09T09:11:43.000Z</time>
      </trkpt>
      <trkpt lat="45.43687" lon="5.72898">
        <ele>428</ele>
        <time>2016-08-09T09:11:45.000Z</time>
      </trkpt>
      <trkpt lat="45.43687" lon="5.72896">
        <ele>428</ele>
        <time>2016-08-09T09:11:46.000Z</time>
      </trkpt>
      <trkpt lat="45.43688" lon="5.72891">
        <ele>428</ele>
        <time>2016-08-09T09:11:48.000Z</time>
      </trkpt>
      <trkpt lat="45.43688" lon="5.72888">
        <ele>428</ele>
        <time>2016-08-09T09:11:49.000Z</time>
      </trkpt>
      <trkpt lat="45.43689" lon="5.72883">
        <ele>429</ele>
        <time>2016-08-09T09:11:51.000Z</time>
      </trkpt>
      <trkpt lat="45.4369" lon="5.72881">
        <ele>429</ele>
        <time>2016-08-09T09:11:52.000Z</time>
      </trkpt>
      <trkpt lat="45.4369" lon="5.72878">
        <ele>429</ele>
        <time>2016-08-09T09:11:52.998Z</time>
      </trkpt>
      <trkpt lat="45.43694" lon="5.72877">
        <ele>429</ele>
        <time>2016-08-09T09:11:54.000Z</time>
      </trkpt>
      <trkpt lat="45.43697" lon="5.72875">
        <ele>429</ele>
        <time>2016-08-09T09:11:55.000Z</time>
      </trkpt>
      <trkpt lat="45.43699" lon="5.72873">
        <ele>429</ele>
        <time>2016-08-09T09:11:56.000Z</time>
      </trkpt>
      <trkpt lat="45.43701" lon="5.72869">
        <ele>430</ele>
        <time>2016-08-09T09:11:58.000Z</time>
      </trkpt>
      <trkpt lat="45.437" lon="5.72867">
        <ele>430</ele>
        <time>2016-08-09T09:11:59.000Z</time>
      </trkpt>
      <trkpt lat="45.43699" lon="5.72861">
        <ele>430</ele>
        <time>2016-08-09T09:12:01.000Z</time>
      </trkpt>
      <trkpt lat="45.43699" lon="5.72858">
        <ele>430</ele>
        <time>2016-08-09T09:12:02.000Z</time>
      </trkpt>
      <trkpt lat="45.43698" lon="5.72852">
        <ele>430</ele>
        <time>2016-08-09T09:12:04.000Z</time>
      </trkpt>
      <trkpt lat="45.43698" lon="5.72849">
        <ele>430</ele>
        <time>2016-08-09T09:12:05.000Z</time>
      </trkpt>
      <trkpt lat="45.43697" lon="5.72843">
        <ele>430</ele>
        <time>2016-08-09T09:12:08.000Z</time>
      </trkpt>
      <trkpt lat="45.43697" lon="5.7284">
        <ele>430</ele>
        <time>2016-08-09T09:12:09.000Z</time>
      </trkpt>
      <trkpt lat="45.43696" lon="5.72835">
        <ele>430</ele>
        <time>2016-08-09T09:12:11.000Z</time>
      </trkpt>
      <trkpt lat="45.43696" lon="5.72832">
        <ele>433</ele>
        <time>2016-08-09T09:12:12.000Z</time>
      </trkpt>
      <trkpt lat="45.43695" lon="5.72827">
        <ele>433</ele>
        <time>2016-08-09T09:12:14.000Z</time>
      </trkpt>
      <trkpt lat="45.43695" lon="5.72825">
        <ele>433</ele>
        <time>2016-08-09T09:12:15.000Z</time>
      </trkpt>
      <trkpt lat="45.43695" lon="5.72819">
        <ele>434</ele>
        <time>2016-08-09T09:12:18.000Z</time>
      </trkpt>
      <trkpt lat="45.43695" lon="5.72817">
        <ele>434</ele>
        <time>2016-08-09T09:12:19.000Z</time>
      </trkpt>
      <trkpt lat="45.43696" lon="5.72812">
        <ele>434</ele>
        <time>2016-08-09T09:12:21.000Z</time>
      </trkpt>
      <trkpt lat="45.43696" lon="5.72809">
        <ele>434</ele>
        <time>2016-08-09T09:12:22.000Z</time>
      </trkpt>
      <trkpt lat="45.43696" lon="5.72804">
        <ele>434</ele>
        <time>2016-08-09T09:12:24.000Z</time>
      </trkpt>
      <trkpt lat="45.43696" lon="5.72801">
        <ele>435</ele>
        <time>2016-08-09T09:12:25.000Z</time>
      </trkpt>
      <trkpt lat="45.43696" lon="5.72795">
        <ele>435</ele>
        <time>2016-08-09T09:12:28.000Z</time>
      </trkpt>
      <trkpt lat="45.43696" lon="5.72793">
        <ele>435</ele>
        <time>2016-08-09T09:12:29.000Z</time>
      </trkpt>
      <trkpt lat="45.43695" lon="5.72789">
        <ele>435</ele>
        <time>2016-08-09T09:12:31.000Z</time>
      </trkpt>
      <trkpt lat="45.43695" lon="5.72787">
        <ele>435</ele>
        <time>2016-08-09T09:12:32.000Z</time>
      </trkpt>
      <trkpt lat="45.43695" lon="5.72781">
        <ele>435</ele>
        <time>2016-08-09T09:12:34.000Z</time>
      </trkpt>
      <trkpt lat="45.43696" lon="5.72778">
        <ele>435</ele>
        <time>2016-08-09T09:12:35.000Z</time>
      </trkpt>
      <trkpt lat="45.43695" lon="5.72773">
        <ele>436</ele>
        <time>2016-08-09T09:12:37.000Z</time>
      </trkpt>
      <trkpt lat="45.43695" lon="5.72771">
        <ele>436</ele>
        <time>2016-08-09T09:12:38.000Z</time>
      </trkpt>
      <trkpt lat="45.43696" lon="5.72765">
        <ele>436</ele>
        <time>2016-08-09T09:12:41.000Z</time>
      </trkpt>
      <trkpt lat="45.43696" lon="5.72763">
        <ele>436</ele>
        <time>2016-08-09T09:12:42.000Z</time>
      </trkpt>
      <trkpt lat="45.43697" lon="5.72757">
        <ele>436</ele>
        <time>2016-08-09T09:12:45.000Z</time>
      </trkpt>
      <trkpt lat="45.43697" lon="5.72755">
        <ele>436</ele>
        <time>2016-08-09T09:12:46.000Z</time>
      </trkpt>
      <trkpt lat="45.43697" lon="5.7275">
        <ele>440</ele>
        <time>2016-08-09T09:12:49.000Z</time>
      </trkpt>
      <trkpt lat="45.43697" lon="5.72748">
        <ele>440</ele>
        <time>2016-08-09T09:12:50.000Z</time>
      </trkpt>
      <trkpt lat="45.43696" lon="5.72743">
        <ele>440</ele>
        <time>2016-08-09T09:12:53.000Z</time>
      </trkpt>
      <trkpt lat="45.43696" lon="5.72741">
        <ele>440</ele>
        <time>2016-08-09T09:12:54.000Z</time>
      </trkpt>
      <trkpt lat="45.43697" lon="5.72735">
        <ele>440</ele>
        <time>2016-08-09T09:12:56.000Z</time>
      </trkpt>
      <trkpt lat="45.43697" lon="5.72733">
        <ele>441</ele>
        <time>2016-08-09T09:12:57.000Z</time>
      </trkpt>
      <trkpt lat="45.43698" lon="5.72728">
        <ele>441</ele>
        <time>2016-08-09T09:12:59.000Z</time>
      </trkpt>
      <trkpt lat="45.43698" lon="5.72726">
        <ele>441</ele>
        <time>2016-08-09T09:13:00.000Z</time>
      </trkpt>
      <trkpt lat="45.437" lon="5.72722">
        <ele>441</ele>
        <time>2016-08-09T09:13:02.000Z</time>
      </trkpt>
      <trkpt lat="45.437" lon="5.7272">
        <ele>441</ele>
        <time>2016-08-09T09:13:03.000Z</time>
      </trkpt>
      <trkpt lat="45.43703" lon="5.72714">
        <ele>441</ele>
        <time>2016-08-09T09:13:06.000Z</time>
      </trkpt>
      <trkpt lat="45.43703" lon="5.72713">
        <ele>441</ele>
        <time>2016-08-09T09:13:07.000Z</time>
      </trkpt>
      <trkpt lat="45.43704" lon="5.72707">
        <ele>442</ele>
        <time>2016-08-09T09:13:10.000Z</time>
      </trkpt>
      <trkpt lat="45.43704" lon="5.72705">
        <ele>442</ele>
        <time>2016-08-09T09:13:11.000Z</time>
      </trkpt>
      <trkpt lat="45.43706" lon="5.72699">
        <ele>442</ele>
        <time>2016-08-09T09:13:15.000Z</time>
      </trkpt>
      <trkpt lat="45.43706" lon="5.72698">
        <ele>442</ele>
        <time>2016-08-09T09:13:16.000Z</time>
      </trkpt>
      <trkpt lat="45.43707" lon="5.72694">
        <ele>442</ele>
        <time>2016-08-09T09:13:19.000Z</time>
      </trkpt>
      <trkpt lat="45.43708" lon="5.72692">
        <ele>442</ele>
        <time>2016-08-09T09:13:20.000Z</time>
      </trkpt>
      <trkpt lat="45.43711" lon="5.72687">
        <ele>443</ele>
        <time>2016-08-09T09:13:23.000Z</time>
      </trkpt>
      <trkpt lat="45.43712" lon="5.72686">
        <ele>443</ele>
        <time>2016-08-09T09:13:24.000Z</time>
      </trkpt>
      <trkpt lat="45.43716" lon="5.72682">
        <ele>443</ele>
        <time>2016-08-09T09:13:27.000Z</time>
      </trkpt>
      <trkpt lat="45.43717" lon="5.72682">
        <ele>443</ele>
        <time>2016-08-09T09:13:28.000Z</time>
      </trkpt>
      <trkpt lat="45.43719" lon="5.7268">
        <ele>443</ele>
        <time>2016-08-09T09:13:30.001Z</time>
      </trkpt>
      <trkpt lat="45.43721" lon="5.72677">
        <ele>443</ele>
        <time>2016-08-09T09:13:31.000Z</time>
      </trkpt>
      <trkpt lat="45.43724" lon="5.72673">
        <ele>443</ele>
        <time>2016-08-09T09:13:33.000Z</time>
      </trkpt>
      <trkpt lat="45.43726" lon="5.72671">
        <ele>444</ele>
        <time>2016-08-09T09:13:34.000Z</time>
      </trkpt>
      <trkpt lat="45.4373" lon="5.72669">
        <ele>444</ele>
        <time>2016-08-09T09:13:36.000Z</time>
      </trkpt>
      <trkpt lat="45.43732" lon="5.72668">
        <ele>444</ele>
        <time>2016-08-09T09:13:37.000Z</time>
      </trkpt>
      <trkpt lat="45.43735" lon="5.72664">
        <ele>447</ele>
        <time>2016-08-09T09:13:39.000Z</time>
      </trkpt>
      <trkpt lat="45.43737" lon="5.72662">
        <ele>447</ele>
        <time>2016-08-09T09:13:40.000Z</time>
      </trkpt>
      <trkpt lat="45.43738" lon="5.7266">
        <ele>447</ele>
        <time>2016-08-09T09:13:41.000Z</time>
      </trkpt>
      <trkpt lat="45.4374" lon="5.72657">
        <ele>447</ele>
        <time>2016-08-09T09:13:42.000Z</time>
      </trkpt>
      <trkpt lat="45.43742" lon="5.72655">
        <ele>447</ele>
        <time>2016-08-09T09:13:43.000Z</time>
      </trkpt>
      <trkpt lat="45.43744" lon="5.72652">
        <ele>447</ele>
        <time>2016-08-09T09:13:44.000Z</time>
      </trkpt>
      <trkpt lat="45.43746" lon="5.72649">
        <ele>448</ele>
        <time>2016-08-09T09:13:45.000Z</time>
      </trkpt>
      <trkpt lat="45.43748" lon="5.72646">
        <ele>448</ele>
        <time>2016-08-09T09:13:46.000Z</time>
      </trkpt>
      <trkpt lat="45.43749" lon="5.72643">
        <ele>448</ele>
        <time>2016-08-09T09:13:47.000Z</time>
      </trkpt>
      <trkpt lat="45.43751" lon="5.7264">
        <ele>449</ele>
        <time>2016-08-09T09:13:48.000Z</time>
      </trkpt>
      <trkpt lat="45.43752" lon="5.72637">
        <ele>449</ele>
        <time>2016-08-09T09:13:49.000Z</time>
      </trkpt>
      <trkpt lat="45.43754" lon="5.72634">
        <ele>449</ele>
        <time>2016-08-09T09:13:50.000Z</time>
      </trkpt>
      <trkpt lat="45.43755" lon="5.72631">
        <ele>449</ele>
        <time>2016-08-09T09:13:51.000Z</time>
      </trkpt>
      <trkpt lat="45.43756" lon="5.72629">
        <ele>450</ele>
        <time>2016-08-09T09:13:52.000Z</time>
      </trkpt>
      <trkpt lat="45.43758" lon="5.72623">
        <ele>450</ele>
        <time>2016-08-09T09:13:54.000Z</time>
      </trkpt>
      <trkpt lat="45.43759" lon="5.7262">
        <ele>450</ele>
        <time>2016-08-09T09:13:55.000Z</time>
      </trkpt>
      <trkpt lat="45.4376" lon="5.72614">
        <ele>451</ele>
        <time>2016-08-09T09:13:57.000Z</time>
      </trkpt>
      <trkpt lat="45.43761" lon="5.72611">
        <ele>451</ele>
        <time>2016-08-09T09:13:58.000Z</time>
      </trkpt>
      <trkpt lat="45.43763" lon="5.72605">
        <ele>451</ele>
        <time>2016-08-09T09:14:00.000Z</time>
      </trkpt>
      <trkpt lat="45.43764" lon="5.72603">
        <ele>451</ele>
        <time>2016-08-09T09:14:01.000Z</time>
      </trkpt>
      <trkpt lat="45.43766" lon="5.72597">
        <ele>452</ele>
        <time>2016-08-09T09:14:03.000Z</time>
      </trkpt>
      <trkpt lat="45.43766" lon="5.72595">
        <ele>452</ele>
        <time>2016-08-09T09:14:04.000Z</time>
      </trkpt>
      <trkpt lat="45.43768" lon="5.72589">
        <ele>452</ele>
        <time>2016-08-09T09:14:06.000Z</time>
      </trkpt>
      <trkpt lat="45.43769" lon="5.72587">
        <ele>452</ele>
        <time>2016-08-09T09:14:07.000Z</time>
      </trkpt>
      <trkpt lat="45.43771" lon="5.72582">
        <ele>456</ele>
        <time>2016-08-09T09:14:09.000Z</time>
      </trkpt>
      <trkpt lat="45.43771" lon="5.72579">
        <ele>456</ele>
        <time>2016-08-09T09:14:10.000Z</time>
      </trkpt>
      <trkpt lat="45.4377" lon="5.72574">
        <ele>456</ele>
        <time>2016-08-09T09:14:12.000Z</time>
      </trkpt>
      <trkpt lat="45.4377" lon="5.72572">
        <ele>456</ele>
        <time>2016-08-09T09:14:13.000Z</time>
      </trkpt>
      <trkpt lat="45.4377" lon="5.72568">
        <ele>456</ele>
        <time>2016-08-09T09:14:15.000Z</time>
      </trkpt>
      <trkpt lat="45.4377" lon="5.72565">
        <ele>456</ele>
        <time>2016-08-09T09:14:16.000Z</time>
      </trkpt>
      <trkpt lat="45.4377" lon="5.7256">
        <ele>456</ele>
        <time>2016-08-09T09:14:18.000Z</time>
      </trkpt>
      <trkpt lat="45.4377" lon="5.72557">
        <ele>457</ele>
        <time>2016-08-09T09:14:18.998Z</time>
      </trkpt>
      <trkpt lat="45.43772" lon="5.72553">
        <ele>457</ele>
        <time>2016-08-09T09:14:21.000Z</time>
      </trkpt>
      <trkpt lat="45.43773" lon="5.7255">
        <ele>457</ele>
        <time>2016-08-09T09:14:22.000Z</time>
      </trkpt>
      <trkpt lat="45.43775" lon="5.72545">
        <ele>457</ele>
        <time>2016-08-09T09:14:24.000Z</time>
      </trkpt>
      <trkpt lat="45.43775" lon="5.72543">
        <ele>457</ele>
        <time>2016-08-09T09:14:25.000Z</time>
      </trkpt>
      <trkpt lat="45.43777" lon="5.72537">
        <ele>458</ele>
        <time>2016-08-09T09:14:28.000Z</time>
      </trkpt>
      <trkpt lat="45.43777" lon="5.72535">
        <ele>458</ele>
        <time>2016-08-09T09:14:29.000Z</time>
      </trkpt>
      <trkpt lat="45.43779" lon="5.72531">
        <ele>458</ele>
        <time>2016-08-09T09:14:31.000Z</time>
      </trkpt>
      <trkpt lat="45.4378" lon="5.72529">
        <ele>458</ele>
        <time>2016-08-09T09:14:32.000Z</time>
      </trkpt>
      <trkpt lat="45.43781" lon="5.72523">
        <ele>458</ele>
        <time>2016-08-09T09:14:35.000Z</time>
      </trkpt>
      <trkpt lat="45.43781" lon="5.72521">
        <ele>458</ele>
        <time>2016-08-09T09:14:36.000Z</time>
      </trkpt>
      <trkpt lat="45.43783" lon="5.72517">
        <ele>458</ele>
        <time>2016-08-09T09:14:38.999Z</time>
      </trkpt>
      <trkpt lat="45.43785" lon="5.72515">
        <ele>459</ele>
        <time>2016-08-09T09:14:40.000Z</time>
      </trkpt>
      <trkpt lat="45.43786" lon="5.72511">
        <ele>459</ele>
        <time>2016-08-09T09:14:42.000Z</time>
      </trkpt>
      <trkpt lat="45.43787" lon="5.72509">
        <ele>459</ele>
        <time>2016-08-09T09:14:43.000Z</time>
      </trkpt>
      <trkpt lat="45.43789" lon="5.72505">
        <ele>459</ele>
        <time>2016-08-09T09:14:45.000Z</time>
      </trkpt>
      <trkpt lat="45.4379" lon="5.72502">
        <ele>459</ele>
        <time>2016-08-09T09:14:46.000Z</time>
      </trkpt>
      <trkpt lat="45.43791" lon="5.72497">
        <ele>463</ele>
        <time>2016-08-09T09:14:48.000Z</time>
      </trkpt>
      <trkpt lat="45.43791" lon="5.72495">
        <ele>463</ele>
        <time>2016-08-09T09:14:49.000Z</time>
      </trkpt>
      <trkpt lat="45.43792" lon="5.7249">
        <ele>464</ele>
        <time>2016-08-09T09:14:51.000Z</time>
      </trkpt>
      <trkpt lat="45.43793" lon="5.72487">
        <ele>464</ele>
        <time>2016-08-09T09:14:52.000Z</time>
      </trkpt>
      <trkpt lat="45.43795" lon="5.72482">
        <ele>464</ele>
        <time>2016-08-09T09:14:54.000Z</time>
      </trkpt>
      <trkpt lat="45.43796" lon="5.7248">
        <ele>464</ele>
        <time>2016-08-09T09:14:55.000Z</time>
      </trkpt>
      <trkpt lat="45.43798" lon="5.72475">
        <ele>464</ele>
        <time>2016-08-09T09:14:57.000Z</time>
      </trkpt>
      <trkpt lat="45.438" lon="5.72473">
        <ele>464</ele>
        <time>2016-08-09T09:14:58.000Z</time>
      </trkpt>
      <trkpt lat="45.43802" lon="5.72471">
        <ele>464</ele>
        <time>2016-08-09T09:14:59.000Z</time>
      </trkpt>
      <trkpt lat="45.43803" lon="5.72469">
        <ele>464</ele>
        <time>2016-08-09T09:15:00.000Z</time>
      </trkpt>
      <trkpt lat="45.43806" lon="5.72466">
        <ele>465</ele>
        <time>2016-08-09T09:15:02.000Z</time>
      </trkpt>
      <trkpt lat="45.43808" lon="5.72464">
        <ele>465</ele>
        <time>2016-08-09T09:15:03.000Z</time>
      </trkpt>
      <trkpt lat="45.43811" lon="5.72461">
        <ele>465</ele>
        <time>2016-08-09T09:15:05.000Z</time>
      </trkpt>
      <trkpt lat="45.43812" lon="5.7246">
        <ele>465</ele>
        <time>2016-08-09T09:15:06.000Z</time>
      </trkpt>
      <trkpt lat="45.43816" lon="5.72458">
        <ele>465</ele>
        <time>2016-08-09T09:15:09.000Z</time>
      </trkpt>
      <trkpt lat="45.43818" lon="5.72458">
        <ele>465</ele>
        <time>2016-08-09T09:15:10.000Z</time>
      </trkpt>
      <trkpt lat="45.43821" lon="5.72459">
        <ele>465</ele>
        <time>2016-08-09T09:15:12.000Z</time>
      </trkpt>
      <trkpt lat="45.43822" lon="5.72459">
        <ele>465</ele>
        <time>2016-08-09T09:15:13.000Z</time>
      </trkpt>
      <trkpt lat="45.43826" lon="5.7246">
        <ele>465</ele>
        <time>2016-08-09T09:15:15.000Z</time>
      </trkpt>
      <trkpt lat="45.43829" lon="5.7246">
        <ele>465</ele>
        <time>2016-08-09T09:15:16.000Z</time>
      </trkpt>
      <trkpt lat="45.43831" lon="5.72461">
        <ele>465</ele>
        <time>2016-08-09T09:15:17.000Z</time>
      </trkpt>
      <trkpt lat="45.43834" lon="5.72462">
        <ele>470</ele>
        <time>2016-08-09T09:15:18.000Z</time>
      </trkpt>
      <trkpt lat="45.43836" lon="5.72462">
        <ele>470</ele>
        <time>2016-08-09T09:15:18.999Z</time>
      </trkpt>
      <trkpt lat="45.43839" lon="5.72463">
        <ele>470</ele>
        <time>2016-08-09T09:15:20.000Z</time>
      </trkpt>
      <trkpt lat="45.43843" lon="5.72464">
        <ele>471</ele>
        <time>2016-08-09T09:15:22.000Z</time>
      </trkpt>
      <trkpt lat="45.43845" lon="5.72464">
        <ele>471</ele>
        <time>2016-08-09T09:15:23.000Z</time>
      </trkpt>
      <trkpt lat="45.43848" lon="5.72465">
        <ele>471</ele>
        <time>2016-08-09T09:15:25.000Z</time>
      </trkpt>
      <trkpt lat="45.43851" lon="5.72466">
        <ele>471</ele>
        <time>2016-08-09T09:15:26.000Z</time>
      </trkpt>
      <trkpt lat="45.43853" lon="5.72467">
        <ele>471</ele>
        <time>2016-08-09T09:15:27.000Z</time>
      </trkpt>
      <trkpt lat="45.43855" lon="5.72469">
        <ele>471</ele>
        <time>2016-08-09T09:15:28.000Z</time>
      </trkpt>
      <trkpt lat="45.43857" lon="5.7247">
        <ele>471</ele>
        <time>2016-08-09T09:15:29.000Z</time>
      </trkpt>
      <trkpt lat="45.43859" lon="5.72471">
        <ele>471</ele>
        <time>2016-08-09T09:15:30.000Z</time>
      </trkpt>
      <trkpt lat="45.43861" lon="5.72472">
        <ele>471</ele>
        <time>2016-08-09T09:15:30.999Z</time>
      </trkpt>
      <trkpt lat="45.43863" lon="5.72473">
        <ele>471</ele>
        <time>2016-08-09T09:15:32.000Z</time>
      </trkpt>
      <trkpt lat="45.43867" lon="5.72475">
        <ele>471</ele>
        <time>2016-08-09T09:15:34.000Z</time>
      </trkpt>
      <trkpt lat="45.43869" lon="5.72476">
        <ele>471</ele>
        <time>2016-08-09T09:15:35.001Z</time>
      </trkpt>
      <trkpt lat="45.43873" lon="5.72478">
        <ele>472</ele>
        <time>2016-08-09T09:15:37.000Z</time>
      </trkpt>
      <trkpt lat="45.43875" lon="5.72478">
        <ele>472</ele>
        <time>2016-08-09T09:15:38.000Z</time>
      </trkpt>
      <trkpt lat="45.43878" lon="5.72479">
        <ele>472</ele>
        <time>2016-08-09T09:15:40.000Z</time>
      </trkpt>
      <trkpt lat="45.4388" lon="5.72479">
        <ele>472</ele>
        <time>2016-08-09T09:15:41.000Z</time>
      </trkpt>
      <trkpt lat="45.43884" lon="5.72479">
        <ele>472</ele>
        <time>2016-08-09T09:15:43.000Z</time>
      </trkpt>
      <trkpt lat="45.43886" lon="5.72479">
        <ele>472</ele>
        <time>2016-08-09T09:15:44.000Z</time>
      </trkpt>
      <trkpt lat="45.43888" lon="5.72479">
        <ele>473</ele>
        <time>2016-08-09T09:15:45.000Z</time>
      </trkpt>
      <trkpt lat="45.43891" lon="5.7248">
        <ele>473</ele>
        <time>2016-08-09T09:15:46.000Z</time>
      </trkpt>
      <trkpt lat="45.43893" lon="5.7248">
        <ele>473</ele>
        <time>2016-08-09T09:15:47.000Z</time>
      </trkpt>
      <trkpt lat="45.43895" lon="5.72481">
        <ele>473</ele>
        <time>2016-08-09T09:15:48.000Z</time>
      </trkpt>
      <trkpt lat="45.43897" lon="5.72482">
        <ele>473</ele>
        <time>2016-08-09T09:15:49.000Z</time>
      </trkpt>
      <trkpt lat="45.439" lon="5.72483">
        <ele>473</ele>
        <time>2016-08-09T09:15:50.000Z</time>
      </trkpt>
      <trkpt lat="45.43902" lon="5.72484">
        <ele>473</ele>
        <time>2016-08-09T09:15:51.000Z</time>
      </trkpt>
      <trkpt lat="45.43905" lon="5.72484">
        <ele>473</ele>
        <time>2016-08-09T09:15:51.999Z</time>
      </trkpt>
      <trkpt lat="45.43909" lon="5.72484">
        <ele>473</ele>
        <time>2016-08-09T09:15:54.000Z</time>
      </trkpt>
      <trkpt lat="45.43911" lon="5.72484">
        <ele>473</ele>
        <time>2016-08-09T09:15:55.000Z</time>
      </trkpt>
      <trkpt lat="45.43915" lon="5.72484">
        <ele>473</ele>
        <time>2016-08-09T09:15:57.000Z</time>
      </trkpt>
      <trkpt lat="45.43917" lon="5.72482">
        <ele>477</ele>
        <time>2016-08-09T09:15:58.000Z</time>
      </trkpt>
      <trkpt lat="45.43921" lon="5.72482">
        <ele>478</ele>
        <time>2016-08-09T09:16:00.000Z</time>
      </trkpt>
      <trkpt lat="45.43923" lon="5.72482">
        <ele>478</ele>
        <time>2016-08-09T09:16:01.000Z</time>
      </trkpt>
      <trkpt lat="45.43927" lon="5.72482">
        <ele>478</ele>
        <time>2016-08-09T09:16:03.000Z</time>
      </trkpt>
      <trkpt lat="45.43928" lon="5.72482">
        <ele>478</ele>
        <time>2016-08-09T09:16:04.000Z</time>
      </trkpt>
      <trkpt lat="45.43932" lon="5.72483">
        <ele>478</ele>
        <time>2016-08-09T09:16:06.000Z</time>
      </trkpt>
      <trkpt lat="45.43934" lon="5.72483">
        <ele>478</ele>
        <time>2016-08-09T09:16:07.000Z</time>
      </trkpt>
      <trkpt lat="45.43936" lon="5.72483">
        <ele>479</ele>
        <time>2016-08-09T09:16:08.000Z</time>
      </trkpt>
      <trkpt lat="45.43939" lon="5.72484">
        <ele>479</ele>
        <time>2016-08-09T09:16:09.000Z</time>
      </trkpt>
      <trkpt lat="45.43941" lon="5.72484">
        <ele>479</ele>
        <time>2016-08-09T09:16:10.000Z</time>
      </trkpt>
      <trkpt lat="45.43943" lon="5.72485">
        <ele>479</ele>
        <time>2016-08-09T09:16:10.999Z</time>
      </trkpt>
      <trkpt lat="45.43945" lon="5.72485">
        <ele>479</ele>
        <time>2016-08-09T09:16:12.000Z</time>
      </trkpt>
      <trkpt lat="45.43948" lon="5.72486">
        <ele>480</ele>
        <time>2016-08-09T09:16:13.000Z</time>
      </trkpt>
      <trkpt lat="45.43951" lon="5.72485">
        <ele>480</ele>
        <time>2016-08-09T09:16:15.000Z</time>
      </trkpt>
      <trkpt lat="45.43953" lon="5.72485">
        <ele>480</ele>
        <time>2016-08-09T09:16:16.000Z</time>
      </trkpt>
      <trkpt lat="45.43957" lon="5.72485">
        <ele>480</ele>
        <time>2016-08-09T09:16:18.000Z</time>
      </trkpt>
      <trkpt lat="45.43959" lon="5.72485">
        <ele>480</ele>
        <time>2016-08-09T09:16:19.000Z</time>
      </trkpt>
      <trkpt lat="45.43961" lon="5.72485">
        <ele>481</ele>
        <time>2016-08-09T09:16:20.000Z</time>
      </trkpt>
      <trkpt lat="45.43964" lon="5.72486">
        <ele>481</ele>
        <time>2016-08-09T09:16:21.000Z</time>
      </trkpt>
      <trkpt lat="45.43966" lon="5.72486">
        <ele>481</ele>
        <time>2016-08-09T09:16:22.000Z</time>
      </trkpt>
      <trkpt lat="45.43969" lon="5.72487">
        <ele>481</ele>
        <time>2016-08-09T09:16:23.000Z</time>
      </trkpt>
      <trkpt lat="45.43971" lon="5.72487">
        <ele>481</ele>
        <time>2016-08-09T09:16:24.000Z</time>
      </trkpt>
      <trkpt lat="45.43974" lon="5.72488">
        <ele>481</ele>
        <time>2016-08-09T09:16:25.000Z</time>
      </trkpt>
      <trkpt lat="45.43978" lon="5.7249">
        <ele>481</ele>
        <time>2016-08-09T09:16:27.000Z</time>
      </trkpt>
      <trkpt lat="45.4398" lon="5.7249">
        <ele>481</ele>
        <time>2016-08-09T09:16:28.000Z</time>
      </trkpt>
      <trkpt lat="45.43984" lon="5.7249">
        <ele>481</ele>
        <time>2016-08-09T09:16:30.001Z</time>
      </trkpt>
      <trkpt lat="45.43986" lon="5.7249">
        <ele>481</ele>
        <time>2016-08-09T09:16:31.000Z</time>
      </trkpt>
      <trkpt lat="45.43989" lon="5.72491">
        <ele>481</ele>
        <time>2016-08-09T09:16:32.000Z</time>
      </trkpt>
      <trkpt lat="45.43991" lon="5.72491">
        <ele>481</ele>
        <time>2016-08-09T09:16:33.000Z</time>
      </trkpt>
      <trkpt lat="45.43994" lon="5.72492">
        <ele>481</ele>
        <time>2016-08-09T09:16:34.000Z</time>
      </trkpt>
      <trkpt lat="45.43997" lon="5.72493">
        <ele>481</ele>
        <time>2016-08-09T09:16:35.000Z</time>
      </trkpt>
      <trkpt lat="45.43999" lon="5.72493">
        <ele>481</ele>
        <time>2016-08-09T09:16:36.000Z</time>
      </trkpt>
      <trkpt lat="45.44002" lon="5.72492">
        <ele>482</ele>
        <time>2016-08-09T09:16:37.000Z</time>
      </trkpt>
      <trkpt lat="45.44005" lon="5.72491">
        <ele>482</ele>
        <time>2016-08-09T09:16:39.000Z</time>
      </trkpt>
      <trkpt lat="45.44007" lon="5.72489">
        <ele>483</ele>
        <time>2016-08-09T09:16:40.000Z</time>
      </trkpt>
      <trkpt lat="45.44009" lon="5.72486">
        <ele>483</ele>
        <time>2016-08-09T09:16:41.000Z</time>
      </trkpt>
      <trkpt lat="45.4401" lon="5.72482">
        <ele>484</ele>
        <time>2016-08-09T09:16:42.000Z</time>
      </trkpt>
      <trkpt lat="45.44012" lon="5.7248">
        <ele>484</ele>
        <time>2016-08-09T09:16:43.000Z</time>
      </trkpt>
      <trkpt lat="45.44014" lon="5.72479">
        <ele>484</ele>
        <time>2016-08-09T09:16:44.000Z</time>
      </trkpt>
      <trkpt lat="45.44016" lon="5.7248">
        <ele>484</ele>
        <time>2016-08-09T09:16:45.000Z</time>
      </trkpt>
      <trkpt lat="45.44018" lon="5.72482">
        <ele>484</ele>
        <time>2016-08-09T09:16:46.000Z</time>
      </trkpt>
      <trkpt lat="45.4402" lon="5.72484">
        <ele>484</ele>
        <time>2016-08-09T09:16:47.000Z</time>
      </trkpt>
      <trkpt lat="45.44022" lon="5.72486">
        <ele>484</ele>
        <time>2016-08-09T09:16:48.000Z</time>
      </trkpt>
      <trkpt lat="45.44025" lon="5.7249">
        <ele>484</ele>
        <time>2016-08-09T09:16:50.000Z</time>
      </trkpt>
      <trkpt lat="45.44027" lon="5.72491">
        <ele>484</ele>
        <time>2016-08-09T09:16:51.000Z</time>
      </trkpt>
      <trkpt lat="45.4403" lon="5.72494">
        <ele>484</ele>
        <time>2016-08-09T09:16:53.001Z</time>
      </trkpt>
      <trkpt lat="45.44033" lon="5.72495">
        <ele>484</ele>
        <time>2016-08-09T09:16:54.000Z</time>
      </trkpt>
      <trkpt lat="45.44035" lon="5.72496">
        <ele>484</ele>
        <time>2016-08-09T09:16:55.000Z</time>
      </trkpt>
      <trkpt lat="45.44038" lon="5.72498">
        <ele>484</ele>
        <time>2016-08-09T09:16:56.000Z</time>
      </trkpt>
      <trkpt lat="45.44041" lon="5.72499">
        <ele>484</ele>
        <time>2016-08-09T09:16:57.000Z</time>
      </trkpt>
      <trkpt lat="45.44044" lon="5.72499">
        <ele>484</ele>
        <time>2016-08-09T09:16:58.000Z</time>
      </trkpt>
      <trkpt lat="45.44047" lon="5.725">
        <ele>485</ele>
        <time>2016-08-09T09:16:59.000Z</time>
      </trkpt>
      <trkpt lat="45.4405" lon="5.725">
        <ele>485</ele>
        <time>2016-08-09T09:17:00.000Z</time>
      </trkpt>
      <trkpt lat="45.44053" lon="5.72499">
        <ele>485</ele>
        <time>2016-08-09T09:17:01.000Z</time>
      </trkpt>
      <trkpt lat="45.44056" lon="5.72499">
        <ele>485</ele>
        <time>2016-08-09T09:17:02.000Z</time>
      </trkpt>
      <trkpt lat="45.44059" lon="5.72498">
        <ele>485</ele>
        <time>2016-08-09T09:17:04.000Z</time>
      </trkpt>
      <trkpt lat="45.44061" lon="5.72498">
        <ele>485</ele>
        <time>2016-08-09T09:17:05.000Z</time>
      </trkpt>
      <trkpt lat="45.44064" lon="5.72498">
        <ele>484</ele>
        <time>2016-08-09T09:17:06.000Z</time>
      </trkpt>
      <trkpt lat="45.44067" lon="5.72498">
        <ele>484</ele>
        <time>2016-08-09T09:17:07.000Z</time>
      </trkpt>
      <trkpt lat="45.4407" lon="5.72498">
        <ele>484</ele>
        <time>2016-08-09T09:17:08.000Z</time>
      </trkpt>
      <trkpt lat="45.44074" lon="5.72498">
        <ele>484</ele>
        <time>2016-08-09T09:17:09.000Z</time>
      </trkpt>
      <trkpt lat="45.44077" lon="5.72498">
        <ele>484</ele>
        <time>2016-08-09T09:17:10.000Z</time>
      </trkpt>
      <trkpt lat="45.4408" lon="5.72498">
        <ele>483</ele>
        <time>2016-08-09T09:17:11.000Z</time>
      </trkpt>
      <trkpt lat="45.44083" lon="5.72498">
        <ele>483</ele>
        <time>2016-08-09T09:17:12.000Z</time>
      </trkpt>
      <trkpt lat="45.44086" lon="5.72498">
        <ele>483</ele>
        <time>2016-08-09T09:17:13.000Z</time>
      </trkpt>
      <trkpt lat="45.44089" lon="5.72499">
        <ele>483</ele>
        <time>2016-08-09T09:17:14.000Z</time>
      </trkpt>
      <trkpt lat="45.44092" lon="5.72499">
        <ele>483</ele>
        <time>2016-08-09T09:17:15.000Z</time>
      </trkpt>
      <trkpt lat="45.44096" lon="5.72499">
        <ele>483</ele>
        <time>2016-08-09T09:17:17.000Z</time>
      </trkpt>
      <trkpt lat="45.44098" lon="5.72499">
        <ele>483</ele>
        <time>2016-08-09T09:17:18.000Z</time>
      </trkpt>
      <trkpt lat="45.44101" lon="5.72499">
        <ele>483</ele>
        <time>2016-08-09T09:17:20.000Z</time>
      </trkpt>
      <trkpt lat="45.44103" lon="5.72498">
        <ele>483</ele>
        <time>2016-08-09T09:17:21.000Z</time>
      </trkpt>
      <trkpt lat="45.44106" lon="5.72496">
        <ele>483</ele>
        <time>2016-08-09T09:17:23.000Z</time>
      </trkpt>
      <trkpt lat="45.44107" lon="5.72495">
        <ele>483</ele>
        <time>2016-08-09T09:17:24.000Z</time>
      </trkpt>
      <trkpt lat="45.44109" lon="5.7249">
        <ele>483</ele>
        <time>2016-08-09T09:17:27.000Z</time>
      </trkpt>
      <trkpt lat="45.4411" lon="5.72489">
        <ele>483</ele>
        <time>2016-08-09T09:17:28.000Z</time>
      </trkpt>
      <trkpt lat="45.44113" lon="5.72483">
        <ele>483</ele>
        <time>2016-08-09T09:17:32.000Z</time>
      </trkpt>
      <trkpt lat="45.44113" lon="5.72481">
        <ele>483</ele>
        <time>2016-08-09T09:17:33.000Z</time>
      </trkpt>
      <trkpt lat="45.44112" lon="5.72476">
        <ele>483</ele>
        <time>2016-08-09T09:17:35.000Z</time>
      </trkpt>
      <trkpt lat="45.44111" lon="5.72473">
        <ele>483</ele>
        <time>2016-08-09T09:17:36.000Z</time>
      </trkpt>
      <trkpt lat="45.44109" lon="5.72468">
        <ele>484</ele>
        <time>2016-08-09T09:17:39.000Z</time>
      </trkpt>
      <trkpt lat="45.44109" lon="5.72466">
        <ele>484</ele>
        <time>2016-08-09T09:17:40.000Z</time>
      </trkpt>
      <trkpt lat="45.44109" lon="5.72461">
        <ele>484</ele>
        <time>2016-08-09T09:17:42.000Z</time>
      </trkpt>
      <trkpt lat="45.44109" lon="5.72459">
        <ele>484</ele>
        <time>2016-08-09T09:17:43.000Z</time>
      </trkpt>
      <trkpt lat="45.44108" lon="5.72453">
        <ele>484</ele>
        <time>2016-08-09T09:17:46.000Z</time>
      </trkpt>
      <trkpt lat="45.44108" lon="5.72451">
        <ele>484</ele>
        <time>2016-08-09T09:17:46.999Z</time>
      </trkpt>
      <trkpt lat="45.44108" lon="5.72446">
        <ele>485</ele>
        <time>2016-08-09T09:17:49.000Z</time>
      </trkpt>
      <trkpt lat="45.44108" lon="5.72444">
        <ele>485</ele>
        <time>2016-08-09T09:17:50.000Z</time>
      </trkpt>
      <trkpt lat="45.44106" lon="5.72438">
        <ele>485</ele>
        <time>2016-08-09T09:17:53.000Z</time>
      </trkpt>
      <trkpt lat="45.44105" lon="5.72436">
        <ele>485</ele>
        <time>2016-08-09T09:17:54.000Z</time>
      </trkpt>
      <trkpt lat="45.44103" lon="5.72431">
        <ele>486</ele>
        <time>2016-08-09T09:17:57.000Z</time>
      </trkpt>
      <trkpt lat="45.44102" lon="5.7243">
        <ele>486</ele>
        <time>2016-08-09T09:17:58.000Z</time>
      </trkpt>
      <trkpt lat="45.44099" lon="5.72427">
        <ele>487</ele>
        <time>2016-08-09T09:18:00.000Z</time>
      </trkpt>
      <trkpt lat="45.44098" lon="5.72425">
        <ele>487</ele>
        <time>2016-08-09T09:18:01.000Z</time>
      </trkpt>
      <trkpt lat="45.44094" lon="5.72422">
        <ele>488</ele>
        <time>2016-08-09T09:18:05.000Z</time>
      </trkpt>
      <trkpt lat="45.44094" lon="5.72421">
        <ele>488</ele>
        <time>2016-08-09T09:18:06.000Z</time>
      </trkpt>
      <trkpt lat="45.44094" lon="5.72415">
        <ele>488</ele>
        <time>2016-08-09T09:18:10.000Z</time>
      </trkpt>
      <trkpt lat="45.44093" lon="5.72414">
        <ele>488</ele>
        <time>2016-08-09T09:18:10.999Z</time>
      </trkpt>
      <trkpt lat="45.44089" lon="5.72412">
        <ele>489</ele>
        <time>2016-08-09T09:18:15.000Z</time>
      </trkpt>
      <trkpt lat="45.44088" lon="5.72412">
        <ele>489</ele>
        <time>2016-08-09T09:18:16.000Z</time>
      </trkpt>
      <trkpt lat="45.44085" lon="5.72409">
        <ele>489</ele>
        <time>2016-08-09T09:18:21.000Z</time>
      </trkpt>
      <trkpt lat="45.44084" lon="5.72409">
        <ele>489</ele>
        <time>2016-08-09T09:18:22.000Z</time>
      </trkpt>
      <trkpt lat="45.44082" lon="5.72405">
        <ele>492</ele>
        <time>2016-08-09T09:18:25.000Z</time>
      </trkpt>
      <trkpt lat="45.44081" lon="5.72403">
        <ele>492</ele>
        <time>2016-08-09T09:18:25.998Z</time>
      </trkpt>
      <trkpt lat="45.44078" lon="5.72399">
        <ele>492</ele>
        <time>2016-08-09T09:18:29.000Z</time>
      </trkpt>
      <trkpt lat="45.44077" lon="5.72398">
        <ele>492</ele>
        <time>2016-08-09T09:18:30.000Z</time>
      </trkpt>
      <trkpt lat="45.44074" lon="5.72393">
        <ele>492</ele>
        <time>2016-08-09T09:18:33.000Z</time>
      </trkpt>
      <trkpt lat="45.44073" lon="5.7239">
        <ele>493</ele>
        <time>2016-08-09T09:18:34.000Z</time>
      </trkpt>
      <trkpt lat="45.44071" lon="5.72387">
        <ele>493</ele>
        <time>2016-08-09T09:18:36.000Z</time>
      </trkpt>
      <trkpt lat="45.4407" lon="5.72385">
        <ele>493</ele>
        <time>2016-08-09T09:18:37.000Z</time>
      </trkpt>
      <trkpt lat="45.44066" lon="5.72384">
        <ele>493</ele>
        <time>2016-08-09T09:18:40.000Z</time>
      </trkpt>
      <trkpt lat="45.44065" lon="5.72383">
        <ele>493</ele>
        <time>2016-08-09T09:18:41.000Z</time>
      </trkpt>
      <trkpt lat="45.44062" lon="5.7238">
        <ele>493</ele>
        <time>2016-08-09T09:18:43.001Z</time>
      </trkpt>
      <trkpt lat="45.44061" lon="5.72378">
        <ele>493</ele>
        <time>2016-08-09T09:18:44.000Z</time>
      </trkpt>
      <trkpt lat="45.44057" lon="5.72375">
        <ele>493</ele>
        <time>2016-08-09T09:18:48.000Z</time>
      </trkpt>
      <trkpt lat="45.44057" lon="5.72374">
        <ele>493</ele>
        <time>2016-08-09T09:18:49.000Z</time>
      </trkpt>
      <trkpt lat="45.44053" lon="5.72371">
        <ele>493</ele>
        <time>2016-08-09T09:18:53.000Z</time>
      </trkpt>
      <trkpt lat="45.44053" lon="5.7237">
        <ele>493</ele>
        <time>2016-08-09T09:18:54.000Z</time>
      </trkpt>
      <trkpt lat="45.44051" lon="5.72364">
        <ele>494</ele>
        <time>2016-08-09T09:18:58.000Z</time>
      </trkpt>
      <trkpt lat="45.4405" lon="5.72363">
        <ele>494</ele>
        <time>2016-08-09T09:18:59.000Z</time>
      </trkpt>
      <trkpt lat="45.4405" lon="5.72357">
        <ele>494</ele>
        <time>2016-08-09T09:19:02.000Z</time>
      </trkpt>
      <trkpt lat="45.4405" lon="5.72354">
        <ele>494</ele>
        <time>2016-08-09T09:19:03.000Z</time>
      </trkpt>
      <trkpt lat="45.44049" lon="5.72349">
        <ele>494</ele>
        <time>2016-08-09T09:19:05.000Z</time>
      </trkpt>
      <trkpt lat="45.44048" lon="5.72347">
        <ele>494</ele>
        <time>2016-08-09T09:19:06.000Z</time>
      </trkpt>
      <trkpt lat="45.44045" lon="5.72343">
        <ele>494</ele>
        <time>2016-08-09T09:19:09.000Z</time>
      </trkpt>
      <trkpt lat="45.44044" lon="5.72341">
        <ele>495</ele>
        <time>2016-08-09T09:19:10.000Z</time>
      </trkpt>
      <trkpt lat="45.44041" lon="5.72338">
        <ele>495</ele>
        <time>2016-08-09T09:19:12.000Z</time>
      </trkpt>
      <trkpt lat="45.4404" lon="5.72337">
        <ele>495</ele>
        <time>2016-08-09T09:19:13.000Z</time>
      </trkpt>
      <trkpt lat="45.44037" lon="5.72332">
        <ele>496</ele>
        <time>2016-08-09T09:19:16.000Z</time>
      </trkpt>
      <trkpt lat="45.44036" lon="5.7233">
        <ele>496</ele>
        <time>2016-08-09T09:19:17.000Z</time>
      </trkpt>
      <trkpt lat="45.44034" lon="5.72326">
        <ele>496</ele>
        <time>2016-08-09T09:19:20.000Z</time>
      </trkpt>
      <trkpt lat="45.44034" lon="5.72324">
        <ele>496</ele>
        <time>2016-08-09T09:19:21.000Z</time>
      </trkpt>
      <trkpt lat="45.44032" lon="5.72321">
        <ele>497</ele>
        <time>2016-08-09T09:19:23.000Z</time>
      </trkpt>
      <trkpt lat="45.4403" lon="5.72319">
        <ele>497</ele>
        <time>2016-08-09T09:19:24.000Z</time>
      </trkpt>
      <trkpt lat="45.44026" lon="5.72317">
        <ele>497</ele>
        <time>2016-08-09T09:19:26.000Z</time>
      </trkpt>
      <trkpt lat="45.44025" lon="5.72315">
        <ele>497</ele>
        <time>2016-08-09T09:19:27.000Z</time>
      </trkpt>
      <trkpt lat="45.44022" lon="5.72311">
        <ele>497</ele>
        <time>2016-08-09T09:19:29.000Z</time>
      </trkpt>
      <trkpt lat="45.44021" lon="5.72309">
        <ele>497</ele>
        <time>2016-08-09T09:19:30.000Z</time>
      </trkpt>
      <trkpt lat="45.44019" lon="5.72306">
        <ele>497</ele>
        <time>2016-08-09T09:19:32.000Z</time>
      </trkpt>
      <trkpt lat="45.44017" lon="5.72304">
        <ele>497</ele>
        <time>2016-08-09T09:19:33.000Z</time>
      </trkpt>
      <trkpt lat="45.44015" lon="5.72301">
        <ele>497</ele>
        <time>2016-08-09T09:19:35.000Z</time>
      </trkpt>
      <trkpt lat="45.44013" lon="5.723">
        <ele>498</ele>
        <time>2016-08-09T09:19:36.000Z</time>
      </trkpt>
      <trkpt lat="45.4401" lon="5.72296">
        <ele>498</ele>
        <time>2016-08-09T09:19:38.000Z</time>
      </trkpt>
      <trkpt lat="45.4401" lon="5.72294">
        <ele>498</ele>
        <time>2016-08-09T09:19:39.000Z</time>
      </trkpt>
      <trkpt lat="45.44008" lon="5.72289">
        <ele>498</ele>
        <time>2016-08-09T09:19:41.000Z</time>
      </trkpt>
      <trkpt lat="45.44008" lon="5.72287">
        <ele>498</ele>
        <time>2016-08-09T09:19:42.000Z</time>
      </trkpt>
      <trkpt lat="45.44006" lon="5.72284">
        <ele>498</ele>
        <time>2016-08-09T09:19:44.000Z</time>
      </trkpt>
      <trkpt lat="45.44005" lon="5.72282">
        <ele>498</ele>
        <time>2016-08-09T09:19:45.000Z</time>
      </trkpt>
      <trkpt lat="45.44003" lon="5.72279">
        <ele>498</ele>
        <time>2016-08-09T09:19:47.000Z</time>
      </trkpt>
      <trkpt lat="45.44002" lon="5.72277">
        <ele>498</ele>
        <time>2016-08-09T09:19:48.000Z</time>
      </trkpt>
      <trkpt lat="45.44" lon="5.72273">
        <ele>502</ele>
        <time>2016-08-09T09:19:50.000Z</time>
      </trkpt>
      <trkpt lat="45.43999" lon="5.72271">
        <ele>502</ele>
        <time>2016-08-09T09:19:51.000Z</time>
      </trkpt>
      <trkpt lat="45.43996" lon="5.72267">
        <ele>502</ele>
        <time>2016-08-09T09:19:53.000Z</time>
      </trkpt>
      <trkpt lat="45.43995" lon="5.72265">
        <ele>502</ele>
        <time>2016-08-09T09:19:54.000Z</time>
      </trkpt>
      <trkpt lat="45.43992" lon="5.72263">
        <ele>502</ele>
        <time>2016-08-09T09:19:56.000Z</time>
      </trkpt>
      <trkpt lat="45.43991" lon="5.72262">
        <ele>502</ele>
        <time>2016-08-09T09:19:57.000Z</time>
      </trkpt>
      <trkpt lat="45.43988" lon="5.72258">
        <ele>502</ele>
        <time>2016-08-09T09:19:59.000Z</time>
      </trkpt>
      <trkpt lat="45.43987" lon="5.72257">
        <ele>502</ele>
        <time>2016-08-09T09:20:00.000Z</time>
      </trkpt>
      <trkpt lat="45.43984" lon="5.72253">
        <ele>502</ele>
        <time>2016-08-09T09:20:02.000Z</time>
      </trkpt>
      <trkpt lat="45.43983" lon="5.72252">
        <ele>502</ele>
        <time>2016-08-09T09:20:03.000Z</time>
      </trkpt>
      <trkpt lat="45.4398" lon="5.72249">
        <ele>504</ele>
        <time>2016-08-09T09:20:06.000Z</time>
      </trkpt>
      <trkpt lat="45.43979" lon="5.72248">
        <ele>504</ele>
        <time>2016-08-09T09:20:07.000Z</time>
      </trkpt>
      <trkpt lat="45.43976" lon="5.72247">
        <ele>504</ele>
        <time>2016-08-09T09:20:09.000Z</time>
      </trkpt>
      <trkpt lat="45.43975" lon="5.72245">
        <ele>504</ele>
        <time>2016-08-09T09:20:10.000Z</time>
      </trkpt>
      <trkpt lat="45.43972" lon="5.72242">
        <ele>504</ele>
        <time>2016-08-09T09:20:11.999Z</time>
      </trkpt>
      <trkpt lat="45.43972" lon="5.72239">
        <ele>504</ele>
        <time>2016-08-09T09:20:13.000Z</time>
      </trkpt>
      <trkpt lat="45.43974" lon="5.72234">
        <ele>504</ele>
        <time>2016-08-09T09:20:15.000Z</time>
      </trkpt>
      <trkpt lat="45.43975" lon="5.72232">
        <ele>504</ele>
        <time>2016-08-09T09:20:16.000Z</time>
      </trkpt>
      <trkpt lat="45.43972" lon="5.72229">
        <ele>504</ele>
        <time>2016-08-09T09:20:19.000Z</time>
      </trkpt>
      <trkpt lat="45.43969" lon="5.72228">
        <ele>504</ele>
        <time>2016-08-09T09:20:20.000Z</time>
      </trkpt>
      <trkpt lat="45.43965" lon="5.72226">
        <ele>504</ele>
        <time>2016-08-09T09:20:21.999Z</time>
      </trkpt>
      <trkpt lat="45.43964" lon="5.72224">
        <ele>504</ele>
        <time>2016-08-09T09:20:23.000Z</time>
      </trkpt>
      <trkpt lat="45.43961" lon="5.72222">
        <ele>504</ele>
        <time>2016-08-09T09:20:25.000Z</time>
      </trkpt>
      <trkpt lat="45.4396" lon="5.7222">
        <ele>504</ele>
        <time>2016-08-09T09:20:26.000Z</time>
      </trkpt>
      <trkpt lat="45.43957" lon="5.72217">
        <ele>504</ele>
        <time>2016-08-09T09:20:28.000Z</time>
      </trkpt>
      <trkpt lat="45.43955" lon="5.72214">
        <ele>504</ele>
        <time>2016-08-09T09:20:29.000Z</time>
      </trkpt>
      <trkpt lat="45.43952" lon="5.72211">
        <ele>505</ele>
        <time>2016-08-09T09:20:31.000Z</time>
      </trkpt>
      <trkpt lat="45.43951" lon="5.72209">
        <ele>505</ele>
        <time>2016-08-09T09:20:32.000Z</time>
      </trkpt>
      <trkpt lat="45.43947" lon="5.72207">
        <ele>505</ele>
        <time>2016-08-09T09:20:34.000Z</time>
      </trkpt>
      <trkpt lat="45.43946" lon="5.72206">
        <ele>505</ele>
        <time>2016-08-09T09:20:35.000Z</time>
      </trkpt>
      <trkpt lat="45.43944" lon="5.72202">
        <ele>505</ele>
        <time>2016-08-09T09:20:37.000Z</time>
      </trkpt>
      <trkpt lat="45.43943" lon="5.72201">
        <ele>505</ele>
        <time>2016-08-09T09:20:38.000Z</time>
      </trkpt>
      <trkpt lat="45.43941" lon="5.72198">
        <ele>505</ele>
        <time>2016-08-09T09:20:39.000Z</time>
      </trkpt>
      <trkpt lat="45.43939" lon="5.72197">
        <ele>506</ele>
        <time>2016-08-09T09:20:40.000Z</time>
      </trkpt>
      <trkpt lat="45.43936" lon="5.72196">
        <ele>506</ele>
        <time>2016-08-09T09:20:41.000Z</time>
      </trkpt>
      <trkpt lat="45.43934" lon="5.72195">
        <ele>506</ele>
        <time>2016-08-09T09:20:41.999Z</time>
      </trkpt>
      <trkpt lat="45.4393" lon="5.72192">
        <ele>506</ele>
        <time>2016-08-09T09:20:44.000Z</time>
      </trkpt>
      <trkpt lat="45.43928" lon="5.72191">
        <ele>506</ele>
        <time>2016-08-09T09:20:45.000Z</time>
      </trkpt>
      <trkpt lat="45.43925" lon="5.72187">
        <ele>507</ele>
        <time>2016-08-09T09:20:47.000Z</time>
      </trkpt>
      <trkpt lat="45.43924" lon="5.72185">
        <ele>507</ele>
        <time>2016-08-09T09:20:48.000Z</time>
      </trkpt>
      <trkpt lat="45.43921" lon="5.72182">
        <ele>508</ele>
        <time>2016-08-09T09:20:50.000Z</time>
      </trkpt>
      <trkpt lat="45.43919" lon="5.72181">
        <ele>508</ele>
        <time>2016-08-09T09:20:51.000Z</time>
      </trkpt>
      <trkpt lat="45.43917" lon="5.72177">
        <ele>509</ele>
        <time>2016-08-09T09:20:53.000Z</time>
      </trkpt>
      <trkpt lat="45.43916" lon="5.72175">
        <ele>510</ele>
        <time>2016-08-09T09:20:54.000Z</time>
      </trkpt>
      <trkpt lat="45.43913" lon="5.72171">
        <ele>510</ele>
        <time>2016-08-09T09:20:56.000Z</time>
      </trkpt>
      <trkpt lat="45.43912" lon="5.7217">
        <ele>510</ele>
        <time>2016-08-09T09:20:57.000Z</time>
      </trkpt>
      <trkpt lat="45.4391" lon="5.72165">
        <ele>511</ele>
        <time>2016-08-09T09:21:01.000Z</time>
      </trkpt>
      <trkpt lat="45.43909" lon="5.72163">
        <ele>511</ele>
        <time>2016-08-09T09:21:02.000Z</time>
      </trkpt>
      <trkpt lat="45.43908" lon="5.72159">
        <ele>511</ele>
        <time>2016-08-09T09:21:04.000Z</time>
      </trkpt>
      <trkpt lat="45.43907" lon="5.72157">
        <ele>511</ele>
        <time>2016-08-09T09:21:05.000Z</time>
      </trkpt>
      <trkpt lat="45.43905" lon="5.72152">
        <ele>511</ele>
        <time>2016-08-09T09:21:07.000Z</time>
      </trkpt>
      <trkpt lat="45.43905" lon="5.72149">
        <ele>511</ele>
        <time>2016-08-09T09:21:08.000Z</time>
      </trkpt>
      <trkpt lat="45.43903" lon="5.72143">
        <ele>511</ele>
        <time>2016-08-09T09:21:10.000Z</time>
      </trkpt>
      <trkpt lat="45.43902" lon="5.7214">
        <ele>511</ele>
        <time>2016-08-09T09:21:11.000Z</time>
      </trkpt>
      <trkpt lat="45.43901" lon="5.72138">
        <ele>511</ele>
        <time>2016-08-09T09:21:12.000Z</time>
      </trkpt>
      <trkpt lat="45.43899" lon="5.72135">
        <ele>511</ele>
        <time>2016-08-09T09:21:13.000Z</time>
      </trkpt>
      <trkpt lat="45.43898" lon="5.72132">
        <ele>511</ele>
        <time>2016-08-09T09:21:14.000Z</time>
      </trkpt>
      <trkpt lat="45.43896" lon="5.72129">
        <ele>512</ele>
        <time>2016-08-09T09:21:15.000Z</time>
      </trkpt>
      <trkpt lat="45.43894" lon="5.72127">
        <ele>512</ele>
        <time>2016-08-09T09:21:16.000Z</time>
      </trkpt>
      <trkpt lat="45.43892" lon="5.72124">
        <ele>512</ele>
        <time>2016-08-09T09:21:17.000Z</time>
      </trkpt>
      <trkpt lat="45.43889" lon="5.7212">
        <ele>512</ele>
        <time>2016-08-09T09:21:19.000Z</time>
      </trkpt>
      <trkpt lat="45.43888" lon="5.72117">
        <ele>512</ele>
        <time>2016-08-09T09:21:20.000Z</time>
      </trkpt>
      <trkpt lat="45.43885" lon="5.72113">
        <ele>512</ele>
        <time>2016-08-09T09:21:22.000Z</time>
      </trkpt>
      <trkpt lat="45.43884" lon="5.7211">
        <ele>512</ele>
        <time>2016-08-09T09:21:23.000Z</time>
      </trkpt>
      <trkpt lat="45.43882" lon="5.72107">
        <ele>512</ele>
        <time>2016-08-09T09:21:25.000Z</time>
      </trkpt>
      <trkpt lat="45.43881" lon="5.72105">
        <ele>512</ele>
        <time>2016-08-09T09:21:26.001Z</time>
      </trkpt>
      <trkpt lat="45.43877" lon="5.72102">
        <ele>512</ele>
        <time>2016-08-09T09:21:28.000Z</time>
      </trkpt>
      <trkpt lat="45.43875" lon="5.72101">
        <ele>512</ele>
        <time>2016-08-09T09:21:28.999Z</time>
      </trkpt>
      <trkpt lat="45.43871" lon="5.721">
        <ele>513</ele>
        <time>2016-08-09T09:21:30.999Z</time>
      </trkpt>
      <trkpt lat="45.4387" lon="5.72099">
        <ele>513</ele>
        <time>2016-08-09T09:21:32.000Z</time>
      </trkpt>
      <trkpt lat="45.43872" lon="5.72097">
        <ele>513</ele>
        <time>2016-08-09T09:22:16.000Z</time>
      </trkpt>
      <trkpt lat="45.43874" lon="5.72096">
        <ele>513</ele>
        <time>2016-08-09T09:22:17.000Z</time>
      </trkpt>
      <trkpt lat="45.43877" lon="5.72092">
        <ele>512</ele>
        <time>2016-08-09T09:22:19.000Z</time>
      </trkpt>
      <trkpt lat="45.43878" lon="5.72089">
        <ele>512</ele>
        <time>2016-08-09T09:22:20.000Z</time>
      </trkpt>
      <trkpt lat="45.43879" lon="5.72085">
        <ele>512</ele>
        <time>2016-08-09T09:22:21.000Z</time>
      </trkpt>
      <trkpt lat="45.43881" lon="5.72079">
        <ele>513</ele>
        <time>2016-08-09T09:22:22.000Z</time>
      </trkpt>
      <trkpt lat="45.43883" lon="5.72069">
        <ele>513</ele>
        <time>2016-08-09T09:22:23.000Z</time>
      </trkpt>
      <trkpt lat="45.43886" lon="5.72065">
        <ele>513</ele>
        <time>2016-08-09T09:22:24.000Z</time>
      </trkpt>
      <trkpt lat="45.43887" lon="5.72058">
        <ele>513</ele>
        <time>2016-08-09T09:22:25.000Z</time>
      </trkpt>
      <trkpt lat="45.43888" lon="5.72052">
        <ele>513</ele>
        <time>2016-08-09T09:22:26.000Z</time>
      </trkpt>
      <trkpt lat="45.4389" lon="5.7205">
        <ele>513</ele>
        <time>2016-08-09T09:22:27.000Z</time>
      </trkpt>
      <trkpt lat="45.43892" lon="5.72046">
        <ele>512</ele>
        <time>2016-08-09T09:22:29.000Z</time>
      </trkpt>
      <trkpt lat="45.43893" lon="5.72043">
        <ele>512</ele>
        <time>2016-08-09T09:22:30.000Z</time>
      </trkpt>
      <trkpt lat="45.43894" lon="5.7204">
        <ele>512</ele>
        <time>2016-08-09T09:22:31.000Z</time>
      </trkpt>
      <trkpt lat="45.43895" lon="5.72035">
        <ele>512</ele>
        <time>2016-08-09T09:22:32.000Z</time>
      </trkpt>
      <trkpt lat="45.43897" lon="5.72028">
        <ele>512</ele>
        <time>2016-08-09T09:22:33.000Z</time>
      </trkpt>
      <trkpt lat="45.43901" lon="5.72022">
        <ele>511</ele>
        <time>2016-08-09T09:22:34.000Z</time>
      </trkpt>
      <trkpt lat="45.43907" lon="5.72017">
        <ele>511</ele>
        <time>2016-08-09T09:22:35.000Z</time>
      </trkpt>
      <trkpt lat="45.43913" lon="5.72013">
        <ele>510</ele>
        <time>2016-08-09T09:22:36.000Z</time>
      </trkpt>
      <trkpt lat="45.43916" lon="5.7201">
        <ele>509</ele>
        <time>2016-08-09T09:22:37.000Z</time>
      </trkpt>
      <trkpt lat="45.43921" lon="5.72008">
        <ele>505</ele>
        <time>2016-08-09T09:22:38.000Z</time>
      </trkpt>
      <trkpt lat="45.43923" lon="5.72006">
        <ele>505</ele>
        <time>2016-08-09T09:22:39.000Z</time>
      </trkpt>
      <trkpt lat="45.43927" lon="5.72005">
        <ele>504</ele>
        <time>2016-08-09T09:22:40.000Z</time>
      </trkpt>
      <trkpt lat="45.4393" lon="5.72006">
        <ele>504</ele>
        <time>2016-08-09T09:22:41.000Z</time>
      </trkpt>
      <trkpt lat="45.43933" lon="5.72008">
        <ele>503</ele>
        <time>2016-08-09T09:22:42.000Z</time>
      </trkpt>
      <trkpt lat="45.43937" lon="5.7201">
        <ele>502</ele>
        <time>2016-08-09T09:22:43.000Z</time>
      </trkpt>
      <trkpt lat="45.43944" lon="5.72011">
        <ele>501</ele>
        <time>2016-08-09T09:22:44.000Z</time>
      </trkpt>
      <trkpt lat="45.43951" lon="5.72011">
        <ele>500</ele>
        <time>2016-08-09T09:22:45.000Z</time>
      </trkpt>
      <trkpt lat="45.43957" lon="5.7201">
        <ele>500</ele>
        <time>2016-08-09T09:22:46.000Z</time>
      </trkpt>
      <trkpt lat="45.43962" lon="5.72009">
        <ele>499</ele>
        <time>2016-08-09T09:22:47.000Z</time>
      </trkpt>
      <trkpt lat="45.43969" lon="5.72009">
        <ele>498</ele>
        <time>2016-08-09T09:22:48.000Z</time>
      </trkpt>
      <trkpt lat="45.43976" lon="5.72007">
        <ele>496</ele>
        <time>2016-08-09T09:22:49.000Z</time>
      </trkpt>
      <trkpt lat="45.43983" lon="5.72008">
        <ele>495</ele>
        <time>2016-08-09T09:22:50.000Z</time>
      </trkpt>
      <trkpt lat="45.4399" lon="5.72007">
        <ele>494</ele>
        <time>2016-08-09T09:22:51.000Z</time>
      </trkpt>
      <trkpt lat="45.43993" lon="5.72006">
        <ele>493</ele>
        <time>2016-08-09T09:22:52.000Z</time>
      </trkpt>
      <trkpt lat="45.43998" lon="5.72005">
        <ele>492</ele>
        <time>2016-08-09T09:22:53.000Z</time>
      </trkpt>
      <trkpt lat="45.44003" lon="5.72004">
        <ele>488</ele>
        <time>2016-08-09T09:22:54.000Z</time>
      </trkpt>
      <trkpt lat="45.44008" lon="5.72003">
        <ele>488</ele>
        <time>2016-08-09T09:22:55.000Z</time>
      </trkpt>
      <trkpt lat="45.44012" lon="5.72004">
        <ele>487</ele>
        <time>2016-08-09T09:22:56.000Z</time>
      </trkpt>
      <trkpt lat="45.44017" lon="5.72003">
        <ele>486</ele>
        <time>2016-08-09T09:22:57.000Z</time>
      </trkpt>
      <trkpt lat="45.44021" lon="5.72005">
        <ele>485</ele>
        <time>2016-08-09T09:22:58.000Z</time>
      </trkpt>
      <trkpt lat="45.44025" lon="5.72007">
        <ele>484</ele>
        <time>2016-08-09T09:22:59.000Z</time>
      </trkpt>
      <trkpt lat="45.44029" lon="5.72009">
        <ele>483</ele>
        <time>2016-08-09T09:23:00.000Z</time>
      </trkpt>
      <trkpt lat="45.44034" lon="5.7201">
        <ele>483</ele>
        <time>2016-08-09T09:23:01.000Z</time>
      </trkpt>
      <trkpt lat="45.44037" lon="5.72011">
        <ele>482</ele>
        <time>2016-08-09T09:23:02.000Z</time>
      </trkpt>
      <trkpt lat="45.44042" lon="5.7201">
        <ele>481</ele>
        <time>2016-08-09T09:23:03.000Z</time>
      </trkpt>
      <trkpt lat="45.44046" lon="5.72007">
        <ele>480</ele>
        <time>2016-08-09T09:23:04.000Z</time>
      </trkpt>
      <trkpt lat="45.44049" lon="5.72002">
        <ele>480</ele>
        <time>2016-08-09T09:23:05.000Z</time>
      </trkpt>
      <trkpt lat="45.44055" lon="5.71994">
        <ele>475</ele>
        <time>2016-08-09T09:23:06.000Z</time>
      </trkpt>
      <trkpt lat="45.44059" lon="5.7199">
        <ele>475</ele>
        <time>2016-08-09T09:23:07.000Z</time>
      </trkpt>
      <trkpt lat="45.44063" lon="5.71985">
        <ele>474</ele>
        <time>2016-08-09T09:23:08.000Z</time>
      </trkpt>
      <trkpt lat="45.44065" lon="5.71982">
        <ele>474</ele>
        <time>2016-08-09T09:23:09.000Z</time>
      </trkpt>
      <trkpt lat="45.44058" lon="5.71977">
        <ele>475</ele>
        <time>2016-08-09T09:23:10.000Z</time>
      </trkpt>
      <trkpt lat="45.44059" lon="5.71971">
        <ele>475</ele>
        <time>2016-08-09T09:23:13.000Z</time>
      </trkpt>
      <trkpt lat="45.44059" lon="5.7197">
        <ele>475</ele>
        <time>2016-08-09T09:23:14.000Z</time>
      </trkpt>
      <trkpt lat="45.44063" lon="5.71969">
        <ele>474</ele>
        <time>2016-08-09T09:23:23.000Z</time>
      </trkpt>
      <trkpt lat="45.44063" lon="5.71968">
        <ele>474</ele>
        <time>2016-08-09T09:23:24.000Z</time>
      </trkpt>
      <trkpt lat="45.4406" lon="5.71964">
        <ele>474</ele>
        <time>2016-08-09T09:23:36.000Z</time>
      </trkpt>
      <trkpt lat="45.4406" lon="5.71961">
        <ele>474</ele>
        <time>2016-08-09T09:23:37.000Z</time>
      </trkpt>
      <trkpt lat="45.44059" lon="5.71958">
        <ele>474</ele>
        <time>2016-08-09T09:23:38.000Z</time>
      </trkpt>
      <trkpt lat="45.44058" lon="5.71954">
        <ele>474</ele>
        <time>2016-08-09T09:23:39.000Z</time>
      </trkpt>
      <trkpt lat="45.44058" lon="5.71949">
        <ele>474</ele>
        <time>2016-08-09T09:23:40.000Z</time>
      </trkpt>
      <trkpt lat="45.44057" lon="5.71943">
        <ele>473</ele>
        <time>2016-08-09T09:23:41.000Z</time>
      </trkpt>
      <trkpt lat="45.44057" lon="5.71937">
        <ele>473</ele>
        <time>2016-08-09T09:23:42.000Z</time>
      </trkpt>
      <trkpt lat="45.44056" lon="5.71932">
        <ele>473</ele>
        <time>2016-08-09T09:23:43.000Z</time>
      </trkpt>
      <trkpt lat="45.44054" lon="5.71927">
        <ele>473</ele>
        <time>2016-08-09T09:23:44.000Z</time>
      </trkpt>
      <trkpt lat="45.44052" lon="5.71922">
        <ele>473</ele>
        <time>2016-08-09T09:23:45.000Z</time>
      </trkpt>
      <trkpt lat="45.44049" lon="5.71916">
        <ele>468</ele>
        <time>2016-08-09T09:23:46.000Z</time>
      </trkpt>
      <trkpt lat="45.44044" lon="5.71911">
        <ele>468</ele>
        <time>2016-08-09T09:23:47.000Z</time>
      </trkpt>
      <trkpt lat="45.44026" lon="5.71899">
        <ele>471</ele>
        <time>2016-08-09T09:23:48.000Z</time>
      </trkpt>
      <trkpt lat="45.4402" lon="5.71896">
        <ele>471</ele>
        <time>2016-08-09T09:23:49.000Z</time>
      </trkpt>
      <trkpt lat="45.44015" lon="5.71895">
        <ele>472</ele>
        <time>2016-08-09T09:23:50.000Z</time>
      </trkpt>
      <trkpt lat="45.4401" lon="5.71893">
        <ele>472</ele>
        <time>2016-08-09T09:23:51.000Z</time>
      </trkpt>
      <trkpt lat="45.44008" lon="5.7189">
        <ele>472</ele>
        <time>2016-08-09T09:23:52.000Z</time>
      </trkpt>
      <trkpt lat="45.44003" lon="5.71887">
        <ele>472</ele>
        <time>2016-08-09T09:23:53.000Z</time>
      </trkpt>
      <trkpt lat="45.44" lon="5.71885">
        <ele>484</ele>
        <time>2016-08-09T09:23:54.000Z</time>
      </trkpt>
      <trkpt lat="45.43997" lon="5.71883">
        <ele>484</ele>
        <time>2016-08-09T09:23:55.000Z</time>
      </trkpt>
      <trkpt lat="45.43993" lon="5.71881">
        <ele>484</ele>
        <time>2016-08-09T09:23:57.000Z</time>
      </trkpt>
      <trkpt lat="45.4399" lon="5.7188">
        <ele>484</ele>
        <time>2016-08-09T09:23:58.000Z</time>
      </trkpt>
      <trkpt lat="45.4399" lon="5.71875">
        <ele>484</ele>
        <time>2016-08-09T09:24:01.000Z</time>
      </trkpt>
      <trkpt lat="45.4399" lon="5.71873">
        <ele>483</ele>
        <time>2016-08-09T09:24:02.000Z</time>
      </trkpt>
      <trkpt lat="45.43989" lon="5.7187">
        <ele>483</ele>
        <time>2016-08-09T09:24:03.000Z</time>
      </trkpt>
      <trkpt lat="45.43989" lon="5.71866">
        <ele>483</ele>
        <time>2016-08-09T09:24:04.000Z</time>
      </trkpt>
      <trkpt lat="45.43988" lon="5.71861">
        <ele>482</ele>
        <time>2016-08-09T09:24:05.000Z</time>
      </trkpt>
      <trkpt lat="45.43988" lon="5.71856">
        <ele>481</ele>
        <time>2016-08-09T09:24:06.000Z</time>
      </trkpt>
      <trkpt lat="45.43989" lon="5.71844">
        <ele>478</ele>
        <time>2016-08-09T09:24:07.000Z</time>
      </trkpt>
      <trkpt lat="45.43985" lon="5.71835">
        <ele>478</ele>
        <time>2016-08-09T09:24:08.000Z</time>
      </trkpt>
      <trkpt lat="45.43982" lon="5.71827">
        <ele>475</ele>
        <time>2016-08-09T09:24:09.000Z</time>
      </trkpt>
      <trkpt lat="45.43981" lon="5.71819">
        <ele>475</ele>
        <time>2016-08-09T09:24:10.000Z</time>
      </trkpt>
      <trkpt lat="45.43979" lon="5.71811">
        <ele>476</ele>
        <time>2016-08-09T09:24:11.000Z</time>
      </trkpt>
      <trkpt lat="45.43977" lon="5.71803">
        <ele>476</ele>
        <time>2016-08-09T09:24:12.000Z</time>
      </trkpt>
      <trkpt lat="45.43973" lon="5.71795">
        <ele>476</ele>
        <time>2016-08-09T09:24:13.000Z</time>
      </trkpt>
      <trkpt lat="45.4397" lon="5.71786">
        <ele>476</ele>
        <time>2016-08-09T09:24:14.000Z</time>
      </trkpt>
      <trkpt lat="45.43968" lon="5.71777">
        <ele>476</ele>
        <time>2016-08-09T09:24:15.000Z</time>
      </trkpt>
      <trkpt lat="45.43966" lon="5.71767">
        <ele>476</ele>
        <time>2016-08-09T09:24:16.000Z</time>
      </trkpt>
      <trkpt lat="45.43966" lon="5.71754">
        <ele>475</ele>
        <time>2016-08-09T09:24:17.000Z</time>
      </trkpt>
      <trkpt lat="45.43965" lon="5.71745">
        <ele>475</ele>
        <time>2016-08-09T09:24:18.000Z</time>
      </trkpt>
      <trkpt lat="45.43963" lon="5.71735">
        <ele>476</ele>
        <time>2016-08-09T09:24:19.000Z</time>
      </trkpt>
      <trkpt lat="45.43961" lon="5.71727">
        <ele>477</ele>
        <time>2016-08-09T09:24:20.000Z</time>
      </trkpt>
      <trkpt lat="45.43955" lon="5.71726">
        <ele>477</ele>
        <time>2016-08-09T09:24:21.000Z</time>
      </trkpt>
      <trkpt lat="45.43952" lon="5.7172">
        <ele>478</ele>
        <time>2016-08-09T09:24:22.000Z</time>
      </trkpt>
      <trkpt lat="45.43952" lon="5.71715">
        <ele>478</ele>
        <time>2016-08-09T09:24:24.000Z</time>
      </trkpt>
      <trkpt lat="45.43955" lon="5.71715">
        <ele>478</ele>
        <time>2016-08-09T09:24:25.000Z</time>
      </trkpt>
      <trkpt lat="45.43957" lon="5.71719">
        <ele>477</ele>
        <time>2016-08-09T09:24:27.000Z</time>
      </trkpt>
      <trkpt lat="45.43958" lon="5.71721">
        <ele>477</ele>
        <time>2016-08-09T09:24:28.000Z</time>
      </trkpt>
      <trkpt lat="45.43958" lon="5.71723">
        <ele>477</ele>
        <time>2016-08-09T09:24:29.000Z</time>
      </trkpt>
      <trkpt lat="45.43957" lon="5.71731">
        <ele>477</ele>
        <time>2016-08-09T09:24:30.000Z</time>
      </trkpt>
      <trkpt lat="45.43959" lon="5.71734">
        <ele>477</ele>
        <time>2016-08-09T09:24:32.000Z</time>
      </trkpt>
      <trkpt lat="45.4396" lon="5.71735">
        <ele>476</ele>
        <time>2016-08-09T09:24:33.000Z</time>
      </trkpt>
      <trkpt lat="45.43962" lon="5.71734">
        <ele>476</ele>
        <time>2016-08-09T09:24:34.000Z</time>
      </trkpt>
      <trkpt lat="45.43964" lon="5.71733">
        <ele>476</ele>
        <time>2016-08-09T09:24:35.000Z</time>
      </trkpt>
      <trkpt lat="45.43965" lon="5.71739">
        <ele>476</ele>
        <time>2016-08-09T09:24:39.000Z</time>
      </trkpt>
      <trkpt lat="45.43965" lon="5.71739">
        <ele>476</ele>
        <time>2016-08-09T09:24:40.000Z</time>
      </trkpt>
      <trkpt lat="45.43968" lon="5.71734">
        <ele>476</ele>
        <time>2016-08-09T09:24:48.000Z</time>
      </trkpt>
      <trkpt lat="45.43968" lon="5.71734">
        <ele>475</ele>
        <time>2016-08-09T09:24:49.000Z</time>
      </trkpt>
      <trkpt lat="45.43972" lon="5.7173">
        <ele>475</ele>
        <time>2016-08-09T09:25:35.000Z</time>
      </trkpt>
      <trkpt lat="45.43972" lon="5.7173">
        <ele>475</ele>
        <time>2016-08-09T09:25:36.000Z</time>
      </trkpt>
      <trkpt lat="45.4397" lon="5.71733">
        <ele>475</ele>
        <time>2016-08-09T09:26:26.000Z</time>
      </trkpt>
      <trkpt lat="45.43969" lon="5.71736">
        <ele>475</ele>
        <time>2016-08-09T09:26:27.000Z</time>
      </trkpt>
      <trkpt lat="45.43968" lon="5.71741">
        <ele>475</ele>
        <time>2016-08-09T09:26:43.000Z</time>
      </trkpt>
      <trkpt lat="45.43967" lon="5.71742">
        <ele>475</ele>
        <time>2016-08-09T09:26:44.000Z</time>
      </trkpt>
      <trkpt lat="45.43967" lon="5.71748">
        <ele>475</ele>
        <time>2016-08-09T09:26:49.000Z</time>
      </trkpt>
      <trkpt lat="45.43968" lon="5.71749">
        <ele>475</ele>
        <time>2016-08-09T09:26:50.000Z</time>
      </trkpt>
      <trkpt lat="45.43971" lon="5.71751">
        <ele>474</ele>
        <time>2016-08-09T09:26:56.000Z</time>
      </trkpt>
      <trkpt lat="45.43972" lon="5.71752">
        <ele>474</ele>
        <time>2016-08-09T09:26:57.000Z</time>
      </trkpt>
      <trkpt lat="45.43974" lon="5.71756">
        <ele>474</ele>
        <time>2016-08-09T09:27:01.000Z</time>
      </trkpt>
      <trkpt lat="45.43975" lon="5.71758">
        <ele>474</ele>
        <time>2016-08-09T09:27:02.000Z</time>
      </trkpt>
      <trkpt lat="45.43978" lon="5.71761">
        <ele>473</ele>
        <time>2016-08-09T09:27:04.000Z</time>
      </trkpt>
      <trkpt lat="45.43979" lon="5.71763">
        <ele>473</ele>
        <time>2016-08-09T09:27:05.000Z</time>
      </trkpt>
      <trkpt lat="45.43982" lon="5.71767">
        <ele>473</ele>
        <time>2016-08-09T09:27:07.000Z</time>
      </trkpt>
      <trkpt lat="45.43984" lon="5.71768">
        <ele>473</ele>
        <time>2016-08-09T09:27:08.000Z</time>
      </trkpt>
      <trkpt lat="45.43987" lon="5.7177">
        <ele>473</ele>
        <time>2016-08-09T09:27:11.000Z</time>
      </trkpt>
      <trkpt lat="45.43988" lon="5.71771">
        <ele>473</ele>
        <time>2016-08-09T09:27:12.000Z</time>
      </trkpt>
      <trkpt lat="45.43992" lon="5.7177">
        <ele>472</ele>
        <time>2016-08-09T09:27:15.000Z</time>
      </trkpt>
      <trkpt lat="45.43994" lon="5.71769">
        <ele>472</ele>
        <time>2016-08-09T09:27:16.000Z</time>
      </trkpt>
      <trkpt lat="45.43997" lon="5.71768">
        <ele>471</ele>
        <time>2016-08-09T09:27:17.000Z</time>
      </trkpt>
      <trkpt lat="45.44" lon="5.71766">
        <ele>471</ele>
        <time>2016-08-09T09:27:18.000Z</time>
      </trkpt>
      <trkpt lat="45.44012" lon="5.71753">
        <ele>464</ele>
        <time>2016-08-09T09:27:19.000Z</time>
      </trkpt>
      <trkpt lat="45.44015" lon="5.71752">
        <ele>464</ele>
        <time>2016-08-09T09:27:21.000Z</time>
      </trkpt>
      <trkpt lat="45.44017" lon="5.71752">
        <ele>464</ele>
        <time>2016-08-09T09:27:22.000Z</time>
      </trkpt>
      <trkpt lat="45.44019" lon="5.71751">
        <ele>464</ele>
        <time>2016-08-09T09:27:23.000Z</time>
      </trkpt>
      <trkpt lat="45.44021" lon="5.71749">
        <ele>470</ele>
        <time>2016-08-09T09:27:24.000Z</time>
      </trkpt>
      <trkpt lat="45.44024" lon="5.71747">
        <ele>470</ele>
        <time>2016-08-09T09:27:25.000Z</time>
      </trkpt>
      <trkpt lat="45.44026" lon="5.71746">
        <ele>470</ele>
        <time>2016-08-09T09:27:26.000Z</time>
      </trkpt>
      <trkpt lat="45.4403" lon="5.71744">
        <ele>471</ele>
        <time>2016-08-09T09:27:28.000Z</time>
      </trkpt>
      <trkpt lat="45.44031" lon="5.71744">
        <ele>471</ele>
        <time>2016-08-09T09:27:29.000Z</time>
      </trkpt>
      <trkpt lat="45.44035" lon="5.71744">
        <ele>471</ele>
        <time>2016-08-09T09:27:34.000Z</time>
      </trkpt>
      <trkpt lat="45.44036" lon="5.71744">
        <ele>471</ele>
        <time>2016-08-09T09:27:35.000Z</time>
      </trkpt>
      <trkpt lat="45.4404" lon="5.71744">
        <ele>471</ele>
        <time>2016-08-09T09:27:40.000Z</time>
      </trkpt>
      <trkpt lat="45.44041" lon="5.71744">
        <ele>471</ele>
        <time>2016-08-09T09:27:41.000Z</time>
      </trkpt>
      <trkpt lat="45.44044" lon="5.71743">
        <ele>471</ele>
        <time>2016-08-09T09:27:44.000Z</time>
      </trkpt>
      <trkpt lat="45.44045" lon="5.71742">
        <ele>471</ele>
        <time>2016-08-09T09:27:45.000Z</time>
      </trkpt>
      <trkpt lat="45.44049" lon="5.71739">
        <ele>471</ele>
        <time>2016-08-09T09:27:51.000Z</time>
      </trkpt>
      <trkpt lat="45.4405" lon="5.71739">
        <ele>471</ele>
        <time>2016-08-09T09:27:52.000Z</time>
      </trkpt>
      <trkpt lat="45.44052" lon="5.71739">
        <ele>471</ele>
        <time>2016-08-09T09:27:55.000Z</time>
      </trkpt>
      <trkpt lat="45.44054" lon="5.71739">
        <ele>471</ele>
        <time>2016-08-09T09:27:56.000Z</time>
      </trkpt>
      <trkpt lat="45.44058" lon="5.71738">
        <ele>470</ele>
        <time>2016-08-09T09:27:58.000Z</time>
      </trkpt>
      <trkpt lat="45.44059" lon="5.71737">
        <ele>470</ele>
        <time>2016-08-09T09:27:59.000Z</time>
      </trkpt>
      <trkpt lat="45.44063" lon="5.71736">
        <ele>470</ele>
        <time>2016-08-09T09:28:02.000Z</time>
      </trkpt>
      <trkpt lat="45.44064" lon="5.71736">
        <ele>470</ele>
        <time>2016-08-09T09:28:03.000Z</time>
      </trkpt>
      <trkpt lat="45.44068" lon="5.71734">
        <ele>470</ele>
        <time>2016-08-09T09:28:05.000Z</time>
      </trkpt>
      <trkpt lat="45.4407" lon="5.71733">
        <ele>470</ele>
        <time>2016-08-09T09:28:06.000Z</time>
      </trkpt>
      <trkpt lat="45.44072" lon="5.71732">
        <ele>470</ele>
        <time>2016-08-09T09:28:07.000Z</time>
      </trkpt>
      <trkpt lat="45.44074" lon="5.71731">
        <ele>470</ele>
        <time>2016-08-09T09:28:08.000Z</time>
      </trkpt>
      <trkpt lat="45.44076" lon="5.71731">
        <ele>470</ele>
        <time>2016-08-09T09:28:09.000Z</time>
      </trkpt>
      <trkpt lat="45.44079" lon="5.7173">
        <ele>470</ele>
        <time>2016-08-09T09:28:10.000Z</time>
      </trkpt>
      <trkpt lat="45.44083" lon="5.71729">
        <ele>470</ele>
        <time>2016-08-09T09:28:12.000Z</time>
      </trkpt>
      <trkpt lat="45.44085" lon="5.71727">
        <ele>472</ele>
        <time>2016-08-09T09:28:13.000Z</time>
      </trkpt>
      <trkpt lat="45.44089" lon="5.71727">
        <ele>473</ele>
        <time>2016-08-09T09:28:16.000Z</time>
      </trkpt>
      <trkpt lat="45.4409" lon="5.71727">
        <ele>473</ele>
        <time>2016-08-09T09:28:17.000Z</time>
      </trkpt>
      <trkpt lat="45.44094" lon="5.71727">
        <ele>473</ele>
        <time>2016-08-09T09:28:20.000Z</time>
      </trkpt>
      <trkpt lat="45.44096" lon="5.71727">
        <ele>473</ele>
        <time>2016-08-09T09:28:21.000Z</time>
      </trkpt>
      <trkpt lat="45.44099" lon="5.71729">
        <ele>473</ele>
        <time>2016-08-09T09:28:25.000Z</time>
      </trkpt>
      <trkpt lat="45.441" lon="5.71729">
        <ele>473</ele>
        <time>2016-08-09T09:28:26.000Z</time>
      </trkpt>
      <trkpt lat="45.44104" lon="5.7173">
        <ele>473</ele>
        <time>2016-08-09T09:28:29.000Z</time>
      </trkpt>
      <trkpt lat="45.44105" lon="5.71731">
        <ele>473</ele>
        <time>2016-08-09T09:28:30.000Z</time>
      </trkpt>
      <trkpt lat="45.44109" lon="5.71731">
        <ele>474</ele>
        <time>2016-08-09T09:28:32.000Z</time>
      </trkpt>
      <trkpt lat="45.44111" lon="5.71731">
        <ele>474</ele>
        <time>2016-08-09T09:28:33.000Z</time>
      </trkpt>
      <trkpt lat="45.44114" lon="5.71732">
        <ele>474</ele>
        <time>2016-08-09T09:28:35.000Z</time>
      </trkpt>
      <trkpt lat="45.44116" lon="5.71733">
        <ele>474</ele>
        <time>2016-08-09T09:28:36.000Z</time>
      </trkpt>
      <trkpt lat="45.44119" lon="5.71736">
        <ele>474</ele>
        <time>2016-08-09T09:28:38.000Z</time>
      </trkpt>
      <trkpt lat="45.4412" lon="5.71737">
        <ele>474</ele>
        <time>2016-08-09T09:28:39.000Z</time>
      </trkpt>
      <trkpt lat="45.44124" lon="5.71739">
        <ele>474</ele>
        <time>2016-08-09T09:28:42.000Z</time>
      </trkpt>
      <trkpt lat="45.44125" lon="5.71739">
        <ele>474</ele>
        <time>2016-08-09T09:28:43.000Z</time>
      </trkpt>
      <trkpt lat="45.44129" lon="5.7174">
        <ele>474</ele>
        <time>2016-08-09T09:28:46.000Z</time>
      </trkpt>
      <trkpt lat="45.44131" lon="5.71741">
        <ele>474</ele>
        <time>2016-08-09T09:28:47.000Z</time>
      </trkpt>
      <trkpt lat="45.44135" lon="5.71743">
        <ele>474</ele>
        <time>2016-08-09T09:28:50.000Z</time>
      </trkpt>
      <trkpt lat="45.44136" lon="5.71744">
        <ele>474</ele>
        <time>2016-08-09T09:28:51.000Z</time>
      </trkpt>
      <trkpt lat="45.4414" lon="5.71745">
        <ele>474</ele>
        <time>2016-08-09T09:28:54.000Z</time>
      </trkpt>
      <trkpt lat="45.44142" lon="5.71744">
        <ele>474</ele>
        <time>2016-08-09T09:28:55.000Z</time>
      </trkpt>
      <trkpt lat="45.44146" lon="5.71743">
        <ele>473</ele>
        <time>2016-08-09T09:28:57.000Z</time>
      </trkpt>
      <trkpt lat="45.44147" lon="5.71743">
        <ele>473</ele>
        <time>2016-08-09T09:28:58.000Z</time>
      </trkpt>
      <trkpt lat="45.44151" lon="5.71742">
        <ele>473</ele>
        <time>2016-08-09T09:29:00.000Z</time>
      </trkpt>
      <trkpt lat="45.44153" lon="5.71742">
        <ele>473</ele>
        <time>2016-08-09T09:29:01.000Z</time>
      </trkpt>
      <trkpt lat="45.44157" lon="5.71743">
        <ele>472</ele>
        <time>2016-08-09T09:29:03.000Z</time>
      </trkpt>
      <trkpt lat="45.44159" lon="5.71743">
        <ele>471</ele>
        <time>2016-08-09T09:29:04.000Z</time>
      </trkpt>
      <trkpt lat="45.44163" lon="5.71744">
        <ele>470</ele>
        <time>2016-08-09T09:29:06.000Z</time>
      </trkpt>
      <trkpt lat="45.44165" lon="5.71746">
        <ele>470</ele>
        <time>2016-08-09T09:29:07.000Z</time>
      </trkpt>
      <trkpt lat="45.44169" lon="5.7175">
        <ele>469</ele>
        <time>2016-08-09T09:29:09.000Z</time>
      </trkpt>
      <trkpt lat="45.4417" lon="5.71751">
        <ele>467</ele>
        <time>2016-08-09T09:29:10.000Z</time>
      </trkpt>
      <trkpt lat="45.44173" lon="5.7175">
        <ele>467</ele>
        <time>2016-08-09T09:29:12.000Z</time>
      </trkpt>
      <trkpt lat="45.44175" lon="5.71749">
        <ele>473</ele>
        <time>2016-08-09T09:29:13.000Z</time>
      </trkpt>
      <trkpt lat="45.44178" lon="5.71748">
        <ele>474</ele>
        <time>2016-08-09T09:29:15.000Z</time>
      </trkpt>
      <trkpt lat="45.44179" lon="5.71747">
        <ele>475</ele>
        <time>2016-08-09T09:29:16.000Z</time>
      </trkpt>
      <trkpt lat="45.44183" lon="5.71746">
        <ele>476</ele>
        <time>2016-08-09T09:29:18.000Z</time>
      </trkpt>
      <trkpt lat="45.44184" lon="5.71745">
        <ele>477</ele>
        <time>2016-08-09T09:29:19.000Z</time>
      </trkpt>
      <trkpt lat="45.44186" lon="5.71743">
        <ele>477</ele>
        <time>2016-08-09T09:29:20.000Z</time>
      </trkpt>
      <trkpt lat="45.44188" lon="5.71741">
        <ele>478</ele>
        <time>2016-08-09T09:29:21.000Z</time>
      </trkpt>
      <trkpt lat="45.4419" lon="5.7174">
        <ele>479</ele>
        <time>2016-08-09T09:29:22.000Z</time>
      </trkpt>
      <trkpt lat="45.44193" lon="5.71739">
        <ele>479</ele>
        <time>2016-08-09T09:29:23.000Z</time>
      </trkpt>
      <trkpt lat="45.44197" lon="5.71737">
        <ele>480</ele>
        <time>2016-08-09T09:29:25.000Z</time>
      </trkpt>
      <trkpt lat="45.44199" lon="5.71736">
        <ele>481</ele>
        <time>2016-08-09T09:29:26.000Z</time>
      </trkpt>
      <trkpt lat="45.44203" lon="5.71735">
        <ele>481</ele>
        <time>2016-08-09T09:29:28.000Z</time>
      </trkpt>
      <trkpt lat="45.44204" lon="5.71735">
        <ele>481</ele>
        <time>2016-08-09T09:29:29.000Z</time>
      </trkpt>
      <trkpt lat="45.44206" lon="5.7174">
        <ele>481</ele>
        <time>2016-08-09T09:29:33.000Z</time>
      </trkpt>
      <trkpt lat="45.44207" lon="5.7174">
        <ele>481</ele>
        <time>2016-08-09T09:29:34.000Z</time>
      </trkpt>
      <trkpt lat="45.44211" lon="5.71741">
        <ele>481</ele>
        <time>2016-08-09T09:29:37.000Z</time>
      </trkpt>
      <trkpt lat="45.44212" lon="5.71742">
        <ele>481</ele>
        <time>2016-08-09T09:29:38.000Z</time>
      </trkpt>
      <trkpt lat="45.44216" lon="5.7174">
        <ele>482</ele>
        <time>2016-08-09T09:29:42.000Z</time>
      </trkpt>
      <trkpt lat="45.44217" lon="5.71739">
        <ele>482</ele>
        <time>2016-08-09T09:29:43.000Z</time>
      </trkpt>
      <trkpt lat="45.4422" lon="5.71736">
        <ele>482</ele>
        <time>2016-08-09T09:29:57.000Z</time>
      </trkpt>
      <trkpt lat="45.44221" lon="5.71735">
        <ele>482</ele>
        <time>2016-08-09T09:29:58.000Z</time>
      </trkpt>
      <trkpt lat="45.44224" lon="5.7173">
        <ele>483</ele>
        <time>2016-08-09T09:30:07.000Z</time>
      </trkpt>
      <trkpt lat="45.44224" lon="5.71729">
        <ele>483</ele>
        <time>2016-08-09T09:30:08.000Z</time>
      </trkpt>
      <trkpt lat="45.44224" lon="5.71723">
        <ele>484</ele>
        <time>2016-08-09T09:30:16.000Z</time>
      </trkpt>
      <trkpt lat="45.44225" lon="5.71722">
        <ele>484</ele>
        <time>2016-08-09T09:30:17.000Z</time>
      </trkpt>
      <trkpt lat="45.44229" lon="5.71721">
        <ele>484</ele>
        <time>2016-08-09T09:30:46.000Z</time>
      </trkpt>
      <trkpt lat="45.44229" lon="5.71721">
        <ele>484</ele>
        <time>2016-08-09T09:30:47.000Z</time>
      </trkpt>
      <trkpt lat="45.44233" lon="5.71718">
        <ele>485</ele>
        <time>2016-08-09T09:30:52.000Z</time>
      </trkpt>
      <trkpt lat="45.44233" lon="5.71717">
        <ele>485</ele>
        <time>2016-08-09T09:30:53.000Z</time>
      </trkpt>
      <trkpt lat="45.44237" lon="5.7172">
        <ele>484</ele>
        <time>2016-08-09T09:32:02.000Z</time>
      </trkpt>
      <trkpt lat="45.44237" lon="5.7172">
        <ele>484</ele>
        <time>2016-08-09T09:32:03.000Z</time>
      </trkpt>
      <trkpt lat="45.44239" lon="5.71724">
        <ele>484</ele>
        <time>2016-08-09T09:32:06.000Z</time>
      </trkpt>
      <trkpt lat="45.44241" lon="5.71727">
        <ele>483</ele>
        <time>2016-08-09T09:32:07.000Z</time>
      </trkpt>
      <trkpt lat="45.44241" lon="5.7173">
        <ele>483</ele>
        <time>2016-08-09T09:32:08.000Z</time>
      </trkpt>
      <trkpt lat="45.44242" lon="5.71734">
        <ele>482</ele>
        <time>2016-08-09T09:32:09.000Z</time>
      </trkpt>
      <trkpt lat="45.44243" lon="5.71738">
        <ele>481</ele>
        <time>2016-08-09T09:32:10.000Z</time>
      </trkpt>
      <trkpt lat="45.44243" lon="5.71742">
        <ele>480</ele>
        <time>2016-08-09T09:32:11.000Z</time>
      </trkpt>
      <trkpt lat="45.44245" lon="5.71748">
        <ele>479</ele>
        <time>2016-08-09T09:32:13.000Z</time>
      </trkpt>
      <trkpt lat="45.44246" lon="5.7175">
        <ele>479</ele>
        <time>2016-08-09T09:32:14.000Z</time>
      </trkpt>
      <trkpt lat="45.44248" lon="5.71752">
        <ele>476</ele>
        <time>2016-08-09T09:32:16.000Z</time>
      </trkpt>
      <trkpt lat="45.4425" lon="5.71754">
        <ele>476</ele>
        <time>2016-08-09T09:32:17.000Z</time>
      </trkpt>
      <trkpt lat="45.44252" lon="5.71755">
        <ele>477</ele>
        <time>2016-08-09T09:32:18.000Z</time>
      </trkpt>
      <trkpt lat="45.44254" lon="5.71756">
        <ele>477</ele>
        <time>2016-08-09T09:32:19.000Z</time>
      </trkpt>
      <trkpt lat="45.44256" lon="5.71758">
        <ele>476</ele>
        <time>2016-08-09T09:32:20.000Z</time>
      </trkpt>
      <trkpt lat="45.44258" lon="5.7176">
        <ele>476</ele>
        <time>2016-08-09T09:32:21.000Z</time>
      </trkpt>
      <trkpt lat="45.44261" lon="5.71763">
        <ele>476</ele>
        <time>2016-08-09T09:32:22.000Z</time>
      </trkpt>
      <trkpt lat="45.44264" lon="5.71766">
        <ele>475</ele>
        <time>2016-08-09T09:32:23.000Z</time>
      </trkpt>
      <trkpt lat="45.44268" lon="5.71768">
        <ele>475</ele>
        <time>2016-08-09T09:32:24.000Z</time>
      </trkpt>
      <trkpt lat="45.44273" lon="5.7177">
        <ele>475</ele>
        <time>2016-08-09T09:32:25.000Z</time>
      </trkpt>
      <trkpt lat="45.44277" lon="5.71772">
        <ele>475</ele>
        <time>2016-08-09T09:32:26.000Z</time>
      </trkpt>
      <trkpt lat="45.44281" lon="5.71774">
        <ele>475</ele>
        <time>2016-08-09T09:32:27.000Z</time>
      </trkpt>
      <trkpt lat="45.44285" lon="5.71777">
        <ele>475</ele>
        <time>2016-08-09T09:32:28.000Z</time>
      </trkpt>
      <trkpt lat="45.44289" lon="5.71781">
        <ele>474</ele>
        <time>2016-08-09T09:32:29.000Z</time>
      </trkpt>
      <trkpt lat="45.44292" lon="5.71785">
        <ele>474</ele>
        <time>2016-08-09T09:32:30.000Z</time>
      </trkpt>
      <trkpt lat="45.44295" lon="5.7179">
        <ele>474</ele>
        <time>2016-08-09T09:32:31.000Z</time>
      </trkpt>
      <trkpt lat="45.44307" lon="5.71804">
        <ele>472</ele>
        <time>2016-08-09T09:32:32.000Z</time>
      </trkpt>
      <trkpt lat="45.44313" lon="5.7181">
        <ele>471</ele>
        <time>2016-08-09T09:32:33.000Z</time>
      </trkpt>
      <trkpt lat="45.44317" lon="5.71811">
        <ele>471</ele>
        <time>2016-08-09T09:32:34.000Z</time>
      </trkpt>
      <trkpt lat="45.44321" lon="5.71814">
        <ele>471</ele>
        <time>2016-08-09T09:32:35.000Z</time>
      </trkpt>
      <trkpt lat="45.44325" lon="5.71815">
        <ele>470</ele>
        <time>2016-08-09T09:32:36.000Z</time>
      </trkpt>
      <trkpt lat="45.44332" lon="5.7181">
        <ele>472</ele>
        <time>2016-08-09T09:32:37.000Z</time>
      </trkpt>
      <trkpt lat="45.44335" lon="5.71809">
        <ele>479</ele>
        <time>2016-08-09T09:32:38.000Z</time>
      </trkpt>
      <trkpt lat="45.44338" lon="5.7181">
        <ele>479</ele>
        <time>2016-08-09T09:32:39.000Z</time>
      </trkpt>
      <trkpt lat="45.44341" lon="5.7181">
        <ele>479</ele>
        <time>2016-08-09T09:32:40.000Z</time>
      </trkpt>
      <trkpt lat="45.44343" lon="5.71811">
        <ele>479</ele>
        <time>2016-08-09T09:32:41.000Z</time>
      </trkpt>
      <trkpt lat="45.44347" lon="5.71812">
        <ele>479</ele>
        <time>2016-08-09T09:32:43.000Z</time>
      </trkpt>
      <trkpt lat="45.44348" lon="5.71813">
        <ele>479</ele>
        <time>2016-08-09T09:32:44.000Z</time>
      </trkpt>
      <trkpt lat="45.44352" lon="5.71814">
        <ele>479</ele>
        <time>2016-08-09T09:32:46.000Z</time>
      </trkpt>
      <trkpt lat="45.44354" lon="5.71815">
        <ele>479</ele>
        <time>2016-08-09T09:32:47.000Z</time>
      </trkpt>
      <trkpt lat="45.44356" lon="5.71816">
        <ele>480</ele>
        <time>2016-08-09T09:32:48.000Z</time>
      </trkpt>
      <trkpt lat="45.44359" lon="5.71816">
        <ele>480</ele>
        <time>2016-08-09T09:32:49.000Z</time>
      </trkpt>
      <trkpt lat="45.44361" lon="5.71817">
        <ele>480</ele>
        <time>2016-08-09T09:32:50.000Z</time>
      </trkpt>
      <trkpt lat="45.44364" lon="5.71818">
        <ele>481</ele>
        <time>2016-08-09T09:32:51.000Z</time>
      </trkpt>
      <trkpt lat="45.44366" lon="5.71819">
        <ele>481</ele>
        <time>2016-08-09T09:32:52.000Z</time>
      </trkpt>
      <trkpt lat="45.44369" lon="5.71819">
        <ele>481</ele>
        <time>2016-08-09T09:32:53.000Z</time>
      </trkpt>
      <trkpt lat="45.44372" lon="5.71819">
        <ele>481</ele>
        <time>2016-08-09T09:32:54.000Z</time>
      </trkpt>
      <trkpt lat="45.44374" lon="5.71819">
        <ele>482</ele>
        <time>2016-08-09T09:32:55.000Z</time>
      </trkpt>
      <trkpt lat="45.44377" lon="5.71819">
        <ele>482</ele>
        <time>2016-08-09T09:32:56.000Z</time>
      </trkpt>
      <trkpt lat="45.4438" lon="5.7182">
        <ele>482</ele>
        <time>2016-08-09T09:32:57.000Z</time>
      </trkpt>
      <trkpt lat="45.44382" lon="5.71821">
        <ele>482</ele>
        <time>2016-08-09T09:32:58.000Z</time>
      </trkpt>
      <trkpt lat="45.44384" lon="5.71822">
        <ele>482</ele>
        <time>2016-08-09T09:32:59.000Z</time>
      </trkpt>
      <trkpt lat="45.44388" lon="5.71825">
        <ele>482</ele>
        <time>2016-08-09T09:33:01.000Z</time>
      </trkpt>
      <trkpt lat="45.44389" lon="5.71826">
        <ele>482</ele>
        <time>2016-08-09T09:33:02.000Z</time>
      </trkpt>
      <trkpt lat="45.44391" lon="5.7183">
        <ele>482</ele>
        <time>2016-08-09T09:33:05.000Z</time>
      </trkpt>
      <trkpt lat="45.44392" lon="5.71832">
        <ele>482</ele>
        <time>2016-08-09T09:33:06.000Z</time>
      </trkpt>
      <trkpt lat="45.44394" lon="5.71835">
        <ele>471</ele>
        <time>2016-08-09T09:33:08.000Z</time>
      </trkpt>
      <trkpt lat="45.44396" lon="5.71835">
        <ele>471</ele>
        <time>2016-08-09T09:33:09.000Z</time>
      </trkpt>
      <trkpt lat="45.44399" lon="5.71834">
        <ele>472</ele>
        <time>2016-08-09T09:33:11.000Z</time>
      </trkpt>
      <trkpt lat="45.44401" lon="5.71834">
        <ele>472</ele>
        <time>2016-08-09T09:33:12.000Z</time>
      </trkpt>
      <trkpt lat="45.44405" lon="5.71835">
        <ele>473</ele>
        <time>2016-08-09T09:33:16.000Z</time>
      </trkpt>
      <trkpt lat="45.44406" lon="5.71836">
        <ele>473</ele>
        <time>2016-08-09T09:33:17.000Z</time>
      </trkpt>
      <trkpt lat="45.44407" lon="5.71839">
        <ele>473</ele>
        <time>2016-08-09T09:33:19.000Z</time>
      </trkpt>
      <trkpt lat="45.44408" lon="5.71841">
        <ele>473</ele>
        <time>2016-08-09T09:33:20.000Z</time>
      </trkpt>
      <trkpt lat="45.44412" lon="5.71841">
        <ele>474</ele>
        <time>2016-08-09T09:33:22.000Z</time>
      </trkpt>
      <trkpt lat="45.44414" lon="5.71841">
        <ele>475</ele>
        <time>2016-08-09T09:33:23.000Z</time>
      </trkpt>
      <trkpt lat="45.44416" lon="5.7184">
        <ele>475</ele>
        <time>2016-08-09T09:33:24.000Z</time>
      </trkpt>
      <trkpt lat="45.4442" lon="5.71838">
        <ele>479</ele>
        <time>2016-08-09T09:33:25.000Z</time>
      </trkpt>
      <trkpt lat="45.44424" lon="5.71835">
        <ele>479</ele>
        <time>2016-08-09T09:33:26.000Z</time>
      </trkpt>
      <trkpt lat="45.44428" lon="5.71832">
        <ele>486</ele>
        <time>2016-08-09T09:33:27.000Z</time>
      </trkpt>
      <trkpt lat="45.44433" lon="5.71829">
        <ele>489</ele>
        <time>2016-08-09T09:33:28.000Z</time>
      </trkpt>
      <trkpt lat="45.44437" lon="5.71827">
        <ele>490</ele>
        <time>2016-08-09T09:33:29.000Z</time>
      </trkpt>
      <trkpt lat="45.4444" lon="5.71825">
        <ele>492</ele>
        <time>2016-08-09T09:33:30.000Z</time>
      </trkpt>
      <trkpt lat="45.44443" lon="5.71824">
        <ele>493</ele>
        <time>2016-08-09T09:33:31.000Z</time>
      </trkpt>
      <trkpt lat="45.44446" lon="5.71823">
        <ele>494</ele>
        <time>2016-08-09T09:33:32.000Z</time>
      </trkpt>
      <trkpt lat="45.44448" lon="5.71821">
        <ele>494</ele>
        <time>2016-08-09T09:33:33.000Z</time>
      </trkpt>
      <trkpt lat="45.4445" lon="5.71821">
        <ele>495</ele>
        <time>2016-08-09T09:33:34.000Z</time>
      </trkpt>
      <trkpt lat="45.44453" lon="5.71819">
        <ele>495</ele>
        <time>2016-08-09T09:33:35.000Z</time>
      </trkpt>
      <trkpt lat="45.44455" lon="5.71818">
        <ele>496</ele>
        <time>2016-08-09T09:33:36.000Z</time>
      </trkpt>
      <trkpt lat="45.44459" lon="5.71816">
        <ele>497</ele>
        <time>2016-08-09T09:33:38.000Z</time>
      </trkpt>
      <trkpt lat="45.4446" lon="5.71817">
        <ele>497</ele>
        <time>2016-08-09T09:33:39.000Z</time>
      </trkpt>
      <trkpt lat="45.44463" lon="5.71821">
        <ele>497</ele>
        <time>2016-08-09T09:33:42.000Z</time>
      </trkpt>
      <trkpt lat="45.44464" lon="5.71822">
        <ele>497</ele>
        <time>2016-08-09T09:33:43.000Z</time>
      </trkpt>
      <trkpt lat="45.44468" lon="5.71818">
        <ele>497</ele>
        <time>2016-08-09T09:33:50.000Z</time>
      </trkpt>
      <trkpt lat="45.44468" lon="5.71817">
        <ele>497</ele>
        <time>2016-08-09T09:33:51.000Z</time>
      </trkpt>
      <trkpt lat="45.4447" lon="5.71821">
        <ele>497</ele>
        <time>2016-08-09T09:34:01.000Z</time>
      </trkpt>
      <trkpt lat="45.4447" lon="5.71823">
        <ele>497</ele>
        <time>2016-08-09T09:34:02.000Z</time>
      </trkpt>
      <trkpt lat="45.44472" lon="5.71817">
        <ele>498</ele>
        <time>2016-08-09T09:34:21.000Z</time>
      </trkpt>
      <trkpt lat="45.44472" lon="5.71817">
        <ele>498</ele>
        <time>2016-08-09T09:34:22.000Z</time>
      </trkpt>
      <trkpt lat="45.44471" lon="5.71811">
        <ele>499</ele>
        <time>2016-08-09T09:34:39.000Z</time>
      </trkpt>
      <trkpt lat="45.44471" lon="5.7181">
        <ele>499</ele>
        <time>2016-08-09T09:34:40.000Z</time>
      </trkpt>
      <trkpt lat="45.44467" lon="5.71808">
        <ele>499</ele>
        <time>2016-08-09T09:35:00.000Z</time>
      </trkpt>
      <trkpt lat="45.44467" lon="5.71807">
        <ele>499</ele>
        <time>2016-08-09T09:35:01.000Z</time>
      </trkpt>
      <trkpt lat="45.44465" lon="5.71801">
        <ele>500</ele>
        <time>2016-08-09T09:35:10.000Z</time>
      </trkpt>
      <trkpt lat="45.44465" lon="5.71801">
        <ele>500</ele>
        <time>2016-08-09T09:35:11.000Z</time>
      </trkpt>
      <trkpt lat="45.44464" lon="5.71795">
        <ele>501</ele>
        <time>2016-08-09T09:37:21.000Z</time>
      </trkpt>
      <trkpt lat="45.44462" lon="5.71794">
        <ele>500</ele>
        <time>2016-08-09T09:37:22.000Z</time>
      </trkpt>
      <trkpt lat="45.44459" lon="5.71793">
        <ele>500</ele>
        <time>2016-08-09T09:37:24.000Z</time>
      </trkpt>
      <trkpt lat="45.44458" lon="5.71793">
        <ele>500</ele>
        <time>2016-08-09T09:37:25.000Z</time>
      </trkpt>
      <trkpt lat="45.44455" lon="5.71791">
        <ele>500</ele>
        <time>2016-08-09T09:37:29.000Z</time>
      </trkpt>
      <trkpt lat="45.44453" lon="5.7179">
        <ele>500</ele>
        <time>2016-08-09T09:37:30.000Z</time>
      </trkpt>
      <trkpt lat="45.44452" lon="5.71784">
        <ele>501</ele>
        <time>2016-08-09T09:37:34.000Z</time>
      </trkpt>
      <trkpt lat="45.44451" lon="5.71784">
        <ele>501</ele>
        <time>2016-08-09T09:37:35.000Z</time>
      </trkpt>
      <trkpt lat="45.44448" lon="5.71781">
        <ele>501</ele>
        <time>2016-08-09T09:37:39.000Z</time>
      </trkpt>
      <trkpt lat="45.44447" lon="5.7178">
        <ele>501</ele>
        <time>2016-08-09T09:37:40.000Z</time>
      </trkpt>
      <trkpt lat="45.44443" lon="5.71776">
        <ele>502</ele>
        <time>2016-08-09T09:37:44.000Z</time>
      </trkpt>
      <trkpt lat="45.44442" lon="5.71775">
        <ele>502</ele>
        <time>2016-08-09T09:37:45.000Z</time>
      </trkpt>
      <trkpt lat="45.4444" lon="5.71773">
        <ele>502</ele>
        <time>2016-08-09T09:37:46.000Z</time>
      </trkpt>
      <trkpt lat="45.44438" lon="5.71772">
        <ele>502</ele>
        <time>2016-08-09T09:37:47.000Z</time>
      </trkpt>
      <trkpt lat="45.44435" lon="5.71772">
        <ele>502</ele>
        <time>2016-08-09T09:37:48.000Z</time>
      </trkpt>
      <trkpt lat="45.44432" lon="5.71772">
        <ele>502</ele>
        <time>2016-08-09T09:37:49.000Z</time>
      </trkpt>
      <trkpt lat="45.4443" lon="5.71772">
        <ele>502</ele>
        <time>2016-08-09T09:37:50.000Z</time>
      </trkpt>
      <trkpt lat="45.44427" lon="5.71772">
        <ele>502</ele>
        <time>2016-08-09T09:37:51.000Z</time>
      </trkpt>
      <trkpt lat="45.44424" lon="5.71772">
        <ele>502</ele>
        <time>2016-08-09T09:37:53.000Z</time>
      </trkpt>
      <trkpt lat="45.44421" lon="5.71771">
        <ele>502</ele>
        <time>2016-08-09T09:37:54.000Z</time>
      </trkpt>
      <trkpt lat="45.44419" lon="5.7177">
        <ele>502</ele>
        <time>2016-08-09T09:37:55.000Z</time>
      </trkpt>
      <trkpt lat="45.44417" lon="5.71768">
        <ele>502</ele>
        <time>2016-08-09T09:37:56.000Z</time>
      </trkpt>
      <trkpt lat="45.44414" lon="5.71765">
        <ele>497</ele>
        <time>2016-08-09T09:37:58.000Z</time>
      </trkpt>
      <trkpt lat="45.44412" lon="5.71764">
        <ele>497</ele>
        <time>2016-08-09T09:37:59.000Z</time>
      </trkpt>
      <trkpt lat="45.4441" lon="5.71759">
        <ele>499</ele>
        <time>2016-08-09T09:38:02.000Z</time>
      </trkpt>
      <trkpt lat="45.4441" lon="5.71757">
        <ele>500</ele>
        <time>2016-08-09T09:38:03.000Z</time>
      </trkpt>
      <trkpt lat="45.44411" lon="5.71752">
        <ele>502</ele>
        <time>2016-08-09T09:38:05.000Z</time>
      </trkpt>
      <trkpt lat="45.4441" lon="5.7175">
        <ele>508</ele>
        <time>2016-08-09T09:38:06.000Z</time>
      </trkpt>
      <trkpt lat="45.44407" lon="5.71747">
        <ele>509</ele>
        <time>2016-08-09T09:38:08.000Z</time>
      </trkpt>
      <trkpt lat="45.44405" lon="5.71746">
        <ele>509</ele>
        <time>2016-08-09T09:38:09.000Z</time>
      </trkpt>
      <trkpt lat="45.44401" lon="5.71744">
        <ele>510</ele>
        <time>2016-08-09T09:38:11.000Z</time>
      </trkpt>
      <trkpt lat="45.444" lon="5.71742">
        <ele>510</ele>
        <time>2016-08-09T09:38:12.000Z</time>
      </trkpt>
      <trkpt lat="45.44397" lon="5.71739">
        <ele>510</ele>
        <time>2016-08-09T09:38:14.000Z</time>
      </trkpt>
      <trkpt lat="45.44396" lon="5.71738">
        <ele>510</ele>
        <time>2016-08-09T09:38:15.000Z</time>
      </trkpt>
      <trkpt lat="45.44393" lon="5.71735">
        <ele>511</ele>
        <time>2016-08-09T09:38:20.000Z</time>
      </trkpt>
      <trkpt lat="45.44392" lon="5.71735">
        <ele>511</ele>
        <time>2016-08-09T09:38:21.000Z</time>
      </trkpt>
      <trkpt lat="45.44387" lon="5.71735">
        <ele>511</ele>
        <time>2016-08-09T09:38:24.000Z</time>
      </trkpt>
      <trkpt lat="45.44386" lon="5.71733">
        <ele>511</ele>
        <time>2016-08-09T09:38:25.000Z</time>
      </trkpt>
      <trkpt lat="45.44383" lon="5.7173">
        <ele>511</ele>
        <time>2016-08-09T09:38:27.000Z</time>
      </trkpt>
      <trkpt lat="45.44382" lon="5.71729">
        <ele>511</ele>
        <time>2016-08-09T09:38:28.000Z</time>
      </trkpt>
      <trkpt lat="45.44378" lon="5.71726">
        <ele>511</ele>
        <time>2016-08-09T09:38:31.000Z</time>
      </trkpt>
      <trkpt lat="45.44376" lon="5.71724">
        <ele>512</ele>
        <time>2016-08-09T09:38:32.000Z</time>
      </trkpt>
      <trkpt lat="45.44373" lon="5.71722">
        <ele>512</ele>
        <time>2016-08-09T09:38:34.000Z</time>
      </trkpt>
      <trkpt lat="45.44372" lon="5.71721">
        <ele>512</ele>
        <time>2016-08-09T09:38:35.000Z</time>
      </trkpt>
      <trkpt lat="45.44368" lon="5.71719">
        <ele>512</ele>
        <time>2016-08-09T09:38:38.000Z</time>
      </trkpt>
      <trkpt lat="45.44367" lon="5.71718">
        <ele>512</ele>
        <time>2016-08-09T09:38:39.000Z</time>
      </trkpt>
      <trkpt lat="45.44364" lon="5.71715">
        <ele>512</ele>
        <time>2016-08-09T09:38:42.000Z</time>
      </trkpt>
      <trkpt lat="45.44362" lon="5.71714">
        <ele>512</ele>
        <time>2016-08-09T09:38:43.000Z</time>
      </trkpt>
      <trkpt lat="45.44359" lon="5.71714">
        <ele>512</ele>
        <time>2016-08-09T09:38:44.000Z</time>
      </trkpt>
      <trkpt lat="45.44357" lon="5.71714">
        <ele>512</ele>
        <time>2016-08-09T09:38:45.000Z</time>
      </trkpt>
      <trkpt lat="45.44353" lon="5.7171">
        <ele>512</ele>
        <time>2016-08-09T09:38:49.000Z</time>
      </trkpt>
      <trkpt lat="45.44353" lon="5.71707">
        <ele>513</ele>
        <time>2016-08-09T09:38:50.000Z</time>
      </trkpt>
      <trkpt lat="45.44351" lon="5.71702">
        <ele>514</ele>
        <time>2016-08-09T09:38:53.000Z</time>
      </trkpt>
      <trkpt lat="45.4435" lon="5.71701">
        <ele>514</ele>
        <time>2016-08-09T09:38:54.000Z</time>
      </trkpt>
      <trkpt lat="45.44346" lon="5.71697">
        <ele>514</ele>
        <time>2016-08-09T09:38:59.000Z</time>
      </trkpt>
      <trkpt lat="45.44346" lon="5.71697">
        <ele>514</ele>
        <time>2016-08-09T09:39:00.000Z</time>
      </trkpt>
      <trkpt lat="45.44342" lon="5.71695">
        <ele>515</ele>
        <time>2016-08-09T09:39:03.000Z</time>
      </trkpt>
      <trkpt lat="45.44341" lon="5.71694">
        <ele>515</ele>
        <time>2016-08-09T09:39:04.000Z</time>
      </trkpt>
      <trkpt lat="45.44337" lon="5.71691">
        <ele>516</ele>
        <time>2016-08-09T09:39:08.000Z</time>
      </trkpt>
      <trkpt lat="45.44337" lon="5.71689">
        <ele>516</ele>
        <time>2016-08-09T09:39:09.000Z</time>
      </trkpt>
      <trkpt lat="45.44335" lon="5.71684">
        <ele>517</ele>
        <time>2016-08-09T09:39:12.000Z</time>
      </trkpt>
      <trkpt lat="45.44334" lon="5.71682">
        <ele>517</ele>
        <time>2016-08-09T09:39:13.000Z</time>
      </trkpt>
      <trkpt lat="45.44331" lon="5.71678">
        <ele>512</ele>
        <time>2016-08-09T09:39:20.000Z</time>
      </trkpt>
      <trkpt lat="45.4433" lon="5.71677">
        <ele>513</ele>
        <time>2016-08-09T09:39:21.000Z</time>
      </trkpt>
      <trkpt lat="45.44328" lon="5.71674">
        <ele>514</ele>
        <time>2016-08-09T09:39:23.000Z</time>
      </trkpt>
      <trkpt lat="45.44327" lon="5.71672">
        <ele>515</ele>
        <time>2016-08-09T09:39:24.000Z</time>
      </trkpt>
      <trkpt lat="45.44325" lon="5.71668">
        <ele>515</ele>
        <time>2016-08-09T09:39:25.000Z</time>
      </trkpt>
      <trkpt lat="45.44324" lon="5.71664">
        <ele>522</ele>
        <time>2016-08-09T09:39:26.000Z</time>
      </trkpt>
      <trkpt lat="45.44322" lon="5.7166">
        <ele>522</ele>
        <time>2016-08-09T09:39:28.000Z</time>
      </trkpt>
      <trkpt lat="45.44321" lon="5.71659">
        <ele>522</ele>
        <time>2016-08-09T09:39:29.000Z</time>
      </trkpt>
      <trkpt lat="45.44317" lon="5.71658">
        <ele>522</ele>
        <time>2016-08-09T09:39:42.000Z</time>
      </trkpt>
      <trkpt lat="45.44316" lon="5.71657">
        <ele>522</ele>
        <time>2016-08-09T09:39:43.000Z</time>
      </trkpt>
      <trkpt lat="45.44314" lon="5.71654">
        <ele>522</ele>
        <time>2016-08-09T09:39:45.000Z</time>
      </trkpt>
      <trkpt lat="45.44312" lon="5.71652">
        <ele>522</ele>
        <time>2016-08-09T09:39:46.000Z</time>
      </trkpt>
      <trkpt lat="45.4431" lon="5.71648">
        <ele>522</ele>
        <time>2016-08-09T09:39:48.000Z</time>
      </trkpt>
      <trkpt lat="45.44309" lon="5.71646">
        <ele>522</ele>
        <time>2016-08-09T09:39:49.000Z</time>
      </trkpt>
      <trkpt lat="45.44306" lon="5.71642">
        <ele>523</ele>
        <time>2016-08-09T09:39:52.000Z</time>
      </trkpt>
      <trkpt lat="45.44306" lon="5.71641">
        <ele>523</ele>
        <time>2016-08-09T09:39:53.000Z</time>
      </trkpt>
      <trkpt lat="45.44302" lon="5.71641">
        <ele>523</ele>
        <time>2016-08-09T09:39:57.000Z</time>
      </trkpt>
      <trkpt lat="45.44301" lon="5.7164">
        <ele>523</ele>
        <time>2016-08-09T09:39:58.000Z</time>
      </trkpt>
      <trkpt lat="45.44298" lon="5.71638">
        <ele>523</ele>
        <time>2016-08-09T09:40:00.000Z</time>
      </trkpt>
      <trkpt lat="45.44297" lon="5.71636">
        <ele>523</ele>
        <time>2016-08-09T09:40:01.000Z</time>
      </trkpt>
      <trkpt lat="45.44293" lon="5.71634">
        <ele>523</ele>
        <time>2016-08-09T09:40:02.000Z</time>
      </trkpt>
      <trkpt lat="45.44289" lon="5.71631">
        <ele>523</ele>
        <time>2016-08-09T09:40:03.000Z</time>
      </trkpt>
      <trkpt lat="45.44284" lon="5.71628">
        <ele>523</ele>
        <time>2016-08-09T09:40:04.000Z</time>
      </trkpt>
      <trkpt lat="45.44279" lon="5.71624">
        <ele>523</ele>
        <time>2016-08-09T09:40:05.000Z</time>
      </trkpt>
      <trkpt lat="45.44275" lon="5.71621">
        <ele>523</ele>
        <time>2016-08-09T09:40:06.000Z</time>
      </trkpt>
      <trkpt lat="45.44272" lon="5.71619">
        <ele>523</ele>
        <time>2016-08-09T09:40:07.000Z</time>
      </trkpt>
      <trkpt lat="45.44268" lon="5.71617">
        <ele>523</ele>
        <time>2016-08-09T09:40:08.000Z</time>
      </trkpt>
      <trkpt lat="45.44264" lon="5.71615">
        <ele>523</ele>
        <time>2016-08-09T09:40:09.000Z</time>
      </trkpt>
      <trkpt lat="45.4426" lon="5.71613">
        <ele>524</ele>
        <time>2016-08-09T09:40:10.000Z</time>
      </trkpt>
      <trkpt lat="45.44257" lon="5.71612">
        <ele>524</ele>
        <time>2016-08-09T09:40:11.000Z</time>
      </trkpt>
      <trkpt lat="45.44254" lon="5.7161">
        <ele>524</ele>
        <time>2016-08-09T09:40:12.000Z</time>
      </trkpt>
      <trkpt lat="45.44251" lon="5.71609">
        <ele>524</ele>
        <time>2016-08-09T09:40:13.000Z</time>
      </trkpt>
      <trkpt lat="45.44249" lon="5.71607">
        <ele>519</ele>
        <time>2016-08-09T09:40:14.000Z</time>
      </trkpt>
      <trkpt lat="45.44246" lon="5.71606">
        <ele>519</ele>
        <time>2016-08-09T09:40:15.000Z</time>
      </trkpt>
      <trkpt lat="45.44243" lon="5.71604">
        <ele>519</ele>
        <time>2016-08-09T09:40:16.000Z</time>
      </trkpt>
      <trkpt lat="45.4424" lon="5.71602">
        <ele>520</ele>
        <time>2016-08-09T09:40:17.000Z</time>
      </trkpt>
      <trkpt lat="45.44237" lon="5.716">
        <ele>520</ele>
        <time>2016-08-09T09:40:18.000Z</time>
      </trkpt>
      <trkpt lat="45.44234" lon="5.71598">
        <ele>520</ele>
        <time>2016-08-09T09:40:19.000Z</time>
      </trkpt>
      <trkpt lat="45.44231" lon="5.71597">
        <ele>519</ele>
        <time>2016-08-09T09:40:20.000Z</time>
      </trkpt>
      <trkpt lat="45.44229" lon="5.71596">
        <ele>519</ele>
        <time>2016-08-09T09:40:21.000Z</time>
      </trkpt>
      <trkpt lat="45.44226" lon="5.71594">
        <ele>519</ele>
        <time>2016-08-09T09:40:23.000Z</time>
      </trkpt>
      <trkpt lat="45.44224" lon="5.71594">
        <ele>519</ele>
        <time>2016-08-09T09:40:24.000Z</time>
      </trkpt>
      <trkpt lat="45.44221" lon="5.71595">
        <ele>518</ele>
        <time>2016-08-09T09:40:26.000Z</time>
      </trkpt>
      <trkpt lat="45.4422" lon="5.71595">
        <ele>518</ele>
        <time>2016-08-09T09:40:27.000Z</time>
      </trkpt>
      <trkpt lat="45.44217" lon="5.71597">
        <ele>517</ele>
        <time>2016-08-09T09:40:29.000Z</time>
      </trkpt>
      <trkpt lat="45.44215" lon="5.71598">
        <ele>517</ele>
        <time>2016-08-09T09:40:30.000Z</time>
      </trkpt>
      <trkpt lat="45.44211" lon="5.71599">
        <ele>517</ele>
        <time>2016-08-09T09:40:32.000Z</time>
      </trkpt>
      <trkpt lat="45.44209" lon="5.716">
        <ele>516</ele>
        <time>2016-08-09T09:40:33.000Z</time>
      </trkpt>
      <trkpt lat="45.44205" lon="5.71602">
        <ele>516</ele>
        <time>2016-08-09T09:40:36.000Z</time>
      </trkpt>
      <trkpt lat="45.44204" lon="5.71602">
        <ele>516</ele>
        <time>2016-08-09T09:40:37.000Z</time>
      </trkpt>
      <trkpt lat="45.44201" lon="5.71597">
        <ele>516</ele>
        <time>2016-08-09T09:40:40.000Z</time>
      </trkpt>
      <trkpt lat="45.442" lon="5.71595">
        <ele>517</ele>
        <time>2016-08-09T09:40:41.000Z</time>
      </trkpt>
      <trkpt lat="45.44197" lon="5.71593">
        <ele>517</ele>
        <time>2016-08-09T09:40:43.000Z</time>
      </trkpt>
      <trkpt lat="45.44196" lon="5.71592">
        <ele>517</ele>
        <time>2016-08-09T09:40:44.000Z</time>
      </trkpt>
      <trkpt lat="45.44192" lon="5.71591">
        <ele>517</ele>
        <time>2016-08-09T09:40:46.000Z</time>
      </trkpt>
      <trkpt lat="45.4419" lon="5.71591">
        <ele>518</ele>
        <time>2016-08-09T09:40:47.000Z</time>
      </trkpt>
      <trkpt lat="45.44186" lon="5.71591">
        <ele>518</ele>
        <time>2016-08-09T09:40:49.000Z</time>
      </trkpt>
      <trkpt lat="45.44184" lon="5.71591">
        <ele>518</ele>
        <time>2016-08-09T09:40:50.000Z</time>
      </trkpt>
      <trkpt lat="45.4418" lon="5.71592">
        <ele>519</ele>
        <time>2016-08-09T09:40:52.000Z</time>
      </trkpt>
      <trkpt lat="45.44178" lon="5.71593">
        <ele>519</ele>
        <time>2016-08-09T09:40:53.000Z</time>
      </trkpt>
      <trkpt lat="45.44176" lon="5.71594">
        <ele>519</ele>
        <time>2016-08-09T09:40:54.000Z</time>
      </trkpt>
      <trkpt lat="45.44174" lon="5.71594">
        <ele>519</ele>
        <time>2016-08-09T09:40:55.000Z</time>
      </trkpt>
      <trkpt lat="45.4417" lon="5.71595">
        <ele>519</ele>
        <time>2016-08-09T09:40:56.000Z</time>
      </trkpt>
      <trkpt lat="45.44167" lon="5.71594">
        <ele>518</ele>
        <time>2016-08-09T09:40:57.000Z</time>
      </trkpt>
      <trkpt lat="45.44164" lon="5.71593">
        <ele>518</ele>
        <time>2016-08-09T09:40:58.000Z</time>
      </trkpt>
      <trkpt lat="45.44161" lon="5.71592">
        <ele>518</ele>
        <time>2016-08-09T09:40:59.000Z</time>
      </trkpt>
      <trkpt lat="45.44158" lon="5.71591">
        <ele>518</ele>
        <time>2016-08-09T09:41:00.000Z</time>
      </trkpt>
      <trkpt lat="45.44155" lon="5.7159">
        <ele>517</ele>
        <time>2016-08-09T09:41:01.000Z</time>
      </trkpt>
      <trkpt lat="45.44152" lon="5.7159">
        <ele>516</ele>
        <time>2016-08-09T09:41:02.000Z</time>
      </trkpt>
      <trkpt lat="45.44149" lon="5.71591">
        <ele>516</ele>
        <time>2016-08-09T09:41:03.000Z</time>
      </trkpt>
      <trkpt lat="45.44147" lon="5.71591">
        <ele>515</ele>
        <time>2016-08-09T09:41:04.000Z</time>
      </trkpt>
      <trkpt lat="45.44144" lon="5.71592">
        <ele>514</ele>
        <time>2016-08-09T09:41:05.000Z</time>
      </trkpt>
      <trkpt lat="45.44141" lon="5.71592">
        <ele>514</ele>
        <time>2016-08-09T09:41:06.000Z</time>
      </trkpt>
      <trkpt lat="45.44139" lon="5.71592">
        <ele>514</ele>
        <time>2016-08-09T09:41:07.000Z</time>
      </trkpt>
      <trkpt lat="45.44137" lon="5.71593">
        <ele>513</ele>
        <time>2016-08-09T09:41:08.000Z</time>
      </trkpt>
      <trkpt lat="45.44134" lon="5.71593">
        <ele>513</ele>
        <time>2016-08-09T09:41:09.000Z</time>
      </trkpt>
      <trkpt lat="45.4413" lon="5.71594">
        <ele>513</ele>
        <time>2016-08-09T09:41:11.000Z</time>
      </trkpt>
      <trkpt lat="45.44129" lon="5.71594">
        <ele>513</ele>
        <time>2016-08-09T09:41:12.000Z</time>
      </trkpt>
      <trkpt lat="45.44125" lon="5.71595">
        <ele>512</ele>
        <time>2016-08-09T09:41:14.000Z</time>
      </trkpt>
      <trkpt lat="45.44123" lon="5.71595">
        <ele>512</ele>
        <time>2016-08-09T09:41:15.000Z</time>
      </trkpt>
      <trkpt lat="45.44119" lon="5.71593">
        <ele>513</ele>
        <time>2016-08-09T09:41:17.000Z</time>
      </trkpt>
      <trkpt lat="45.44117" lon="5.71593">
        <ele>513</ele>
        <time>2016-08-09T09:41:18.000Z</time>
      </trkpt>
      <trkpt lat="45.44113" lon="5.71591">
        <ele>513</ele>
        <time>2016-08-09T09:41:20.000Z</time>
      </trkpt>
      <trkpt lat="45.44111" lon="5.7159">
        <ele>513</ele>
        <time>2016-08-09T09:41:21.000Z</time>
      </trkpt>
      <trkpt lat="45.44108" lon="5.71589">
        <ele>514</ele>
        <time>2016-08-09T09:41:23.000Z</time>
      </trkpt>
      <trkpt lat="45.44106" lon="5.71589">
        <ele>514</ele>
        <time>2016-08-09T09:41:24.000Z</time>
      </trkpt>
      <trkpt lat="45.44102" lon="5.71588">
        <ele>515</ele>
        <time>2016-08-09T09:41:27.000Z</time>
      </trkpt>
      <trkpt lat="45.44101" lon="5.71587">
        <ele>515</ele>
        <time>2016-08-09T09:41:28.000Z</time>
      </trkpt>
      <trkpt lat="45.44098" lon="5.71584">
        <ele>516</ele>
        <time>2016-08-09T09:41:38.000Z</time>
      </trkpt>
      <trkpt lat="45.44097" lon="5.71583">
        <ele>516</ele>
        <time>2016-08-09T09:41:39.000Z</time>
      </trkpt>
      <trkpt lat="45.44094" lon="5.71582">
        <ele>526</ele>
        <time>2016-08-09T09:41:41.000Z</time>
      </trkpt>
      <trkpt lat="45.44092" lon="5.71582">
        <ele>526</ele>
        <time>2016-08-09T09:41:42.000Z</time>
      </trkpt>
      <trkpt lat="45.44087" lon="5.71581">
        <ele>524</ele>
        <time>2016-08-09T09:41:44.000Z</time>
      </trkpt>
      <trkpt lat="45.44085" lon="5.7158">
        <ele>524</ele>
        <time>2016-08-09T09:41:45.000Z</time>
      </trkpt>
      <trkpt lat="45.44083" lon="5.71579">
        <ele>524</ele>
        <time>2016-08-09T09:41:46.000Z</time>
      </trkpt>
      <trkpt lat="45.4408" lon="5.71578">
        <ele>524</ele>
        <time>2016-08-09T09:41:47.000Z</time>
      </trkpt>
      <trkpt lat="45.44077" lon="5.71577">
        <ele>525</ele>
        <time>2016-08-09T09:41:48.000Z</time>
      </trkpt>
      <trkpt lat="45.44073" lon="5.71576">
        <ele>526</ele>
        <time>2016-08-09T09:41:49.000Z</time>
      </trkpt>
      <trkpt lat="45.4407" lon="5.71574">
        <ele>527</ele>
        <time>2016-08-09T09:41:50.000Z</time>
      </trkpt>
      <trkpt lat="45.44067" lon="5.71573">
        <ele>528</ele>
        <time>2016-08-09T09:41:51.000Z</time>
      </trkpt>
      <trkpt lat="45.44063" lon="5.71572">
        <ele>528</ele>
        <time>2016-08-09T09:41:52.000Z</time>
      </trkpt>
      <trkpt lat="45.4406" lon="5.71571">
        <ele>528</ele>
        <time>2016-08-09T09:41:53.000Z</time>
      </trkpt>
      <trkpt lat="45.44056" lon="5.7157">
        <ele>529</ele>
        <time>2016-08-09T09:41:54.000Z</time>
      </trkpt>
      <trkpt lat="45.44053" lon="5.71569">
        <ele>529</ele>
        <time>2016-08-09T09:41:55.000Z</time>
      </trkpt>
      <trkpt lat="45.4405" lon="5.71569">
        <ele>529</ele>
        <time>2016-08-09T09:41:56.000Z</time>
      </trkpt>
      <trkpt lat="45.44047" lon="5.71569">
        <ele>529</ele>
        <time>2016-08-09T09:41:57.000Z</time>
      </trkpt>
      <trkpt lat="45.44044" lon="5.71568">
        <ele>529</ele>
        <time>2016-08-09T09:41:58.000Z</time>
      </trkpt>
      <trkpt lat="45.4404" lon="5.71567">
        <ele>529</ele>
        <time>2016-08-09T09:41:59.000Z</time>
      </trkpt>
      <trkpt lat="45.44037" lon="5.71566">
        <ele>529</ele>
        <time>2016-08-09T09:42:00.000Z</time>
      </trkpt>
      <trkpt lat="45.44034" lon="5.71566">
        <ele>529</ele>
        <time>2016-08-09T09:42:01.000Z</time>
      </trkpt>
      <trkpt lat="45.44031" lon="5.71565">
        <ele>529</ele>
        <time>2016-08-09T09:42:02.000Z</time>
      </trkpt>
      <trkpt lat="45.44029" lon="5.71565">
        <ele>529</ele>
        <time>2016-08-09T09:42:03.000Z</time>
      </trkpt>
      <trkpt lat="45.44024" lon="5.71563">
        <ele>528</ele>
        <time>2016-08-09T09:42:05.000Z</time>
      </trkpt>
      <trkpt lat="45.44023" lon="5.71561">
        <ele>529</ele>
        <time>2016-08-09T09:42:06.000Z</time>
      </trkpt>
      <trkpt lat="45.44019" lon="5.71558">
        <ele>529</ele>
        <time>2016-08-09T09:42:08.000Z</time>
      </trkpt>
      <trkpt lat="45.44017" lon="5.71556">
        <ele>529</ele>
        <time>2016-08-09T09:42:09.000Z</time>
      </trkpt>
      <trkpt lat="45.44014" lon="5.71554">
        <ele>530</ele>
        <time>2016-08-09T09:42:11.000Z</time>
      </trkpt>
      <trkpt lat="45.44013" lon="5.71554">
        <ele>530</ele>
        <time>2016-08-09T09:42:12.000Z</time>
      </trkpt>
      <trkpt lat="45.4401" lon="5.71552">
        <ele>530</ele>
        <time>2016-08-09T09:42:14.000Z</time>
      </trkpt>
      <trkpt lat="45.44008" lon="5.71551">
        <ele>530</ele>
        <time>2016-08-09T09:42:15.000Z</time>
      </trkpt>
      <trkpt lat="45.44005" lon="5.7155">
        <ele>530</ele>
        <time>2016-08-09T09:42:17.000Z</time>
      </trkpt>
      <trkpt lat="45.44003" lon="5.71549">
        <ele>530</ele>
        <time>2016-08-09T09:42:18.000Z</time>
      </trkpt>
      <trkpt lat="45.44" lon="5.71549">
        <ele>527</ele>
        <time>2016-08-09T09:42:20.000Z</time>
      </trkpt>
      <trkpt lat="45.43998" lon="5.71548">
        <ele>527</ele>
        <time>2016-08-09T09:42:21.000Z</time>
      </trkpt>
      <trkpt lat="45.43996" lon="5.71543">
        <ele>528</ele>
        <time>2016-08-09T09:42:24.000Z</time>
      </trkpt>
      <trkpt lat="45.43995" lon="5.71541">
        <ele>529</ele>
        <time>2016-08-09T09:42:25.000Z</time>
      </trkpt>
      <trkpt lat="45.43993" lon="5.71537">
        <ele>530</ele>
        <time>2016-08-09T09:42:27.000Z</time>
      </trkpt>
      <trkpt lat="45.43991" lon="5.71535">
        <ele>530</ele>
        <time>2016-08-09T09:42:28.000Z</time>
      </trkpt>
      <trkpt lat="45.43989" lon="5.71533">
        <ele>531</ele>
        <time>2016-08-09T09:42:29.000Z</time>
      </trkpt>
      <trkpt lat="45.43988" lon="5.71531">
        <ele>531</ele>
        <time>2016-08-09T09:42:30.000Z</time>
      </trkpt>
      <trkpt lat="45.43985" lon="5.71527">
        <ele>532</ele>
        <time>2016-08-09T09:42:32.000Z</time>
      </trkpt>
      <trkpt lat="45.43984" lon="5.71525">
        <ele>533</ele>
        <time>2016-08-09T09:42:33.000Z</time>
      </trkpt>
      <trkpt lat="45.43982" lon="5.71521">
        <ele>533</ele>
        <time>2016-08-09T09:42:35.000Z</time>
      </trkpt>
      <trkpt lat="45.43981" lon="5.7152">
        <ele>533</ele>
        <time>2016-08-09T09:42:36.000Z</time>
      </trkpt>
      <trkpt lat="45.43978" lon="5.71517">
        <ele>534</ele>
        <time>2016-08-09T09:42:38.000Z</time>
      </trkpt>
      <trkpt lat="45.43977" lon="5.71516">
        <ele>534</ele>
        <time>2016-08-09T09:42:39.000Z</time>
      </trkpt>
      <trkpt lat="45.43974" lon="5.71513">
        <ele>534</ele>
        <time>2016-08-09T09:42:41.000Z</time>
      </trkpt>
      <trkpt lat="45.43973" lon="5.71512">
        <ele>534</ele>
        <time>2016-08-09T09:42:42.000Z</time>
      </trkpt>
      <trkpt lat="45.4397" lon="5.7151">
        <ele>533</ele>
        <time>2016-08-09T09:42:44.000Z</time>
      </trkpt>
      <trkpt lat="45.43969" lon="5.71509">
        <ele>533</ele>
        <time>2016-08-09T09:42:45.000Z</time>
      </trkpt>
      <trkpt lat="45.43966" lon="5.71504">
        <ele>533</ele>
        <time>2016-08-09T09:42:48.000Z</time>
      </trkpt>
      <trkpt lat="45.43965" lon="5.71502">
        <ele>533</ele>
        <time>2016-08-09T09:42:49.000Z</time>
      </trkpt>
      <trkpt lat="45.43963" lon="5.71497">
        <ele>547</ele>
        <time>2016-08-09T09:42:51.000Z</time>
      </trkpt>
      <trkpt lat="45.43961" lon="5.71495">
        <ele>547</ele>
        <time>2016-08-09T09:42:52.000Z</time>
      </trkpt>
      <trkpt lat="45.43959" lon="5.7149">
        <ele>547</ele>
        <time>2016-08-09T09:42:54.000Z</time>
      </trkpt>
      <trkpt lat="45.43958" lon="5.71488">
        <ele>547</ele>
        <time>2016-08-09T09:42:55.000Z</time>
      </trkpt>
      <trkpt lat="45.43955" lon="5.71484">
        <ele>547</ele>
        <time>2016-08-09T09:42:58.000Z</time>
      </trkpt>
      <trkpt lat="45.43954" lon="5.71483">
        <ele>547</ele>
        <time>2016-08-09T09:42:59.000Z</time>
      </trkpt>
      <trkpt lat="45.43951" lon="5.71481">
        <ele>547</ele>
        <time>2016-08-09T09:43:02.000Z</time>
      </trkpt>
      <trkpt lat="45.4395" lon="5.7148">
        <ele>547</ele>
        <time>2016-08-09T09:43:03.000Z</time>
      </trkpt>
      <trkpt lat="45.43947" lon="5.71478">
        <ele>547</ele>
        <time>2016-08-09T09:43:05.000Z</time>
      </trkpt>
      <trkpt lat="45.43946" lon="5.71477">
        <ele>547</ele>
        <time>2016-08-09T09:43:06.000Z</time>
      </trkpt>
      <trkpt lat="45.43943" lon="5.71476">
        <ele>547</ele>
        <time>2016-08-09T09:43:08.000Z</time>
      </trkpt>
      <trkpt lat="45.43941" lon="5.71475">
        <ele>547</ele>
        <time>2016-08-09T09:43:09.000Z</time>
      </trkpt>
      <trkpt lat="45.43938" lon="5.71473">
        <ele>547</ele>
        <time>2016-08-09T09:43:11.000Z</time>
      </trkpt>
      <trkpt lat="45.43936" lon="5.71473">
        <ele>547</ele>
        <time>2016-08-09T09:43:12.000Z</time>
      </trkpt>
      <trkpt lat="45.43933" lon="5.7147">
        <ele>547</ele>
        <time>2016-08-09T09:43:15.000Z</time>
      </trkpt>
      <trkpt lat="45.43931" lon="5.7147">
        <ele>547</ele>
        <time>2016-08-09T09:43:16.000Z</time>
      </trkpt>
      <trkpt lat="45.43928" lon="5.71471">
        <ele>546</ele>
        <time>2016-08-09T09:43:18.000Z</time>
      </trkpt>
      <trkpt lat="45.43926" lon="5.7147">
        <ele>546</ele>
        <time>2016-08-09T09:43:19.000Z</time>
      </trkpt>
      <trkpt lat="45.43924" lon="5.71468">
        <ele>547</ele>
        <time>2016-08-09T09:43:21.000Z</time>
      </trkpt>
      <trkpt lat="45.43923" lon="5.71466">
        <ele>547</ele>
        <time>2016-08-09T09:43:22.000Z</time>
      </trkpt>
      <trkpt lat="45.4392" lon="5.71462">
        <ele>548</ele>
        <time>2016-08-09T09:43:24.000Z</time>
      </trkpt>
      <trkpt lat="45.43919" lon="5.71461">
        <ele>548</ele>
        <time>2016-08-09T09:43:25.000Z</time>
      </trkpt>
      <trkpt lat="45.43915" lon="5.71461">
        <ele>546</ele>
        <time>2016-08-09T09:43:29.000Z</time>
      </trkpt>
      <trkpt lat="45.43914" lon="5.71461">
        <ele>546</ele>
        <time>2016-08-09T09:43:30.000Z</time>
      </trkpt>
      <trkpt lat="45.4391" lon="5.71459">
        <ele>546</ele>
        <time>2016-08-09T09:43:34.000Z</time>
      </trkpt>
      <trkpt lat="45.4391" lon="5.71457">
        <ele>547</ele>
        <time>2016-08-09T09:43:35.000Z</time>
      </trkpt>
      <trkpt lat="45.43906" lon="5.71456">
        <ele>547</ele>
        <time>2016-08-09T09:43:41.000Z</time>
      </trkpt>
      <trkpt lat="45.43905" lon="5.71456">
        <ele>547</ele>
        <time>2016-08-09T09:43:42.000Z</time>
      </trkpt>
      <trkpt lat="45.43902" lon="5.71453">
        <ele>547</ele>
        <time>2016-08-09T09:43:45.000Z</time>
      </trkpt>
      <trkpt lat="45.43901" lon="5.71452">
        <ele>547</ele>
        <time>2016-08-09T09:43:46.000Z</time>
      </trkpt>
      <trkpt lat="45.43898" lon="5.7145">
        <ele>548</ele>
        <time>2016-08-09T09:43:48.000Z</time>
      </trkpt>
      <trkpt lat="45.43895" lon="5.71448">
        <ele>548</ele>
        <time>2016-08-09T09:43:49.000Z</time>
      </trkpt>
      <trkpt lat="45.43892" lon="5.71445">
        <ele>548</ele>
        <time>2016-08-09T09:43:50.000Z</time>
      </trkpt>
      <trkpt lat="45.43888" lon="5.71443">
        <ele>548</ele>
        <time>2016-08-09T09:43:51.000Z</time>
      </trkpt>
      <trkpt lat="45.43885" lon="5.71442">
        <ele>548</ele>
        <time>2016-08-09T09:43:52.000Z</time>
      </trkpt>
      <trkpt lat="45.43882" lon="5.71441">
        <ele>548</ele>
        <time>2016-08-09T09:43:53.000Z</time>
      </trkpt>
      <trkpt lat="45.43878" lon="5.7144">
        <ele>548</ele>
        <time>2016-08-09T09:43:54.000Z</time>
      </trkpt>
      <trkpt lat="45.43876" lon="5.71439">
        <ele>548</ele>
        <time>2016-08-09T09:43:55.000Z</time>
      </trkpt>
      <trkpt lat="45.43872" lon="5.71439">
        <ele>548</ele>
        <time>2016-08-09T09:43:56.000Z</time>
      </trkpt>
      <trkpt lat="45.43869" lon="5.71439">
        <ele>548</ele>
        <time>2016-08-09T09:43:57.000Z</time>
      </trkpt>
      <trkpt lat="45.43866" lon="5.71439">
        <ele>548</ele>
        <time>2016-08-09T09:43:58.000Z</time>
      </trkpt>
      <trkpt lat="45.43864" lon="5.71439">
        <ele>548</ele>
        <time>2016-08-09T09:43:59.000Z</time>
      </trkpt>
      <trkpt lat="45.4386" lon="5.71439">
        <ele>549</ele>
        <time>2016-08-09T09:44:01.000Z</time>
      </trkpt>
      <trkpt lat="45.43858" lon="5.71439">
        <ele>549</ele>
        <time>2016-08-09T09:44:02.000Z</time>
      </trkpt>
      <trkpt lat="45.43854" lon="5.71437">
        <ele>549</ele>
        <time>2016-08-09T09:44:05.000Z</time>
      </trkpt>
      <trkpt lat="45.43852" lon="5.71438">
        <ele>549</ele>
        <time>2016-08-09T09:44:06.000Z</time>
      </trkpt>
      <trkpt lat="45.43848" lon="5.7144">
        <ele>549</ele>
        <time>2016-08-09T09:44:08.000Z</time>
      </trkpt>
      <trkpt lat="45.43846" lon="5.7144">
        <ele>549</ele>
        <time>2016-08-09T09:44:09.000Z</time>
      </trkpt>
      <trkpt lat="45.43842" lon="5.71442">
        <ele>549</ele>
        <time>2016-08-09T09:44:12.000Z</time>
      </trkpt>
      <trkpt lat="45.43841" lon="5.71442">
        <ele>549</ele>
        <time>2016-08-09T09:44:13.000Z</time>
      </trkpt>
      <trkpt lat="45.43838" lon="5.71444">
        <ele>549</ele>
        <time>2016-08-09T09:44:16.000Z</time>
      </trkpt>
      <trkpt lat="45.43836" lon="5.71444">
        <ele>548</ele>
        <time>2016-08-09T09:44:17.000Z</time>
      </trkpt>
      <trkpt lat="45.43833" lon="5.71442">
        <ele>550</ele>
        <time>2016-08-09T09:44:19.000Z</time>
      </trkpt>
      <trkpt lat="45.43831" lon="5.71439">
        <ele>551</ele>
        <time>2016-08-09T09:44:20.000Z</time>
      </trkpt>
      <trkpt lat="45.43829" lon="5.71436">
        <ele>551</ele>
        <time>2016-08-09T09:44:21.000Z</time>
      </trkpt>
      <trkpt lat="45.43827" lon="5.71434">
        <ele>551</ele>
        <time>2016-08-09T09:44:22.000Z</time>
      </trkpt>
      <trkpt lat="45.43823" lon="5.71437">
        <ele>551</ele>
        <time>2016-08-09T09:44:27.000Z</time>
      </trkpt>
      <trkpt lat="45.43822" lon="5.71438">
        <ele>551</ele>
        <time>2016-08-09T09:44:28.000Z</time>
      </trkpt>
      <trkpt lat="45.4382" lon="5.71441">
        <ele>550</ele>
        <time>2016-08-09T09:44:31.000Z</time>
      </trkpt>
      <trkpt lat="45.43819" lon="5.71443">
        <ele>550</ele>
        <time>2016-08-09T09:44:32.000Z</time>
      </trkpt>
      <trkpt lat="45.43816" lon="5.71447">
        <ele>549</ele>
        <time>2016-08-09T09:44:34.000Z</time>
      </trkpt>
      <trkpt lat="45.43814" lon="5.71449">
        <ele>549</ele>
        <time>2016-08-09T09:44:35.000Z</time>
      </trkpt>
      <trkpt lat="45.4381" lon="5.71452">
        <ele>548</ele>
        <time>2016-08-09T09:44:37.000Z</time>
      </trkpt>
      <trkpt lat="45.43809" lon="5.71453">
        <ele>548</ele>
        <time>2016-08-09T09:44:38.000Z</time>
      </trkpt>
      <trkpt lat="45.43806" lon="5.71453">
        <ele>548</ele>
        <time>2016-08-09T09:44:39.000Z</time>
      </trkpt>
      <trkpt lat="45.43804" lon="5.71453">
        <ele>548</ele>
        <time>2016-08-09T09:44:40.000Z</time>
      </trkpt>
      <trkpt lat="45.438" lon="5.71453">
        <ele>548</ele>
        <time>2016-08-09T09:44:42.000Z</time>
      </trkpt>
      <trkpt lat="45.43798" lon="5.71453">
        <ele>548</ele>
        <time>2016-08-09T09:44:43.000Z</time>
      </trkpt>
      <trkpt lat="45.43794" lon="5.71452">
        <ele>549</ele>
        <time>2016-08-09T09:44:45.000Z</time>
      </trkpt>
      <trkpt lat="45.43793" lon="5.71452">
        <ele>549</ele>
        <time>2016-08-09T09:44:46.000Z</time>
      </trkpt>
      <trkpt lat="45.43789" lon="5.71454">
        <ele>549</ele>
        <time>2016-08-09T09:44:49.000Z</time>
      </trkpt>
      <trkpt lat="45.43788" lon="5.71455">
        <ele>549</ele>
        <time>2016-08-09T09:44:50.000Z</time>
      </trkpt>
      <trkpt lat="45.43784" lon="5.71452">
        <ele>549</ele>
        <time>2016-08-09T09:44:56.000Z</time>
      </trkpt>
      <trkpt lat="45.43783" lon="5.71452">
        <ele>549</ele>
        <time>2016-08-09T09:44:57.000Z</time>
      </trkpt>
      <trkpt lat="45.43779" lon="5.71452">
        <ele>549</ele>
        <time>2016-08-09T09:45:00.000Z</time>
      </trkpt>
      <trkpt lat="45.43778" lon="5.71452">
        <ele>549</ele>
        <time>2016-08-09T09:45:01.000Z</time>
      </trkpt>
      <trkpt lat="45.43775" lon="5.71454">
        <ele>549</ele>
        <time>2016-08-09T09:45:04.000Z</time>
      </trkpt>
      <trkpt lat="45.43773" lon="5.71455">
        <ele>549</ele>
        <time>2016-08-09T09:45:05.000Z</time>
      </trkpt>
      <trkpt lat="45.4377" lon="5.71456">
        <ele>549</ele>
        <time>2016-08-09T09:45:07.000Z</time>
      </trkpt>
      <trkpt lat="45.43769" lon="5.71456">
        <ele>549</ele>
        <time>2016-08-09T09:45:08.000Z</time>
      </trkpt>
      <trkpt lat="45.43766" lon="5.71455">
        <ele>549</ele>
        <time>2016-08-09T09:45:12.000Z</time>
      </trkpt>
      <trkpt lat="45.43765" lon="5.71453">
        <ele>550</ele>
        <time>2016-08-09T09:45:13.000Z</time>
      </trkpt>
      <trkpt lat="45.43761" lon="5.7145">
        <ele>550</ele>
        <time>2016-08-09T09:45:16.000Z</time>
      </trkpt>
      <trkpt lat="45.4376" lon="5.71449">
        <ele>550</ele>
        <time>2016-08-09T09:45:17.000Z</time>
      </trkpt>
      <trkpt lat="45.43757" lon="5.71445">
        <ele>551</ele>
        <time>2016-08-09T09:45:21.000Z</time>
      </trkpt>
      <trkpt lat="45.43756" lon="5.71444">
        <ele>551</ele>
        <time>2016-08-09T09:45:22.000Z</time>
      </trkpt>
      <trkpt lat="45.43753" lon="5.71441">
        <ele>552</ele>
        <time>2016-08-09T09:45:25.000Z</time>
      </trkpt>
      <trkpt lat="45.43752" lon="5.7144">
        <ele>552</ele>
        <time>2016-08-09T09:45:26.000Z</time>
      </trkpt>
      <trkpt lat="45.43748" lon="5.71441">
        <ele>558</ele>
        <time>2016-08-09T09:45:32.000Z</time>
      </trkpt>
      <trkpt lat="45.43747" lon="5.71442">
        <ele>558</ele>
        <time>2016-08-09T09:45:33.000Z</time>
      </trkpt>
      <trkpt lat="45.43743" lon="5.71443">
        <ele>558</ele>
        <time>2016-08-09T09:45:37.000Z</time>
      </trkpt>
      <trkpt lat="45.43742" lon="5.71444">
        <ele>558</ele>
        <time>2016-08-09T09:45:38.000Z</time>
      </trkpt>
      <trkpt lat="45.43746" lon="5.71444">
        <ele>558</ele>
        <time>2016-08-09T09:47:07.000Z</time>
      </trkpt>
      <trkpt lat="45.43747" lon="5.71442">
        <ele>558</ele>
        <time>2016-08-09T09:47:08.000Z</time>
      </trkpt>
      <trkpt lat="45.4375" lon="5.71439">
        <ele>552</ele>
        <time>2016-08-09T09:47:13.000Z</time>
      </trkpt>
      <trkpt lat="45.43752" lon="5.71437">
        <ele>553</ele>
        <time>2016-08-09T09:47:14.000Z</time>
      </trkpt>
      <trkpt lat="45.43754" lon="5.71432">
        <ele>554</ele>
        <time>2016-08-09T09:47:17.000Z</time>
      </trkpt>
      <trkpt lat="45.43754" lon="5.71431">
        <ele>554</ele>
        <time>2016-08-09T09:47:18.000Z</time>
      </trkpt>
      <trkpt lat="45.43754" lon="5.71425">
        <ele>556</ele>
        <time>2016-08-09T09:47:22.000Z</time>
      </trkpt>
      <trkpt lat="45.43754" lon="5.71424">
        <ele>556</ele>
        <time>2016-08-09T09:47:23.000Z</time>
      </trkpt>
      <trkpt lat="45.43753" lon="5.71418">
        <ele>558</ele>
        <time>2016-08-09T09:47:27.000Z</time>
      </trkpt>
      <trkpt lat="45.43753" lon="5.71417">
        <ele>558</ele>
        <time>2016-08-09T09:47:28.000Z</time>
      </trkpt>
      <trkpt lat="45.4375" lon="5.71413">
        <ele>561</ele>
        <time>2016-08-09T09:47:35.000Z</time>
      </trkpt>
      <trkpt lat="45.4375" lon="5.71413">
        <ele>561</ele>
        <time>2016-08-09T09:47:36.000Z</time>
      </trkpt>
      <trkpt lat="45.43748" lon="5.71407">
        <ele>563</ele>
        <time>2016-08-09T09:47:40.000Z</time>
      </trkpt>
      <trkpt lat="45.43748" lon="5.71406">
        <ele>564</ele>
        <time>2016-08-09T09:47:41.000Z</time>
      </trkpt>
      <trkpt lat="45.43745" lon="5.71402">
        <ele>565</ele>
        <time>2016-08-09T09:47:44.000Z</time>
      </trkpt>
      <trkpt lat="45.43744" lon="5.71402">
        <ele>565</ele>
        <time>2016-08-09T09:47:45.000Z</time>
      </trkpt>
      <trkpt lat="45.4374" lon="5.71401">
        <ele>566</ele>
        <time>2016-08-09T09:47:49.000Z</time>
      </trkpt>
      <trkpt lat="45.43739" lon="5.71401">
        <ele>566</ele>
        <time>2016-08-09T09:47:50.000Z</time>
      </trkpt>
      <trkpt lat="45.43735" lon="5.714">
        <ele>567</ele>
        <time>2016-08-09T09:47:55.000Z</time>
      </trkpt>
      <trkpt lat="45.43734" lon="5.71399">
        <ele>567</ele>
        <time>2016-08-09T09:47:56.000Z</time>
      </trkpt>
      <trkpt lat="45.43732" lon="5.71393">
        <ele>568</ele>
        <time>2016-08-09T09:48:03.000Z</time>
      </trkpt>
      <trkpt lat="45.43732" lon="5.71393">
        <ele>568</ele>
        <time>2016-08-09T09:48:04.000Z</time>
      </trkpt>
      <trkpt lat="45.43728" lon="5.71391">
        <ele>569</ele>
        <time>2016-08-09T09:48:08.000Z</time>
      </trkpt>
      <trkpt lat="45.43727" lon="5.7139">
        <ele>569</ele>
        <time>2016-08-09T09:48:09.000Z</time>
      </trkpt>
      <trkpt lat="45.43723" lon="5.71386">
        <ele>570</ele>
        <time>2016-08-09T09:48:13.000Z</time>
      </trkpt>
      <trkpt lat="45.43723" lon="5.71386">
        <ele>570</ele>
        <time>2016-08-09T09:48:14.000Z</time>
      </trkpt>
      <trkpt lat="45.43719" lon="5.71385">
        <ele>570</ele>
        <time>2016-08-09T09:48:17.000Z</time>
      </trkpt>
      <trkpt lat="45.43718" lon="5.71385">
        <ele>570</ele>
        <time>2016-08-09T09:48:18.000Z</time>
      </trkpt>
      <trkpt lat="45.43714" lon="5.71383">
        <ele>571</ele>
        <time>2016-08-09T09:48:21.000Z</time>
      </trkpt>
      <trkpt lat="45.43713" lon="5.71382">
        <ele>571</ele>
        <time>2016-08-09T09:48:22.000Z</time>
      </trkpt>
      <trkpt lat="45.4371" lon="5.7138">
        <ele>571</ele>
        <time>2016-08-09T09:48:24.000Z</time>
      </trkpt>
      <trkpt lat="45.43709" lon="5.71378">
        <ele>571</ele>
        <time>2016-08-09T09:48:25.000Z</time>
      </trkpt>
      <trkpt lat="45.43706" lon="5.71374">
        <ele>572</ele>
        <time>2016-08-09T09:48:28.000Z</time>
      </trkpt>
      <trkpt lat="45.43705" lon="5.71374">
        <ele>572</ele>
        <time>2016-08-09T09:48:29.000Z</time>
      </trkpt>
      <trkpt lat="45.43702" lon="5.7137">
        <ele>572</ele>
        <time>2016-08-09T09:48:34.000Z</time>
      </trkpt>
      <trkpt lat="45.43701" lon="5.71369">
        <ele>573</ele>
        <time>2016-08-09T09:48:35.000Z</time>
      </trkpt>
      <trkpt lat="45.43698" lon="5.71366">
        <ele>573</ele>
        <time>2016-08-09T09:48:38.000Z</time>
      </trkpt>
      <trkpt lat="45.43697" lon="5.71365">
        <ele>573</ele>
        <time>2016-08-09T09:48:39.000Z</time>
      </trkpt>
      <trkpt lat="45.43692" lon="5.71364">
        <ele>574</ele>
        <time>2016-08-09T09:48:42.000Z</time>
      </trkpt>
      <trkpt lat="45.43691" lon="5.71364">
        <ele>574</ele>
        <time>2016-08-09T09:48:43.000Z</time>
      </trkpt>
      <trkpt lat="45.43687" lon="5.71364">
        <ele>574</ele>
        <time>2016-08-09T09:48:50.000Z</time>
      </trkpt>
      <trkpt lat="45.43687" lon="5.71364">
        <ele>574</ele>
        <time>2016-08-09T09:48:51.000Z</time>
      </trkpt>
      <trkpt lat="45.43683" lon="5.7136">
        <ele>574</ele>
        <time>2016-08-09T09:49:02.000Z</time>
      </trkpt>
      <trkpt lat="45.43683" lon="5.71359">
        <ele>575</ele>
        <time>2016-08-09T09:49:03.000Z</time>
      </trkpt>
      <trkpt lat="45.4368" lon="5.71354">
        <ele>575</ele>
        <time>2016-08-09T09:49:08.000Z</time>
      </trkpt>
      <trkpt lat="45.4368" lon="5.71353">
        <ele>575</ele>
        <time>2016-08-09T09:49:09.000Z</time>
      </trkpt>
      <trkpt lat="45.43676" lon="5.7135">
        <ele>576</ele>
        <time>2016-08-09T09:49:15.000Z</time>
      </trkpt>
      <trkpt lat="45.43675" lon="5.71348">
        <ele>577</ele>
        <time>2016-08-09T09:49:16.000Z</time>
      </trkpt>
      <trkpt lat="45.43673" lon="5.71343">
        <ele>578</ele>
        <time>2016-08-09T09:49:21.000Z</time>
      </trkpt>
      <trkpt lat="45.43673" lon="5.71342">
        <ele>578</ele>
        <time>2016-08-09T09:49:22.000Z</time>
      </trkpt>
      <trkpt lat="45.43669" lon="5.71339">
        <ele>579</ele>
        <time>2016-08-09T09:49:27.000Z</time>
      </trkpt>
      <trkpt lat="45.43668" lon="5.71338">
        <ele>579</ele>
        <time>2016-08-09T09:49:28.000Z</time>
      </trkpt>
      <trkpt lat="45.43664" lon="5.71336">
        <ele>581</ele>
        <time>2016-08-09T09:49:32.000Z</time>
      </trkpt>
      <trkpt lat="45.43663" lon="5.71335">
        <ele>581</ele>
        <time>2016-08-09T09:49:33.000Z</time>
      </trkpt>
      <trkpt lat="45.43659" lon="5.71334">
        <ele>581</ele>
        <time>2016-08-09T09:49:38.000Z</time>
      </trkpt>
      <trkpt lat="45.43659" lon="5.71334">
        <ele>581</ele>
        <time>2016-08-09T09:49:39.000Z</time>
      </trkpt>
      <trkpt lat="45.43655" lon="5.71331">
        <ele>584</ele>
        <time>2016-08-09T09:49:55.000Z</time>
      </trkpt>
      <trkpt lat="45.43655" lon="5.7133">
        <ele>584</ele>
        <time>2016-08-09T09:49:56.000Z</time>
      </trkpt>
      <trkpt lat="45.43652" lon="5.71325">
        <ele>585</ele>
        <time>2016-08-09T09:50:04.000Z</time>
      </trkpt>
      <trkpt lat="45.43651" lon="5.71325">
        <ele>585</ele>
        <time>2016-08-09T09:50:05.000Z</time>
      </trkpt>
      <trkpt lat="45.43647" lon="5.71325">
        <ele>586</ele>
        <time>2016-08-09T09:50:08.000Z</time>
      </trkpt>
      <trkpt lat="45.43646" lon="5.71324">
        <ele>586</ele>
        <time>2016-08-09T09:50:09.000Z</time>
      </trkpt>
      <trkpt lat="45.43643" lon="5.71323">
        <ele>586</ele>
        <time>2016-08-09T09:50:12.000Z</time>
      </trkpt>
      <trkpt lat="45.43641" lon="5.71322">
        <ele>586</ele>
        <time>2016-08-09T09:50:13.000Z</time>
      </trkpt>
      <trkpt lat="45.43638" lon="5.71322">
        <ele>587</ele>
        <time>2016-08-09T09:50:15.000Z</time>
      </trkpt>
      <trkpt lat="45.43636" lon="5.71322">
        <ele>587</ele>
        <time>2016-08-09T09:50:16.000Z</time>
      </trkpt>
      <trkpt lat="45.43632" lon="5.7132">
        <ele>587</ele>
        <time>2016-08-09T09:50:19.000Z</time>
      </trkpt>
      <trkpt lat="45.43631" lon="5.7132">
        <ele>587</ele>
        <time>2016-08-09T09:50:20.000Z</time>
      </trkpt>
      <trkpt lat="45.43627" lon="5.71318">
        <ele>588</ele>
        <time>2016-08-09T09:50:22.000Z</time>
      </trkpt>
      <trkpt lat="45.43626" lon="5.71318">
        <ele>588</ele>
        <time>2016-08-09T09:50:23.000Z</time>
      </trkpt>
      <trkpt lat="45.43622" lon="5.71318">
        <ele>588</ele>
        <time>2016-08-09T09:50:25.000Z</time>
      </trkpt>
      <trkpt lat="45.4362" lon="5.71318">
        <ele>588</ele>
        <time>2016-08-09T09:50:26.000Z</time>
      </trkpt>
      <trkpt lat="45.43618" lon="5.71316">
        <ele>588</ele>
        <time>2016-08-09T09:50:28.000Z</time>
      </trkpt>
      <trkpt lat="45.43616" lon="5.71314">
        <ele>588</ele>
        <time>2016-08-09T09:50:29.000Z</time>
      </trkpt>
      <trkpt lat="45.43613" lon="5.71312">
        <ele>588</ele>
        <time>2016-08-09T09:50:31.000Z</time>
      </trkpt>
      <trkpt lat="45.43611" lon="5.71311">
        <ele>589</ele>
        <time>2016-08-09T09:50:32.000Z</time>
      </trkpt>
      <trkpt lat="45.43607" lon="5.71309">
        <ele>589</ele>
        <time>2016-08-09T09:50:34.000Z</time>
      </trkpt>
      <trkpt lat="45.43606" lon="5.71308">
        <ele>589</ele>
        <time>2016-08-09T09:50:35.000Z</time>
      </trkpt>
      <trkpt lat="45.43601" lon="5.71308">
        <ele>589</ele>
        <time>2016-08-09T09:50:38.000Z</time>
      </trkpt>
      <trkpt lat="45.436" lon="5.71307">
        <ele>589</ele>
        <time>2016-08-09T09:50:39.000Z</time>
      </trkpt>
      <trkpt lat="45.43597" lon="5.71304">
        <ele>589</ele>
        <time>2016-08-09T09:50:42.000Z</time>
      </trkpt>
      <trkpt lat="45.43596" lon="5.71303">
        <ele>589</ele>
        <time>2016-08-09T09:50:43.000Z</time>
      </trkpt>
      <trkpt lat="45.43592" lon="5.71301">
        <ele>589</ele>
        <time>2016-08-09T09:50:47.000Z</time>
      </trkpt>
      <trkpt lat="45.43591" lon="5.71301">
        <ele>590</ele>
        <time>2016-08-09T09:50:48.000Z</time>
      </trkpt>
      <trkpt lat="45.43588" lon="5.71296">
        <ele>590</ele>
        <time>2016-08-09T09:50:51.000Z</time>
      </trkpt>
      <trkpt lat="45.43587" lon="5.71295">
        <ele>590</ele>
        <time>2016-08-09T09:50:52.000Z</time>
      </trkpt>
      <trkpt lat="45.43585" lon="5.71291">
        <ele>591</ele>
        <time>2016-08-09T09:50:56.000Z</time>
      </trkpt>
      <trkpt lat="45.43585" lon="5.71289">
        <ele>591</ele>
        <time>2016-08-09T09:50:57.000Z</time>
      </trkpt>
      <trkpt lat="45.43581" lon="5.71285">
        <ele>594</ele>
        <time>2016-08-09T09:51:02.000Z</time>
      </trkpt>
      <trkpt lat="45.43581" lon="5.71284">
        <ele>594</ele>
        <time>2016-08-09T09:51:03.000Z</time>
      </trkpt>
      <trkpt lat="45.43578" lon="5.7128">
        <ele>594</ele>
        <time>2016-08-09T09:51:06.000Z</time>
      </trkpt>
      <trkpt lat="45.43577" lon="5.7128">
        <ele>594</ele>
        <time>2016-08-09T09:51:07.000Z</time>
      </trkpt>
      <trkpt lat="45.43575" lon="5.71277">
        <ele>595</ele>
        <time>2016-08-09T09:51:11.000Z</time>
      </trkpt>
      <trkpt lat="45.43574" lon="5.71275">
        <ele>595</ele>
        <time>2016-08-09T09:51:12.000Z</time>
      </trkpt>
      <trkpt lat="45.43571" lon="5.71273">
        <ele>595</ele>
        <time>2016-08-09T09:51:15.000Z</time>
      </trkpt>
      <trkpt lat="45.4357" lon="5.71272">
        <ele>595</ele>
        <time>2016-08-09T09:51:16.000Z</time>
      </trkpt>
      <trkpt lat="45.43566" lon="5.71269">
        <ele>595</ele>
        <time>2016-08-09T09:51:20.000Z</time>
      </trkpt>
      <trkpt lat="45.43565" lon="5.71269">
        <ele>595</ele>
        <time>2016-08-09T09:51:21.000Z</time>
      </trkpt>
      <trkpt lat="45.43562" lon="5.71266">
        <ele>595</ele>
        <time>2016-08-09T09:51:24.000Z</time>
      </trkpt>
      <trkpt lat="45.4356" lon="5.71265">
        <ele>595</ele>
        <time>2016-08-09T09:51:25.000Z</time>
      </trkpt>
      <trkpt lat="45.43556" lon="5.71263">
        <ele>595</ele>
        <time>2016-08-09T09:51:27.000Z</time>
      </trkpt>
      <trkpt lat="45.43555" lon="5.71261">
        <ele>595</ele>
        <time>2016-08-09T09:51:28.000Z</time>
      </trkpt>
      <trkpt lat="45.43552" lon="5.71259">
        <ele>595</ele>
        <time>2016-08-09T09:51:30.000Z</time>
      </trkpt>
      <trkpt lat="45.4355" lon="5.71258">
        <ele>595</ele>
        <time>2016-08-09T09:51:31.000Z</time>
      </trkpt>
      <trkpt lat="45.43547" lon="5.71257">
        <ele>595</ele>
        <time>2016-08-09T09:51:33.000Z</time>
      </trkpt>
      <trkpt lat="45.43545" lon="5.71256">
        <ele>595</ele>
        <time>2016-08-09T09:51:34.000Z</time>
      </trkpt>
      <trkpt lat="45.43542" lon="5.71256">
        <ele>595</ele>
        <time>2016-08-09T09:51:36.000Z</time>
      </trkpt>
      <trkpt lat="45.4354" lon="5.71255">
        <ele>595</ele>
        <time>2016-08-09T09:51:37.000Z</time>
      </trkpt>
      <trkpt lat="45.43537" lon="5.71253">
        <ele>596</ele>
        <time>2016-08-09T09:51:39.000Z</time>
      </trkpt>
      <trkpt lat="45.43535" lon="5.71253">
        <ele>596</ele>
        <time>2016-08-09T09:51:40.000Z</time>
      </trkpt>
      <trkpt lat="45.43532" lon="5.71252">
        <ele>596</ele>
        <time>2016-08-09T09:51:42.000Z</time>
      </trkpt>
      <trkpt lat="45.4353" lon="5.71252">
        <ele>596</ele>
        <time>2016-08-09T09:51:43.000Z</time>
      </trkpt>
      <trkpt lat="45.43527" lon="5.71251">
        <ele>596</ele>
        <time>2016-08-09T09:51:45.000Z</time>
      </trkpt>
      <trkpt lat="45.43525" lon="5.7125">
        <ele>596</ele>
        <time>2016-08-09T09:51:46.000Z</time>
      </trkpt>
      <trkpt lat="45.43521" lon="5.71249">
        <ele>601</ele>
        <time>2016-08-09T09:51:48.000Z</time>
      </trkpt>
      <trkpt lat="45.43519" lon="5.71248">
        <ele>601</ele>
        <time>2016-08-09T09:51:49.000Z</time>
      </trkpt>
      <trkpt lat="45.43515" lon="5.71246">
        <ele>601</ele>
        <time>2016-08-09T09:51:51.000Z</time>
      </trkpt>
      <trkpt lat="45.43513" lon="5.71246">
        <ele>600</ele>
        <time>2016-08-09T09:51:52.000Z</time>
      </trkpt>
      <trkpt lat="45.43509" lon="5.71244">
        <ele>600</ele>
        <time>2016-08-09T09:51:54.000Z</time>
      </trkpt>
      <trkpt lat="45.43507" lon="5.71243">
        <ele>600</ele>
        <time>2016-08-09T09:51:55.000Z</time>
      </trkpt>
      <trkpt lat="45.43503" lon="5.71242">
        <ele>600</ele>
        <time>2016-08-09T09:51:58.000Z</time>
      </trkpt>
      <trkpt lat="45.43502" lon="5.71242">
        <ele>600</ele>
        <time>2016-08-09T09:51:59.000Z</time>
      </trkpt>
      <trkpt lat="45.43499" lon="5.71241">
        <ele>600</ele>
        <time>2016-08-09T09:52:01.000Z</time>
      </trkpt>
      <trkpt lat="45.43498" lon="5.7124">
        <ele>600</ele>
        <time>2016-08-09T09:52:02.000Z</time>
      </trkpt>
      <trkpt lat="45.43494" lon="5.7124">
        <ele>600</ele>
        <time>2016-08-09T09:52:04.000Z</time>
      </trkpt>
      <trkpt lat="45.43492" lon="5.7124">
        <ele>600</ele>
        <time>2016-08-09T09:52:05.000Z</time>
      </trkpt>
      <trkpt lat="45.43488" lon="5.71238">
        <ele>601</ele>
        <time>2016-08-09T09:52:08.000Z</time>
      </trkpt>
      <trkpt lat="45.43487" lon="5.71237">
        <ele>601</ele>
        <time>2016-08-09T09:52:09.000Z</time>
      </trkpt>
      <trkpt lat="45.43483" lon="5.71235">
        <ele>601</ele>
        <time>2016-08-09T09:52:12.000Z</time>
      </trkpt>
      <trkpt lat="45.43482" lon="5.71234">
        <ele>601</ele>
        <time>2016-08-09T09:52:13.000Z</time>
      </trkpt>
      <trkpt lat="45.43477" lon="5.71233">
        <ele>601</ele>
        <time>2016-08-09T09:52:16.000Z</time>
      </trkpt>
      <trkpt lat="45.43476" lon="5.71232">
        <ele>601</ele>
        <time>2016-08-09T09:52:17.000Z</time>
      </trkpt>
      <trkpt lat="45.43473" lon="5.71228">
        <ele>602</ele>
        <time>2016-08-09T09:52:20.000Z</time>
      </trkpt>
      <trkpt lat="45.43472" lon="5.71227">
        <ele>602</ele>
        <time>2016-08-09T09:52:21.000Z</time>
      </trkpt>
      <trkpt lat="45.43469" lon="5.71222">
        <ele>602</ele>
        <time>2016-08-09T09:52:24.000Z</time>
      </trkpt>
      <trkpt lat="45.43468" lon="5.71221">
        <ele>602</ele>
        <time>2016-08-09T09:52:25.000Z</time>
      </trkpt>
      <trkpt lat="45.43465" lon="5.71218">
        <ele>602</ele>
        <time>2016-08-09T09:52:27.000Z</time>
      </trkpt>
      <trkpt lat="45.43463" lon="5.71217">
        <ele>602</ele>
        <time>2016-08-09T09:52:28.000Z</time>
      </trkpt>
      <trkpt lat="45.4346" lon="5.71215">
        <ele>602</ele>
        <time>2016-08-09T09:52:30.000Z</time>
      </trkpt>
      <trkpt lat="45.43459" lon="5.71213">
        <ele>602</ele>
        <time>2016-08-09T09:52:31.000Z</time>
      </trkpt>
      <trkpt lat="45.43456" lon="5.7121">
        <ele>602</ele>
        <time>2016-08-09T09:52:34.000Z</time>
      </trkpt>
      <trkpt lat="45.43455" lon="5.7121">
        <ele>602</ele>
        <time>2016-08-09T09:52:35.000Z</time>
      </trkpt>
      <trkpt lat="45.43451" lon="5.71209">
        <ele>602</ele>
        <time>2016-08-09T09:52:39.000Z</time>
      </trkpt>
      <trkpt lat="45.43449" lon="5.71208">
        <ele>602</ele>
        <time>2016-08-09T09:52:40.000Z</time>
      </trkpt>
      <trkpt lat="45.43445" lon="5.71207">
        <ele>602</ele>
        <time>2016-08-09T09:52:43.000Z</time>
      </trkpt>
      <trkpt lat="45.43444" lon="5.71207">
        <ele>602</ele>
        <time>2016-08-09T09:52:44.000Z</time>
      </trkpt>
      <trkpt lat="45.4344" lon="5.71205">
        <ele>603</ele>
        <time>2016-08-09T09:52:47.000Z</time>
      </trkpt>
      <trkpt lat="45.43439" lon="5.71204">
        <ele>603</ele>
        <time>2016-08-09T09:52:48.000Z</time>
      </trkpt>
      <trkpt lat="45.43436" lon="5.71201">
        <ele>603</ele>
        <time>2016-08-09T09:52:52.000Z</time>
      </trkpt>
      <trkpt lat="45.43434" lon="5.712">
        <ele>603</ele>
        <time>2016-08-09T09:52:53.000Z</time>
      </trkpt>
      <trkpt lat="45.4343" lon="5.71199">
        <ele>603</ele>
        <time>2016-08-09T09:52:59.000Z</time>
      </trkpt>
      <trkpt lat="45.4343" lon="5.71199">
        <ele>603</ele>
        <time>2016-08-09T09:53:00.000Z</time>
      </trkpt>
      <trkpt lat="45.43426" lon="5.71195">
        <ele>603</ele>
        <time>2016-08-09T09:53:12.000Z</time>
      </trkpt>
      <trkpt lat="45.43425" lon="5.71195">
        <ele>603</ele>
        <time>2016-08-09T09:53:13.000Z</time>
      </trkpt>
      <trkpt lat="45.43421" lon="5.71194">
        <ele>603</ele>
        <time>2016-08-09T09:53:17.000Z</time>
      </trkpt>
      <trkpt lat="45.4342" lon="5.71193">
        <ele>603</ele>
        <time>2016-08-09T09:53:18.000Z</time>
      </trkpt>
      <trkpt lat="45.43416" lon="5.71193">
        <ele>602</ele>
        <time>2016-08-09T09:53:27.000Z</time>
      </trkpt>
      <trkpt lat="45.43415" lon="5.71192">
        <ele>602</ele>
        <time>2016-08-09T09:53:28.000Z</time>
      </trkpt>
      <trkpt lat="45.43411" lon="5.7119">
        <ele>602</ele>
        <time>2016-08-09T09:53:31.000Z</time>
      </trkpt>
      <trkpt lat="45.43409" lon="5.71191">
        <ele>602</ele>
        <time>2016-08-09T09:53:32.000Z</time>
      </trkpt>
      <trkpt lat="45.43407" lon="5.71193">
        <ele>602</ele>
        <time>2016-08-09T09:53:33.000Z</time>
      </trkpt>
      <trkpt lat="45.43404" lon="5.71197">
        <ele>601</ele>
        <time>2016-08-09T09:53:34.000Z</time>
      </trkpt>
      <trkpt lat="45.434" lon="5.712">
        <ele>601</ele>
        <time>2016-08-09T09:53:35.000Z</time>
      </trkpt>
      <trkpt lat="45.43396" lon="5.71203">
        <ele>601</ele>
        <time>2016-08-09T09:53:36.000Z</time>
      </trkpt>
      <trkpt lat="45.43392" lon="5.71204">
        <ele>601</ele>
        <time>2016-08-09T09:53:37.000Z</time>
      </trkpt>
      <trkpt lat="45.43388" lon="5.71203">
        <ele>601</ele>
        <time>2016-08-09T09:53:38.000Z</time>
      </trkpt>
      <trkpt lat="45.43385" lon="5.71202">
        <ele>601</ele>
        <time>2016-08-09T09:53:39.000Z</time>
      </trkpt>
      <trkpt lat="45.43382" lon="5.71201">
        <ele>601</ele>
        <time>2016-08-09T09:53:40.000Z</time>
      </trkpt>
      <trkpt lat="45.4338" lon="5.712">
        <ele>601</ele>
        <time>2016-08-09T09:53:41.000Z</time>
      </trkpt>
      <trkpt lat="45.43377" lon="5.71198">
        <ele>601</ele>
        <time>2016-08-09T09:53:42.000Z</time>
      </trkpt>
      <trkpt lat="45.43374" lon="5.71195">
        <ele>601</ele>
        <time>2016-08-09T09:53:44.000Z</time>
      </trkpt>
      <trkpt lat="45.43372" lon="5.71194">
        <ele>601</ele>
        <time>2016-08-09T09:53:45.000Z</time>
      </trkpt>
      <trkpt lat="45.43368" lon="5.71191">
        <ele>601</ele>
        <time>2016-08-09T09:53:47.000Z</time>
      </trkpt>
      <trkpt lat="45.43366" lon="5.7119">
        <ele>601</ele>
        <time>2016-08-09T09:53:48.000Z</time>
      </trkpt>
      <trkpt lat="45.43363" lon="5.71189">
        <ele>601</ele>
        <time>2016-08-09T09:53:49.000Z</time>
      </trkpt>
      <trkpt lat="45.43361" lon="5.71187">
        <ele>601</ele>
        <time>2016-08-09T09:53:50.000Z</time>
      </trkpt>
      <trkpt lat="45.43359" lon="5.71185">
        <ele>601</ele>
        <time>2016-08-09T09:53:51.000Z</time>
      </trkpt>
      <trkpt lat="45.43357" lon="5.71184">
        <ele>601</ele>
        <time>2016-08-09T09:53:52.000Z</time>
      </trkpt>
      <trkpt lat="45.43354" lon="5.71183">
        <ele>601</ele>
        <time>2016-08-09T09:53:53.000Z</time>
      </trkpt>
      <trkpt lat="45.43352" lon="5.71182">
        <ele>601</ele>
        <time>2016-08-09T09:53:54.000Z</time>
      </trkpt>
      <trkpt lat="45.43349" lon="5.7118">
        <ele>602</ele>
        <time>2016-08-09T09:53:56.000Z</time>
      </trkpt>
      <trkpt lat="45.43348" lon="5.71178">
        <ele>602</ele>
        <time>2016-08-09T09:53:57.000Z</time>
      </trkpt>
      <trkpt lat="45.43347" lon="5.71173">
        <ele>602</ele>
        <time>2016-08-09T09:54:00.000Z</time>
      </trkpt>
      <trkpt lat="45.43347" lon="5.71171">
        <ele>602</ele>
        <time>2016-08-09T09:54:01.000Z</time>
      </trkpt>
      <trkpt lat="45.43348" lon="5.71166">
        <ele>604</ele>
        <time>2016-08-09T09:54:04.000Z</time>
      </trkpt>
      <trkpt lat="45.43348" lon="5.71164">
        <ele>604</ele>
        <time>2016-08-09T09:54:05.000Z</time>
      </trkpt>
      <trkpt lat="45.43348" lon="5.7116">
        <ele>604</ele>
        <time>2016-08-09T09:54:07.000Z</time>
      </trkpt>
      <trkpt lat="45.43347" lon="5.71157">
        <ele>604</ele>
        <time>2016-08-09T09:54:08.000Z</time>
      </trkpt>
      <trkpt lat="45.43347" lon="5.71154">
        <ele>604</ele>
        <time>2016-08-09T09:54:09.000Z</time>
      </trkpt>
      <trkpt lat="45.43348" lon="5.71151">
        <ele>604</ele>
        <time>2016-08-09T09:54:10.000Z</time>
      </trkpt>
      <trkpt lat="45.43348" lon="5.71147">
        <ele>605</ele>
        <time>2016-08-09T09:54:11.000Z</time>
      </trkpt>
      <trkpt lat="45.43348" lon="5.71143">
        <ele>605</ele>
        <time>2016-08-09T09:54:12.000Z</time>
      </trkpt>
      <trkpt lat="45.43349" lon="5.7114">
        <ele>605</ele>
        <time>2016-08-09T09:54:13.000Z</time>
      </trkpt>
      <trkpt lat="45.43349" lon="5.71136">
        <ele>605</ele>
        <time>2016-08-09T09:54:14.000Z</time>
      </trkpt>
      <trkpt lat="45.4335" lon="5.71131">
        <ele>605</ele>
        <time>2016-08-09T09:54:15.000Z</time>
      </trkpt>
      <trkpt lat="45.4335" lon="5.71128">
        <ele>605</ele>
        <time>2016-08-09T09:54:16.000Z</time>
      </trkpt>
      <trkpt lat="45.43351" lon="5.71125">
        <ele>605</ele>
        <time>2016-08-09T09:54:17.000Z</time>
      </trkpt>
      <trkpt lat="45.43352" lon="5.71121">
        <ele>605</ele>
        <time>2016-08-09T09:54:18.000Z</time>
      </trkpt>
      <trkpt lat="45.43352" lon="5.71116">
        <ele>606</ele>
        <time>2016-08-09T09:54:20.000Z</time>
      </trkpt>
      <trkpt lat="45.43352" lon="5.71115">
        <ele>606</ele>
        <time>2016-08-09T09:54:21.000Z</time>
      </trkpt>
      <trkpt lat="45.43354" lon="5.7111">
        <ele>606</ele>
        <time>2016-08-09T09:54:25.000Z</time>
      </trkpt>
      <trkpt lat="45.43354" lon="5.71108">
        <ele>606</ele>
        <time>2016-08-09T09:54:26.000Z</time>
      </trkpt>
      <trkpt lat="45.43357" lon="5.71103">
        <ele>606</ele>
        <time>2016-08-09T09:54:31.000Z</time>
      </trkpt>
      <trkpt lat="45.43357" lon="5.71102">
        <ele>606</ele>
        <time>2016-08-09T09:54:32.000Z</time>
      </trkpt>
      <trkpt lat="45.43359" lon="5.71097">
        <ele>606</ele>
        <time>2016-08-09T09:54:35.000Z</time>
      </trkpt>
      <trkpt lat="45.4336" lon="5.71095">
        <ele>606</ele>
        <time>2016-08-09T09:54:36.000Z</time>
      </trkpt>
      <trkpt lat="45.4336" lon="5.7109">
        <ele>606</ele>
        <time>2016-08-09T09:54:38.000Z</time>
      </trkpt>
      <trkpt lat="45.43359" lon="5.71087">
        <ele>606</ele>
        <time>2016-08-09T09:54:39.000Z</time>
      </trkpt>
      <trkpt lat="45.4336" lon="5.71082">
        <ele>609</ele>
        <time>2016-08-09T09:54:41.000Z</time>
      </trkpt>
      <trkpt lat="45.43361" lon="5.71079">
        <ele>609</ele>
        <time>2016-08-09T09:54:42.000Z</time>
      </trkpt>
      <trkpt lat="45.43361" lon="5.71073">
        <ele>609</ele>
        <time>2016-08-09T09:54:44.000Z</time>
      </trkpt>
      <trkpt lat="45.43362" lon="5.7107">
        <ele>609</ele>
        <time>2016-08-09T09:54:45.000Z</time>
      </trkpt>
      <trkpt lat="45.43361" lon="5.71065">
        <ele>609</ele>
        <time>2016-08-09T09:54:47.000Z</time>
      </trkpt>
      <trkpt lat="45.43362" lon="5.71062">
        <ele>609</ele>
        <time>2016-08-09T09:54:48.000Z</time>
      </trkpt>
      <trkpt lat="45.43362" lon="5.71057">
        <ele>609</ele>
        <time>2016-08-09T09:54:50.000Z</time>
      </trkpt>
      <trkpt lat="45.43363" lon="5.71054">
        <ele>609</ele>
        <time>2016-08-09T09:54:51.000Z</time>
      </trkpt>
      <trkpt lat="45.43365" lon="5.71048">
        <ele>609</ele>
        <time>2016-08-09T09:54:53.000Z</time>
      </trkpt>
      <trkpt lat="45.43366" lon="5.71046">
        <ele>609</ele>
        <time>2016-08-09T09:54:54.000Z</time>
      </trkpt>
      <trkpt lat="45.43367" lon="5.71043">
        <ele>609</ele>
        <time>2016-08-09T09:54:55.000Z</time>
      </trkpt>
      <trkpt lat="45.43368" lon="5.7104">
        <ele>609</ele>
        <time>2016-08-09T09:54:56.000Z</time>
      </trkpt>
      <trkpt lat="45.43369" lon="5.71037">
        <ele>609</ele>
        <time>2016-08-09T09:54:57.000Z</time>
      </trkpt>
      <trkpt lat="45.4337" lon="5.71034">
        <ele>609</ele>
        <time>2016-08-09T09:54:58.000Z</time>
      </trkpt>
      <trkpt lat="45.43371" lon="5.71031">
        <ele>610</ele>
        <time>2016-08-09T09:54:59.000Z</time>
      </trkpt>
      <trkpt lat="45.43373" lon="5.71029">
        <ele>610</ele>
        <time>2016-08-09T09:55:00.000Z</time>
      </trkpt>
      <trkpt lat="45.43377" lon="5.71025">
        <ele>610</ele>
        <time>2016-08-09T09:55:02.000Z</time>
      </trkpt>
      <trkpt lat="45.43379" lon="5.71023">
        <ele>610</ele>
        <time>2016-08-09T09:55:03.000Z</time>
      </trkpt>
      <trkpt lat="45.43381" lon="5.71021">
        <ele>610</ele>
        <time>2016-08-09T09:55:04.000Z</time>
      </trkpt>
      <trkpt lat="45.43384" lon="5.71019">
        <ele>610</ele>
        <time>2016-08-09T09:55:05.000Z</time>
      </trkpt>
      <trkpt lat="45.43386" lon="5.71018">
        <ele>610</ele>
        <time>2016-08-09T09:55:06.000Z</time>
      </trkpt>
      <trkpt lat="45.43389" lon="5.71016">
        <ele>610</ele>
        <time>2016-08-09T09:55:07.000Z</time>
      </trkpt>
      <trkpt lat="45.43391" lon="5.71015">
        <ele>610</ele>
        <time>2016-08-09T09:55:08.000Z</time>
      </trkpt>
      <trkpt lat="45.43394" lon="5.71013">
        <ele>610</ele>
        <time>2016-08-09T09:55:09.000Z</time>
      </trkpt>
      <trkpt lat="45.43395" lon="5.7101">
        <ele>610</ele>
        <time>2016-08-09T09:55:10.000Z</time>
      </trkpt>
      <trkpt lat="45.43397" lon="5.71007">
        <ele>610</ele>
        <time>2016-08-09T09:55:11.000Z</time>
      </trkpt>
      <trkpt lat="45.43398" lon="5.71001">
        <ele>611</ele>
        <time>2016-08-09T09:55:13.000Z</time>
      </trkpt>
      <trkpt lat="45.43398" lon="5.70998">
        <ele>613</ele>
        <time>2016-08-09T09:55:14.000Z</time>
      </trkpt>
      <trkpt lat="45.43398" lon="5.70992">
        <ele>613</ele>
        <time>2016-08-09T09:55:16.000Z</time>
      </trkpt>
      <trkpt lat="45.43399" lon="5.70991">
        <ele>613</ele>
        <time>2016-08-09T09:55:17.000Z</time>
      </trkpt>
      <trkpt lat="45.43403" lon="5.70988">
        <ele>613</ele>
        <time>2016-08-09T09:55:19.000Z</time>
      </trkpt>
      <trkpt lat="45.43406" lon="5.70986">
        <ele>613</ele>
        <time>2016-08-09T09:55:20.000Z</time>
      </trkpt>
      <trkpt lat="45.43409" lon="5.70983">
        <ele>613</ele>
        <time>2016-08-09T09:55:22.000Z</time>
      </trkpt>
      <trkpt lat="45.4341" lon="5.70982">
        <ele>614</ele>
        <time>2016-08-09T09:55:23.000Z</time>
      </trkpt>
      <trkpt lat="45.43413" lon="5.70978">
        <ele>614</ele>
        <time>2016-08-09T09:55:26.000Z</time>
      </trkpt>
      <trkpt lat="45.43414" lon="5.70977">
        <ele>614</ele>
        <time>2016-08-09T09:55:27.000Z</time>
      </trkpt>
      <trkpt lat="45.43418" lon="5.70975">
        <ele>615</ele>
        <time>2016-08-09T09:55:29.000Z</time>
      </trkpt>
      <trkpt lat="45.4342" lon="5.70974">
        <ele>615</ele>
        <time>2016-08-09T09:55:30.000Z</time>
      </trkpt>
      <trkpt lat="45.43423" lon="5.70973">
        <ele>615</ele>
        <time>2016-08-09T09:55:31.000Z</time>
      </trkpt>
      <trkpt lat="45.43425" lon="5.70972">
        <ele>615</ele>
        <time>2016-08-09T09:55:32.000Z</time>
      </trkpt>
      <trkpt lat="45.43429" lon="5.70971">
        <ele>616</ele>
        <time>2016-08-09T09:55:34.000Z</time>
      </trkpt>
      <trkpt lat="45.43431" lon="5.70972">
        <ele>616</ele>
        <time>2016-08-09T09:55:35.000Z</time>
      </trkpt>
      <trkpt lat="45.43434" lon="5.70973">
        <ele>616</ele>
        <time>2016-08-09T09:55:37.000Z</time>
      </trkpt>
      <trkpt lat="45.43437" lon="5.70973">
        <ele>616</ele>
        <time>2016-08-09T09:55:38.000Z</time>
      </trkpt>
      <trkpt lat="45.43439" lon="5.70973">
        <ele>616</ele>
        <time>2016-08-09T09:55:39.000Z</time>
      </trkpt>
      <trkpt lat="45.43441" lon="5.70974">
        <ele>616</ele>
        <time>2016-08-09T09:55:40.000Z</time>
      </trkpt>
      <trkpt lat="45.43446" lon="5.70974">
        <ele>616</ele>
        <time>2016-08-09T09:55:42.000Z</time>
      </trkpt>
      <trkpt lat="45.43447" lon="5.70974">
        <ele>616</ele>
        <time>2016-08-09T09:55:43.000Z</time>
      </trkpt>
      <trkpt lat="45.43451" lon="5.70974">
        <ele>616</ele>
        <time>2016-08-09T09:55:46.000Z</time>
      </trkpt>
      <trkpt lat="45.43453" lon="5.70974">
        <ele>616</ele>
        <time>2016-08-09T09:55:47.000Z</time>
      </trkpt>
      <trkpt lat="45.43455" lon="5.70975">
        <ele>616</ele>
        <time>2016-08-09T09:55:48.000Z</time>
      </trkpt>
      <trkpt lat="45.43457" lon="5.70975">
        <ele>616</ele>
        <time>2016-08-09T09:55:49.000Z</time>
      </trkpt>
      <trkpt lat="45.43459" lon="5.70974">
        <ele>616</ele>
        <time>2016-08-09T09:55:50.000Z</time>
      </trkpt>
      <trkpt lat="45.43462" lon="5.70975">
        <ele>616</ele>
        <time>2016-08-09T09:55:51.000Z</time>
      </trkpt>
      <trkpt lat="45.43466" lon="5.70975">
        <ele>616</ele>
        <time>2016-08-09T09:55:53.000Z</time>
      </trkpt>
      <trkpt lat="45.43468" lon="5.70976">
        <ele>616</ele>
        <time>2016-08-09T09:55:54.000Z</time>
      </trkpt>
      <trkpt lat="45.4347" lon="5.70976">
        <ele>616</ele>
        <time>2016-08-09T09:55:55.000Z</time>
      </trkpt>
      <trkpt lat="45.43473" lon="5.70977">
        <ele>616</ele>
        <time>2016-08-09T09:55:56.000Z</time>
      </trkpt>
      <trkpt lat="45.43475" lon="5.70977">
        <ele>616</ele>
        <time>2016-08-09T09:55:57.000Z</time>
      </trkpt>
      <trkpt lat="45.43478" lon="5.70978">
        <ele>616</ele>
        <time>2016-08-09T09:55:58.000Z</time>
      </trkpt>
      <trkpt lat="45.43482" lon="5.70978">
        <ele>616</ele>
        <time>2016-08-09T09:56:00.000Z</time>
      </trkpt>
      <trkpt lat="45.43484" lon="5.70978">
        <ele>617</ele>
        <time>2016-08-09T09:56:01.000Z</time>
      </trkpt>
      <trkpt lat="45.43486" lon="5.70978">
        <ele>617</ele>
        <time>2016-08-09T09:56:02.000Z</time>
      </trkpt>
      <trkpt lat="45.43489" lon="5.70977">
        <ele>617</ele>
        <time>2016-08-09T09:56:03.000Z</time>
      </trkpt>
      <trkpt lat="45.43492" lon="5.70975">
        <ele>617</ele>
        <time>2016-08-09T09:56:04.000Z</time>
      </trkpt>
      <trkpt lat="45.43495" lon="5.70973">
        <ele>617</ele>
        <time>2016-08-09T09:56:05.000Z</time>
      </trkpt>
      <trkpt lat="45.43498" lon="5.70971">
        <ele>617</ele>
        <time>2016-08-09T09:56:06.000Z</time>
      </trkpt>
      <trkpt lat="45.43501" lon="5.70968">
        <ele>617</ele>
        <time>2016-08-09T09:56:07.000Z</time>
      </trkpt>
      <trkpt lat="45.43505" lon="5.70965">
        <ele>617</ele>
        <time>2016-08-09T09:56:08.000Z</time>
      </trkpt>
      <trkpt lat="45.43508" lon="5.70962">
        <ele>617</ele>
        <time>2016-08-09T09:56:09.000Z</time>
      </trkpt>
      <trkpt lat="45.43512" lon="5.70959">
        <ele>617</ele>
        <time>2016-08-09T09:56:10.000Z</time>
      </trkpt>
      <trkpt lat="45.43514" lon="5.70955">
        <ele>618</ele>
        <time>2016-08-09T09:56:11.000Z</time>
      </trkpt>
      <trkpt lat="45.43517" lon="5.70952">
        <ele>618</ele>
        <time>2016-08-09T09:56:12.000Z</time>
      </trkpt>
      <trkpt lat="45.4352" lon="5.70949">
        <ele>618</ele>
        <time>2016-08-09T09:56:13.000Z</time>
      </trkpt>
      <trkpt lat="45.43522" lon="5.70946">
        <ele>618</ele>
        <time>2016-08-09T09:56:14.000Z</time>
      </trkpt>
      <trkpt lat="45.43524" lon="5.70943">
        <ele>618</ele>
        <time>2016-08-09T09:56:15.000Z</time>
      </trkpt>
      <trkpt lat="45.43527" lon="5.70939">
        <ele>618</ele>
        <time>2016-08-09T09:56:17.000Z</time>
      </trkpt>
      <trkpt lat="45.43528" lon="5.70937">
        <ele>618</ele>
        <time>2016-08-09T09:56:18.000Z</time>
      </trkpt>
      <trkpt lat="45.43531" lon="5.70933">
        <ele>618</ele>
        <time>2016-08-09T09:56:20.000Z</time>
      </trkpt>
      <trkpt lat="45.43533" lon="5.70931">
        <ele>618</ele>
        <time>2016-08-09T09:56:21.000Z</time>
      </trkpt>
      <trkpt lat="45.43536" lon="5.70928">
        <ele>618</ele>
        <time>2016-08-09T09:56:23.000Z</time>
      </trkpt>
      <trkpt lat="45.43537" lon="5.70926">
        <ele>618</ele>
        <time>2016-08-09T09:56:24.000Z</time>
      </trkpt>
      <trkpt lat="45.43541" lon="5.70923">
        <ele>618</ele>
        <time>2016-08-09T09:56:26.000Z</time>
      </trkpt>
      <trkpt lat="45.43543" lon="5.70921">
        <ele>618</ele>
        <time>2016-08-09T09:56:27.000Z</time>
      </trkpt>
      <trkpt lat="45.43546" lon="5.70917">
        <ele>618</ele>
        <time>2016-08-09T09:56:30.000Z</time>
      </trkpt>
      <trkpt lat="45.43546" lon="5.70916">
        <ele>622</ele>
        <time>2016-08-09T09:56:31.000Z</time>
      </trkpt>
      <trkpt lat="45.43542" lon="5.70917">
        <ele>618</ele>
        <time>2016-08-09T09:56:33.000Z</time>
      </trkpt>
      <trkpt lat="45.43539" lon="5.70919">
        <ele>618</ele>
        <time>2016-08-09T09:56:34.000Z</time>
      </trkpt>
      <trkpt lat="45.43536" lon="5.70923">
        <ele>618</ele>
        <time>2016-08-09T09:56:35.000Z</time>
      </trkpt>
      <trkpt lat="45.43533" lon="5.70926">
        <ele>618</ele>
        <time>2016-08-09T09:56:36.000Z</time>
      </trkpt>
      <trkpt lat="45.4353" lon="5.70929">
        <ele>618</ele>
        <time>2016-08-09T09:56:37.000Z</time>
      </trkpt>
      <trkpt lat="45.43528" lon="5.70932">
        <ele>618</ele>
        <time>2016-08-09T09:56:38.000Z</time>
      </trkpt>
      <trkpt lat="45.43526" lon="5.70936">
        <ele>618</ele>
        <time>2016-08-09T09:56:40.000Z</time>
      </trkpt>
      <trkpt lat="45.43525" lon="5.70937">
        <ele>618</ele>
        <time>2016-08-09T09:56:41.000Z</time>
      </trkpt>
      <trkpt lat="45.43528" lon="5.70939">
        <ele>618</ele>
        <time>2016-08-09T09:56:49.000Z</time>
      </trkpt>
      <trkpt lat="45.4353" lon="5.70936">
        <ele>618</ele>
        <time>2016-08-09T09:56:50.000Z</time>
      </trkpt>
      <trkpt lat="45.43532" lon="5.70933">
        <ele>618</ele>
        <time>2016-08-09T09:56:51.000Z</time>
      </trkpt>
      <trkpt lat="45.43535" lon="5.7093">
        <ele>618</ele>
        <time>2016-08-09T09:56:52.000Z</time>
      </trkpt>
      <trkpt lat="45.43537" lon="5.70927">
        <ele>618</ele>
        <time>2016-08-09T09:56:53.000Z</time>
      </trkpt>
      <trkpt lat="45.43539" lon="5.70924">
        <ele>618</ele>
        <time>2016-08-09T09:56:54.000Z</time>
      </trkpt>
      <trkpt lat="45.43541" lon="5.70921">
        <ele>618</ele>
        <time>2016-08-09T09:56:55.000Z</time>
      </trkpt>
      <trkpt lat="45.43543" lon="5.7092">
        <ele>618</ele>
        <time>2016-08-09T09:56:56.000Z</time>
      </trkpt>
      <trkpt lat="45.43546" lon="5.70917">
        <ele>618</ele>
        <time>2016-08-09T09:56:58.000Z</time>
      </trkpt>
      <trkpt lat="45.43548" lon="5.70915">
        <ele>622</ele>
        <time>2016-08-09T09:56:59.000Z</time>
      </trkpt>
      <trkpt lat="45.4355" lon="5.70912">
        <ele>622</ele>
        <time>2016-08-09T09:57:01.000Z</time>
      </trkpt>
      <trkpt lat="45.43552" lon="5.70911">
        <ele>622</ele>
        <time>2016-08-09T09:57:02.000Z</time>
      </trkpt>
      <trkpt lat="45.43555" lon="5.70909">
        <ele>622</ele>
        <time>2016-08-09T09:57:04.000Z</time>
      </trkpt>
      <trkpt lat="45.43557" lon="5.70908">
        <ele>622</ele>
        <time>2016-08-09T09:57:05.000Z</time>
      </trkpt>
      <trkpt lat="45.4356" lon="5.70905">
        <ele>622</ele>
        <time>2016-08-09T09:57:07.000Z</time>
      </trkpt>
      <trkpt lat="45.43561" lon="5.70903">
        <ele>622</ele>
        <time>2016-08-09T09:57:08.000Z</time>
      </trkpt>
      <trkpt lat="45.43564" lon="5.70898">
        <ele>622</ele>
        <time>2016-08-09T09:57:10.000Z</time>
      </trkpt>
      <trkpt lat="45.43565" lon="5.70896">
        <ele>622</ele>
        <time>2016-08-09T09:57:11.000Z</time>
      </trkpt>
      <trkpt lat="45.43567" lon="5.70894">
        <ele>622</ele>
        <time>2016-08-09T09:57:12.000Z</time>
      </trkpt>
      <trkpt lat="45.43569" lon="5.70892">
        <ele>622</ele>
        <time>2016-08-09T09:57:13.000Z</time>
      </trkpt>
      <trkpt lat="45.43571" lon="5.70889">
        <ele>622</ele>
        <time>2016-08-09T09:57:14.000Z</time>
      </trkpt>
      <trkpt lat="45.43573" lon="5.70887">
        <ele>623</ele>
        <time>2016-08-09T09:57:15.000Z</time>
      </trkpt>
      <trkpt lat="45.43574" lon="5.70884">
        <ele>623</ele>
        <time>2016-08-09T09:57:16.000Z</time>
      </trkpt>
      <trkpt lat="45.43576" lon="5.70882">
        <ele>623</ele>
        <time>2016-08-09T09:57:17.000Z</time>
      </trkpt>
      <trkpt lat="45.43578" lon="5.70879">
        <ele>623</ele>
        <time>2016-08-09T09:57:18.000Z</time>
      </trkpt>
      <trkpt lat="45.4358" lon="5.70877">
        <ele>623</ele>
        <time>2016-08-09T09:57:19.000Z</time>
      </trkpt>
      <trkpt lat="45.43581" lon="5.70875">
        <ele>623</ele>
        <time>2016-08-09T09:57:20.000Z</time>
      </trkpt>
      <trkpt lat="45.43583" lon="5.70872">
        <ele>624</ele>
        <time>2016-08-09T09:57:21.000Z</time>
      </trkpt>
      <trkpt lat="45.43585" lon="5.7087">
        <ele>624</ele>
        <time>2016-08-09T09:57:22.000Z</time>
      </trkpt>
      <trkpt lat="45.43587" lon="5.70868">
        <ele>625</ele>
        <time>2016-08-09T09:57:23.000Z</time>
      </trkpt>
      <trkpt lat="45.4359" lon="5.70865">
        <ele>625</ele>
        <time>2016-08-09T09:57:25.000Z</time>
      </trkpt>
      <trkpt lat="45.43592" lon="5.70864">
        <ele>625</ele>
        <time>2016-08-09T09:57:26.000Z</time>
      </trkpt>
      <trkpt lat="45.43596" lon="5.70862">
        <ele>625</ele>
        <time>2016-08-09T09:57:28.000Z</time>
      </trkpt>
      <trkpt lat="45.43598" lon="5.7086">
        <ele>625</ele>
        <time>2016-08-09T09:57:29.000Z</time>
      </trkpt>
      <trkpt lat="45.43601" lon="5.70857">
        <ele>625</ele>
        <time>2016-08-09T09:57:31.000Z</time>
      </trkpt>
      <trkpt lat="45.43603" lon="5.70856">
        <ele>626</ele>
        <time>2016-08-09T09:57:32.000Z</time>
      </trkpt>
      <trkpt lat="45.43606" lon="5.70853">
        <ele>626</ele>
        <time>2016-08-09T09:57:34.000Z</time>
      </trkpt>
      <trkpt lat="45.43608" lon="5.70852">
        <ele>626</ele>
        <time>2016-08-09T09:57:35.000Z</time>
      </trkpt>
      <trkpt lat="45.43611" lon="5.7085">
        <ele>626</ele>
        <time>2016-08-09T09:57:37.000Z</time>
      </trkpt>
      <trkpt lat="45.43612" lon="5.70848">
        <ele>626</ele>
        <time>2016-08-09T09:57:38.000Z</time>
      </trkpt>
      <trkpt lat="45.43615" lon="5.70846">
        <ele>626</ele>
        <time>2016-08-09T09:57:40.000Z</time>
      </trkpt>
      <trkpt lat="45.43617" lon="5.70845">
        <ele>626</ele>
        <time>2016-08-09T09:57:41.000Z</time>
      </trkpt>
      <trkpt lat="45.4362" lon="5.70843">
        <ele>626</ele>
        <time>2016-08-09T09:57:43.000Z</time>
      </trkpt>
      <trkpt lat="45.43622" lon="5.70841">
        <ele>626</ele>
        <time>2016-08-09T09:57:44.000Z</time>
      </trkpt>
      <trkpt lat="45.43626" lon="5.70839">
        <ele>627</ele>
        <time>2016-08-09T09:57:46.000Z</time>
      </trkpt>
      <trkpt lat="45.43627" lon="5.70838">
        <ele>627</ele>
        <time>2016-08-09T09:57:47.000Z</time>
      </trkpt>
      <trkpt lat="45.4363" lon="5.70835">
        <ele>627</ele>
        <time>2016-08-09T09:57:49.000Z</time>
      </trkpt>
      <trkpt lat="45.43632" lon="5.70834">
        <ele>627</ele>
        <time>2016-08-09T09:57:50.000Z</time>
      </trkpt>
      <trkpt lat="45.43635" lon="5.7083">
        <ele>635</ele>
        <time>2016-08-09T09:57:53.000Z</time>
      </trkpt>
      <trkpt lat="45.43636" lon="5.70829">
        <ele>635</ele>
        <time>2016-08-09T09:57:54.000Z</time>
      </trkpt>
      <trkpt lat="45.43638" lon="5.70826">
        <ele>635</ele>
        <time>2016-08-09T09:57:56.000Z</time>
      </trkpt>
      <trkpt lat="45.43639" lon="5.70822">
        <ele>635</ele>
        <time>2016-08-09T09:57:57.000Z</time>
      </trkpt>
      <trkpt lat="45.4364" lon="5.70819">
        <ele>635</ele>
        <time>2016-08-09T09:57:58.000Z</time>
      </trkpt>
      <trkpt lat="45.4364" lon="5.70815">
        <ele>636</ele>
        <time>2016-08-09T09:57:59.000Z</time>
      </trkpt>
      <trkpt lat="45.43639" lon="5.7081">
        <ele>636</ele>
        <time>2016-08-09T09:58:01.000Z</time>
      </trkpt>
      <trkpt lat="45.43638" lon="5.70809">
        <ele>636</ele>
        <time>2016-08-09T09:58:02.000Z</time>
      </trkpt>
      <trkpt lat="45.43635" lon="5.70804">
        <ele>636</ele>
        <time>2016-08-09T09:58:04.000Z</time>
      </trkpt>
      <trkpt lat="45.43634" lon="5.70801">
        <ele>637</ele>
        <time>2016-08-09T09:58:05.000Z</time>
      </trkpt>
      <trkpt lat="45.4363" lon="5.70798">
        <ele>637</ele>
        <time>2016-08-09T09:58:07.000Z</time>
      </trkpt>
      <trkpt lat="45.43629" lon="5.70797">
        <ele>637</ele>
        <time>2016-08-09T09:58:08.000Z</time>
      </trkpt>
      <trkpt lat="45.43626" lon="5.70795">
        <ele>637</ele>
        <time>2016-08-09T09:58:10.000Z</time>
      </trkpt>
      <trkpt lat="45.43624" lon="5.70794">
        <ele>637</ele>
        <time>2016-08-09T09:58:11.000Z</time>
      </trkpt>
      <trkpt lat="45.4362" lon="5.70792">
        <ele>637</ele>
        <time>2016-08-09T09:58:13.000Z</time>
      </trkpt>
      <trkpt lat="45.43618" lon="5.70791">
        <ele>637</ele>
        <time>2016-08-09T09:58:14.000Z</time>
      </trkpt>
      <trkpt lat="45.43614" lon="5.70788">
        <ele>637</ele>
        <time>2016-08-09T09:58:16.000Z</time>
      </trkpt>
      <trkpt lat="45.43612" lon="5.70786">
        <ele>637</ele>
        <time>2016-08-09T09:58:17.000Z</time>
      </trkpt>
      <trkpt lat="45.43609" lon="5.70783">
        <ele>638</ele>
        <time>2016-08-09T09:58:19.000Z</time>
      </trkpt>
      <trkpt lat="45.43607" lon="5.70783">
        <ele>638</ele>
        <time>2016-08-09T09:58:20.000Z</time>
      </trkpt>
      <trkpt lat="45.43604" lon="5.70781">
        <ele>638</ele>
        <time>2016-08-09T09:58:22.000Z</time>
      </trkpt>
      <trkpt lat="45.43603" lon="5.7078">
        <ele>638</ele>
        <time>2016-08-09T09:58:23.000Z</time>
      </trkpt>
      <trkpt lat="45.436" lon="5.70777">
        <ele>638</ele>
        <time>2016-08-09T09:58:25.000Z</time>
      </trkpt>
      <trkpt lat="45.43598" lon="5.70776">
        <ele>638</ele>
        <time>2016-08-09T09:58:26.000Z</time>
      </trkpt>
      <trkpt lat="45.43594" lon="5.70774">
        <ele>638</ele>
        <time>2016-08-09T09:58:28.000Z</time>
      </trkpt>
      <trkpt lat="45.43593" lon="5.70773">
        <ele>639</ele>
        <time>2016-08-09T09:58:29.000Z</time>
      </trkpt>
      <trkpt lat="45.43589" lon="5.7077">
        <ele>639</ele>
        <time>2016-08-09T09:58:32.000Z</time>
      </trkpt>
      <trkpt lat="45.43587" lon="5.7077">
        <ele>639</ele>
        <time>2016-08-09T09:58:33.000Z</time>
      </trkpt>
      <trkpt lat="45.43585" lon="5.70768">
        <ele>639</ele>
        <time>2016-08-09T09:58:35.000Z</time>
      </trkpt>
      <trkpt lat="45.43583" lon="5.70767">
        <ele>638</ele>
        <time>2016-08-09T09:58:36.000Z</time>
      </trkpt>
      <trkpt lat="45.4358" lon="5.70765">
        <ele>638</ele>
        <time>2016-08-09T09:58:38.000Z</time>
      </trkpt>
      <trkpt lat="45.43578" lon="5.70764">
        <ele>638</ele>
        <time>2016-08-09T09:58:39.000Z</time>
      </trkpt>
      <trkpt lat="45.43574" lon="5.70762">
        <ele>638</ele>
        <time>2016-08-09T09:58:41.000Z</time>
      </trkpt>
      <trkpt lat="45.43573" lon="5.70761">
        <ele>638</ele>
        <time>2016-08-09T09:58:42.000Z</time>
      </trkpt>
      <trkpt lat="45.43569" lon="5.70759">
        <ele>638</ele>
        <time>2016-08-09T09:58:44.000Z</time>
      </trkpt>
      <trkpt lat="45.43568" lon="5.70758">
        <ele>638</ele>
        <time>2016-08-09T09:58:45.000Z</time>
      </trkpt>
      <trkpt lat="45.43565" lon="5.70755">
        <ele>638</ele>
        <time>2016-08-09T09:58:47.000Z</time>
      </trkpt>
      <trkpt lat="45.43563" lon="5.70754">
        <ele>638</ele>
        <time>2016-08-09T09:58:48.000Z</time>
      </trkpt>
      <trkpt lat="45.4356" lon="5.70751">
        <ele>637</ele>
        <time>2016-08-09T09:58:50.000Z</time>
      </trkpt>
      <trkpt lat="45.43558" lon="5.70749">
        <ele>643</ele>
        <time>2016-08-09T09:58:51.000Z</time>
      </trkpt>
      <trkpt lat="45.43554" lon="5.70747">
        <ele>643</ele>
        <time>2016-08-09T09:58:53.000Z</time>
      </trkpt>
      <trkpt lat="45.43552" lon="5.70745">
        <ele>643</ele>
        <time>2016-08-09T09:58:54.000Z</time>
      </trkpt>
      <trkpt lat="45.43549" lon="5.70743">
        <ele>643</ele>
        <time>2016-08-09T09:58:56.000Z</time>
      </trkpt>
      <trkpt lat="45.43548" lon="5.70743">
        <ele>643</ele>
        <time>2016-08-09T09:58:57.000Z</time>
      </trkpt>
      <trkpt lat="45.43545" lon="5.7074">
        <ele>643</ele>
        <time>2016-08-09T09:59:02.000Z</time>
      </trkpt>
      <trkpt lat="45.43544" lon="5.70739">
        <ele>644</ele>
        <time>2016-08-09T09:59:03.000Z</time>
      </trkpt>
      <trkpt lat="45.43541" lon="5.70736">
        <ele>644</ele>
        <time>2016-08-09T09:59:05.000Z</time>
      </trkpt>
      <trkpt lat="45.4354" lon="5.70734">
        <ele>644</ele>
        <time>2016-08-09T09:59:06.000Z</time>
      </trkpt>
      <trkpt lat="45.43538" lon="5.70732">
        <ele>644</ele>
        <time>2016-08-09T09:59:08.000Z</time>
      </trkpt>
      <trkpt lat="45.43536" lon="5.7073">
        <ele>644</ele>
        <time>2016-08-09T09:59:09.000Z</time>
      </trkpt>
      <trkpt lat="45.43532" lon="5.70728">
        <ele>644</ele>
        <time>2016-08-09T09:59:11.000Z</time>
      </trkpt>
      <trkpt lat="45.43531" lon="5.70726">
        <ele>644</ele>
        <time>2016-08-09T09:59:12.000Z</time>
      </trkpt>
      <trkpt lat="45.43528" lon="5.70725">
        <ele>644</ele>
        <time>2016-08-09T09:59:14.000Z</time>
      </trkpt>
      <trkpt lat="45.43527" lon="5.70724">
        <ele>644</ele>
        <time>2016-08-09T09:59:15.000Z</time>
      </trkpt>
      <trkpt lat="45.43524" lon="5.70722">
        <ele>644</ele>
        <time>2016-08-09T09:59:17.000Z</time>
      </trkpt>
      <trkpt lat="45.43522" lon="5.70721">
        <ele>644</ele>
        <time>2016-08-09T09:59:18.000Z</time>
      </trkpt>
      <trkpt lat="45.43519" lon="5.70718">
        <ele>644</ele>
        <time>2016-08-09T09:59:20.000Z</time>
      </trkpt>
      <trkpt lat="45.43517" lon="5.70717">
        <ele>644</ele>
        <time>2016-08-09T09:59:21.000Z</time>
      </trkpt>
      <trkpt lat="45.43514" lon="5.70713">
        <ele>644</ele>
        <time>2016-08-09T09:59:23.000Z</time>
      </trkpt>
      <trkpt lat="45.43512" lon="5.7071">
        <ele>644</ele>
        <time>2016-08-09T09:59:24.000Z</time>
      </trkpt>
      <trkpt lat="45.4351" lon="5.70708">
        <ele>645</ele>
        <time>2016-08-09T09:59:25.000Z</time>
      </trkpt>
      <trkpt lat="45.43508" lon="5.70706">
        <ele>645</ele>
        <time>2016-08-09T09:59:26.000Z</time>
      </trkpt>
      <trkpt lat="45.43505" lon="5.70703">
        <ele>645</ele>
        <time>2016-08-09T09:59:28.000Z</time>
      </trkpt>
      <trkpt lat="45.43504" lon="5.70702">
        <ele>645</ele>
        <time>2016-08-09T09:59:29.000Z</time>
      </trkpt>
      <trkpt lat="45.43501" lon="5.70699">
        <ele>645</ele>
        <time>2016-08-09T09:59:31.000Z</time>
      </trkpt>
      <trkpt lat="45.43499" lon="5.70697">
        <ele>643</ele>
        <time>2016-08-09T09:59:32.000Z</time>
      </trkpt>
      <trkpt lat="45.43496" lon="5.70694">
        <ele>644</ele>
        <time>2016-08-09T09:59:34.000Z</time>
      </trkpt>
      <trkpt lat="45.43495" lon="5.70693">
        <ele>644</ele>
        <time>2016-08-09T09:59:35.000Z</time>
      </trkpt>
      <trkpt lat="45.43491" lon="5.7069">
        <ele>644</ele>
        <time>2016-08-09T09:59:37.000Z</time>
      </trkpt>
      <trkpt lat="45.4349" lon="5.70689">
        <ele>644</ele>
        <time>2016-08-09T09:59:38.000Z</time>
      </trkpt>
      <trkpt lat="45.43486" lon="5.70687">
        <ele>644</ele>
        <time>2016-08-09T09:59:40.000Z</time>
      </trkpt>
      <trkpt lat="45.43485" lon="5.70685">
        <ele>644</ele>
        <time>2016-08-09T09:59:41.000Z</time>
      </trkpt>
      <trkpt lat="45.43481" lon="5.70682">
        <ele>644</ele>
        <time>2016-08-09T09:59:44.000Z</time>
      </trkpt>
      <trkpt lat="45.4348" lon="5.70681">
        <ele>644</ele>
        <time>2016-08-09T09:59:45.000Z</time>
      </trkpt>
      <trkpt lat="45.43477" lon="5.70677">
        <ele>644</ele>
        <time>2016-08-09T09:59:48.000Z</time>
      </trkpt>
      <trkpt lat="45.43475" lon="5.70675">
        <ele>644</ele>
        <time>2016-08-09T09:59:49.000Z</time>
      </trkpt>
      <trkpt lat="45.43472" lon="5.70673">
        <ele>644</ele>
        <time>2016-08-09T09:59:51.000Z</time>
      </trkpt>
      <trkpt lat="45.4347" lon="5.70672">
        <ele>644</ele>
        <time>2016-08-09T09:59:52.000Z</time>
      </trkpt>
      <trkpt lat="45.43467" lon="5.70671">
        <ele>644</ele>
        <time>2016-08-09T09:59:54.000Z</time>
      </trkpt>
      <trkpt lat="45.43465" lon="5.7067">
        <ele>644</ele>
        <time>2016-08-09T09:59:55.000Z</time>
      </trkpt>
      <trkpt lat="45.43461" lon="5.70667">
        <ele>644</ele>
        <time>2016-08-09T09:59:57.000Z</time>
      </trkpt>
      <trkpt lat="45.4346" lon="5.70666">
        <ele>652</ele>
        <time>2016-08-09T09:59:58.000Z</time>
      </trkpt>
      <trkpt lat="45.43456" lon="5.70664">
        <ele>652</ele>
        <time>2016-08-09T10:00:00.000Z</time>
      </trkpt>
      <trkpt lat="45.43455" lon="5.70663">
        <ele>652</ele>
        <time>2016-08-09T10:00:01.000Z</time>
      </trkpt>
      <trkpt lat="45.43451" lon="5.70661">
        <ele>652</ele>
        <time>2016-08-09T10:00:03.000Z</time>
      </trkpt>
      <trkpt lat="45.43449" lon="5.7066">
        <ele>652</ele>
        <time>2016-08-09T10:00:04.000Z</time>
      </trkpt>
      <trkpt lat="45.43446" lon="5.70659">
        <ele>652</ele>
        <time>2016-08-09T10:00:05.000Z</time>
      </trkpt>
      <trkpt lat="45.43444" lon="5.70658">
        <ele>652</ele>
        <time>2016-08-09T10:00:06.000Z</time>
      </trkpt>
      <trkpt lat="45.4344" lon="5.70655">
        <ele>651</ele>
        <time>2016-08-09T10:00:08.000Z</time>
      </trkpt>
      <trkpt lat="45.43438" lon="5.70654">
        <ele>651</ele>
        <time>2016-08-09T10:00:09.000Z</time>
      </trkpt>
      <trkpt lat="45.43434" lon="5.70652">
        <ele>651</ele>
        <time>2016-08-09T10:00:11.000Z</time>
      </trkpt>
      <trkpt lat="45.43432" lon="5.7065">
        <ele>651</ele>
        <time>2016-08-09T10:00:12.000Z</time>
      </trkpt>
      <trkpt lat="45.43428" lon="5.70649">
        <ele>651</ele>
        <time>2016-08-09T10:00:14.000Z</time>
      </trkpt>
      <trkpt lat="45.43426" lon="5.70648">
        <ele>651</ele>
        <time>2016-08-09T10:00:15.000Z</time>
      </trkpt>
      <trkpt lat="45.43422" lon="5.70646">
        <ele>651</ele>
        <time>2016-08-09T10:00:17.000Z</time>
      </trkpt>
      <trkpt lat="45.4342" lon="5.70645">
        <ele>651</ele>
        <time>2016-08-09T10:00:18.000Z</time>
      </trkpt>
      <trkpt lat="45.43417" lon="5.70643">
        <ele>650</ele>
        <time>2016-08-09T10:00:20.000Z</time>
      </trkpt>
      <trkpt lat="45.43415" lon="5.70642">
        <ele>650</ele>
        <time>2016-08-09T10:00:21.000Z</time>
      </trkpt>
      <trkpt lat="45.43412" lon="5.7064">
        <ele>651</ele>
        <time>2016-08-09T10:00:23.000Z</time>
      </trkpt>
      <trkpt lat="45.4341" lon="5.7064">
        <ele>651</ele>
        <time>2016-08-09T10:00:24.000Z</time>
      </trkpt>
      <trkpt lat="45.43408" lon="5.70638">
        <ele>651</ele>
        <time>2016-08-09T10:00:26.000Z</time>
      </trkpt>
      <trkpt lat="45.43406" lon="5.70637">
        <ele>651</ele>
        <time>2016-08-09T10:00:27.000Z</time>
      </trkpt>
      <trkpt lat="45.43402" lon="5.70635">
        <ele>652</ele>
        <time>2016-08-09T10:00:29.000Z</time>
      </trkpt>
      <trkpt lat="45.434" lon="5.70634">
        <ele>652</ele>
        <time>2016-08-09T10:00:30.000Z</time>
      </trkpt>
      <trkpt lat="45.43397" lon="5.70631">
        <ele>652</ele>
        <time>2016-08-09T10:00:33.000Z</time>
      </trkpt>
      <trkpt lat="45.43396" lon="5.7063">
        <ele>652</ele>
        <time>2016-08-09T10:00:34.000Z</time>
      </trkpt>
      <trkpt lat="45.43393" lon="5.70627">
        <ele>652</ele>
        <time>2016-08-09T10:00:37.000Z</time>
      </trkpt>
      <trkpt lat="45.43391" lon="5.70626">
        <ele>653</ele>
        <time>2016-08-09T10:00:38.000Z</time>
      </trkpt>
      <trkpt lat="45.43389" lon="5.70624">
        <ele>653</ele>
        <time>2016-08-09T10:00:40.000Z</time>
      </trkpt>
      <trkpt lat="45.43387" lon="5.70623">
        <ele>653</ele>
        <time>2016-08-09T10:00:41.000Z</time>
      </trkpt>
      <trkpt lat="45.43384" lon="5.7062">
        <ele>653</ele>
        <time>2016-08-09T10:00:43.000Z</time>
      </trkpt>
      <trkpt lat="45.43382" lon="5.70618">
        <ele>653</ele>
        <time>2016-08-09T10:00:44.000Z</time>
      </trkpt>
      <trkpt lat="45.43379" lon="5.70615">
        <ele>653</ele>
        <time>2016-08-09T10:00:47.000Z</time>
      </trkpt>
      <trkpt lat="45.43377" lon="5.70614">
        <ele>654</ele>
        <time>2016-08-09T10:00:48.000Z</time>
      </trkpt>
      <trkpt lat="45.43374" lon="5.70612">
        <ele>654</ele>
        <time>2016-08-09T10:00:50.000Z</time>
      </trkpt>
      <trkpt lat="45.43372" lon="5.70611">
        <ele>654</ele>
        <time>2016-08-09T10:00:51.000Z</time>
      </trkpt>
      <trkpt lat="45.43368" lon="5.70609">
        <ele>654</ele>
        <time>2016-08-09T10:00:53.000Z</time>
      </trkpt>
      <trkpt lat="45.43367" lon="5.70607">
        <ele>654</ele>
        <time>2016-08-09T10:00:54.000Z</time>
      </trkpt>
      <trkpt lat="45.43364" lon="5.70604">
        <ele>654</ele>
        <time>2016-08-09T10:00:56.000Z</time>
      </trkpt>
      <trkpt lat="45.43363" lon="5.70603">
        <ele>654</ele>
        <time>2016-08-09T10:00:57.000Z</time>
      </trkpt>
      <trkpt lat="45.4336" lon="5.706">
        <ele>655</ele>
        <time>2016-08-09T10:00:59.000Z</time>
      </trkpt>
      <trkpt lat="45.43358" lon="5.70598">
        <ele>655</ele>
        <time>2016-08-09T10:01:00.000Z</time>
      </trkpt>
      <trkpt lat="45.43356" lon="5.70595">
        <ele>655</ele>
        <time>2016-08-09T10:01:02.000Z</time>
      </trkpt>
      <trkpt lat="45.43354" lon="5.70593">
        <ele>655</ele>
        <time>2016-08-09T10:01:03.000Z</time>
      </trkpt>
      <trkpt lat="45.43351" lon="5.7059">
        <ele>656</ele>
        <time>2016-08-09T10:01:05.000Z</time>
      </trkpt>
      <trkpt lat="45.43349" lon="5.70589">
        <ele>656</ele>
        <time>2016-08-09T10:01:06.000Z</time>
      </trkpt>
      <trkpt lat="45.43346" lon="5.70587">
        <ele>657</ele>
        <time>2016-08-09T10:01:08.000Z</time>
      </trkpt>
      <trkpt lat="45.43345" lon="5.70586">
        <ele>657</ele>
        <time>2016-08-09T10:01:09.000Z</time>
      </trkpt>
      <trkpt lat="45.43342" lon="5.70582">
        <ele>661</ele>
        <time>2016-08-09T10:01:12.000Z</time>
      </trkpt>
      <trkpt lat="45.43341" lon="5.7058">
        <ele>661</ele>
        <time>2016-08-09T10:01:13.000Z</time>
      </trkpt>
      <trkpt lat="45.43338" lon="5.70577">
        <ele>661</ele>
        <time>2016-08-09T10:01:15.000Z</time>
      </trkpt>
      <trkpt lat="45.43337" lon="5.70576">
        <ele>662</ele>
        <time>2016-08-09T10:01:16.000Z</time>
      </trkpt>
      <trkpt lat="45.43334" lon="5.70572">
        <ele>662</ele>
        <time>2016-08-09T10:01:19.000Z</time>
      </trkpt>
      <trkpt lat="45.43332" lon="5.7057">
        <ele>662</ele>
        <time>2016-08-09T10:01:20.000Z</time>
      </trkpt>
      <trkpt lat="45.43331" lon="5.70568">
        <ele>662</ele>
        <time>2016-08-09T10:01:21.000Z</time>
      </trkpt>
      <trkpt lat="45.43329" lon="5.70566">
        <ele>662</ele>
        <time>2016-08-09T10:01:22.000Z</time>
      </trkpt>
      <trkpt lat="45.43327" lon="5.70563">
        <ele>663</ele>
        <time>2016-08-09T10:01:23.000Z</time>
      </trkpt>
      <trkpt lat="45.43325" lon="5.70561">
        <ele>663</ele>
        <time>2016-08-09T10:01:24.000Z</time>
      </trkpt>
      <trkpt lat="45.43322" lon="5.70558">
        <ele>664</ele>
        <time>2016-08-09T10:01:26.000Z</time>
      </trkpt>
      <trkpt lat="45.4332" lon="5.70557">
        <ele>664</ele>
        <time>2016-08-09T10:01:27.000Z</time>
      </trkpt>
      <trkpt lat="45.43317" lon="5.70555">
        <ele>664</ele>
        <time>2016-08-09T10:01:29.000Z</time>
      </trkpt>
      <trkpt lat="45.43315" lon="5.70554">
        <ele>664</ele>
        <time>2016-08-09T10:01:30.000Z</time>
      </trkpt>
      <trkpt lat="45.43311" lon="5.70552">
        <ele>664</ele>
        <time>2016-08-09T10:01:33.000Z</time>
      </trkpt>
      <trkpt lat="45.4331" lon="5.70551">
        <ele>665</ele>
        <time>2016-08-09T10:01:34.000Z</time>
      </trkpt>
      <trkpt lat="45.43307" lon="5.70548">
        <ele>665</ele>
        <time>2016-08-09T10:01:36.000Z</time>
      </trkpt>
      <trkpt lat="45.43305" lon="5.70547">
        <ele>665</ele>
        <time>2016-08-09T10:01:37.000Z</time>
      </trkpt>
      <trkpt lat="45.43302" lon="5.70545">
        <ele>665</ele>
        <time>2016-08-09T10:01:38.000Z</time>
      </trkpt>
      <trkpt lat="45.433" lon="5.70544">
        <ele>665</ele>
        <time>2016-08-09T10:01:39.000Z</time>
      </trkpt>
      <trkpt lat="45.43297" lon="5.70542">
        <ele>665</ele>
        <time>2016-08-09T10:01:41.000Z</time>
      </trkpt>
      <trkpt lat="45.43295" lon="5.70541">
        <ele>665</ele>
        <time>2016-08-09T10:01:42.000Z</time>
      </trkpt>
      <trkpt lat="45.43293" lon="5.70538">
        <ele>666</ele>
        <time>2016-08-09T10:01:44.000Z</time>
      </trkpt>
      <trkpt lat="45.43291" lon="5.70537">
        <ele>666</ele>
        <time>2016-08-09T10:01:45.000Z</time>
      </trkpt>
      <trkpt lat="45.43288" lon="5.70535">
        <ele>666</ele>
        <time>2016-08-09T10:01:47.000Z</time>
      </trkpt>
      <trkpt lat="45.43287" lon="5.70534">
        <ele>666</ele>
        <time>2016-08-09T10:01:48.000Z</time>
      </trkpt>
      <trkpt lat="45.43284" lon="5.70532">
        <ele>666</ele>
        <time>2016-08-09T10:01:51.000Z</time>
      </trkpt>
      <trkpt lat="45.43283" lon="5.70531">
        <ele>666</ele>
        <time>2016-08-09T10:01:52.000Z</time>
      </trkpt>
      <trkpt lat="45.4328" lon="5.70529">
        <ele>666</ele>
        <time>2016-08-09T10:01:54.000Z</time>
      </trkpt>
      <trkpt lat="45.43278" lon="5.70528">
        <ele>666</ele>
        <time>2016-08-09T10:01:55.000Z</time>
      </trkpt>
      <trkpt lat="45.43276" lon="5.70525">
        <ele>666</ele>
        <time>2016-08-09T10:01:57.000Z</time>
      </trkpt>
      <trkpt lat="45.43275" lon="5.70524">
        <ele>666</ele>
        <time>2016-08-09T10:01:58.000Z</time>
      </trkpt>
      <trkpt lat="45.43271" lon="5.70521">
        <ele>667</ele>
        <time>2016-08-09T10:02:01.000Z</time>
      </trkpt>
      <trkpt lat="45.43269" lon="5.7052">
        <ele>667</ele>
        <time>2016-08-09T10:02:02.000Z</time>
      </trkpt>
      <trkpt lat="45.43266" lon="5.70517">
        <ele>667</ele>
        <time>2016-08-09T10:02:04.000Z</time>
      </trkpt>
      <trkpt lat="45.43265" lon="5.70516">
        <ele>667</ele>
        <time>2016-08-09T10:02:05.000Z</time>
      </trkpt>
      <trkpt lat="45.43262" lon="5.70513">
        <ele>668</ele>
        <time>2016-08-09T10:02:07.000Z</time>
      </trkpt>
      <trkpt lat="45.43261" lon="5.70511">
        <ele>668</ele>
        <time>2016-08-09T10:02:08.000Z</time>
      </trkpt>
      <trkpt lat="45.43259" lon="5.70508">
        <ele>668</ele>
        <time>2016-08-09T10:02:10.000Z</time>
      </trkpt>
      <trkpt lat="45.43257" lon="5.70507">
        <ele>669</ele>
        <time>2016-08-09T10:02:11.000Z</time>
      </trkpt>
      <trkpt lat="45.43254" lon="5.70504">
        <ele>669</ele>
        <time>2016-08-09T10:02:13.000Z</time>
      </trkpt>
      <trkpt lat="45.43253" lon="5.70503">
        <ele>669</ele>
        <time>2016-08-09T10:02:14.000Z</time>
      </trkpt>
      <trkpt lat="45.4325" lon="5.70502">
        <ele>670</ele>
        <time>2016-08-09T10:02:16.000Z</time>
      </trkpt>
      <trkpt lat="45.43249" lon="5.70501">
        <ele>670</ele>
        <time>2016-08-09T10:02:17.000Z</time>
      </trkpt>
      <trkpt lat="45.43246" lon="5.70498">
        <ele>671</ele>
        <time>2016-08-09T10:02:19.000Z</time>
      </trkpt>
      <trkpt lat="45.43244" lon="5.70496">
        <ele>671</ele>
        <time>2016-08-09T10:02:20.000Z</time>
      </trkpt>
      <trkpt lat="45.43241" lon="5.70494">
        <ele>672</ele>
        <time>2016-08-09T10:02:22.000Z</time>
      </trkpt>
      <trkpt lat="45.4324" lon="5.70492">
        <ele>672</ele>
        <time>2016-08-09T10:02:23.000Z</time>
      </trkpt>
      <trkpt lat="45.43236" lon="5.7049">
        <ele>673</ele>
        <time>2016-08-09T10:02:26.000Z</time>
      </trkpt>
      <trkpt lat="45.43235" lon="5.70488">
        <ele>673</ele>
        <time>2016-08-09T10:02:27.000Z</time>
      </trkpt>
      <trkpt lat="45.43232" lon="5.70484">
        <ele>673</ele>
        <time>2016-08-09T10:02:29.000Z</time>
      </trkpt>
      <trkpt lat="45.43231" lon="5.70483">
        <ele>674</ele>
        <time>2016-08-09T10:02:30.000Z</time>
      </trkpt>
      <trkpt lat="45.43228" lon="5.7048">
        <ele>674</ele>
        <time>2016-08-09T10:02:32.000Z</time>
      </trkpt>
      <trkpt lat="45.43227" lon="5.70478">
        <ele>674</ele>
        <time>2016-08-09T10:02:33.000Z</time>
      </trkpt>
      <trkpt lat="45.43224" lon="5.70476">
        <ele>674</ele>
        <time>2016-08-09T10:02:35.000Z</time>
      </trkpt>
      <trkpt lat="45.43222" lon="5.70474">
        <ele>674</ele>
        <time>2016-08-09T10:02:36.000Z</time>
      </trkpt>
      <trkpt lat="45.43219" lon="5.70472">
        <ele>675</ele>
        <time>2016-08-09T10:02:38.000Z</time>
      </trkpt>
      <trkpt lat="45.43217" lon="5.7047">
        <ele>675</ele>
        <time>2016-08-09T10:02:39.000Z</time>
      </trkpt>
      <trkpt lat="45.43213" lon="5.70468">
        <ele>675</ele>
        <time>2016-08-09T10:02:42.000Z</time>
      </trkpt>
      <trkpt lat="45.43212" lon="5.70469">
        <ele>675</ele>
        <time>2016-08-09T10:02:43.000Z</time>
      </trkpt>
      <trkpt lat="45.43208" lon="5.70468">
        <ele>675</ele>
        <time>2016-08-09T10:02:46.000Z</time>
      </trkpt>
      <trkpt lat="45.43207" lon="5.70467">
        <ele>675</ele>
        <time>2016-08-09T10:02:47.000Z</time>
      </trkpt>
      <trkpt lat="45.43204" lon="5.70464">
        <ele>675</ele>
        <time>2016-08-09T10:02:49.000Z</time>
      </trkpt>
      <trkpt lat="45.43203" lon="5.70462">
        <ele>675</ele>
        <time>2016-08-09T10:02:50.000Z</time>
      </trkpt>
      <trkpt lat="45.432" lon="5.70459">
        <ele>675</ele>
        <time>2016-08-09T10:02:52.000Z</time>
      </trkpt>
      <trkpt lat="45.43199" lon="5.70457">
        <ele>676</ele>
        <time>2016-08-09T10:02:53.000Z</time>
      </trkpt>
      <trkpt lat="45.43197" lon="5.70454">
        <ele>676</ele>
        <time>2016-08-09T10:02:55.000Z</time>
      </trkpt>
      <trkpt lat="45.43196" lon="5.70452">
        <ele>676</ele>
        <time>2016-08-09T10:02:56.000Z</time>
      </trkpt>
      <trkpt lat="45.43192" lon="5.7045">
        <ele>676</ele>
        <time>2016-08-09T10:02:58.000Z</time>
      </trkpt>
      <trkpt lat="45.43191" lon="5.70448">
        <ele>676</ele>
        <time>2016-08-09T10:02:59.000Z</time>
      </trkpt>
      <trkpt lat="45.43189" lon="5.70445">
        <ele>676</ele>
        <time>2016-08-09T10:03:01.000Z</time>
      </trkpt>
      <trkpt lat="45.43187" lon="5.70443">
        <ele>676</ele>
        <time>2016-08-09T10:03:02.000Z</time>
      </trkpt>
      <trkpt lat="45.43184" lon="5.70441">
        <ele>677</ele>
        <time>2016-08-09T10:03:04.000Z</time>
      </trkpt>
      <trkpt lat="45.43183" lon="5.7044">
        <ele>677</ele>
        <time>2016-08-09T10:03:05.000Z</time>
      </trkpt>
      <trkpt lat="45.4318" lon="5.70437">
        <ele>677</ele>
        <time>2016-08-09T10:03:07.000Z</time>
      </trkpt>
      <trkpt lat="45.43179" lon="5.70435">
        <ele>677</ele>
        <time>2016-08-09T10:03:08.000Z</time>
      </trkpt>
      <trkpt lat="45.43177" lon="5.7043">
        <ele>678</ele>
        <time>2016-08-09T10:03:10.000Z</time>
      </trkpt>
      <trkpt lat="45.43175" lon="5.70427">
        <ele>678</ele>
        <time>2016-08-09T10:03:11.000Z</time>
      </trkpt>
      <trkpt lat="45.43173" lon="5.70425">
        <ele>678</ele>
        <time>2016-08-09T10:03:12.000Z</time>
      </trkpt>
      <trkpt lat="45.43171" lon="5.70423">
        <ele>679</ele>
        <time>2016-08-09T10:03:13.000Z</time>
      </trkpt>
      <trkpt lat="45.43169" lon="5.70421">
        <ele>679</ele>
        <time>2016-08-09T10:03:14.000Z</time>
      </trkpt>
      <trkpt lat="45.43167" lon="5.70419">
        <ele>680</ele>
        <time>2016-08-09T10:03:15.000Z</time>
      </trkpt>
      <trkpt lat="45.43164" lon="5.70417">
        <ele>681</ele>
        <time>2016-08-09T10:03:17.000Z</time>
      </trkpt>
      <trkpt lat="45.43162" lon="5.70416">
        <ele>681</ele>
        <time>2016-08-09T10:03:18.000Z</time>
      </trkpt>
      <trkpt lat="45.43159" lon="5.70414">
        <ele>681</ele>
        <time>2016-08-09T10:03:20.000Z</time>
      </trkpt>
      <trkpt lat="45.43157" lon="5.70412">
        <ele>682</ele>
        <time>2016-08-09T10:03:21.000Z</time>
      </trkpt>
      <trkpt lat="45.43155" lon="5.7041">
        <ele>682</ele>
        <time>2016-08-09T10:03:22.000Z</time>
      </trkpt>
      <trkpt lat="45.43153" lon="5.70409">
        <ele>682</ele>
        <time>2016-08-09T10:03:23.000Z</time>
      </trkpt>
      <trkpt lat="45.43151" lon="5.70407">
        <ele>683</ele>
        <time>2016-08-09T10:03:24.000Z</time>
      </trkpt>
      <trkpt lat="45.43149" lon="5.70406">
        <ele>683</ele>
        <time>2016-08-09T10:03:25.000Z</time>
      </trkpt>
      <trkpt lat="45.43145" lon="5.70402">
        <ele>683</ele>
        <time>2016-08-09T10:03:27.000Z</time>
      </trkpt>
      <trkpt lat="45.43144" lon="5.70401">
        <ele>683</ele>
        <time>2016-08-09T10:03:28.000Z</time>
      </trkpt>
      <trkpt lat="45.43141" lon="5.70397">
        <ele>684</ele>
        <time>2016-08-09T10:03:30.000Z</time>
      </trkpt>
      <trkpt lat="45.4314" lon="5.70396">
        <ele>684</ele>
        <time>2016-08-09T10:03:31.000Z</time>
      </trkpt>
      <trkpt lat="45.43136" lon="5.70393">
        <ele>684</ele>
        <time>2016-08-09T10:03:33.000Z</time>
      </trkpt>
      <trkpt lat="45.43134" lon="5.70391">
        <ele>684</ele>
        <time>2016-08-09T10:03:34.000Z</time>
      </trkpt>
      <trkpt lat="45.43132" lon="5.70389">
        <ele>684</ele>
        <time>2016-08-09T10:03:35.000Z</time>
      </trkpt>
      <trkpt lat="45.4313" lon="5.70387">
        <ele>684</ele>
        <time>2016-08-09T10:03:36.000Z</time>
      </trkpt>
      <trkpt lat="45.43127" lon="5.70383">
        <ele>685</ele>
        <time>2016-08-09T10:03:38.000Z</time>
      </trkpt>
      <trkpt lat="45.43126" lon="5.70382">
        <ele>685</ele>
        <time>2016-08-09T10:03:39.000Z</time>
      </trkpt>
      <trkpt lat="45.43123" lon="5.70378">
        <ele>685</ele>
        <time>2016-08-09T10:03:41.000Z</time>
      </trkpt>
      <trkpt lat="45.43123" lon="5.70376">
        <ele>685</ele>
        <time>2016-08-09T10:03:42.000Z</time>
      </trkpt>
      <trkpt lat="45.4312" lon="5.70372">
        <ele>685</ele>
        <time>2016-08-09T10:03:44.000Z</time>
      </trkpt>
      <trkpt lat="45.43119" lon="5.7037">
        <ele>685</ele>
        <time>2016-08-09T10:03:45.000Z</time>
      </trkpt>
      <trkpt lat="45.43115" lon="5.70367">
        <ele>685</ele>
        <time>2016-08-09T10:03:47.000Z</time>
      </trkpt>
      <trkpt lat="45.43114" lon="5.70366">
        <ele>686</ele>
        <time>2016-08-09T10:03:48.000Z</time>
      </trkpt>
      <trkpt lat="45.43112" lon="5.70364">
        <ele>686</ele>
        <time>2016-08-09T10:03:49.000Z</time>
      </trkpt>
      <trkpt lat="45.4311" lon="5.70362">
        <ele>686</ele>
        <time>2016-08-09T10:03:50.000Z</time>
      </trkpt>
      <trkpt lat="45.43107" lon="5.7036">
        <ele>686</ele>
        <time>2016-08-09T10:03:51.000Z</time>
      </trkpt>
      <trkpt lat="45.43105" lon="5.70357">
        <ele>686</ele>
        <time>2016-08-09T10:03:52.000Z</time>
      </trkpt>
      <trkpt lat="45.43102" lon="5.70356">
        <ele>686</ele>
        <time>2016-08-09T10:03:53.000Z</time>
      </trkpt>
      <trkpt lat="45.43099" lon="5.70354">
        <ele>686</ele>
        <time>2016-08-09T10:03:54.000Z</time>
      </trkpt>
      <trkpt lat="45.43096" lon="5.70352">
        <ele>687</ele>
        <time>2016-08-09T10:03:55.000Z</time>
      </trkpt>
      <trkpt lat="45.43094" lon="5.70351">
        <ele>687</ele>
        <time>2016-08-09T10:03:56.000Z</time>
      </trkpt>
      <trkpt lat="45.43091" lon="5.70346">
        <ele>687</ele>
        <time>2016-08-09T10:03:58.000Z</time>
      </trkpt>
      <trkpt lat="45.4309" lon="5.70344">
        <ele>687</ele>
        <time>2016-08-09T10:03:59.000Z</time>
      </trkpt>
      <trkpt lat="45.43087" lon="5.7034">
        <ele>688</ele>
        <time>2016-08-09T10:04:01.000Z</time>
      </trkpt>
      <trkpt lat="45.43086" lon="5.70338">
        <ele>688</ele>
        <time>2016-08-09T10:04:02.000Z</time>
      </trkpt>
      <trkpt lat="45.43083" lon="5.70337">
        <ele>688</ele>
        <time>2016-08-09T10:04:03.000Z</time>
      </trkpt>
      <trkpt lat="45.43081" lon="5.70336">
        <ele>688</ele>
        <time>2016-08-09T10:04:04.000Z</time>
      </trkpt>
      <trkpt lat="45.43078" lon="5.70334">
        <ele>688</ele>
        <time>2016-08-09T10:04:05.000Z</time>
      </trkpt>
      <trkpt lat="45.43075" lon="5.70333">
        <ele>690</ele>
        <time>2016-08-09T10:04:06.000Z</time>
      </trkpt>
      <trkpt lat="45.43073" lon="5.70332">
        <ele>690</ele>
        <time>2016-08-09T10:04:07.000Z</time>
      </trkpt>
      <trkpt lat="45.43071" lon="5.7033">
        <ele>690</ele>
        <time>2016-08-09T10:04:08.000Z</time>
      </trkpt>
      <trkpt lat="45.43068" lon="5.70326">
        <ele>691</ele>
        <time>2016-08-09T10:04:10.000Z</time>
      </trkpt>
      <trkpt lat="45.43067" lon="5.70324">
        <ele>691</ele>
        <time>2016-08-09T10:04:11.000Z</time>
      </trkpt>
      <trkpt lat="45.43063" lon="5.70323">
        <ele>691</ele>
        <time>2016-08-09T10:04:13.000Z</time>
      </trkpt>
      <trkpt lat="45.43061" lon="5.70322">
        <ele>691</ele>
        <time>2016-08-09T10:04:14.000Z</time>
      </trkpt>
      <trkpt lat="45.43058" lon="5.7032">
        <ele>691</ele>
        <time>2016-08-09T10:04:16.000Z</time>
      </trkpt>
      <trkpt lat="45.43056" lon="5.70319">
        <ele>691</ele>
        <time>2016-08-09T10:04:17.000Z</time>
      </trkpt>
      <trkpt lat="45.43053" lon="5.70317">
        <ele>691</ele>
        <time>2016-08-09T10:04:19.000Z</time>
      </trkpt>
      <trkpt lat="45.43052" lon="5.70316">
        <ele>691</ele>
        <time>2016-08-09T10:04:20.000Z</time>
      </trkpt>
      <trkpt lat="45.4305" lon="5.70312">
        <ele>691</ele>
        <time>2016-08-09T10:04:22.000Z</time>
      </trkpt>
      <trkpt lat="45.43048" lon="5.70309">
        <ele>692</ele>
        <time>2016-08-09T10:04:23.000Z</time>
      </trkpt>
      <trkpt lat="45.43047" lon="5.70306">
        <ele>692</ele>
        <time>2016-08-09T10:04:24.000Z</time>
      </trkpt>
      <trkpt lat="45.43046" lon="5.70303">
        <ele>692</ele>
        <time>2016-08-09T10:04:25.000Z</time>
      </trkpt>
      <trkpt lat="45.43044" lon="5.703">
        <ele>692</ele>
        <time>2016-08-09T10:04:26.000Z</time>
      </trkpt>
      <trkpt lat="45.43042" lon="5.70297">
        <ele>692</ele>
        <time>2016-08-09T10:04:27.000Z</time>
      </trkpt>
      <trkpt lat="45.4304" lon="5.70295">
        <ele>692</ele>
        <time>2016-08-09T10:04:28.000Z</time>
      </trkpt>
      <trkpt lat="45.43038" lon="5.70292">
        <ele>692</ele>
        <time>2016-08-09T10:04:29.000Z</time>
      </trkpt>
      <trkpt lat="45.43036" lon="5.70289">
        <ele>692</ele>
        <time>2016-08-09T10:04:30.000Z</time>
      </trkpt>
      <trkpt lat="45.43035" lon="5.70287">
        <ele>692</ele>
        <time>2016-08-09T10:04:31.000Z</time>
      </trkpt>
      <trkpt lat="45.43032" lon="5.70282">
        <ele>693</ele>
        <time>2016-08-09T10:04:33.000Z</time>
      </trkpt>
      <trkpt lat="45.43031" lon="5.7028">
        <ele>693</ele>
        <time>2016-08-09T10:04:34.000Z</time>
      </trkpt>
      <trkpt lat="45.43028" lon="5.70275">
        <ele>693</ele>
        <time>2016-08-09T10:04:36.000Z</time>
      </trkpt>
      <trkpt lat="45.43027" lon="5.70272">
        <ele>693</ele>
        <time>2016-08-09T10:04:37.000Z</time>
      </trkpt>
      <trkpt lat="45.43026" lon="5.70269">
        <ele>693</ele>
        <time>2016-08-09T10:04:38.000Z</time>
      </trkpt>
      <trkpt lat="45.43024" lon="5.70266">
        <ele>693</ele>
        <time>2016-08-09T10:04:39.000Z</time>
      </trkpt>
      <trkpt lat="45.43022" lon="5.70264">
        <ele>693</ele>
        <time>2016-08-09T10:04:40.000Z</time>
      </trkpt>
      <trkpt lat="45.4302" lon="5.70261">
        <ele>693</ele>
        <time>2016-08-09T10:04:41.000Z</time>
      </trkpt>
      <trkpt lat="45.43018" lon="5.70259">
        <ele>694</ele>
        <time>2016-08-09T10:04:42.000Z</time>
      </trkpt>
      <trkpt lat="45.43016" lon="5.70257">
        <ele>694</ele>
        <time>2016-08-09T10:04:43.000Z</time>
      </trkpt>
      <trkpt lat="45.43013" lon="5.70255">
        <ele>694</ele>
        <time>2016-08-09T10:04:44.000Z</time>
      </trkpt>
      <trkpt lat="45.43011" lon="5.70252">
        <ele>694</ele>
        <time>2016-08-09T10:04:45.000Z</time>
      </trkpt>
      <trkpt lat="45.43009" lon="5.7025">
        <ele>696</ele>
        <time>2016-08-09T10:04:46.000Z</time>
      </trkpt>
      <trkpt lat="45.43008" lon="5.70247">
        <ele>696</ele>
        <time>2016-08-09T10:04:47.000Z</time>
      </trkpt>
      <trkpt lat="45.43006" lon="5.70244">
        <ele>696</ele>
        <time>2016-08-09T10:04:48.000Z</time>
      </trkpt>
      <trkpt lat="45.43004" lon="5.70241">
        <ele>697</ele>
        <time>2016-08-09T10:04:49.000Z</time>
      </trkpt>
      <trkpt lat="45.43003" lon="5.70238">
        <ele>697</ele>
        <time>2016-08-09T10:04:50.000Z</time>
      </trkpt>
      <trkpt lat="45.43001" lon="5.70236">
        <ele>697</ele>
        <time>2016-08-09T10:04:51.000Z</time>
      </trkpt>
      <trkpt lat="45.42998" lon="5.70232">
        <ele>695</ele>
        <time>2016-08-09T10:04:53.000Z</time>
      </trkpt>
      <trkpt lat="45.42996" lon="5.7023">
        <ele>695</ele>
        <time>2016-08-09T10:04:54.000Z</time>
      </trkpt>
      <trkpt lat="45.42995" lon="5.70227">
        <ele>696</ele>
        <time>2016-08-09T10:04:55.000Z</time>
      </trkpt>
      <trkpt lat="45.42993" lon="5.70225">
        <ele>696</ele>
        <time>2016-08-09T10:04:56.000Z</time>
      </trkpt>
      <trkpt lat="45.42991" lon="5.70222">
        <ele>696</ele>
        <time>2016-08-09T10:04:57.000Z</time>
      </trkpt>
      <trkpt lat="45.42989" lon="5.7022">
        <ele>696</ele>
        <time>2016-08-09T10:04:58.000Z</time>
      </trkpt>
      <trkpt lat="45.42987" lon="5.70216">
        <ele>696</ele>
        <time>2016-08-09T10:04:59.000Z</time>
      </trkpt>
      <trkpt lat="45.42985" lon="5.70214">
        <ele>696</ele>
        <time>2016-08-09T10:05:00.000Z</time>
      </trkpt>
      <trkpt lat="45.42982" lon="5.70209">
        <ele>696</ele>
        <time>2016-08-09T10:05:02.000Z</time>
      </trkpt>
      <trkpt lat="45.42981" lon="5.70207">
        <ele>696</ele>
        <time>2016-08-09T10:05:03.000Z</time>
      </trkpt>
      <trkpt lat="45.42979" lon="5.70205">
        <ele>696</ele>
        <time>2016-08-09T10:05:04.000Z</time>
      </trkpt>
      <trkpt lat="45.42976" lon="5.70202">
        <ele>696</ele>
        <time>2016-08-09T10:05:05.000Z</time>
      </trkpt>
      <trkpt lat="45.42974" lon="5.702">
        <ele>696</ele>
        <time>2016-08-09T10:05:06.000Z</time>
      </trkpt>
      <trkpt lat="45.42972" lon="5.70197">
        <ele>696</ele>
        <time>2016-08-09T10:05:07.000Z</time>
      </trkpt>
      <trkpt lat="45.4297" lon="5.70195">
        <ele>696</ele>
        <time>2016-08-09T10:05:08.000Z</time>
      </trkpt>
      <trkpt lat="45.42968" lon="5.70193">
        <ele>696</ele>
        <time>2016-08-09T10:05:09.000Z</time>
      </trkpt>
      <trkpt lat="45.42966" lon="5.7019">
        <ele>696</ele>
        <time>2016-08-09T10:05:11.000Z</time>
      </trkpt>
      <trkpt lat="45.42964" lon="5.70189">
        <ele>696</ele>
        <time>2016-08-09T10:05:12.000Z</time>
      </trkpt>
      <trkpt lat="45.42961" lon="5.70185">
        <ele>697</ele>
        <time>2016-08-09T10:05:14.000Z</time>
      </trkpt>
      <trkpt lat="45.4296" lon="5.70183">
        <ele>697</ele>
        <time>2016-08-09T10:05:15.000Z</time>
      </trkpt>
      <trkpt lat="45.42959" lon="5.70178">
        <ele>697</ele>
        <time>2016-08-09T10:05:17.000Z</time>
      </trkpt>
      <trkpt lat="45.42958" lon="5.70175">
        <ele>697</ele>
        <time>2016-08-09T10:05:18.000Z</time>
      </trkpt>
      <trkpt lat="45.42957" lon="5.7017">
        <ele>697</ele>
        <time>2016-08-09T10:05:20.000Z</time>
      </trkpt>
      <trkpt lat="45.42956" lon="5.70168">
        <ele>697</ele>
        <time>2016-08-09T10:05:21.000Z</time>
      </trkpt>
      <trkpt lat="45.42954" lon="5.70163">
        <ele>702</ele>
        <time>2016-08-09T10:05:24.000Z</time>
      </trkpt>
      <trkpt lat="45.42954" lon="5.70161">
        <ele>703</ele>
        <time>2016-08-09T10:05:25.000Z</time>
      </trkpt>
      <trkpt lat="45.42956" lon="5.70157">
        <ele>703</ele>
        <time>2016-08-09T10:05:29.000Z</time>
      </trkpt>
      <trkpt lat="45.42957" lon="5.70156">
        <ele>703</ele>
        <time>2016-08-09T10:05:30.000Z</time>
      </trkpt>
      <trkpt lat="45.42959" lon="5.70151">
        <ele>703</ele>
        <time>2016-08-09T10:05:33.000Z</time>
      </trkpt>
      <trkpt lat="45.4296" lon="5.7015">
        <ele>703</ele>
        <time>2016-08-09T10:05:34.000Z</time>
      </trkpt>
      <trkpt lat="45.42964" lon="5.70147">
        <ele>703</ele>
        <time>2016-08-09T10:05:39.000Z</time>
      </trkpt>
      <trkpt lat="45.42964" lon="5.70147">
        <ele>703</ele>
        <time>2016-08-09T10:05:40.000Z</time>
      </trkpt>
      <trkpt lat="45.42968" lon="5.70146">
        <ele>704</ele>
        <time>2016-08-09T10:05:46.000Z</time>
      </trkpt>
      <trkpt lat="45.4297" lon="5.70146">
        <ele>704</ele>
        <time>2016-08-09T10:05:47.000Z</time>
      </trkpt>
      <trkpt lat="45.42974" lon="5.70145">
        <ele>704</ele>
        <time>2016-08-09T10:05:49.000Z</time>
      </trkpt>
      <trkpt lat="45.42975" lon="5.70144">
        <ele>704</ele>
        <time>2016-08-09T10:05:50.000Z</time>
      </trkpt>
      <trkpt lat="45.42979" lon="5.70141">
        <ele>704</ele>
        <time>2016-08-09T10:05:52.000Z</time>
      </trkpt>
      <trkpt lat="45.4298" lon="5.7014">
        <ele>704</ele>
        <time>2016-08-09T10:05:53.000Z</time>
      </trkpt>
      <trkpt lat="45.42982" lon="5.70136">
        <ele>704</ele>
        <time>2016-08-09T10:05:55.000Z</time>
      </trkpt>
      <trkpt lat="45.42984" lon="5.70134">
        <ele>705</ele>
        <time>2016-08-09T10:05:56.000Z</time>
      </trkpt>
      <trkpt lat="45.42987" lon="5.70132">
        <ele>705</ele>
        <time>2016-08-09T10:05:58.000Z</time>
      </trkpt>
      <trkpt lat="45.42989" lon="5.70131">
        <ele>705</ele>
        <time>2016-08-09T10:05:59.000Z</time>
      </trkpt>
      <trkpt lat="45.42992" lon="5.70128">
        <ele>705</ele>
        <time>2016-08-09T10:06:01.000Z</time>
      </trkpt>
      <trkpt lat="45.42993" lon="5.70127">
        <ele>705</ele>
        <time>2016-08-09T10:06:02.000Z</time>
      </trkpt>
      <trkpt lat="45.42997" lon="5.70126">
        <ele>705</ele>
        <time>2016-08-09T10:06:05.000Z</time>
      </trkpt>
      <trkpt lat="45.42998" lon="5.70125">
        <ele>706</ele>
        <time>2016-08-09T10:06:06.000Z</time>
      </trkpt>
      <trkpt lat="45.43002" lon="5.70123">
        <ele>709</ele>
        <time>2016-08-09T10:06:13.000Z</time>
      </trkpt>
      <trkpt lat="45.43003" lon="5.70124">
        <ele>709</ele>
        <time>2016-08-09T10:06:14.000Z</time>
      </trkpt>
      <trkpt lat="45.43007" lon="5.70124">
        <ele>709</ele>
        <time>2016-08-09T10:06:16.999Z</time>
      </trkpt>
      <trkpt lat="45.43009" lon="5.70124">
        <ele>709</ele>
        <time>2016-08-09T10:06:18.000Z</time>
      </trkpt>
      <trkpt lat="45.43013" lon="5.70124">
        <ele>709</ele>
        <time>2016-08-09T10:06:21.000Z</time>
      </trkpt>
      <trkpt lat="45.43014" lon="5.70124">
        <ele>709</ele>
        <time>2016-08-09T10:06:22.000Z</time>
      </trkpt>
      <trkpt lat="45.43018" lon="5.70125">
        <ele>709</ele>
        <time>2016-08-09T10:06:24.000Z</time>
      </trkpt>
      <trkpt lat="45.43019" lon="5.70126">
        <ele>709</ele>
        <time>2016-08-09T10:06:24.999Z</time>
      </trkpt>
      <trkpt lat="45.43022" lon="5.70128">
        <ele>709</ele>
        <time>2016-08-09T10:06:27.000Z</time>
      </trkpt>
      <trkpt lat="45.43024" lon="5.70128">
        <ele>709</ele>
        <time>2016-08-09T10:06:28.000Z</time>
      </trkpt>
      <trkpt lat="45.43028" lon="5.70129">
        <ele>709</ele>
        <time>2016-08-09T10:06:30.000Z</time>
      </trkpt>
      <trkpt lat="45.4303" lon="5.70129">
        <ele>709</ele>
        <time>2016-08-09T10:06:31.000Z</time>
      </trkpt>
      <trkpt lat="45.43034" lon="5.70129">
        <ele>709</ele>
        <time>2016-08-09T10:06:33.000Z</time>
      </trkpt>
      <trkpt lat="45.43036" lon="5.7013">
        <ele>709</ele>
        <time>2016-08-09T10:06:34.000Z</time>
      </trkpt>
      <trkpt lat="45.43039" lon="5.70129">
        <ele>710</ele>
        <time>2016-08-09T10:06:35.000Z</time>
      </trkpt>
      <trkpt lat="45.43042" lon="5.70129">
        <ele>710</ele>
        <time>2016-08-09T10:06:36.000Z</time>
      </trkpt>
      <trkpt lat="45.43044" lon="5.70128">
        <ele>710</ele>
        <time>2016-08-09T10:06:37.000Z</time>
      </trkpt>
      <trkpt lat="45.43047" lon="5.70129">
        <ele>710</ele>
        <time>2016-08-09T10:06:38.000Z</time>
      </trkpt>
      <trkpt lat="45.43051" lon="5.70131">
        <ele>710</ele>
        <time>2016-08-09T10:06:40.000Z</time>
      </trkpt>
      <trkpt lat="45.43054" lon="5.70133">
        <ele>710</ele>
        <time>2016-08-09T10:06:41.000Z</time>
      </trkpt>
      <trkpt lat="45.43057" lon="5.70134">
        <ele>710</ele>
        <time>2016-08-09T10:06:42.000Z</time>
      </trkpt>
      <trkpt lat="45.4306" lon="5.70134">
        <ele>710</ele>
        <time>2016-08-09T10:06:43.000Z</time>
      </trkpt>
      <trkpt lat="45.43064" lon="5.70134">
        <ele>710</ele>
        <time>2016-08-09T10:06:44.000Z</time>
      </trkpt>
      <trkpt lat="45.43067" lon="5.70132">
        <ele>710</ele>
        <time>2016-08-09T10:06:45.000Z</time>
      </trkpt>
      <trkpt lat="45.4307" lon="5.70131">
        <ele>710</ele>
        <time>2016-08-09T10:06:46.000Z</time>
      </trkpt>
      <trkpt lat="45.43073" lon="5.7013">
        <ele>711</ele>
        <time>2016-08-09T10:06:47.000Z</time>
      </trkpt>
      <trkpt lat="45.43075" lon="5.70129">
        <ele>711</ele>
        <time>2016-08-09T10:06:48.000Z</time>
      </trkpt>
      <trkpt lat="45.43078" lon="5.70128">
        <ele>711</ele>
        <time>2016-08-09T10:06:49.000Z</time>
      </trkpt>
      <trkpt lat="45.43081" lon="5.70127">
        <ele>711</ele>
        <time>2016-08-09T10:06:50.000Z</time>
      </trkpt>
      <trkpt lat="45.43084" lon="5.70126">
        <ele>713</ele>
        <time>2016-08-09T10:06:51.000Z</time>
      </trkpt>
      <trkpt lat="45.43086" lon="5.70124">
        <ele>714</ele>
        <time>2016-08-09T10:06:52.000Z</time>
      </trkpt>
      <trkpt lat="45.43089" lon="5.70123">
        <ele>714</ele>
        <time>2016-08-09T10:06:53.000Z</time>
      </trkpt>
      <trkpt lat="45.43091" lon="5.70121">
        <ele>714</ele>
        <time>2016-08-09T10:06:54.000Z</time>
      </trkpt>
      <trkpt lat="45.43094" lon="5.70119">
        <ele>714</ele>
        <time>2016-08-09T10:06:55.000Z</time>
      </trkpt>
      <trkpt lat="45.43096" lon="5.70117">
        <ele>714</ele>
        <time>2016-08-09T10:06:56.000Z</time>
      </trkpt>
      <trkpt lat="45.43099" lon="5.70115">
        <ele>714</ele>
        <time>2016-08-09T10:06:57.000Z</time>
      </trkpt>
      <trkpt lat="45.43101" lon="5.70112">
        <ele>715</ele>
        <time>2016-08-09T10:06:58.000Z</time>
      </trkpt>
      <trkpt lat="45.43103" lon="5.7011">
        <ele>715</ele>
        <time>2016-08-09T10:06:59.000Z</time>
      </trkpt>
      <trkpt lat="45.43105" lon="5.70108">
        <ele>715</ele>
        <time>2016-08-09T10:07:01.000Z</time>
      </trkpt>
      <trkpt lat="45.43107" lon="5.70107">
        <ele>715</ele>
        <time>2016-08-09T10:07:02.000Z</time>
      </trkpt>
      <trkpt lat="45.4311" lon="5.70106">
        <ele>715</ele>
        <time>2016-08-09T10:07:04.000Z</time>
      </trkpt>
      <trkpt lat="45.43111" lon="5.70105">
        <ele>715</ele>
        <time>2016-08-09T10:07:05.000Z</time>
      </trkpt>
      <trkpt lat="45.43115" lon="5.70103">
        <ele>715</ele>
        <time>2016-08-09T10:07:08.000Z</time>
      </trkpt>
      <trkpt lat="45.43116" lon="5.70102">
        <ele>715</ele>
        <time>2016-08-09T10:07:09.000Z</time>
      </trkpt>
      <trkpt lat="45.43118" lon="5.701">
        <ele>715</ele>
        <time>2016-08-09T10:07:11.000Z</time>
      </trkpt>
      <trkpt lat="45.4312" lon="5.70099">
        <ele>715</ele>
        <time>2016-08-09T10:07:12.000Z</time>
      </trkpt>
      <trkpt lat="45.43122" lon="5.70097">
        <ele>715</ele>
        <time>2016-08-09T10:07:13.000Z</time>
      </trkpt>
      <trkpt lat="45.43124" lon="5.70094">
        <ele>716</ele>
        <time>2016-08-09T10:07:14.000Z</time>
      </trkpt>
      <trkpt lat="45.43126" lon="5.70092">
        <ele>716</ele>
        <time>2016-08-09T10:07:15.000Z</time>
      </trkpt>
      <trkpt lat="45.43128" lon="5.7009">
        <ele>716</ele>
        <time>2016-08-09T10:07:16.000Z</time>
      </trkpt>
      <trkpt lat="45.43132" lon="5.70087">
        <ele>716</ele>
        <time>2016-08-09T10:07:18.000Z</time>
      </trkpt>
      <trkpt lat="45.43133" lon="5.70087">
        <ele>716</ele>
        <time>2016-08-09T10:07:19.000Z</time>
      </trkpt>
      <trkpt lat="45.43138" lon="5.70087">
        <ele>716</ele>
        <time>2016-08-09T10:07:23.000Z</time>
      </trkpt>
      <trkpt lat="45.43139" lon="5.70086">
        <ele>716</ele>
        <time>2016-08-09T10:07:24.000Z</time>
      </trkpt>
      <trkpt lat="45.43142" lon="5.70086">
        <ele>716</ele>
        <time>2016-08-09T10:07:27.000Z</time>
      </trkpt>
      <trkpt lat="45.43143" lon="5.70086">
        <ele>717</ele>
        <time>2016-08-09T10:07:28.000Z</time>
      </trkpt>
      <trkpt lat="45.43146" lon="5.70086">
        <ele>717</ele>
        <time>2016-08-09T10:07:29.000Z</time>
      </trkpt>
      <trkpt lat="45.43149" lon="5.70086">
        <ele>717</ele>
        <time>2016-08-09T10:07:30.000Z</time>
      </trkpt>
      <trkpt lat="45.43152" lon="5.70087">
        <ele>717</ele>
        <time>2016-08-09T10:07:31.000Z</time>
      </trkpt>
      <trkpt lat="45.43156" lon="5.70088">
        <ele>718</ele>
        <time>2016-08-09T10:07:32.000Z</time>
      </trkpt>
      <trkpt lat="45.43159" lon="5.70089">
        <ele>718</ele>
        <time>2016-08-09T10:07:33.000Z</time>
      </trkpt>
      <trkpt lat="45.43162" lon="5.7009">
        <ele>718</ele>
        <time>2016-08-09T10:07:34.000Z</time>
      </trkpt>
      <trkpt lat="45.43164" lon="5.7009">
        <ele>718</ele>
        <time>2016-08-09T10:07:35.000Z</time>
      </trkpt>
      <trkpt lat="45.43166" lon="5.70091">
        <ele>718</ele>
        <time>2016-08-09T10:07:36.000Z</time>
      </trkpt>
      <trkpt lat="45.43169" lon="5.70091">
        <ele>719</ele>
        <time>2016-08-09T10:07:37.000Z</time>
      </trkpt>
      <trkpt lat="45.43171" lon="5.70091">
        <ele>719</ele>
        <time>2016-08-09T10:07:38.000Z</time>
      </trkpt>
      <trkpt lat="45.43174" lon="5.70091">
        <ele>719</ele>
        <time>2016-08-09T10:07:39.000Z</time>
      </trkpt>
      <trkpt lat="45.43177" lon="5.7009">
        <ele>718</ele>
        <time>2016-08-09T10:07:40.000Z</time>
      </trkpt>
      <trkpt lat="45.4318" lon="5.7009">
        <ele>718</ele>
        <time>2016-08-09T10:07:41.000Z</time>
      </trkpt>
      <trkpt lat="45.43182" lon="5.7009">
        <ele>718</ele>
        <time>2016-08-09T10:07:42.000Z</time>
      </trkpt>
      <trkpt lat="45.43185" lon="5.70089">
        <ele>718</ele>
        <time>2016-08-09T10:07:43.000Z</time>
      </trkpt>
      <trkpt lat="45.43187" lon="5.7009">
        <ele>718</ele>
        <time>2016-08-09T10:07:44.000Z</time>
      </trkpt>
      <trkpt lat="45.4319" lon="5.70091">
        <ele>718</ele>
        <time>2016-08-09T10:07:45.000Z</time>
      </trkpt>
      <trkpt lat="45.43192" lon="5.70093">
        <ele>718</ele>
        <time>2016-08-09T10:07:46.000Z</time>
      </trkpt>
      <trkpt lat="45.43194" lon="5.70095">
        <ele>717</ele>
        <time>2016-08-09T10:07:47.000Z</time>
      </trkpt>
      <trkpt lat="45.43196" lon="5.70097">
        <ele>717</ele>
        <time>2016-08-09T10:07:48.000Z</time>
      </trkpt>
      <trkpt lat="45.43198" lon="5.70099">
        <ele>717</ele>
        <time>2016-08-09T10:07:49.000Z</time>
      </trkpt>
      <trkpt lat="45.432" lon="5.701">
        <ele>717</ele>
        <time>2016-08-09T10:07:50.000Z</time>
      </trkpt>
      <trkpt lat="45.43203" lon="5.70101">
        <ele>717</ele>
        <time>2016-08-09T10:07:51.000Z</time>
      </trkpt>
      <trkpt lat="45.43206" lon="5.70103">
        <ele>717</ele>
        <time>2016-08-09T10:07:52.000Z</time>
      </trkpt>
      <trkpt lat="45.43209" lon="5.70104">
        <ele>717</ele>
        <time>2016-08-09T10:07:53.000Z</time>
      </trkpt>
      <trkpt lat="45.43212" lon="5.70105">
        <ele>717</ele>
        <time>2016-08-09T10:07:54.000Z</time>
      </trkpt>
      <trkpt lat="45.43216" lon="5.70107">
        <ele>717</ele>
        <time>2016-08-09T10:07:56.000Z</time>
      </trkpt>
      <trkpt lat="45.43218" lon="5.70106">
        <ele>717</ele>
        <time>2016-08-09T10:07:57.000Z</time>
      </trkpt>
      <trkpt lat="45.43222" lon="5.70105">
        <ele>717</ele>
        <time>2016-08-09T10:08:00.000Z</time>
      </trkpt>
      <trkpt lat="45.43224" lon="5.70106">
        <ele>717</ele>
        <time>2016-08-09T10:08:01.000Z</time>
      </trkpt>
      <trkpt lat="45.43226" lon="5.70107">
        <ele>717</ele>
        <time>2016-08-09T10:08:03.000Z</time>
      </trkpt>
      <trkpt lat="45.43228" lon="5.70107">
        <ele>717</ele>
        <time>2016-08-09T10:08:04.000Z</time>
      </trkpt>
      <trkpt lat="45.43231" lon="5.70107">
        <ele>718</ele>
        <time>2016-08-09T10:08:06.000Z</time>
      </trkpt>
      <trkpt lat="45.43234" lon="5.70106">
        <ele>718</ele>
        <time>2016-08-09T10:08:07.000Z</time>
      </trkpt>
      <trkpt lat="45.43236" lon="5.70106">
        <ele>718</ele>
        <time>2016-08-09T10:08:08.000Z</time>
      </trkpt>
      <trkpt lat="45.43238" lon="5.70107">
        <ele>718</ele>
        <time>2016-08-09T10:08:09.000Z</time>
      </trkpt>
      <trkpt lat="45.43242" lon="5.70109">
        <ele>718</ele>
        <time>2016-08-09T10:08:12.000Z</time>
      </trkpt>
      <trkpt lat="45.43244" lon="5.70108">
        <ele>718</ele>
        <time>2016-08-09T10:08:13.000Z</time>
      </trkpt>
      <trkpt lat="45.43246" lon="5.70106">
        <ele>718</ele>
        <time>2016-08-09T10:08:14.000Z</time>
      </trkpt>
      <trkpt lat="45.43248" lon="5.70103">
        <ele>718</ele>
        <time>2016-08-09T10:08:15.000Z</time>
      </trkpt>
      <trkpt lat="45.4325" lon="5.701">
        <ele>719</ele>
        <time>2016-08-09T10:08:16.000Z</time>
      </trkpt>
      <trkpt lat="45.43252" lon="5.70096">
        <ele>720</ele>
        <time>2016-08-09T10:08:17.000Z</time>
      </trkpt>
      <trkpt lat="45.43254" lon="5.70094">
        <ele>720</ele>
        <time>2016-08-09T10:08:18.000Z</time>
      </trkpt>
      <trkpt lat="45.43256" lon="5.70092">
        <ele>720</ele>
        <time>2016-08-09T10:08:19.000Z</time>
      </trkpt>
      <trkpt lat="45.43258" lon="5.70089">
        <ele>720</ele>
        <time>2016-08-09T10:08:20.000Z</time>
      </trkpt>
      <trkpt lat="45.43259" lon="5.70086">
        <ele>720</ele>
        <time>2016-08-09T10:08:21.000Z</time>
      </trkpt>
      <trkpt lat="45.43261" lon="5.70084">
        <ele>720</ele>
        <time>2016-08-09T10:08:22.000Z</time>
      </trkpt>
      <trkpt lat="45.43262" lon="5.70081">
        <ele>723</ele>
        <time>2016-08-09T10:08:23.000Z</time>
      </trkpt>
      <trkpt lat="45.43264" lon="5.70079">
        <ele>724</ele>
        <time>2016-08-09T10:08:24.000Z</time>
      </trkpt>
      <trkpt lat="45.43266" lon="5.70077">
        <ele>724</ele>
        <time>2016-08-09T10:08:25.000Z</time>
      </trkpt>
      <trkpt lat="45.43269" lon="5.70073">
        <ele>724</ele>
        <time>2016-08-09T10:08:29.000Z</time>
      </trkpt>
      <trkpt lat="45.43269" lon="5.70071">
        <ele>724</ele>
        <time>2016-08-09T10:08:30.000Z</time>
      </trkpt>
      <trkpt lat="45.43271" lon="5.70066">
        <ele>725</ele>
        <time>2016-08-09T10:08:39.000Z</time>
      </trkpt>
      <trkpt lat="45.43271" lon="5.70065">
        <ele>725</ele>
        <time>2016-08-09T10:08:40.000Z</time>
      </trkpt>
      <trkpt lat="45.43271" lon="5.7006">
        <ele>725</ele>
        <time>2016-08-09T10:08:48.000Z</time>
      </trkpt>
      <trkpt lat="45.43271" lon="5.70058">
        <ele>725</ele>
        <time>2016-08-09T10:08:49.000Z</time>
      </trkpt>
      <trkpt lat="45.43269" lon="5.70054">
        <ele>726</ele>
        <time>2016-08-09T10:08:51.000Z</time>
      </trkpt>
      <trkpt lat="45.43267" lon="5.70051">
        <ele>726</ele>
        <time>2016-08-09T10:08:52.000Z</time>
      </trkpt>
      <trkpt lat="45.43265" lon="5.70046">
        <ele>726</ele>
        <time>2016-08-09T10:08:54.000Z</time>
      </trkpt>
      <trkpt lat="45.43265" lon="5.70043">
        <ele>726</ele>
        <time>2016-08-09T10:08:55.000Z</time>
      </trkpt>
      <trkpt lat="45.43264" lon="5.70037">
        <ele>727</ele>
        <time>2016-08-09T10:08:57.000Z</time>
      </trkpt>
      <trkpt lat="45.43264" lon="5.70035">
        <ele>727</ele>
        <time>2016-08-09T10:08:58.000Z</time>
      </trkpt>
      <trkpt lat="45.43265" lon="5.7003">
        <ele>727</ele>
        <time>2016-08-09T10:09:01.000Z</time>
      </trkpt>
      <trkpt lat="45.43265" lon="5.70028">
        <ele>728</ele>
        <time>2016-08-09T10:09:02.000Z</time>
      </trkpt>
      <trkpt lat="45.43265" lon="5.70023">
        <ele>728</ele>
        <time>2016-08-09T10:09:04.000Z</time>
      </trkpt>
      <trkpt lat="45.43266" lon="5.7002">
        <ele>728</ele>
        <time>2016-08-09T10:09:05.000Z</time>
      </trkpt>
      <trkpt lat="45.43267" lon="5.70015">
        <ele>728</ele>
        <time>2016-08-09T10:09:07.000Z</time>
      </trkpt>
      <trkpt lat="45.43267" lon="5.70014">
        <ele>728</ele>
        <time>2016-08-09T10:09:08.000Z</time>
      </trkpt>
      <trkpt lat="45.43269" lon="5.70008">
        <ele>729</ele>
        <time>2016-08-09T10:09:11.000Z</time>
      </trkpt>
      <trkpt lat="45.43269" lon="5.70005">
        <ele>729</ele>
        <time>2016-08-09T10:09:12.000Z</time>
      </trkpt>
      <trkpt lat="45.43269" lon="5.7">
        <ele>734</ele>
        <time>2016-08-09T10:09:14.000Z</time>
      </trkpt>
      <trkpt lat="45.4327" lon="5.69997">
        <ele>734</ele>
        <time>2016-08-09T10:09:15.000Z</time>
      </trkpt>
      <trkpt lat="45.4327" lon="5.69993">
        <ele>734</ele>
        <time>2016-08-09T10:09:17.000Z</time>
      </trkpt>
      <trkpt lat="45.4327" lon="5.6999">
        <ele>734</ele>
        <time>2016-08-09T10:09:18.000Z</time>
      </trkpt>
      <trkpt lat="45.4327" lon="5.69984">
        <ele>735</ele>
        <time>2016-08-09T10:09:22.000Z</time>
      </trkpt>
      <trkpt lat="45.4327" lon="5.69983">
        <ele>735</ele>
        <time>2016-08-09T10:09:23.000Z</time>
      </trkpt>
      <trkpt lat="45.43271" lon="5.69979">
        <ele>735</ele>
        <time>2016-08-09T10:09:26.000Z</time>
      </trkpt>
      <trkpt lat="45.43272" lon="5.69976">
        <ele>736</ele>
        <time>2016-08-09T10:09:27.000Z</time>
      </trkpt>
      <trkpt lat="45.43273" lon="5.6997">
        <ele>736</ele>
        <time>2016-08-09T10:09:29.000Z</time>
      </trkpt>
      <trkpt lat="45.43273" lon="5.69969">
        <ele>736</ele>
        <time>2016-08-09T10:09:30.000Z</time>
      </trkpt>
      <trkpt lat="45.43276" lon="5.69964">
        <ele>737</ele>
        <time>2016-08-09T10:09:34.000Z</time>
      </trkpt>
      <trkpt lat="45.43276" lon="5.69962">
        <ele>737</ele>
        <time>2016-08-09T10:09:35.000Z</time>
      </trkpt>
      <trkpt lat="45.43278" lon="5.69958">
        <ele>737</ele>
        <time>2016-08-09T10:09:37.000Z</time>
      </trkpt>
      <trkpt lat="45.43278" lon="5.69956">
        <ele>737</ele>
        <time>2016-08-09T10:09:38.000Z</time>
      </trkpt>
      <trkpt lat="45.43279" lon="5.69951">
        <ele>738</ele>
        <time>2016-08-09T10:09:41.000Z</time>
      </trkpt>
      <trkpt lat="45.43279" lon="5.6995">
        <ele>738</ele>
        <time>2016-08-09T10:09:42.000Z</time>
      </trkpt>
      <trkpt lat="45.43279" lon="5.69943">
        <ele>738</ele>
        <time>2016-08-09T10:09:45.000Z</time>
      </trkpt>
      <trkpt lat="45.43279" lon="5.69941">
        <ele>738</ele>
        <time>2016-08-09T10:09:46.000Z</time>
      </trkpt>
      <trkpt lat="45.4328" lon="5.69935">
        <ele>739</ele>
        <time>2016-08-09T10:09:49.000Z</time>
      </trkpt>
      <trkpt lat="45.4328" lon="5.69934">
        <ele>739</ele>
        <time>2016-08-09T10:09:50.000Z</time>
      </trkpt>
      <trkpt lat="45.43281" lon="5.69928">
        <ele>739</ele>
        <time>2016-08-09T10:09:57.000Z</time>
      </trkpt>
      <trkpt lat="45.43281" lon="5.69927">
        <ele>739</ele>
        <time>2016-08-09T10:09:58.000Z</time>
      </trkpt>
      <trkpt lat="45.43281" lon="5.69922">
        <ele>739</ele>
        <time>2016-08-09T10:10:01.000Z</time>
      </trkpt>
      <trkpt lat="45.43282" lon="5.69919">
        <ele>739</ele>
        <time>2016-08-09T10:10:02.000Z</time>
      </trkpt>
      <trkpt lat="45.43283" lon="5.69914">
        <ele>746</ele>
        <time>2016-08-09T10:10:05.000Z</time>
      </trkpt>
      <trkpt lat="45.43283" lon="5.69912">
        <ele>746</ele>
        <time>2016-08-09T10:10:06.000Z</time>
      </trkpt>
      <trkpt lat="45.43283" lon="5.69905">
        <ele>747</ele>
        <time>2016-08-09T10:10:14.000Z</time>
      </trkpt>
      <trkpt lat="45.43283" lon="5.69905">
        <ele>747</ele>
        <time>2016-08-09T10:10:15.000Z</time>
      </trkpt>
      <trkpt lat="45.43285" lon="5.69901">
        <ele>747</ele>
        <time>2016-08-09T10:10:21.000Z</time>
      </trkpt>
      <trkpt lat="45.43286" lon="5.69899">
        <ele>747</ele>
        <time>2016-08-09T10:10:22.000Z</time>
      </trkpt>
      <trkpt lat="45.43286" lon="5.69895">
        <ele>748</ele>
        <time>2016-08-09T10:10:24.000Z</time>
      </trkpt>
      <trkpt lat="45.43286" lon="5.69893">
        <ele>748</ele>
        <time>2016-08-09T10:10:25.000Z</time>
      </trkpt>
      <trkpt lat="45.43286" lon="5.69887">
        <ele>748</ele>
        <time>2016-08-09T10:10:27.000Z</time>
      </trkpt>
      <trkpt lat="45.43285" lon="5.69884">
        <ele>748</ele>
        <time>2016-08-09T10:10:28.000Z</time>
      </trkpt>
      <trkpt lat="45.43285" lon="5.69878">
        <ele>749</ele>
        <time>2016-08-09T10:10:30.000Z</time>
      </trkpt>
      <trkpt lat="45.43285" lon="5.69875">
        <ele>749</ele>
        <time>2016-08-09T10:10:31.000Z</time>
      </trkpt>
      <trkpt lat="45.43285" lon="5.6987">
        <ele>749</ele>
        <time>2016-08-09T10:10:33.000Z</time>
      </trkpt>
      <trkpt lat="45.43285" lon="5.69867">
        <ele>749</ele>
        <time>2016-08-09T10:10:34.000Z</time>
      </trkpt>
      <trkpt lat="45.43285" lon="5.69862">
        <ele>750</ele>
        <time>2016-08-09T10:10:37.000Z</time>
      </trkpt>
      <trkpt lat="45.43285" lon="5.6986">
        <ele>750</ele>
        <time>2016-08-09T10:10:38.000Z</time>
      </trkpt>
      <trkpt lat="45.43287" lon="5.69854">
        <ele>750</ele>
        <time>2016-08-09T10:11:00.000Z</time>
      </trkpt>
      <trkpt lat="45.43287" lon="5.69852">
        <ele>750</ele>
        <time>2016-08-09T10:11:01.000Z</time>
      </trkpt>
      <trkpt lat="45.43285" lon="5.69847">
        <ele>751</ele>
        <time>2016-08-09T10:11:04.000Z</time>
      </trkpt>
      <trkpt lat="45.43285" lon="5.69844">
        <ele>751</ele>
        <time>2016-08-09T10:11:05.000Z</time>
      </trkpt>
      <trkpt lat="45.43286" lon="5.69839">
        <ele>751</ele>
        <time>2016-08-09T10:11:07.000Z</time>
      </trkpt>
      <trkpt lat="45.43286" lon="5.69836">
        <ele>751</ele>
        <time>2016-08-09T10:11:08.000Z</time>
      </trkpt>
      <trkpt lat="45.43287" lon="5.69831">
        <ele>757</ele>
        <time>2016-08-09T10:11:10.000Z</time>
      </trkpt>
      <trkpt lat="45.43288" lon="5.69829">
        <ele>757</ele>
        <time>2016-08-09T10:11:11.000Z</time>
      </trkpt>
      <trkpt lat="45.43289" lon="5.69824">
        <ele>757</ele>
        <time>2016-08-09T10:11:13.000Z</time>
      </trkpt>
      <trkpt lat="45.4329" lon="5.69822">
        <ele>757</ele>
        <time>2016-08-09T10:11:14.000Z</time>
      </trkpt>
      <trkpt lat="45.43293" lon="5.69818">
        <ele>758</ele>
        <time>2016-08-09T10:11:17.000Z</time>
      </trkpt>
      <trkpt lat="45.43294" lon="5.69817">
        <ele>758</ele>
        <time>2016-08-09T10:11:18.000Z</time>
      </trkpt>
      <trkpt lat="45.43297" lon="5.69813">
        <ele>758</ele>
        <time>2016-08-09T10:11:22.000Z</time>
      </trkpt>
      <trkpt lat="45.43298" lon="5.69813">
        <ele>758</ele>
        <time>2016-08-09T10:11:23.000Z</time>
      </trkpt>
      <trkpt lat="45.43301" lon="5.69809">
        <ele>758</ele>
        <time>2016-08-09T10:11:28.000Z</time>
      </trkpt>
      <trkpt lat="45.43302" lon="5.69809">
        <ele>758</ele>
        <time>2016-08-09T10:11:29.000Z</time>
      </trkpt>
      <trkpt lat="45.43305" lon="5.6981">
        <ele>758</ele>
        <time>2016-08-09T10:11:33.000Z</time>
      </trkpt>
      <trkpt lat="45.43306" lon="5.69811">
        <ele>758</ele>
        <time>2016-08-09T10:11:34.000Z</time>
      </trkpt>
      <trkpt lat="45.43309" lon="5.69815">
        <ele>758</ele>
        <time>2016-08-09T10:11:42.000Z</time>
      </trkpt>
      <trkpt lat="45.43309" lon="5.69815">
        <ele>758</ele>
        <time>2016-08-09T10:11:43.000Z</time>
      </trkpt>
      <trkpt lat="45.43312" lon="5.69819">
        <ele>758</ele>
        <time>2016-08-09T10:11:47.000Z</time>
      </trkpt>
      <trkpt lat="45.43313" lon="5.6982">
        <ele>758</ele>
        <time>2016-08-09T10:11:48.000Z</time>
      </trkpt>
      <trkpt lat="45.43315" lon="5.69824">
        <ele>758</ele>
        <time>2016-08-09T10:11:50.000Z</time>
      </trkpt>
      <trkpt lat="45.43316" lon="5.69826">
        <ele>758</ele>
        <time>2016-08-09T10:11:51.000Z</time>
      </trkpt>
      <trkpt lat="45.43317" lon="5.6983">
        <ele>758</ele>
        <time>2016-08-09T10:11:52.000Z</time>
      </trkpt>
      <trkpt lat="45.4332" lon="5.69834">
        <ele>755</ele>
        <time>2016-08-09T10:11:53.000Z</time>
      </trkpt>
      <trkpt lat="45.43322" lon="5.69838">
        <ele>755</ele>
        <time>2016-08-09T10:11:54.000Z</time>
      </trkpt>
      <trkpt lat="45.43325" lon="5.69842">
        <ele>755</ele>
        <time>2016-08-09T10:11:55.000Z</time>
      </trkpt>
      <trkpt lat="45.43328" lon="5.69845">
        <ele>754</ele>
        <time>2016-08-09T10:11:56.000Z</time>
      </trkpt>
      <trkpt lat="45.43331" lon="5.69849">
        <ele>754</ele>
        <time>2016-08-09T10:11:57.000Z</time>
      </trkpt>
      <trkpt lat="45.43335" lon="5.69852">
        <ele>758</ele>
        <time>2016-08-09T10:11:58.000Z</time>
      </trkpt>
      <trkpt lat="45.43339" lon="5.69856">
        <ele>758</ele>
        <time>2016-08-09T10:11:59.000Z</time>
      </trkpt>
      <trkpt lat="45.43343" lon="5.69859">
        <ele>757</ele>
        <time>2016-08-09T10:12:00.000Z</time>
      </trkpt>
      <trkpt lat="45.43347" lon="5.69862">
        <ele>757</ele>
        <time>2016-08-09T10:12:01.000Z</time>
      </trkpt>
      <trkpt lat="45.43349" lon="5.69864">
        <ele>757</ele>
        <time>2016-08-09T10:12:02.000Z</time>
      </trkpt>
      <trkpt lat="45.43351" lon="5.69867">
        <ele>757</ele>
        <time>2016-08-09T10:12:03.000Z</time>
      </trkpt>
      <trkpt lat="45.43352" lon="5.6987">
        <ele>757</ele>
        <time>2016-08-09T10:12:04.000Z</time>
      </trkpt>
      <trkpt lat="45.43352" lon="5.69873">
        <ele>757</ele>
        <time>2016-08-09T10:12:05.000Z</time>
      </trkpt>
      <trkpt lat="45.43354" lon="5.69876">
        <ele>757</ele>
        <time>2016-08-09T10:12:06.000Z</time>
      </trkpt>
      <trkpt lat="45.43356" lon="5.69879">
        <ele>757</ele>
        <time>2016-08-09T10:12:07.000Z</time>
      </trkpt>
      <trkpt lat="45.43357" lon="5.69882">
        <ele>756</ele>
        <time>2016-08-09T10:12:08.000Z</time>
      </trkpt>
      <trkpt lat="45.43359" lon="5.69885">
        <ele>756</ele>
        <time>2016-08-09T10:12:09.000Z</time>
      </trkpt>
      <trkpt lat="45.4336" lon="5.69889">
        <ele>756</ele>
        <time>2016-08-09T10:12:10.000Z</time>
      </trkpt>
      <trkpt lat="45.43363" lon="5.69894">
        <ele>756</ele>
        <time>2016-08-09T10:12:11.000Z</time>
      </trkpt>
      <trkpt lat="45.43365" lon="5.69899">
        <ele>756</ele>
        <time>2016-08-09T10:12:12.000Z</time>
      </trkpt>
      <trkpt lat="45.43367" lon="5.69904">
        <ele>756</ele>
        <time>2016-08-09T10:12:13.000Z</time>
      </trkpt>
      <trkpt lat="45.43369" lon="5.6991">
        <ele>756</ele>
        <time>2016-08-09T10:12:14.000Z</time>
      </trkpt>
      <trkpt lat="45.43371" lon="5.69916">
        <ele>756</ele>
        <time>2016-08-09T10:12:15.000Z</time>
      </trkpt>
      <trkpt lat="45.43374" lon="5.69923">
        <ele>748</ele>
        <time>2016-08-09T10:12:16.000Z</time>
      </trkpt>
      <trkpt lat="45.43394" lon="5.69946">
        <ele>748</ele>
        <time>2016-08-09T10:12:17.000Z</time>
      </trkpt>
      <trkpt lat="45.43407" lon="5.69949">
        <ele>748</ele>
        <time>2016-08-09T10:12:18.000Z</time>
      </trkpt>
      <trkpt lat="45.43413" lon="5.69953">
        <ele>748</ele>
        <time>2016-08-09T10:12:19.000Z</time>
      </trkpt>
      <trkpt lat="45.43424" lon="5.69956">
        <ele>752</ele>
        <time>2016-08-09T10:12:20.000Z</time>
      </trkpt>
      <trkpt lat="45.43432" lon="5.69952">
        <ele>752</ele>
        <time>2016-08-09T10:12:21.000Z</time>
      </trkpt>
      <trkpt lat="45.43438" lon="5.69954">
        <ele>752</ele>
        <time>2016-08-09T10:12:22.000Z</time>
      </trkpt>
      <trkpt lat="45.43447" lon="5.69955">
        <ele>752</ele>
        <time>2016-08-09T10:12:23.000Z</time>
      </trkpt>
      <trkpt lat="45.43458" lon="5.69959">
        <ele>752</ele>
        <time>2016-08-09T10:12:24.000Z</time>
      </trkpt>
      <trkpt lat="45.43465" lon="5.69956">
        <ele>753</ele>
        <time>2016-08-09T10:12:25.000Z</time>
      </trkpt>
      <trkpt lat="45.43471" lon="5.69956">
        <ele>753</ele>
        <time>2016-08-09T10:12:26.000Z</time>
      </trkpt>
      <trkpt lat="45.43477" lon="5.69956">
        <ele>753</ele>
        <time>2016-08-09T10:12:27.000Z</time>
      </trkpt>
      <trkpt lat="45.43481" lon="5.69955">
        <ele>753</ele>
        <time>2016-08-09T10:12:28.000Z</time>
      </trkpt>
      <trkpt lat="45.43486" lon="5.69955">
        <ele>754</ele>
        <time>2016-08-09T10:12:29.000Z</time>
      </trkpt>
      <trkpt lat="45.43488" lon="5.69955">
        <ele>754</ele>
        <time>2016-08-09T10:12:30.000Z</time>
      </trkpt>
      <trkpt lat="45.43492" lon="5.69957">
        <ele>753</ele>
        <time>2016-08-09T10:12:31.000Z</time>
      </trkpt>
      <trkpt lat="45.43494" lon="5.69959">
        <ele>753</ele>
        <time>2016-08-09T10:12:32.000Z</time>
      </trkpt>
      <trkpt lat="45.43499" lon="5.69962">
        <ele>753</ele>
        <time>2016-08-09T10:12:33.000Z</time>
      </trkpt>
      <trkpt lat="45.43504" lon="5.69961">
        <ele>755</ele>
        <time>2016-08-09T10:12:34.000Z</time>
      </trkpt>
      <trkpt lat="45.43509" lon="5.69962">
        <ele>755</ele>
        <time>2016-08-09T10:12:35.000Z</time>
      </trkpt>
      <trkpt lat="45.43513" lon="5.69962">
        <ele>755</ele>
        <time>2016-08-09T10:12:36.000Z</time>
      </trkpt>
      <trkpt lat="45.43518" lon="5.69963">
        <ele>755</ele>
        <time>2016-08-09T10:12:37.000Z</time>
      </trkpt>
      <trkpt lat="45.43523" lon="5.69964">
        <ele>755</ele>
        <time>2016-08-09T10:12:38.000Z</time>
      </trkpt>
      <trkpt lat="45.43528" lon="5.69966">
        <ele>755</ele>
        <time>2016-08-09T10:12:39.000Z</time>
      </trkpt>
      <trkpt lat="45.43533" lon="5.69968">
        <ele>755</ele>
        <time>2016-08-09T10:12:40.000Z</time>
      </trkpt>
      <trkpt lat="45.43537" lon="5.69971">
        <ele>755</ele>
        <time>2016-08-09T10:12:41.000Z</time>
      </trkpt>
      <trkpt lat="45.43541" lon="5.69973">
        <ele>755</ele>
        <time>2016-08-09T10:12:42.000Z</time>
      </trkpt>
      <trkpt lat="45.43545" lon="5.69974">
        <ele>755</ele>
        <time>2016-08-09T10:12:43.000Z</time>
      </trkpt>
      <trkpt lat="45.43549" lon="5.69975">
        <ele>755</ele>
        <time>2016-08-09T10:12:44.000Z</time>
      </trkpt>
      <trkpt lat="45.43552" lon="5.69975">
        <ele>755</ele>
        <time>2016-08-09T10:12:45.000Z</time>
      </trkpt>
      <trkpt lat="45.43555" lon="5.69975">
        <ele>755</ele>
        <time>2016-08-09T10:12:46.000Z</time>
      </trkpt>
      <trkpt lat="45.43558" lon="5.69975">
        <ele>755</ele>
        <time>2016-08-09T10:12:47.000Z</time>
      </trkpt>
      <trkpt lat="45.4356" lon="5.69976">
        <ele>755</ele>
        <time>2016-08-09T10:12:48.000Z</time>
      </trkpt>
      <trkpt lat="45.43563" lon="5.69977">
        <ele>755</ele>
        <time>2016-08-09T10:12:49.000Z</time>
      </trkpt>
      <trkpt lat="45.43566" lon="5.69979">
        <ele>755</ele>
        <time>2016-08-09T10:12:50.000Z</time>
      </trkpt>
      <trkpt lat="45.43569" lon="5.69983">
        <ele>754</ele>
        <time>2016-08-09T10:12:51.000Z</time>
      </trkpt>
      <trkpt lat="45.43574" lon="5.69995">
        <ele>753</ele>
        <time>2016-08-09T10:12:52.000Z</time>
      </trkpt>
      <trkpt lat="45.43577" lon="5.7">
        <ele>752</ele>
        <time>2016-08-09T10:12:53.000Z</time>
      </trkpt>
      <trkpt lat="45.4358" lon="5.70005">
        <ele>749</ele>
        <time>2016-08-09T10:12:54.000Z</time>
      </trkpt>
      <trkpt lat="45.43584" lon="5.70011">
        <ele>747</ele>
        <time>2016-08-09T10:12:55.000Z</time>
      </trkpt>
      <trkpt lat="45.43587" lon="5.70019">
        <ele>746</ele>
        <time>2016-08-09T10:12:56.000Z</time>
      </trkpt>
      <trkpt lat="45.43587" lon="5.7003">
        <ele>744</ele>
        <time>2016-08-09T10:12:57.000Z</time>
      </trkpt>
      <trkpt lat="45.43591" lon="5.70038">
        <ele>742</ele>
        <time>2016-08-09T10:12:58.000Z</time>
      </trkpt>
      <trkpt lat="45.43596" lon="5.7005">
        <ele>741</ele>
        <time>2016-08-09T10:12:59.000Z</time>
      </trkpt>
      <trkpt lat="45.43599" lon="5.7006">
        <ele>740</ele>
        <time>2016-08-09T10:13:00.000Z</time>
      </trkpt>
      <trkpt lat="45.43602" lon="5.70068">
        <ele>740</ele>
        <time>2016-08-09T10:13:01.000Z</time>
      </trkpt>
      <trkpt lat="45.43605" lon="5.70075">
        <ele>739</ele>
        <time>2016-08-09T10:13:02.000Z</time>
      </trkpt>
      <trkpt lat="45.43607" lon="5.70085">
        <ele>733</ele>
        <time>2016-08-09T10:13:03.000Z</time>
      </trkpt>
      <trkpt lat="45.4361" lon="5.70095">
        <ele>732</ele>
        <time>2016-08-09T10:13:04.000Z</time>
      </trkpt>
      <trkpt lat="45.43613" lon="5.70103">
        <ele>732</ele>
        <time>2016-08-09T10:13:05.000Z</time>
      </trkpt>
      <trkpt lat="45.43617" lon="5.70111">
        <ele>731</ele>
        <time>2016-08-09T10:13:06.000Z</time>
      </trkpt>
      <trkpt lat="45.4362" lon="5.70119">
        <ele>731</ele>
        <time>2016-08-09T10:13:07.000Z</time>
      </trkpt>
      <trkpt lat="45.43622" lon="5.70128">
        <ele>730</ele>
        <time>2016-08-09T10:13:08.000Z</time>
      </trkpt>
      <trkpt lat="45.43618" lon="5.7014">
        <ele>729</ele>
        <time>2016-08-09T10:13:09.000Z</time>
      </trkpt>
      <trkpt lat="45.43615" lon="5.70149">
        <ele>729</ele>
        <time>2016-08-09T10:13:10.000Z</time>
      </trkpt>
      <trkpt lat="45.43614" lon="5.70157">
        <ele>728</ele>
        <time>2016-08-09T10:13:11.000Z</time>
      </trkpt>
      <trkpt lat="45.43611" lon="5.70165">
        <ele>728</ele>
        <time>2016-08-09T10:13:12.000Z</time>
      </trkpt>
      <trkpt lat="45.4361" lon="5.70171">
        <ele>722</ele>
        <time>2016-08-09T10:13:13.000Z</time>
      </trkpt>
      <trkpt lat="45.43608" lon="5.70176">
        <ele>722</ele>
        <time>2016-08-09T10:13:14.000Z</time>
      </trkpt>
      <trkpt lat="45.43606" lon="5.70181">
        <ele>722</ele>
        <time>2016-08-09T10:13:15.000Z</time>
      </trkpt>
      <trkpt lat="45.43606" lon="5.70186">
        <ele>721</ele>
        <time>2016-08-09T10:13:16.000Z</time>
      </trkpt>
      <trkpt lat="45.43614" lon="5.70195">
        <ele>721</ele>
        <time>2016-08-09T10:13:17.000Z</time>
      </trkpt>
      <trkpt lat="45.4362" lon="5.70197">
        <ele>720</ele>
        <time>2016-08-09T10:13:18.000Z</time>
      </trkpt>
      <trkpt lat="45.43623" lon="5.70205">
        <ele>720</ele>
        <time>2016-08-09T10:13:19.000Z</time>
      </trkpt>
      <trkpt lat="45.43629" lon="5.70209">
        <ele>720</ele>
        <time>2016-08-09T10:13:20.000Z</time>
      </trkpt>
      <trkpt lat="45.43632" lon="5.70213">
        <ele>719</ele>
        <time>2016-08-09T10:13:21.000Z</time>
      </trkpt>
      <trkpt lat="45.43634" lon="5.70216">
        <ele>719</ele>
        <time>2016-08-09T10:13:22.000Z</time>
      </trkpt>
      <trkpt lat="45.43637" lon="5.70221">
        <ele>719</ele>
        <time>2016-08-09T10:13:23.000Z</time>
      </trkpt>
      <trkpt lat="45.43638" lon="5.70226">
        <ele>718</ele>
        <time>2016-08-09T10:13:24.000Z</time>
      </trkpt>
      <trkpt lat="45.43639" lon="5.70231">
        <ele>718</ele>
        <time>2016-08-09T10:13:25.000Z</time>
      </trkpt>
      <trkpt lat="45.43644" lon="5.70236">
        <ele>717</ele>
        <time>2016-08-09T10:13:26.000Z</time>
      </trkpt>
      <trkpt lat="45.43653" lon="5.70238">
        <ele>717</ele>
        <time>2016-08-09T10:13:27.000Z</time>
      </trkpt>
      <trkpt lat="45.43658" lon="5.70238">
        <ele>716</ele>
        <time>2016-08-09T10:13:28.000Z</time>
      </trkpt>
      <trkpt lat="45.43663" lon="5.70235">
        <ele>716</ele>
        <time>2016-08-09T10:13:29.000Z</time>
      </trkpt>
      <trkpt lat="45.43668" lon="5.70232">
        <ele>718</ele>
        <time>2016-08-09T10:13:30.000Z</time>
      </trkpt>
      <trkpt lat="45.43672" lon="5.7023">
        <ele>719</ele>
        <time>2016-08-09T10:13:31.000Z</time>
      </trkpt>
      <trkpt lat="45.43676" lon="5.7023">
        <ele>719</ele>
        <time>2016-08-09T10:13:32.000Z</time>
      </trkpt>
      <trkpt lat="45.43679" lon="5.70231">
        <ele>719</ele>
        <time>2016-08-09T10:13:33.000Z</time>
      </trkpt>
      <trkpt lat="45.43681" lon="5.70232">
        <ele>719</ele>
        <time>2016-08-09T10:13:34.000Z</time>
      </trkpt>
      <trkpt lat="45.43683" lon="5.70233">
        <ele>719</ele>
        <time>2016-08-09T10:13:35.000Z</time>
      </trkpt>
      <trkpt lat="45.43685" lon="5.70235">
        <ele>719</ele>
        <time>2016-08-09T10:13:36.000Z</time>
      </trkpt>
      <trkpt lat="45.43687" lon="5.70237">
        <ele>719</ele>
        <time>2016-08-09T10:13:37.000Z</time>
      </trkpt>
      <trkpt lat="45.43691" lon="5.70238">
        <ele>720</ele>
        <time>2016-08-09T10:13:38.000Z</time>
      </trkpt>
      <trkpt lat="45.43694" lon="5.7024">
        <ele>720</ele>
        <time>2016-08-09T10:13:39.000Z</time>
      </trkpt>
      <trkpt lat="45.43696" lon="5.70242">
        <ele>720</ele>
        <time>2016-08-09T10:13:39.999Z</time>
      </trkpt>
      <trkpt lat="45.43699" lon="5.70244">
        <ele>720</ele>
        <time>2016-08-09T10:13:41.001Z</time>
      </trkpt>
      <trkpt lat="45.43701" lon="5.70246">
        <ele>721</ele>
        <time>2016-08-09T10:13:42.000Z</time>
      </trkpt>
      <trkpt lat="45.43704" lon="5.70248">
        <ele>721</ele>
        <time>2016-08-09T10:13:43.000Z</time>
      </trkpt>
      <trkpt lat="45.43707" lon="5.70251">
        <ele>715</ele>
        <time>2016-08-09T10:13:44.000Z</time>
      </trkpt>
      <trkpt lat="45.43714" lon="5.70256">
        <ele>715</ele>
        <time>2016-08-09T10:13:45.000Z</time>
      </trkpt>
      <trkpt lat="45.43718" lon="5.70261">
        <ele>716</ele>
        <time>2016-08-09T10:13:46.000Z</time>
      </trkpt>
      <trkpt lat="45.43721" lon="5.70264">
        <ele>716</ele>
        <time>2016-08-09T10:13:47.000Z</time>
      </trkpt>
      <trkpt lat="45.43723" lon="5.70268">
        <ele>716</ele>
        <time>2016-08-09T10:13:48.000Z</time>
      </trkpt>
      <trkpt lat="45.43726" lon="5.70272">
        <ele>716</ele>
        <time>2016-08-09T10:13:48.999Z</time>
      </trkpt>
      <trkpt lat="45.43726" lon="5.70278">
        <ele>715</ele>
        <time>2016-08-09T10:13:50.000Z</time>
      </trkpt>
      <trkpt lat="45.43729" lon="5.70282">
        <ele>715</ele>
        <time>2016-08-09T10:13:51.000Z</time>
      </trkpt>
      <trkpt lat="45.43732" lon="5.70287">
        <ele>715</ele>
        <time>2016-08-09T10:13:52.000Z</time>
      </trkpt>
      <trkpt lat="45.43738" lon="5.70292">
        <ele>715</ele>
        <time>2016-08-09T10:13:53.000Z</time>
      </trkpt>
      <trkpt lat="45.4374" lon="5.70295">
        <ele>714</ele>
        <time>2016-08-09T10:13:54.000Z</time>
      </trkpt>
      <trkpt lat="45.43745" lon="5.703">
        <ele>714</ele>
        <time>2016-08-09T10:13:55.000Z</time>
      </trkpt>
      <trkpt lat="45.4375" lon="5.70304">
        <ele>717</ele>
        <time>2016-08-09T10:13:56.000Z</time>
      </trkpt>
      <trkpt lat="45.43755" lon="5.70309">
        <ele>717</ele>
        <time>2016-08-09T10:13:57.000Z</time>
      </trkpt>
      <trkpt lat="45.43759" lon="5.70309">
        <ele>717</ele>
        <time>2016-08-09T10:13:59.000Z</time>
      </trkpt>
      <trkpt lat="45.43767" lon="5.70309">
        <ele>717</ele>
        <time>2016-08-09T10:14:00.000Z</time>
      </trkpt>
      <trkpt lat="45.43772" lon="5.7031">
        <ele>717</ele>
        <time>2016-08-09T10:14:01.000Z</time>
      </trkpt>
      <trkpt lat="45.43775" lon="5.70306">
        <ele>718</ele>
        <time>2016-08-09T10:14:03.000Z</time>
      </trkpt>
      <trkpt lat="45.43777" lon="5.70308">
        <ele>718</ele>
        <time>2016-08-09T10:14:04.000Z</time>
      </trkpt>
      <trkpt lat="45.4378" lon="5.70309">
        <ele>718</ele>
        <time>2016-08-09T10:14:05.000Z</time>
      </trkpt>
      <trkpt lat="45.43785" lon="5.7031">
        <ele>718</ele>
        <time>2016-08-09T10:14:06.000Z</time>
      </trkpt>
      <trkpt lat="45.43783" lon="5.70317">
        <ele>717</ele>
        <time>2016-08-09T10:14:07.000Z</time>
      </trkpt>
      <trkpt lat="45.43784" lon="5.7032">
        <ele>717</ele>
        <time>2016-08-09T10:14:08.000Z</time>
      </trkpt>
      <trkpt lat="45.43787" lon="5.70324">
        <ele>717</ele>
        <time>2016-08-09T10:14:09.000Z</time>
      </trkpt>
      <trkpt lat="45.43791" lon="5.70328">
        <ele>717</ele>
        <time>2016-08-09T10:14:10.000Z</time>
      </trkpt>
      <trkpt lat="45.43793" lon="5.70333">
        <ele>717</ele>
        <time>2016-08-09T10:14:11.000Z</time>
      </trkpt>
      <trkpt lat="45.43795" lon="5.70337">
        <ele>709</ele>
        <time>2016-08-09T10:14:12.000Z</time>
      </trkpt>
      <trkpt lat="45.43798" lon="5.70341">
        <ele>709</ele>
        <time>2016-08-09T10:14:13.000Z</time>
      </trkpt>
      <trkpt lat="45.43801" lon="5.70346">
        <ele>709</ele>
        <time>2016-08-09T10:14:14.000Z</time>
      </trkpt>
      <trkpt lat="45.43804" lon="5.70351">
        <ele>708</ele>
        <time>2016-08-09T10:14:15.000Z</time>
      </trkpt>
      <trkpt lat="45.43807" lon="5.70355">
        <ele>708</ele>
        <time>2016-08-09T10:14:16.000Z</time>
      </trkpt>
      <trkpt lat="45.43809" lon="5.70359">
        <ele>708</ele>
        <time>2016-08-09T10:14:17.000Z</time>
      </trkpt>
      <trkpt lat="45.43811" lon="5.70362">
        <ele>707</ele>
        <time>2016-08-09T10:14:18.000Z</time>
      </trkpt>
      <trkpt lat="45.43813" lon="5.70365">
        <ele>707</ele>
        <time>2016-08-09T10:14:19.000Z</time>
      </trkpt>
      <trkpt lat="45.43814" lon="5.70367">
        <ele>707</ele>
        <time>2016-08-09T10:14:20.000Z</time>
      </trkpt>
      <trkpt lat="45.43814" lon="5.70363">
        <ele>707</ele>
        <time>2016-08-09T10:14:24.000Z</time>
      </trkpt>
      <trkpt lat="45.43814" lon="5.7036">
        <ele>708</ele>
        <time>2016-08-09T10:14:25.000Z</time>
      </trkpt>
      <trkpt lat="45.43818" lon="5.70361">
        <ele>708</ele>
        <time>2016-08-09T10:14:29.000Z</time>
      </trkpt>
      <trkpt lat="45.43819" lon="5.70361">
        <ele>708</ele>
        <time>2016-08-09T10:14:30.000Z</time>
      </trkpt>
      <trkpt lat="45.43823" lon="5.70362">
        <ele>708</ele>
        <time>2016-08-09T10:14:36.000Z</time>
      </trkpt>
      <trkpt lat="45.43824" lon="5.70362">
        <ele>708</ele>
        <time>2016-08-09T10:14:37.000Z</time>
      </trkpt>
      <trkpt lat="45.43825" lon="5.70363">
        <ele>708</ele>
        <time>2016-08-09T10:15:38.000Z</time>
      </trkpt>
    </trkseg>
  </trk>
</gpx>